<?xml version="1.0" encoding="UTF-8" standalone="no" ?>
<gpx xmlns="http://www.topografix.com/GPX/1/1" xmlns:xsi="http://www.w3.org/2001/XMLSchema-instance" xsi:schemaLocation="http://www.topografix.com/GPX/1/1 http://www.topografix.com/GPX/1/1/gpx.xsd" version="1.1" creator="VisuGPX - https://www.visugpx.com">
  <metadata>
    <name>[29/11/2015] Expédition dans la grand Nord</name>
    <desc><![CDATA[Randonnée VTT du club SpeedEure organisée par Fred
(An Nord d\'Evreux...)
38 km]]></desc>
  </metadata>
  <trk>
    <name><![CDATA[[29/11/2015] Expédition dans la grand Nord_1]]></name>
    <trkseg>
      <trkpt lat="49.02199" lon="1.14157">
        <ele>63.316109</ele>
        <time>2015-11-29T07:39:49Z</time>
      </trkpt>
      <trkpt lat="49.02199" lon="1.14161">
        <ele>63.316109</ele>
        <time>2015-11-29T07:39:50Z</time>
      </trkpt>
      <trkpt lat="49.022" lon="1.14179">
        <ele>63.278</ele>
        <time>2015-11-29T07:39:54Z</time>
      </trkpt>
      <trkpt lat="49.022" lon="1.14195">
        <ele>63.255222</ele>
        <time>2015-11-29T07:39:57Z</time>
      </trkpt>
      <trkpt lat="49.022" lon="1.14214">
        <ele>63.236454</ele>
        <time>2015-11-29T07:40:00Z</time>
      </trkpt>
      <trkpt lat="49.02201" lon="1.14234">
        <ele>63.220993</ele>
        <time>2015-11-29T07:40:03Z</time>
      </trkpt>
      <trkpt lat="49.02202" lon="1.14248">
        <ele>63.212231</ele>
        <time>2015-11-29T07:40:05Z</time>
      </trkpt>
      <trkpt lat="49.02203" lon="1.14268">
        <ele>63.201027</ele>
        <time>2015-11-29T07:40:08Z</time>
      </trkpt>
      <trkpt lat="49.02203" lon="1.14283">
        <ele>63.173912</ele>
        <time>2015-11-29T07:40:10Z</time>
      </trkpt>
      <trkpt lat="49.02204" lon="1.14299">
        <ele>63.12014</ele>
        <time>2015-11-29T07:40:12Z</time>
      </trkpt>
      <trkpt lat="49.02205" lon="1.14315">
        <ele>63.063061</ele>
        <time>2015-11-29T07:40:14Z</time>
      </trkpt>
      <trkpt lat="49.02206" lon="1.1433">
        <ele>63.012897</ele>
        <time>2015-11-29T07:40:16Z</time>
      </trkpt>
      <trkpt lat="49.02207" lon="1.14345">
        <ele>62.963623</ele>
        <time>2015-11-29T07:40:18Z</time>
      </trkpt>
      <trkpt lat="49.02207" lon="1.1436">
        <ele>62.915455</ele>
        <time>2015-11-29T07:40:20Z</time>
      </trkpt>
      <trkpt lat="49.02208" lon="1.14374">
        <ele>62.806084</ele>
        <time>2015-11-29T07:40:22Z</time>
      </trkpt>
      <trkpt lat="49.02209" lon="1.14394">
        <ele>62.602463</ele>
        <time>2015-11-29T07:40:25Z</time>
      </trkpt>
      <trkpt lat="49.0221" lon="1.14413">
        <ele>62.434685</ele>
        <time>2015-11-29T07:40:28Z</time>
      </trkpt>
      <trkpt lat="49.0221" lon="1.14433">
        <ele>62.291222</ele>
        <time>2015-11-29T07:40:31Z</time>
      </trkpt>
      <trkpt lat="49.02211" lon="1.14453">
        <ele>62.200001</ele>
        <time>2015-11-29T07:40:34Z</time>
      </trkpt>
      <trkpt lat="49.02212" lon="1.14468">
        <ele>62.099998</ele>
        <time>2015-11-29T07:40:36Z</time>
      </trkpt>
      <trkpt lat="49.02213" lon="1.14484">
        <ele>62</ele>
        <time>2015-11-29T07:40:38Z</time>
      </trkpt>
      <trkpt lat="49.02214" lon="1.14499">
        <ele>61.900002</ele>
        <time>2015-11-29T07:40:40Z</time>
      </trkpt>
      <trkpt lat="49.02214" lon="1.14513">
        <ele>61.700001</ele>
        <time>2015-11-29T07:40:42Z</time>
      </trkpt>
      <trkpt lat="49.02215" lon="1.14527">
        <ele>61.599998</ele>
        <time>2015-11-29T07:40:44Z</time>
      </trkpt>
      <trkpt lat="49.02216" lon="1.14541">
        <ele>61.5</ele>
        <time>2015-11-29T07:40:46Z</time>
      </trkpt>
      <trkpt lat="49.02216" lon="1.14555">
        <ele>61.400002</ele>
        <time>2015-11-29T07:40:48Z</time>
      </trkpt>
      <trkpt lat="49.02217" lon="1.14569">
        <ele>61.400002</ele>
        <time>2015-11-29T07:40:50Z</time>
      </trkpt>
      <trkpt lat="49.02217" lon="1.14583">
        <ele>61.299999</ele>
        <time>2015-11-29T07:40:52Z</time>
      </trkpt>
      <trkpt lat="49.02218" lon="1.14597">
        <ele>61.200001</ele>
        <time>2015-11-29T07:40:54Z</time>
      </trkpt>
      <trkpt lat="49.02219" lon="1.14611">
        <ele>61.099998</ele>
        <time>2015-11-29T07:40:56Z</time>
      </trkpt>
      <trkpt lat="49.02219" lon="1.14625">
        <ele>61.099998</ele>
        <time>2015-11-29T07:40:58Z</time>
      </trkpt>
      <trkpt lat="49.0222" lon="1.14639">
        <ele>61</ele>
        <time>2015-11-29T07:41:00Z</time>
      </trkpt>
      <trkpt lat="49.02221" lon="1.14654">
        <ele>61</ele>
        <time>2015-11-29T07:41:02Z</time>
      </trkpt>
      <trkpt lat="49.02222" lon="1.14668">
        <ele>60.900002</ele>
        <time>2015-11-29T07:41:04Z</time>
      </trkpt>
      <trkpt lat="49.02223" lon="1.14683">
        <ele>60.900002</ele>
        <time>2015-11-29T07:41:06Z</time>
      </trkpt>
      <trkpt lat="49.02224" lon="1.14697">
        <ele>60.900002</ele>
        <time>2015-11-29T07:41:08Z</time>
      </trkpt>
      <trkpt lat="49.02224" lon="1.14711">
        <ele>60.799999</ele>
        <time>2015-11-29T07:41:10Z</time>
      </trkpt>
      <trkpt lat="49.02225" lon="1.14726">
        <ele>60.799999</ele>
        <time>2015-11-29T07:41:12Z</time>
      </trkpt>
      <trkpt lat="49.02225" lon="1.14741">
        <ele>60.799999</ele>
        <time>2015-11-29T07:41:14Z</time>
      </trkpt>
      <trkpt lat="49.02226" lon="1.14755">
        <ele>60.799999</ele>
        <time>2015-11-29T07:41:16Z</time>
      </trkpt>
      <trkpt lat="49.02226" lon="1.1477">
        <ele>60.799999</ele>
        <time>2015-11-29T07:41:18Z</time>
      </trkpt>
      <trkpt lat="49.02227" lon="1.14785">
        <ele>60.799999</ele>
        <time>2015-11-29T07:41:20Z</time>
      </trkpt>
      <trkpt lat="49.02228" lon="1.148">
        <ele>60.799999</ele>
        <time>2015-11-29T07:41:22Z</time>
      </trkpt>
      <trkpt lat="49.02229" lon="1.14814">
        <ele>60.799999</ele>
        <time>2015-11-29T07:41:24Z</time>
      </trkpt>
      <trkpt lat="49.0223" lon="1.14829">
        <ele>60.900002</ele>
        <time>2015-11-29T07:41:26Z</time>
      </trkpt>
      <trkpt lat="49.0223" lon="1.14843">
        <ele>60.900002</ele>
        <time>2015-11-29T07:41:28Z</time>
      </trkpt>
      <trkpt lat="49.02231" lon="1.14857">
        <ele>61</ele>
        <time>2015-11-29T07:41:30Z</time>
      </trkpt>
      <trkpt lat="49.02234" lon="1.14875">
        <ele>61</ele>
        <time>2015-11-29T07:41:33Z</time>
      </trkpt>
      <trkpt lat="49.02244" lon="1.1488">
        <ele>61.099998</ele>
        <time>2015-11-29T07:41:36Z</time>
      </trkpt>
      <trkpt lat="49.02256" lon="1.14875">
        <ele>61.299999</ele>
        <time>2015-11-29T07:41:39Z</time>
      </trkpt>
      <trkpt lat="49.02265" lon="1.14871">
        <ele>61.400002</ele>
        <time>2015-11-29T07:41:41Z</time>
      </trkpt>
      <trkpt lat="49.02276" lon="1.14864">
        <ele>61.5</ele>
        <time>2015-11-29T07:41:44Z</time>
      </trkpt>
      <trkpt lat="49.02289" lon="1.14858">
        <ele>61.5</ele>
        <time>2015-11-29T07:41:47Z</time>
      </trkpt>
      <trkpt lat="49.02298" lon="1.14854">
        <ele>61.599998</ele>
        <time>2015-11-29T07:41:50Z</time>
      </trkpt>
      <trkpt lat="49.02307" lon="1.14848">
        <ele>61.799999</ele>
        <time>2015-11-29T07:41:54Z</time>
      </trkpt>
      <trkpt lat="49.02317" lon="1.14851">
        <ele>62</ele>
        <time>2015-11-29T07:42:01Z</time>
      </trkpt>
      <trkpt lat="49.02321" lon="1.14866">
        <ele>62.099998</ele>
        <time>2015-11-29T07:42:06Z</time>
      </trkpt>
      <trkpt lat="49.02323" lon="1.14881">
        <ele>62.099998</ele>
        <time>2015-11-29T07:42:10Z</time>
      </trkpt>
      <trkpt lat="49.02326" lon="1.14895">
        <ele>62.200001</ele>
        <time>2015-11-29T07:42:15Z</time>
      </trkpt>
      <trkpt lat="49.02332" lon="1.14908">
        <ele>62.200001</ele>
        <time>2015-11-29T07:42:21Z</time>
      </trkpt>
      <trkpt lat="49.02338" lon="1.14919">
        <ele>62.299999</ele>
        <time>2015-11-29T07:42:26Z</time>
      </trkpt>
      <trkpt lat="49.02341" lon="1.14934">
        <ele>62.700001</ele>
        <time>2015-11-29T07:42:55Z</time>
      </trkpt>
      <trkpt lat="49.02345" lon="1.14948">
        <ele>62.700001</ele>
        <time>2015-11-29T07:42:59Z</time>
      </trkpt>
      <trkpt lat="49.02351" lon="1.1496">
        <ele>62.700001</ele>
        <time>2015-11-29T07:43:02Z</time>
      </trkpt>
      <trkpt lat="49.02359" lon="1.1497">
        <ele>62.700001</ele>
        <time>2015-11-29T07:43:05Z</time>
      </trkpt>
      <trkpt lat="49.02369" lon="1.14977">
        <ele>62.700001</ele>
        <time>2015-11-29T07:43:08Z</time>
      </trkpt>
      <trkpt lat="49.02381" lon="1.1498">
        <ele>62.700001</ele>
        <time>2015-11-29T07:43:11Z</time>
      </trkpt>
      <trkpt lat="49.02393" lon="1.14978">
        <ele>62.599998</ele>
        <time>2015-11-29T07:43:14Z</time>
      </trkpt>
      <trkpt lat="49.02403" lon="1.14971">
        <ele>62.599998</ele>
        <time>2015-11-29T07:43:17Z</time>
      </trkpt>
      <trkpt lat="49.02412" lon="1.14962">
        <ele>62.599998</ele>
        <time>2015-11-29T07:43:20Z</time>
      </trkpt>
      <trkpt lat="49.02421" lon="1.14958">
        <ele>62.599998</ele>
        <time>2015-11-29T07:43:23Z</time>
      </trkpt>
      <trkpt lat="49.02431" lon="1.14953">
        <ele>62.599998</ele>
        <time>2015-11-29T07:43:26Z</time>
      </trkpt>
      <trkpt lat="49.02443" lon="1.14947">
        <ele>62.5</ele>
        <time>2015-11-29T07:43:29Z</time>
      </trkpt>
      <trkpt lat="49.02455" lon="1.14941">
        <ele>62.5</ele>
        <time>2015-11-29T07:43:32Z</time>
      </trkpt>
      <trkpt lat="49.02467" lon="1.14934">
        <ele>62.5</ele>
        <time>2015-11-29T07:43:35Z</time>
      </trkpt>
      <trkpt lat="49.02478" lon="1.14926">
        <ele>62.5</ele>
        <time>2015-11-29T07:43:38Z</time>
      </trkpt>
      <trkpt lat="49.02488" lon="1.14918">
        <ele>62.5</ele>
        <time>2015-11-29T07:43:41Z</time>
      </trkpt>
      <trkpt lat="49.02498" lon="1.1491">
        <ele>62.5</ele>
        <time>2015-11-29T07:43:44Z</time>
      </trkpt>
      <trkpt lat="49.0251" lon="1.14904">
        <ele>62.5</ele>
        <time>2015-11-29T07:43:47Z</time>
      </trkpt>
      <trkpt lat="49.02522" lon="1.14896">
        <ele>62.5</ele>
        <time>2015-11-29T07:43:50Z</time>
      </trkpt>
      <trkpt lat="49.02534" lon="1.14887">
        <ele>62.5</ele>
        <time>2015-11-29T07:43:53Z</time>
      </trkpt>
      <trkpt lat="49.02542" lon="1.14881">
        <ele>62.400002</ele>
        <time>2015-11-29T07:43:55Z</time>
      </trkpt>
      <trkpt lat="49.02554" lon="1.14872">
        <ele>62.400002</ele>
        <time>2015-11-29T07:43:58Z</time>
      </trkpt>
      <trkpt lat="49.02566" lon="1.14865">
        <ele>62.299999</ele>
        <time>2015-11-29T07:44:01Z</time>
      </trkpt>
      <trkpt lat="49.02575" lon="1.14862">
        <ele>62.299999</ele>
        <time>2015-11-29T07:44:03Z</time>
      </trkpt>
      <trkpt lat="49.02584" lon="1.14859">
        <ele>62.299999</ele>
        <time>2015-11-29T07:44:05Z</time>
      </trkpt>
      <trkpt lat="49.02597" lon="1.14857">
        <ele>62.299999</ele>
        <time>2015-11-29T07:44:08Z</time>
      </trkpt>
      <trkpt lat="49.02607" lon="1.14859">
        <ele>62.200001</ele>
        <time>2015-11-29T07:44:11Z</time>
      </trkpt>
      <trkpt lat="49.02616" lon="1.14861">
        <ele>62.200001</ele>
        <time>2015-11-29T07:44:14Z</time>
      </trkpt>
      <trkpt lat="49.02627" lon="1.14867">
        <ele>62.200001</ele>
        <time>2015-11-29T07:44:17Z</time>
      </trkpt>
      <trkpt lat="49.02635" lon="1.14873">
        <ele>62.299999</ele>
        <time>2015-11-29T07:44:19Z</time>
      </trkpt>
      <trkpt lat="49.02643" lon="1.14883">
        <ele>62.299999</ele>
        <time>2015-11-29T07:44:21Z</time>
      </trkpt>
      <trkpt lat="49.02649" lon="1.14895">
        <ele>62.200001</ele>
        <time>2015-11-29T07:44:23Z</time>
      </trkpt>
      <trkpt lat="49.02655" lon="1.14908">
        <ele>62.200001</ele>
        <time>2015-11-29T07:44:25Z</time>
      </trkpt>
      <trkpt lat="49.0266" lon="1.14919">
        <ele>62.099998</ele>
        <time>2015-11-29T07:44:27Z</time>
      </trkpt>
      <trkpt lat="49.02666" lon="1.14935">
        <ele>62</ele>
        <time>2015-11-29T07:44:30Z</time>
      </trkpt>
      <trkpt lat="49.02672" lon="1.14948">
        <ele>61.900002</ele>
        <time>2015-11-29T07:44:33Z</time>
      </trkpt>
      <trkpt lat="49.02678" lon="1.14963">
        <ele>61.799999</ele>
        <time>2015-11-29T07:44:36Z</time>
      </trkpt>
      <trkpt lat="49.02684" lon="1.14978">
        <ele>61.700001</ele>
        <time>2015-11-29T07:44:39Z</time>
      </trkpt>
      <trkpt lat="49.02689" lon="1.14992">
        <ele>61.599998</ele>
        <time>2015-11-29T07:44:42Z</time>
      </trkpt>
      <trkpt lat="49.02695" lon="1.15005">
        <ele>61.599998</ele>
        <time>2015-11-29T07:44:45Z</time>
      </trkpt>
      <trkpt lat="49.02702" lon="1.15017">
        <ele>61.5</ele>
        <time>2015-11-29T07:44:49Z</time>
      </trkpt>
      <trkpt lat="49.02707" lon="1.15029">
        <ele>61.5</ele>
        <time>2015-11-29T07:44:52Z</time>
      </trkpt>
      <trkpt lat="49.02714" lon="1.15044">
        <ele>61.400002</ele>
        <time>2015-11-29T07:44:55Z</time>
      </trkpt>
      <trkpt lat="49.02723" lon="1.15058">
        <ele>61.400002</ele>
        <time>2015-11-29T07:44:58Z</time>
      </trkpt>
      <trkpt lat="49.02729" lon="1.1507">
        <ele>61.400002</ele>
        <time>2015-11-29T07:45:00Z</time>
      </trkpt>
      <trkpt lat="49.02735" lon="1.15081">
        <ele>61.400002</ele>
        <time>2015-11-29T07:45:02Z</time>
      </trkpt>
      <trkpt lat="49.02741" lon="1.15091">
        <ele>61.400002</ele>
        <time>2015-11-29T07:45:04Z</time>
      </trkpt>
      <trkpt lat="49.02749" lon="1.15107">
        <ele>61.400002</ele>
        <time>2015-11-29T07:45:07Z</time>
      </trkpt>
      <trkpt lat="49.02756" lon="1.1512">
        <ele>61.400002</ele>
        <time>2015-11-29T07:45:10Z</time>
      </trkpt>
      <trkpt lat="49.02762" lon="1.15132">
        <ele>61.400002</ele>
        <time>2015-11-29T07:45:13Z</time>
      </trkpt>
      <trkpt lat="49.02767" lon="1.15144">
        <ele>61.400002</ele>
        <time>2015-11-29T07:45:16Z</time>
      </trkpt>
      <trkpt lat="49.02773" lon="1.1516">
        <ele>61.299999</ele>
        <time>2015-11-29T07:45:20Z</time>
      </trkpt>
      <trkpt lat="49.02776" lon="1.15173">
        <ele>61.299999</ele>
        <time>2015-11-29T07:45:23Z</time>
      </trkpt>
      <trkpt lat="49.02771" lon="1.15188">
        <ele>61.200001</ele>
        <time>2015-11-29T07:45:27Z</time>
      </trkpt>
      <trkpt lat="49.02765" lon="1.15202">
        <ele>61.099998</ele>
        <time>2015-11-29T07:45:30Z</time>
      </trkpt>
      <trkpt lat="49.02769" lon="1.15219">
        <ele>61</ele>
        <time>2015-11-29T07:45:33Z</time>
      </trkpt>
      <trkpt lat="49.02773" lon="1.15231">
        <ele>60.900002</ele>
        <time>2015-11-29T07:45:35Z</time>
      </trkpt>
      <trkpt lat="49.02778" lon="1.15243">
        <ele>60.900002</ele>
        <time>2015-11-29T07:45:37Z</time>
      </trkpt>
      <trkpt lat="49.02783" lon="1.15255">
        <ele>60.799999</ele>
        <time>2015-11-29T07:45:39Z</time>
      </trkpt>
      <trkpt lat="49.02791" lon="1.15272">
        <ele>60.799999</ele>
        <time>2015-11-29T07:45:42Z</time>
      </trkpt>
      <trkpt lat="49.02797" lon="1.15284">
        <ele>60.700001</ele>
        <time>2015-11-29T07:45:44Z</time>
      </trkpt>
      <trkpt lat="49.02803" lon="1.15294">
        <ele>60.700001</ele>
        <time>2015-11-29T07:45:46Z</time>
      </trkpt>
      <trkpt lat="49.02811" lon="1.15305">
        <ele>60.599998</ele>
        <time>2015-11-29T07:45:48Z</time>
      </trkpt>
      <trkpt lat="49.02818" lon="1.15315">
        <ele>60.5</ele>
        <time>2015-11-29T07:45:50Z</time>
      </trkpt>
      <trkpt lat="49.02826" lon="1.15323">
        <ele>60.400002</ele>
        <time>2015-11-29T07:45:52Z</time>
      </trkpt>
      <trkpt lat="49.02836" lon="1.15336">
        <ele>60.299999</ele>
        <time>2015-11-29T07:45:55Z</time>
      </trkpt>
      <trkpt lat="49.02844" lon="1.15344">
        <ele>60.200001</ele>
        <time>2015-11-29T07:45:57Z</time>
      </trkpt>
      <trkpt lat="49.02852" lon="1.15353">
        <ele>60.200001</ele>
        <time>2015-11-29T07:45:59Z</time>
      </trkpt>
      <trkpt lat="49.02861" lon="1.15362">
        <ele>60.099998</ele>
        <time>2015-11-29T07:46:01Z</time>
      </trkpt>
      <trkpt lat="49.02869" lon="1.15371">
        <ele>60</ele>
        <time>2015-11-29T07:46:03Z</time>
      </trkpt>
      <trkpt lat="49.02878" lon="1.15379">
        <ele>60</ele>
        <time>2015-11-29T07:46:05Z</time>
      </trkpt>
      <trkpt lat="49.02886" lon="1.15389">
        <ele>60</ele>
        <time>2015-11-29T07:46:07Z</time>
      </trkpt>
      <trkpt lat="49.02893" lon="1.15398">
        <ele>59.900002</ele>
        <time>2015-11-29T07:46:09Z</time>
      </trkpt>
      <trkpt lat="49.02902" lon="1.15406">
        <ele>59.900002</ele>
        <time>2015-11-29T07:46:11Z</time>
      </trkpt>
      <trkpt lat="49.0291" lon="1.15413">
        <ele>59.900002</ele>
        <time>2015-11-29T07:46:13Z</time>
      </trkpt>
      <trkpt lat="49.02919" lon="1.1542">
        <ele>59.799999</ele>
        <time>2015-11-29T07:46:15Z</time>
      </trkpt>
      <trkpt lat="49.02928" lon="1.15428">
        <ele>59.799999</ele>
        <time>2015-11-29T07:46:17Z</time>
      </trkpt>
      <trkpt lat="49.02936" lon="1.15436">
        <ele>59.799999</ele>
        <time>2015-11-29T07:46:19Z</time>
      </trkpt>
      <trkpt lat="49.02945" lon="1.15444">
        <ele>59.799999</ele>
        <time>2015-11-29T07:46:21Z</time>
      </trkpt>
      <trkpt lat="49.02953" lon="1.15452">
        <ele>59.799999</ele>
        <time>2015-11-29T07:46:23Z</time>
      </trkpt>
      <trkpt lat="49.02961" lon="1.15459">
        <ele>59.700001</ele>
        <time>2015-11-29T07:46:25Z</time>
      </trkpt>
      <trkpt lat="49.0297" lon="1.15467">
        <ele>59.700001</ele>
        <time>2015-11-29T07:46:27Z</time>
      </trkpt>
      <trkpt lat="49.02979" lon="1.15474">
        <ele>59.700001</ele>
        <time>2015-11-29T07:46:29Z</time>
      </trkpt>
      <trkpt lat="49.02988" lon="1.15481">
        <ele>59.599998</ele>
        <time>2015-11-29T07:46:31Z</time>
      </trkpt>
      <trkpt lat="49.02996" lon="1.15488">
        <ele>59.599998</ele>
        <time>2015-11-29T07:46:33Z</time>
      </trkpt>
      <trkpt lat="49.03005" lon="1.15495">
        <ele>59.5</ele>
        <time>2015-11-29T07:46:35Z</time>
      </trkpt>
      <trkpt lat="49.03014" lon="1.15502">
        <ele>59.5</ele>
        <time>2015-11-29T07:46:37Z</time>
      </trkpt>
      <trkpt lat="49.03023" lon="1.15509">
        <ele>59.400002</ele>
        <time>2015-11-29T07:46:39Z</time>
      </trkpt>
      <trkpt lat="49.03032" lon="1.15515">
        <ele>59.400002</ele>
        <time>2015-11-29T07:46:41Z</time>
      </trkpt>
      <trkpt lat="49.03041" lon="1.15521">
        <ele>59.299999</ele>
        <time>2015-11-29T07:46:43Z</time>
      </trkpt>
      <trkpt lat="49.03051" lon="1.15526">
        <ele>59.200001</ele>
        <time>2015-11-29T07:46:45Z</time>
      </trkpt>
      <trkpt lat="49.03061" lon="1.15531">
        <ele>59.200001</ele>
        <time>2015-11-29T07:46:47Z</time>
      </trkpt>
      <trkpt lat="49.03071" lon="1.15536">
        <ele>59.099998</ele>
        <time>2015-11-29T07:46:49Z</time>
      </trkpt>
      <trkpt lat="49.0308" lon="1.15541">
        <ele>59</ele>
        <time>2015-11-29T07:46:51Z</time>
      </trkpt>
      <trkpt lat="49.0309" lon="1.15545">
        <ele>58.900002</ele>
        <time>2015-11-29T07:46:53Z</time>
      </trkpt>
      <trkpt lat="49.03099" lon="1.1555">
        <ele>58.799999</ele>
        <time>2015-11-29T07:46:55Z</time>
      </trkpt>
      <trkpt lat="49.03109" lon="1.15555">
        <ele>58.799999</ele>
        <time>2015-11-29T07:46:57Z</time>
      </trkpt>
      <trkpt lat="49.03118" lon="1.15559">
        <ele>58.700001</ele>
        <time>2015-11-29T07:46:59Z</time>
      </trkpt>
      <trkpt lat="49.03127" lon="1.15564">
        <ele>58.700001</ele>
        <time>2015-11-29T07:47:01Z</time>
      </trkpt>
      <trkpt lat="49.03136" lon="1.15568">
        <ele>58.599998</ele>
        <time>2015-11-29T07:47:03Z</time>
      </trkpt>
      <trkpt lat="49.03145" lon="1.15573">
        <ele>58.5</ele>
        <time>2015-11-29T07:47:05Z</time>
      </trkpt>
      <trkpt lat="49.03155" lon="1.15578">
        <ele>58.5</ele>
        <time>2015-11-29T07:47:07Z</time>
      </trkpt>
      <trkpt lat="49.03164" lon="1.15583">
        <ele>58.400002</ele>
        <time>2015-11-29T07:47:09Z</time>
      </trkpt>
      <trkpt lat="49.03174" lon="1.15587">
        <ele>58.400002</ele>
        <time>2015-11-29T07:47:11Z</time>
      </trkpt>
      <trkpt lat="49.03183" lon="1.15591">
        <ele>58.299999</ele>
        <time>2015-11-29T07:47:13Z</time>
      </trkpt>
      <trkpt lat="49.03192" lon="1.15596">
        <ele>58.299999</ele>
        <time>2015-11-29T07:47:15Z</time>
      </trkpt>
      <trkpt lat="49.03199" lon="1.15603">
        <ele>58.200001</ele>
        <time>2015-11-29T07:47:17Z</time>
      </trkpt>
      <trkpt lat="49.03208" lon="1.15617">
        <ele>58.200001</ele>
        <time>2015-11-29T07:47:20Z</time>
      </trkpt>
      <trkpt lat="49.03214" lon="1.15631">
        <ele>58.099998</ele>
        <time>2015-11-29T07:47:23Z</time>
      </trkpt>
      <trkpt lat="49.03218" lon="1.15643">
        <ele>58</ele>
        <time>2015-11-29T07:47:33Z</time>
      </trkpt>
      <trkpt lat="49.03223" lon="1.15655">
        <ele>58</ele>
        <time>2015-11-29T07:47:41Z</time>
      </trkpt>
      <trkpt lat="49.03234" lon="1.15663">
        <ele>58</ele>
        <time>2015-11-29T07:47:45Z</time>
      </trkpt>
      <trkpt lat="49.03244" lon="1.15656">
        <ele>57.900002</ele>
        <time>2015-11-29T07:47:48Z</time>
      </trkpt>
      <trkpt lat="49.03252" lon="1.15641">
        <ele>57.900002</ele>
        <time>2015-11-29T07:47:51Z</time>
      </trkpt>
      <trkpt lat="49.03257" lon="1.15629">
        <ele>57.900002</ele>
        <time>2015-11-29T07:47:53Z</time>
      </trkpt>
      <trkpt lat="49.03265" lon="1.15613">
        <ele>57.900002</ele>
        <time>2015-11-29T07:47:56Z</time>
      </trkpt>
      <trkpt lat="49.03271" lon="1.15596">
        <ele>57.900002</ele>
        <time>2015-11-29T07:47:59Z</time>
      </trkpt>
      <trkpt lat="49.03278" lon="1.15586">
        <ele>57.900002</ele>
        <time>2015-11-29T07:48:01Z</time>
      </trkpt>
      <trkpt lat="49.03286" lon="1.15578">
        <ele>57.900002</ele>
        <time>2015-11-29T07:48:03Z</time>
      </trkpt>
      <trkpt lat="49.03297" lon="1.1557">
        <ele>58</ele>
        <time>2015-11-29T07:48:06Z</time>
      </trkpt>
      <trkpt lat="49.03309" lon="1.15566">
        <ele>58.099998</ele>
        <time>2015-11-29T07:48:09Z</time>
      </trkpt>
      <trkpt lat="49.03323" lon="1.15567">
        <ele>58.099998</ele>
        <time>2015-11-29T07:48:12Z</time>
      </trkpt>
      <trkpt lat="49.03333" lon="1.15569">
        <ele>58.200001</ele>
        <time>2015-11-29T07:48:14Z</time>
      </trkpt>
      <trkpt lat="49.03343" lon="1.1557">
        <ele>58.200001</ele>
        <time>2015-11-29T07:48:16Z</time>
      </trkpt>
      <trkpt lat="49.03355" lon="1.15573">
        <ele>58.200001</ele>
        <time>2015-11-29T07:48:19Z</time>
      </trkpt>
      <trkpt lat="49.03364" lon="1.15574">
        <ele>58.299999</ele>
        <time>2015-11-29T07:48:24Z</time>
      </trkpt>
      <trkpt lat="49.03373" lon="1.15568">
        <ele>58.299999</ele>
        <time>2015-11-29T07:48:29Z</time>
      </trkpt>
      <trkpt lat="49.03386" lon="1.15567">
        <ele>58.299999</ele>
        <time>2015-11-29T07:48:32Z</time>
      </trkpt>
      <trkpt lat="49.03398" lon="1.15564">
        <ele>58.299999</ele>
        <time>2015-11-29T07:48:35Z</time>
      </trkpt>
      <trkpt lat="49.03409" lon="1.15562">
        <ele>58.299999</ele>
        <time>2015-11-29T07:48:38Z</time>
      </trkpt>
      <trkpt lat="49.0342" lon="1.15559">
        <ele>58.400002</ele>
        <time>2015-11-29T07:48:41Z</time>
      </trkpt>
      <trkpt lat="49.0343" lon="1.15556">
        <ele>58.400002</ele>
        <time>2015-11-29T07:48:44Z</time>
      </trkpt>
      <trkpt lat="49.0344" lon="1.15553">
        <ele>58.400002</ele>
        <time>2015-11-29T07:48:47Z</time>
      </trkpt>
      <trkpt lat="49.0345" lon="1.15549">
        <ele>58.5</ele>
        <time>2015-11-29T07:48:51Z</time>
      </trkpt>
      <trkpt lat="49.0346" lon="1.15547">
        <ele>58.599998</ele>
        <time>2015-11-29T07:48:56Z</time>
      </trkpt>
      <trkpt lat="49.03468" lon="1.15536">
        <ele>58.700001</ele>
        <time>2015-11-29T07:49:00Z</time>
      </trkpt>
      <trkpt lat="49.03471" lon="1.15522">
        <ele>58.799999</ele>
        <time>2015-11-29T07:49:03Z</time>
      </trkpt>
      <trkpt lat="49.03473" lon="1.15508">
        <ele>59</ele>
        <time>2015-11-29T07:49:06Z</time>
      </trkpt>
      <trkpt lat="49.03474" lon="1.15493">
        <ele>59.299999</ele>
        <time>2015-11-29T07:49:09Z</time>
      </trkpt>
      <trkpt lat="49.03471" lon="1.15479">
        <ele>59.700001</ele>
        <time>2015-11-29T07:49:12Z</time>
      </trkpt>
      <trkpt lat="49.03467" lon="1.15466">
        <ele>60.099998</ele>
        <time>2015-11-29T07:49:15Z</time>
      </trkpt>
      <trkpt lat="49.03463" lon="1.15453">
        <ele>60.5</ele>
        <time>2015-11-29T07:49:18Z</time>
      </trkpt>
      <trkpt lat="49.03458" lon="1.15441">
        <ele>61</ele>
        <time>2015-11-29T07:49:21Z</time>
      </trkpt>
      <trkpt lat="49.03454" lon="1.15429">
        <ele>61.599998</ele>
        <time>2015-11-29T07:49:24Z</time>
      </trkpt>
      <trkpt lat="49.03449" lon="1.15416">
        <ele>62.099998</ele>
        <time>2015-11-29T07:49:27Z</time>
      </trkpt>
      <trkpt lat="49.03444" lon="1.15404">
        <ele>62.700001</ele>
        <time>2015-11-29T07:49:30Z</time>
      </trkpt>
      <trkpt lat="49.03438" lon="1.15388">
        <ele>63.400002</ele>
        <time>2015-11-29T07:49:34Z</time>
      </trkpt>
      <trkpt lat="49.03432" lon="1.15373">
        <ele>64.099998</ele>
        <time>2015-11-29T07:49:38Z</time>
      </trkpt>
      <trkpt lat="49.03427" lon="1.15357">
        <ele>64.900002</ele>
        <time>2015-11-29T07:49:42Z</time>
      </trkpt>
      <trkpt lat="49.03422" lon="1.15344">
        <ele>65.599998</ele>
        <time>2015-11-29T07:49:45Z</time>
      </trkpt>
      <trkpt lat="49.03417" lon="1.15331">
        <ele>66.199997</ele>
        <time>2015-11-29T07:49:48Z</time>
      </trkpt>
      <trkpt lat="49.03413" lon="1.15314">
        <ele>67</ele>
        <time>2015-11-29T07:49:52Z</time>
      </trkpt>
      <trkpt lat="49.03411" lon="1.15298">
        <ele>67.900002</ele>
        <time>2015-11-29T07:49:56Z</time>
      </trkpt>
      <trkpt lat="49.0341" lon="1.15283">
        <ele>68.599998</ele>
        <time>2015-11-29T07:50:00Z</time>
      </trkpt>
      <trkpt lat="49.03408" lon="1.15267">
        <ele>69.5</ele>
        <time>2015-11-29T07:50:04Z</time>
      </trkpt>
      <trkpt lat="49.03407" lon="1.15253">
        <ele>70.300003</ele>
        <time>2015-11-29T07:50:08Z</time>
      </trkpt>
      <trkpt lat="49.03407" lon="1.15237">
        <ele>71.199997</ele>
        <time>2015-11-29T07:50:13Z</time>
      </trkpt>
      <trkpt lat="49.03406" lon="1.15221">
        <ele>71.900002</ele>
        <time>2015-11-29T07:50:17Z</time>
      </trkpt>
      <trkpt lat="49.03407" lon="1.15205">
        <ele>72.5</ele>
        <time>2015-11-29T07:50:21Z</time>
      </trkpt>
      <trkpt lat="49.03407" lon="1.15189">
        <ele>73.199997</ele>
        <time>2015-11-29T07:50:25Z</time>
      </trkpt>
      <trkpt lat="49.03408" lon="1.15173">
        <ele>73.800003</ele>
        <time>2015-11-29T07:50:29Z</time>
      </trkpt>
      <trkpt lat="49.03408" lon="1.15159">
        <ele>74.199997</ele>
        <time>2015-11-29T07:50:32Z</time>
      </trkpt>
      <trkpt lat="49.03411" lon="1.15142">
        <ele>74.800003</ele>
        <time>2015-11-29T07:50:36Z</time>
      </trkpt>
      <trkpt lat="49.03412" lon="1.15124">
        <ele>75.400002</ele>
        <time>2015-11-29T07:50:40Z</time>
      </trkpt>
      <trkpt lat="49.03413" lon="1.15109">
        <ele>76.199997</ele>
        <time>2015-11-29T07:50:44Z</time>
      </trkpt>
      <trkpt lat="49.03415" lon="1.15094">
        <ele>76.800003</ele>
        <time>2015-11-29T07:50:48Z</time>
      </trkpt>
      <trkpt lat="49.03417" lon="1.15078">
        <ele>77.5</ele>
        <time>2015-11-29T07:50:52Z</time>
      </trkpt>
      <trkpt lat="49.03419" lon="1.15061">
        <ele>78.300003</ele>
        <time>2015-11-29T07:50:56Z</time>
      </trkpt>
      <trkpt lat="49.03421" lon="1.15047">
        <ele>79.099998</ele>
        <time>2015-11-29T07:51:00Z</time>
      </trkpt>
      <trkpt lat="49.03416" lon="1.15034">
        <ele>80.099998</ele>
        <time>2015-11-29T07:51:05Z</time>
      </trkpt>
      <trkpt lat="49.03406" lon="1.1503">
        <ele>81.199997</ele>
        <time>2015-11-29T07:51:10Z</time>
      </trkpt>
      <trkpt lat="49.03398" lon="1.1504">
        <ele>82.5</ele>
        <time>2015-11-29T07:51:16Z</time>
      </trkpt>
      <trkpt lat="49.0339" lon="1.15048">
        <ele>83.300003</ele>
        <time>2015-11-29T07:51:21Z</time>
      </trkpt>
      <trkpt lat="49.03382" lon="1.15056">
        <ele>84</ele>
        <time>2015-11-29T07:51:26Z</time>
      </trkpt>
      <trkpt lat="49.03373" lon="1.15065">
        <ele>84.900002</ele>
        <time>2015-11-29T07:51:32Z</time>
      </trkpt>
      <trkpt lat="49.03365" lon="1.15075">
        <ele>86</ele>
        <time>2015-11-29T07:51:38Z</time>
      </trkpt>
      <trkpt lat="49.0336" lon="1.15087">
        <ele>86.900002</ele>
        <time>2015-11-29T07:51:43Z</time>
      </trkpt>
      <trkpt lat="49.03355" lon="1.15099">
        <ele>87.599998</ele>
        <time>2015-11-29T07:51:48Z</time>
      </trkpt>
      <trkpt lat="49.03353" lon="1.15113">
        <ele>88.199997</ele>
        <time>2015-11-29T07:51:53Z</time>
      </trkpt>
      <trkpt lat="49.03349" lon="1.15126">
        <ele>88.800003</ele>
        <time>2015-11-29T07:51:57Z</time>
      </trkpt>
      <trkpt lat="49.03349" lon="1.15142">
        <ele>89.5</ele>
        <time>2015-11-29T07:52:02Z</time>
      </trkpt>
      <trkpt lat="49.03349" lon="1.15159">
        <ele>89.900002</ele>
        <time>2015-11-29T07:52:06Z</time>
      </trkpt>
      <trkpt lat="49.0335" lon="1.15175">
        <ele>90.099998</ele>
        <time>2015-11-29T07:52:09Z</time>
      </trkpt>
      <trkpt lat="49.03348" lon="1.15191">
        <ele>90.400002</ele>
        <time>2015-11-29T07:52:13Z</time>
      </trkpt>
      <trkpt lat="49.0334" lon="1.15203">
        <ele>90.599998</ele>
        <time>2015-11-29T07:52:17Z</time>
      </trkpt>
      <trkpt lat="49.0333" lon="1.15204">
        <ele>90.699997</ele>
        <time>2015-11-29T07:52:20Z</time>
      </trkpt>
      <trkpt lat="49.03321" lon="1.15199">
        <ele>90.800003</ele>
        <time>2015-11-29T07:52:23Z</time>
      </trkpt>
      <trkpt lat="49.03312" lon="1.15192">
        <ele>90.900002</ele>
        <time>2015-11-29T07:52:26Z</time>
      </trkpt>
      <trkpt lat="49.03306" lon="1.15181">
        <ele>90.900002</ele>
        <time>2015-11-29T07:52:29Z</time>
      </trkpt>
      <trkpt lat="49.03302" lon="1.15166">
        <ele>91</ele>
        <time>2015-11-29T07:52:33Z</time>
      </trkpt>
      <trkpt lat="49.03298" lon="1.15151">
        <ele>91.199997</ele>
        <time>2015-11-29T07:52:38Z</time>
      </trkpt>
      <trkpt lat="49.03293" lon="1.15138">
        <ele>91.5</ele>
        <time>2015-11-29T07:52:43Z</time>
      </trkpt>
      <trkpt lat="49.03289" lon="1.15125">
        <ele>92.300003</ele>
        <time>2015-11-29T07:52:49Z</time>
      </trkpt>
      <trkpt lat="49.03284" lon="1.15113">
        <ele>93.599998</ele>
        <time>2015-11-29T07:52:55Z</time>
      </trkpt>
      <trkpt lat="49.03279" lon="1.15099">
        <ele>95</ele>
        <time>2015-11-29T07:53:02Z</time>
      </trkpt>
      <trkpt lat="49.03274" lon="1.15085">
        <ele>96.099998</ele>
        <time>2015-11-29T07:53:08Z</time>
      </trkpt>
      <trkpt lat="49.03268" lon="1.15072">
        <ele>96.699997</ele>
        <time>2015-11-29T07:53:12Z</time>
      </trkpt>
      <trkpt lat="49.03262" lon="1.15059">
        <ele>97.199997</ele>
        <time>2015-11-29T07:53:16Z</time>
      </trkpt>
      <trkpt lat="49.03257" lon="1.15045">
        <ele>97.599998</ele>
        <time>2015-11-29T07:53:20Z</time>
      </trkpt>
      <trkpt lat="49.03251" lon="1.15029">
        <ele>97.900002</ele>
        <time>2015-11-29T07:53:24Z</time>
      </trkpt>
      <trkpt lat="49.03246" lon="1.15015">
        <ele>98.199997</ele>
        <time>2015-11-29T07:53:28Z</time>
      </trkpt>
      <trkpt lat="49.03241" lon="1.15001">
        <ele>98.599998</ele>
        <time>2015-11-29T07:53:32Z</time>
      </trkpt>
      <trkpt lat="49.03236" lon="1.14988">
        <ele>98.900002</ele>
        <time>2015-11-29T07:53:36Z</time>
      </trkpt>
      <trkpt lat="49.03231" lon="1.14974">
        <ele>99.199997</ele>
        <time>2015-11-29T07:53:40Z</time>
      </trkpt>
      <trkpt lat="49.03226" lon="1.1496">
        <ele>99.5</ele>
        <time>2015-11-29T07:53:44Z</time>
      </trkpt>
      <trkpt lat="49.03221" lon="1.14947">
        <ele>99.900002</ele>
        <time>2015-11-29T07:53:48Z</time>
      </trkpt>
      <trkpt lat="49.03215" lon="1.14932">
        <ele>100.800003</ele>
        <time>2015-11-29T07:53:53Z</time>
      </trkpt>
      <trkpt lat="49.03209" lon="1.14919">
        <ele>101.5</ele>
        <time>2015-11-29T07:53:57Z</time>
      </trkpt>
      <trkpt lat="49.03203" lon="1.14904">
        <ele>102.5</ele>
        <time>2015-11-29T07:54:02Z</time>
      </trkpt>
      <trkpt lat="49.03199" lon="1.14891">
        <ele>103.199997</ele>
        <time>2015-11-29T07:54:06Z</time>
      </trkpt>
      <trkpt lat="49.03194" lon="1.14878">
        <ele>103.900002</ele>
        <time>2015-11-29T07:54:10Z</time>
      </trkpt>
      <trkpt lat="49.03189" lon="1.14865">
        <ele>104.599998</ele>
        <time>2015-11-29T07:54:14Z</time>
      </trkpt>
      <trkpt lat="49.03186" lon="1.14851">
        <ele>105.300003</ele>
        <time>2015-11-29T07:54:18Z</time>
      </trkpt>
      <trkpt lat="49.03183" lon="1.14838">
        <ele>106</ele>
        <time>2015-11-29T07:54:22Z</time>
      </trkpt>
      <trkpt lat="49.0318" lon="1.14823">
        <ele>106.900002</ele>
        <time>2015-11-29T07:54:26Z</time>
      </trkpt>
      <trkpt lat="49.03176" lon="1.14809">
        <ele>107.599998</ele>
        <time>2015-11-29T07:54:30Z</time>
      </trkpt>
      <trkpt lat="49.03173" lon="1.14795">
        <ele>108.199997</ele>
        <time>2015-11-29T07:54:34Z</time>
      </trkpt>
      <trkpt lat="49.0317" lon="1.14782">
        <ele>108.800003</ele>
        <time>2015-11-29T07:54:38Z</time>
      </trkpt>
      <trkpt lat="49.03167" lon="1.14768">
        <ele>109.5</ele>
        <time>2015-11-29T07:54:43Z</time>
      </trkpt>
      <trkpt lat="49.03164" lon="1.14755">
        <ele>110.300003</ele>
        <time>2015-11-29T07:54:49Z</time>
      </trkpt>
      <trkpt lat="49.03174" lon="1.14761">
        <ele>111.300003</ele>
        <time>2015-11-29T07:54:57Z</time>
      </trkpt>
      <trkpt lat="49.03183" lon="1.14768">
        <ele>112.400002</ele>
        <time>2015-11-29T07:55:03Z</time>
      </trkpt>
      <trkpt lat="49.03193" lon="1.14767">
        <ele>114</ele>
        <time>2015-11-29T07:55:10Z</time>
      </trkpt>
      <trkpt lat="49.03197" lon="1.14755">
        <ele>115.699997</ele>
        <time>2015-11-29T07:55:16Z</time>
      </trkpt>
      <trkpt lat="49.03192" lon="1.14744">
        <ele>118</ele>
        <time>2015-11-29T07:55:24Z</time>
      </trkpt>
      <trkpt lat="49.03186" lon="1.14733">
        <ele>119.5</ele>
        <time>2015-11-29T07:55:30Z</time>
      </trkpt>
      <trkpt lat="49.03187" lon="1.14718">
        <ele>120.400002</ele>
        <time>2015-11-29T07:55:36Z</time>
      </trkpt>
      <trkpt lat="49.03197" lon="1.14719">
        <ele>121.099998</ele>
        <time>2015-11-29T07:55:44Z</time>
      </trkpt>
      <trkpt lat="49.03205" lon="1.1471">
        <ele>121.599998</ele>
        <time>2015-11-29T07:55:53Z</time>
      </trkpt>
      <trkpt lat="49.03208" lon="1.14697">
        <ele>121.800003</ele>
        <time>2015-11-29T07:56:00Z</time>
      </trkpt>
      <trkpt lat="49.03215" lon="1.14686">
        <ele>122</ele>
        <time>2015-11-29T07:56:07Z</time>
      </trkpt>
      <trkpt lat="49.03222" lon="1.14677">
        <ele>122.099998</ele>
        <time>2015-11-29T07:56:12Z</time>
      </trkpt>
      <trkpt lat="49.03227" lon="1.14665">
        <ele>122.099998</ele>
        <time>2015-11-29T07:56:16Z</time>
      </trkpt>
      <trkpt lat="49.03228" lon="1.14647">
        <ele>122.099998</ele>
        <time>2015-11-29T07:56:20Z</time>
      </trkpt>
      <trkpt lat="49.03226" lon="1.14632">
        <ele>122.099998</ele>
        <time>2015-11-29T07:56:23Z</time>
      </trkpt>
      <trkpt lat="49.03222" lon="1.14618">
        <ele>122.199997</ele>
        <time>2015-11-29T07:56:26Z</time>
      </trkpt>
      <trkpt lat="49.03219" lon="1.14605">
        <ele>122.199997</ele>
        <time>2015-11-29T07:56:29Z</time>
      </trkpt>
      <trkpt lat="49.03216" lon="1.14588">
        <ele>122.199997</ele>
        <time>2015-11-29T07:56:33Z</time>
      </trkpt>
      <trkpt lat="49.03212" lon="1.14571">
        <ele>122.199997</ele>
        <time>2015-11-29T07:56:37Z</time>
      </trkpt>
      <trkpt lat="49.03208" lon="1.14554">
        <ele>122.300003</ele>
        <time>2015-11-29T07:56:41Z</time>
      </trkpt>
      <trkpt lat="49.03205" lon="1.14537">
        <ele>122.400002</ele>
        <time>2015-11-29T07:56:45Z</time>
      </trkpt>
      <trkpt lat="49.03201" lon="1.14523">
        <ele>122.599998</ele>
        <time>2015-11-29T07:56:48Z</time>
      </trkpt>
      <trkpt lat="49.03198" lon="1.1451">
        <ele>122.699997</ele>
        <time>2015-11-29T07:56:51Z</time>
      </trkpt>
      <trkpt lat="49.03196" lon="1.14496">
        <ele>122.900002</ele>
        <time>2015-11-29T07:56:54Z</time>
      </trkpt>
      <trkpt lat="49.03193" lon="1.14483">
        <ele>123</ele>
        <time>2015-11-29T07:56:57Z</time>
      </trkpt>
      <trkpt lat="49.03189" lon="1.14469">
        <ele>123.099998</ele>
        <time>2015-11-29T07:57:00Z</time>
      </trkpt>
      <trkpt lat="49.03187" lon="1.14455">
        <ele>123.300003</ele>
        <time>2015-11-29T07:57:03Z</time>
      </trkpt>
      <trkpt lat="49.03184" lon="1.14439">
        <ele>123.5</ele>
        <time>2015-11-29T07:57:06Z</time>
      </trkpt>
      <trkpt lat="49.03183" lon="1.14424">
        <ele>123.699997</ele>
        <time>2015-11-29T07:57:09Z</time>
      </trkpt>
      <trkpt lat="49.03181" lon="1.1441">
        <ele>123.900002</ele>
        <time>2015-11-29T07:57:12Z</time>
      </trkpt>
      <trkpt lat="49.03179" lon="1.14395">
        <ele>124.099998</ele>
        <time>2015-11-29T07:57:15Z</time>
      </trkpt>
      <trkpt lat="49.03176" lon="1.14381">
        <ele>124.300003</ele>
        <time>2015-11-29T07:57:18Z</time>
      </trkpt>
      <trkpt lat="49.03172" lon="1.14366">
        <ele>124.5</ele>
        <time>2015-11-29T07:57:21Z</time>
      </trkpt>
      <trkpt lat="49.03169" lon="1.14351">
        <ele>124.699997</ele>
        <time>2015-11-29T07:57:24Z</time>
      </trkpt>
      <trkpt lat="49.03165" lon="1.14336">
        <ele>124.900002</ele>
        <time>2015-11-29T07:57:27Z</time>
      </trkpt>
      <trkpt lat="49.03161" lon="1.14322">
        <ele>125</ele>
        <time>2015-11-29T07:57:30Z</time>
      </trkpt>
      <trkpt lat="49.03158" lon="1.14308">
        <ele>125.199997</ele>
        <time>2015-11-29T07:57:33Z</time>
      </trkpt>
      <trkpt lat="49.03155" lon="1.14294">
        <ele>125.300003</ele>
        <time>2015-11-29T07:57:36Z</time>
      </trkpt>
      <trkpt lat="49.03151" lon="1.14279">
        <ele>125.400002</ele>
        <time>2015-11-29T07:57:39Z</time>
      </trkpt>
      <trkpt lat="49.03146" lon="1.14264">
        <ele>125.5</ele>
        <time>2015-11-29T07:57:42Z</time>
      </trkpt>
      <trkpt lat="49.03143" lon="1.14249">
        <ele>125.599998</ele>
        <time>2015-11-29T07:57:45Z</time>
      </trkpt>
      <trkpt lat="49.0314" lon="1.14234">
        <ele>125.699997</ele>
        <time>2015-11-29T07:57:48Z</time>
      </trkpt>
      <trkpt lat="49.03138" lon="1.14218">
        <ele>125.800003</ele>
        <time>2015-11-29T07:57:51Z</time>
      </trkpt>
      <trkpt lat="49.03136" lon="1.14202">
        <ele>125.900002</ele>
        <time>2015-11-29T07:57:54Z</time>
      </trkpt>
      <trkpt lat="49.03136" lon="1.14184">
        <ele>125.900002</ele>
        <time>2015-11-29T07:57:57Z</time>
      </trkpt>
      <trkpt lat="49.03136" lon="1.14168">
        <ele>126</ele>
        <time>2015-11-29T07:58:00Z</time>
      </trkpt>
      <trkpt lat="49.03137" lon="1.14151">
        <ele>126</ele>
        <time>2015-11-29T07:58:03Z</time>
      </trkpt>
      <trkpt lat="49.03138" lon="1.14135">
        <ele>126</ele>
        <time>2015-11-29T07:58:06Z</time>
      </trkpt>
      <trkpt lat="49.03138" lon="1.14119">
        <ele>126</ele>
        <time>2015-11-29T07:58:09Z</time>
      </trkpt>
      <trkpt lat="49.03139" lon="1.14103">
        <ele>126.099998</ele>
        <time>2015-11-29T07:58:12Z</time>
      </trkpt>
      <trkpt lat="49.0314" lon="1.14087">
        <ele>126.099998</ele>
        <time>2015-11-29T07:58:15Z</time>
      </trkpt>
      <trkpt lat="49.03139" lon="1.14071">
        <ele>126.099998</ele>
        <time>2015-11-29T07:58:18Z</time>
      </trkpt>
      <trkpt lat="49.03136" lon="1.14055">
        <ele>126.099998</ele>
        <time>2015-11-29T07:58:21Z</time>
      </trkpt>
      <trkpt lat="49.03134" lon="1.14039">
        <ele>126.199997</ele>
        <time>2015-11-29T07:58:24Z</time>
      </trkpt>
      <trkpt lat="49.0313" lon="1.14023">
        <ele>126.199997</ele>
        <time>2015-11-29T07:58:27Z</time>
      </trkpt>
      <trkpt lat="49.03127" lon="1.14007">
        <ele>126.199997</ele>
        <time>2015-11-29T07:58:30Z</time>
      </trkpt>
      <trkpt lat="49.03126" lon="1.1399">
        <ele>126.300003</ele>
        <time>2015-11-29T07:58:33Z</time>
      </trkpt>
      <trkpt lat="49.03131" lon="1.13976">
        <ele>126.300003</ele>
        <time>2015-11-29T07:58:36Z</time>
      </trkpt>
      <trkpt lat="49.0314" lon="1.13964">
        <ele>126.400002</ele>
        <time>2015-11-29T07:58:40Z</time>
      </trkpt>
      <trkpt lat="49.03149" lon="1.13956">
        <ele>126.400002</ele>
        <time>2015-11-29T07:58:43Z</time>
      </trkpt>
      <trkpt lat="49.03159" lon="1.13948">
        <ele>126.400002</ele>
        <time>2015-11-29T07:58:46Z</time>
      </trkpt>
      <trkpt lat="49.03169" lon="1.1394">
        <ele>126.400002</ele>
        <time>2015-11-29T07:58:49Z</time>
      </trkpt>
      <trkpt lat="49.03181" lon="1.13932">
        <ele>126.400002</ele>
        <time>2015-11-29T07:58:52Z</time>
      </trkpt>
      <trkpt lat="49.03194" lon="1.13929">
        <ele>126.300003</ele>
        <time>2015-11-29T07:58:55Z</time>
      </trkpt>
      <trkpt lat="49.03206" lon="1.13925">
        <ele>126.199997</ele>
        <time>2015-11-29T07:58:58Z</time>
      </trkpt>
      <trkpt lat="49.03219" lon="1.13922">
        <ele>126</ele>
        <time>2015-11-29T07:59:01Z</time>
      </trkpt>
      <trkpt lat="49.03228" lon="1.1392">
        <ele>125.800003</ele>
        <time>2015-11-29T07:59:03Z</time>
      </trkpt>
      <trkpt lat="49.03237" lon="1.13917">
        <ele>125.5</ele>
        <time>2015-11-29T07:59:05Z</time>
      </trkpt>
      <trkpt lat="49.03246" lon="1.13912">
        <ele>125.199997</ele>
        <time>2015-11-29T07:59:07Z</time>
      </trkpt>
      <trkpt lat="49.03256" lon="1.13908">
        <ele>124.900002</ele>
        <time>2015-11-29T07:59:09Z</time>
      </trkpt>
      <trkpt lat="49.03267" lon="1.13905">
        <ele>124.5</ele>
        <time>2015-11-29T07:59:11Z</time>
      </trkpt>
      <trkpt lat="49.03279" lon="1.139">
        <ele>124</ele>
        <time>2015-11-29T07:59:13Z</time>
      </trkpt>
      <trkpt lat="49.03288" lon="1.13897">
        <ele>123.5</ele>
        <time>2015-11-29T07:59:15Z</time>
      </trkpt>
      <trkpt lat="49.03299" lon="1.13897">
        <ele>122</ele>
        <time>2015-11-29T07:59:20Z</time>
      </trkpt>
      <trkpt lat="49.03308" lon="1.13891">
        <ele>121.199997</ele>
        <time>2015-11-29T07:59:23Z</time>
      </trkpt>
      <trkpt lat="49.03318" lon="1.13897">
        <ele>120.599998</ele>
        <time>2015-11-29T07:59:26Z</time>
      </trkpt>
      <trkpt lat="49.03327" lon="1.13902">
        <ele>120.199997</ele>
        <time>2015-11-29T07:59:28Z</time>
      </trkpt>
      <trkpt lat="49.03341" lon="1.13908">
        <ele>119.800003</ele>
        <time>2015-11-29T07:59:31Z</time>
      </trkpt>
      <trkpt lat="49.0335" lon="1.13912">
        <ele>119.599998</ele>
        <time>2015-11-29T07:59:33Z</time>
      </trkpt>
      <trkpt lat="49.03359" lon="1.13916">
        <ele>119.599998</ele>
        <time>2015-11-29T07:59:35Z</time>
      </trkpt>
      <trkpt lat="49.03371" lon="1.1392">
        <ele>119.800003</ele>
        <time>2015-11-29T07:59:38Z</time>
      </trkpt>
      <trkpt lat="49.03384" lon="1.13924">
        <ele>120</ele>
        <time>2015-11-29T07:59:41Z</time>
      </trkpt>
      <trkpt lat="49.03394" lon="1.13932">
        <ele>120.300003</ele>
        <time>2015-11-29T07:59:44Z</time>
      </trkpt>
      <trkpt lat="49.03403" lon="1.13942">
        <ele>120.800003</ele>
        <time>2015-11-29T07:59:48Z</time>
      </trkpt>
      <trkpt lat="49.03412" lon="1.13946">
        <ele>121.400002</ele>
        <time>2015-11-29T07:59:53Z</time>
      </trkpt>
      <trkpt lat="49.0342" lon="1.13952">
        <ele>122</ele>
        <time>2015-11-29T07:59:59Z</time>
      </trkpt>
      <trkpt lat="49.03429" lon="1.13957">
        <ele>122.599998</ele>
        <time>2015-11-29T08:00:05Z</time>
      </trkpt>
      <trkpt lat="49.03438" lon="1.1396">
        <ele>123.099998</ele>
        <time>2015-11-29T08:00:10Z</time>
      </trkpt>
      <trkpt lat="49.03449" lon="1.13963">
        <ele>123.5</ele>
        <time>2015-11-29T08:00:14Z</time>
      </trkpt>
      <trkpt lat="49.03458" lon="1.1397">
        <ele>123.800003</ele>
        <time>2015-11-29T08:00:17Z</time>
      </trkpt>
      <trkpt lat="49.03469" lon="1.13978">
        <ele>124.300003</ele>
        <time>2015-11-29T08:00:21Z</time>
      </trkpt>
      <trkpt lat="49.03478" lon="1.13985">
        <ele>124.699997</ele>
        <time>2015-11-29T08:00:25Z</time>
      </trkpt>
      <trkpt lat="49.03487" lon="1.1399">
        <ele>125.099998</ele>
        <time>2015-11-29T08:00:28Z</time>
      </trkpt>
      <trkpt lat="49.03496" lon="1.13986">
        <ele>125.5</ele>
        <time>2015-11-29T08:00:31Z</time>
      </trkpt>
      <trkpt lat="49.03501" lon="1.13974">
        <ele>125.800003</ele>
        <time>2015-11-29T08:00:34Z</time>
      </trkpt>
      <trkpt lat="49.03506" lon="1.13961">
        <ele>126.099998</ele>
        <time>2015-11-29T08:00:37Z</time>
      </trkpt>
      <trkpt lat="49.03513" lon="1.13948">
        <ele>126.300003</ele>
        <time>2015-11-29T08:00:40Z</time>
      </trkpt>
      <trkpt lat="49.03519" lon="1.13935">
        <ele>126.599998</ele>
        <time>2015-11-29T08:00:43Z</time>
      </trkpt>
      <trkpt lat="49.03527" lon="1.13922">
        <ele>126.900002</ele>
        <time>2015-11-29T08:00:46Z</time>
      </trkpt>
      <trkpt lat="49.03537" lon="1.1391">
        <ele>127.099998</ele>
        <time>2015-11-29T08:00:49Z</time>
      </trkpt>
      <trkpt lat="49.03547" lon="1.139">
        <ele>127.300003</ele>
        <time>2015-11-29T08:00:52Z</time>
      </trkpt>
      <trkpt lat="49.03557" lon="1.1389">
        <ele>127.5</ele>
        <time>2015-11-29T08:00:55Z</time>
      </trkpt>
      <trkpt lat="49.03567" lon="1.13881">
        <ele>127.599998</ele>
        <time>2015-11-29T08:00:58Z</time>
      </trkpt>
      <trkpt lat="49.03578" lon="1.13871">
        <ele>127.699997</ele>
        <time>2015-11-29T08:01:01Z</time>
      </trkpt>
      <trkpt lat="49.03588" lon="1.13863">
        <ele>127.800003</ele>
        <time>2015-11-29T08:01:04Z</time>
      </trkpt>
      <trkpt lat="49.03599" lon="1.13854">
        <ele>127.900002</ele>
        <time>2015-11-29T08:01:07Z</time>
      </trkpt>
      <trkpt lat="49.03609" lon="1.13845">
        <ele>128</ele>
        <time>2015-11-29T08:01:10Z</time>
      </trkpt>
      <trkpt lat="49.0362" lon="1.13836">
        <ele>128</ele>
        <time>2015-11-29T08:01:13Z</time>
      </trkpt>
      <trkpt lat="49.03629" lon="1.13826">
        <ele>128.100006</ele>
        <time>2015-11-29T08:01:16Z</time>
      </trkpt>
      <trkpt lat="49.03638" lon="1.13819">
        <ele>128.100006</ele>
        <time>2015-11-29T08:01:19Z</time>
      </trkpt>
      <trkpt lat="49.03648" lon="1.13814">
        <ele>128.100006</ele>
        <time>2015-11-29T08:01:22Z</time>
      </trkpt>
      <trkpt lat="49.03656" lon="1.13809">
        <ele>128.100006</ele>
        <time>2015-11-29T08:01:25Z</time>
      </trkpt>
      <trkpt lat="49.03667" lon="1.13808">
        <ele>128.199997</ele>
        <time>2015-11-29T08:01:28Z</time>
      </trkpt>
      <trkpt lat="49.03673" lon="1.13793">
        <ele>128.199997</ele>
        <time>2015-11-29T08:01:33Z</time>
      </trkpt>
      <trkpt lat="49.03675" lon="1.13776">
        <ele>128.300003</ele>
        <time>2015-11-29T08:01:36Z</time>
      </trkpt>
      <trkpt lat="49.03679" lon="1.13763">
        <ele>128.300003</ele>
        <time>2015-11-29T08:01:38Z</time>
      </trkpt>
      <trkpt lat="49.03682" lon="1.1375">
        <ele>128.300003</ele>
        <time>2015-11-29T08:01:40Z</time>
      </trkpt>
      <trkpt lat="49.03684" lon="1.13736">
        <ele>128.199997</ele>
        <time>2015-11-29T08:01:42Z</time>
      </trkpt>
      <trkpt lat="49.03687" lon="1.13718">
        <ele>128.199997</ele>
        <time>2015-11-29T08:01:45Z</time>
      </trkpt>
      <trkpt lat="49.03692" lon="1.13703">
        <ele>128.100006</ele>
        <time>2015-11-29T08:01:48Z</time>
      </trkpt>
      <trkpt lat="49.03698" lon="1.13691">
        <ele>128</ele>
        <time>2015-11-29T08:01:51Z</time>
      </trkpt>
      <trkpt lat="49.03708" lon="1.13687">
        <ele>128</ele>
        <time>2015-11-29T08:01:55Z</time>
      </trkpt>
      <trkpt lat="49.03718" lon="1.13692">
        <ele>127.900002</ele>
        <time>2015-11-29T08:01:58Z</time>
      </trkpt>
      <trkpt lat="49.03728" lon="1.13697">
        <ele>127.900002</ele>
        <time>2015-11-29T08:02:01Z</time>
      </trkpt>
      <trkpt lat="49.03737" lon="1.13704">
        <ele>127.900002</ele>
        <time>2015-11-29T08:02:04Z</time>
      </trkpt>
      <trkpt lat="49.03748" lon="1.13711">
        <ele>127.800003</ele>
        <time>2015-11-29T08:02:07Z</time>
      </trkpt>
      <trkpt lat="49.03757" lon="1.13717">
        <ele>127.800003</ele>
        <time>2015-11-29T08:02:09Z</time>
      </trkpt>
      <trkpt lat="49.03768" lon="1.13725">
        <ele>127.800003</ele>
        <time>2015-11-29T08:02:12Z</time>
      </trkpt>
      <trkpt lat="49.03778" lon="1.13731">
        <ele>127.699997</ele>
        <time>2015-11-29T08:02:15Z</time>
      </trkpt>
      <trkpt lat="49.03788" lon="1.13739">
        <ele>127.900002</ele>
        <time>2015-11-29T08:02:19Z</time>
      </trkpt>
      <trkpt lat="49.03797" lon="1.13745">
        <ele>128</ele>
        <time>2015-11-29T08:02:21Z</time>
      </trkpt>
      <trkpt lat="49.03807" lon="1.13751">
        <ele>128.100006</ele>
        <time>2015-11-29T08:02:24Z</time>
      </trkpt>
      <trkpt lat="49.03816" lon="1.13758">
        <ele>128.199997</ele>
        <time>2015-11-29T08:02:27Z</time>
      </trkpt>
      <trkpt lat="49.03826" lon="1.13765">
        <ele>128.199997</ele>
        <time>2015-11-29T08:02:30Z</time>
      </trkpt>
      <trkpt lat="49.03837" lon="1.13775">
        <ele>128.300003</ele>
        <time>2015-11-29T08:02:34Z</time>
      </trkpt>
      <trkpt lat="49.03846" lon="1.13783">
        <ele>128.399994</ele>
        <time>2015-11-29T08:02:37Z</time>
      </trkpt>
      <trkpt lat="49.03856" lon="1.13789">
        <ele>128.399994</ele>
        <time>2015-11-29T08:02:40Z</time>
      </trkpt>
      <trkpt lat="49.03864" lon="1.13796">
        <ele>128.5</ele>
        <time>2015-11-29T08:02:43Z</time>
      </trkpt>
      <trkpt lat="49.03874" lon="1.13804">
        <ele>128.5</ele>
        <time>2015-11-29T08:02:45Z</time>
      </trkpt>
      <trkpt lat="49.03881" lon="1.13811">
        <ele>128.600006</ele>
        <time>2015-11-29T08:02:47Z</time>
      </trkpt>
      <trkpt lat="49.0389" lon="1.13817">
        <ele>128.699997</ele>
        <time>2015-11-29T08:02:49Z</time>
      </trkpt>
      <trkpt lat="49.03898" lon="1.13823">
        <ele>128.699997</ele>
        <time>2015-11-29T08:02:52Z</time>
      </trkpt>
      <trkpt lat="49.03907" lon="1.1383">
        <ele>128.800003</ele>
        <time>2015-11-29T08:02:55Z</time>
      </trkpt>
      <trkpt lat="49.03916" lon="1.13838">
        <ele>128.899994</ele>
        <time>2015-11-29T08:02:58Z</time>
      </trkpt>
      <trkpt lat="49.03928" lon="1.13848">
        <ele>129</ele>
        <time>2015-11-29T08:03:01Z</time>
      </trkpt>
      <trkpt lat="49.03936" lon="1.13854">
        <ele>129.100006</ele>
        <time>2015-11-29T08:03:03Z</time>
      </trkpt>
      <trkpt lat="49.03944" lon="1.1386">
        <ele>129.100006</ele>
        <time>2015-11-29T08:03:05Z</time>
      </trkpt>
      <trkpt lat="49.03954" lon="1.13869">
        <ele>129.199997</ele>
        <time>2015-11-29T08:03:08Z</time>
      </trkpt>
      <trkpt lat="49.03965" lon="1.13879">
        <ele>129.199997</ele>
        <time>2015-11-29T08:03:11Z</time>
      </trkpt>
      <trkpt lat="49.03976" lon="1.13888">
        <ele>129.199997</ele>
        <time>2015-11-29T08:03:14Z</time>
      </trkpt>
      <trkpt lat="49.03985" lon="1.13895">
        <ele>129.300003</ele>
        <time>2015-11-29T08:03:16Z</time>
      </trkpt>
      <trkpt lat="49.03996" lon="1.13904">
        <ele>129.300003</ele>
        <time>2015-11-29T08:03:19Z</time>
      </trkpt>
      <trkpt lat="49.04006" lon="1.13909">
        <ele>129.300003</ele>
        <time>2015-11-29T08:03:22Z</time>
      </trkpt>
      <trkpt lat="49.04015" lon="1.13905">
        <ele>129.300003</ele>
        <time>2015-11-29T08:03:25Z</time>
      </trkpt>
      <trkpt lat="49.04025" lon="1.13895">
        <ele>129.399994</ele>
        <time>2015-11-29T08:03:28Z</time>
      </trkpt>
      <trkpt lat="49.04036" lon="1.13884">
        <ele>129.399994</ele>
        <time>2015-11-29T08:03:31Z</time>
      </trkpt>
      <trkpt lat="49.04045" lon="1.13879">
        <ele>129.399994</ele>
        <time>2015-11-29T08:03:33Z</time>
      </trkpt>
      <trkpt lat="49.04055" lon="1.13873">
        <ele>129.399994</ele>
        <time>2015-11-29T08:03:36Z</time>
      </trkpt>
      <trkpt lat="49.04065" lon="1.13869">
        <ele>129.399994</ele>
        <time>2015-11-29T08:03:41Z</time>
      </trkpt>
      <trkpt lat="49.04074" lon="1.13872">
        <ele>129.399994</ele>
        <time>2015-11-29T08:03:45Z</time>
      </trkpt>
      <trkpt lat="49.04084" lon="1.13878">
        <ele>129.399994</ele>
        <time>2015-11-29T08:03:48Z</time>
      </trkpt>
      <trkpt lat="49.04095" lon="1.1388">
        <ele>129.399994</ele>
        <time>2015-11-29T08:03:51Z</time>
      </trkpt>
      <trkpt lat="49.04109" lon="1.13878">
        <ele>129.399994</ele>
        <time>2015-11-29T08:03:54Z</time>
      </trkpt>
      <trkpt lat="49.04118" lon="1.13874">
        <ele>129.399994</ele>
        <time>2015-11-29T08:03:56Z</time>
      </trkpt>
      <trkpt lat="49.04131" lon="1.13866">
        <ele>129.5</ele>
        <time>2015-11-29T08:03:59Z</time>
      </trkpt>
      <trkpt lat="49.04141" lon="1.13859">
        <ele>129.800003</ele>
        <time>2015-11-29T08:04:02Z</time>
      </trkpt>
      <trkpt lat="49.0415" lon="1.13855">
        <ele>130.100006</ele>
        <time>2015-11-29T08:04:05Z</time>
      </trkpt>
      <trkpt lat="49.0416" lon="1.13851">
        <ele>130.399994</ele>
        <time>2015-11-29T08:04:08Z</time>
      </trkpt>
      <trkpt lat="49.04171" lon="1.13847">
        <ele>130.699997</ele>
        <time>2015-11-29T08:04:11Z</time>
      </trkpt>
      <trkpt lat="49.04181" lon="1.13844">
        <ele>130.899994</ele>
        <time>2015-11-29T08:04:14Z</time>
      </trkpt>
      <trkpt lat="49.04192" lon="1.13843">
        <ele>131</ele>
        <time>2015-11-29T08:04:17Z</time>
      </trkpt>
      <trkpt lat="49.04203" lon="1.13841">
        <ele>131.100006</ele>
        <time>2015-11-29T08:04:20Z</time>
      </trkpt>
      <trkpt lat="49.04214" lon="1.1384">
        <ele>131.300003</ele>
        <time>2015-11-29T08:04:23Z</time>
      </trkpt>
      <trkpt lat="49.04225" lon="1.13836">
        <ele>131.300003</ele>
        <time>2015-11-29T08:04:26Z</time>
      </trkpt>
      <trkpt lat="49.04229" lon="1.1382">
        <ele>131.399994</ele>
        <time>2015-11-29T08:04:29Z</time>
      </trkpt>
      <trkpt lat="49.0423" lon="1.13801">
        <ele>131.5</ele>
        <time>2015-11-29T08:04:32Z</time>
      </trkpt>
      <trkpt lat="49.04231" lon="1.13782">
        <ele>131.600006</ele>
        <time>2015-11-29T08:04:35Z</time>
      </trkpt>
      <trkpt lat="49.0423" lon="1.13763">
        <ele>131.699997</ele>
        <time>2015-11-29T08:04:38Z</time>
      </trkpt>
      <trkpt lat="49.04231" lon="1.13744">
        <ele>131.800003</ele>
        <time>2015-11-29T08:04:41Z</time>
      </trkpt>
      <trkpt lat="49.04231" lon="1.13727">
        <ele>131.899994</ele>
        <time>2015-11-29T08:04:44Z</time>
      </trkpt>
      <trkpt lat="49.04233" lon="1.13709">
        <ele>131.899994</ele>
        <time>2015-11-29T08:04:47Z</time>
      </trkpt>
      <trkpt lat="49.04237" lon="1.13691">
        <ele>132</ele>
        <time>2015-11-29T08:04:50Z</time>
      </trkpt>
      <trkpt lat="49.04243" lon="1.13673">
        <ele>132</ele>
        <time>2015-11-29T08:04:53Z</time>
      </trkpt>
      <trkpt lat="49.04249" lon="1.13655">
        <ele>132</ele>
        <time>2015-11-29T08:04:56Z</time>
      </trkpt>
      <trkpt lat="49.04255" lon="1.13639">
        <ele>132.100006</ele>
        <time>2015-11-29T08:04:59Z</time>
      </trkpt>
      <trkpt lat="49.04265" lon="1.13627">
        <ele>132.100006</ele>
        <time>2015-11-29T08:05:02Z</time>
      </trkpt>
      <trkpt lat="49.04276" lon="1.13619">
        <ele>132.100006</ele>
        <time>2015-11-29T08:05:05Z</time>
      </trkpt>
      <trkpt lat="49.04289" lon="1.13611">
        <ele>132.100006</ele>
        <time>2015-11-29T08:05:08Z</time>
      </trkpt>
      <trkpt lat="49.043" lon="1.13603">
        <ele>132.100006</ele>
        <time>2015-11-29T08:05:11Z</time>
      </trkpt>
      <trkpt lat="49.04312" lon="1.13595">
        <ele>132.199997</ele>
        <time>2015-11-29T08:05:14Z</time>
      </trkpt>
      <trkpt lat="49.04322" lon="1.13588">
        <ele>132.199997</ele>
        <time>2015-11-29T08:05:17Z</time>
      </trkpt>
      <trkpt lat="49.04332" lon="1.13583">
        <ele>132.300003</ele>
        <time>2015-11-29T08:05:20Z</time>
      </trkpt>
      <trkpt lat="49.0434" lon="1.13597">
        <ele>132.300003</ele>
        <time>2015-11-29T08:05:24Z</time>
      </trkpt>
      <trkpt lat="49.04341" lon="1.13616">
        <ele>132.300003</ele>
        <time>2015-11-29T08:05:27Z</time>
      </trkpt>
      <trkpt lat="49.04342" lon="1.13635">
        <ele>132.399994</ele>
        <time>2015-11-29T08:05:30Z</time>
      </trkpt>
      <trkpt lat="49.04343" lon="1.13653">
        <ele>132.399994</ele>
        <time>2015-11-29T08:05:33Z</time>
      </trkpt>
      <trkpt lat="49.04347" lon="1.13668">
        <ele>132.5</ele>
        <time>2015-11-29T08:05:36Z</time>
      </trkpt>
      <trkpt lat="49.04357" lon="1.13674">
        <ele>132.699997</ele>
        <time>2015-11-29T08:05:40Z</time>
      </trkpt>
      <trkpt lat="49.04365" lon="1.13679">
        <ele>132.800003</ele>
        <time>2015-11-29T08:05:43Z</time>
      </trkpt>
      <trkpt lat="49.04374" lon="1.13673">
        <ele>132.899994</ele>
        <time>2015-11-29T08:05:46Z</time>
      </trkpt>
      <trkpt lat="49.04382" lon="1.1366">
        <ele>133.100006</ele>
        <time>2015-11-29T08:05:49Z</time>
      </trkpt>
      <trkpt lat="49.04391" lon="1.13648">
        <ele>133.199997</ele>
        <time>2015-11-29T08:05:52Z</time>
      </trkpt>
      <trkpt lat="49.044" lon="1.13635">
        <ele>133.399994</ele>
        <time>2015-11-29T08:05:55Z</time>
      </trkpt>
      <trkpt lat="49.04407" lon="1.13621">
        <ele>133.600006</ele>
        <time>2015-11-29T08:05:58Z</time>
      </trkpt>
      <trkpt lat="49.04414" lon="1.13607">
        <ele>133.800003</ele>
        <time>2015-11-29T08:06:01Z</time>
      </trkpt>
      <trkpt lat="49.04422" lon="1.13593">
        <ele>133.899994</ele>
        <time>2015-11-29T08:06:04Z</time>
      </trkpt>
      <trkpt lat="49.0443" lon="1.13579">
        <ele>134.100006</ele>
        <time>2015-11-29T08:06:07Z</time>
      </trkpt>
      <trkpt lat="49.04438" lon="1.13564">
        <ele>134.300003</ele>
        <time>2015-11-29T08:06:10Z</time>
      </trkpt>
      <trkpt lat="49.04446" lon="1.1355">
        <ele>134.399994</ele>
        <time>2015-11-29T08:06:13Z</time>
      </trkpt>
      <trkpt lat="49.04453" lon="1.13534">
        <ele>134.600006</ele>
        <time>2015-11-29T08:06:16Z</time>
      </trkpt>
      <trkpt lat="49.0446" lon="1.13518">
        <ele>134.699997</ele>
        <time>2015-11-29T08:06:19Z</time>
      </trkpt>
      <trkpt lat="49.04467" lon="1.13503">
        <ele>134.699997</ele>
        <time>2015-11-29T08:06:22Z</time>
      </trkpt>
      <trkpt lat="49.04474" lon="1.13487">
        <ele>134.800003</ele>
        <time>2015-11-29T08:06:25Z</time>
      </trkpt>
      <trkpt lat="49.04481" lon="1.13472">
        <ele>134.899994</ele>
        <time>2015-11-29T08:06:28Z</time>
      </trkpt>
      <trkpt lat="49.04487" lon="1.13458">
        <ele>134.899994</ele>
        <time>2015-11-29T08:06:31Z</time>
      </trkpt>
      <trkpt lat="49.04493" lon="1.13445">
        <ele>135</ele>
        <time>2015-11-29T08:06:34Z</time>
      </trkpt>
      <trkpt lat="49.04498" lon="1.1343">
        <ele>135.100006</ele>
        <time>2015-11-29T08:06:37Z</time>
      </trkpt>
      <trkpt lat="49.04503" lon="1.13415">
        <ele>135.100006</ele>
        <time>2015-11-29T08:06:40Z</time>
      </trkpt>
      <trkpt lat="49.04506" lon="1.13401">
        <ele>135.199997</ele>
        <time>2015-11-29T08:06:43Z</time>
      </trkpt>
      <trkpt lat="49.04511" lon="1.13389">
        <ele>135.300003</ele>
        <time>2015-11-29T08:06:56Z</time>
      </trkpt>
      <trkpt lat="49.04517" lon="1.13377">
        <ele>135.300003</ele>
        <time>2015-11-29T08:07:07Z</time>
      </trkpt>
      <trkpt lat="49.04519" lon="1.13359">
        <ele>135.300003</ele>
        <time>2015-11-29T08:07:12Z</time>
      </trkpt>
      <trkpt lat="49.04519" lon="1.13345">
        <ele>135.300003</ele>
        <time>2015-11-29T08:07:15Z</time>
      </trkpt>
      <trkpt lat="49.04518" lon="1.13329">
        <ele>135.300003</ele>
        <time>2015-11-29T08:07:18Z</time>
      </trkpt>
      <trkpt lat="49.04517" lon="1.13315">
        <ele>135.300003</ele>
        <time>2015-11-29T08:07:21Z</time>
      </trkpt>
      <trkpt lat="49.04516" lon="1.13297">
        <ele>135.199997</ele>
        <time>2015-11-29T08:07:25Z</time>
      </trkpt>
      <trkpt lat="49.04514" lon="1.13283">
        <ele>135.199997</ele>
        <time>2015-11-29T08:07:28Z</time>
      </trkpt>
      <trkpt lat="49.04512" lon="1.13268">
        <ele>135.199997</ele>
        <time>2015-11-29T08:07:32Z</time>
      </trkpt>
      <trkpt lat="49.0451" lon="1.13253">
        <ele>135.199997</ele>
        <time>2015-11-29T08:07:36Z</time>
      </trkpt>
      <trkpt lat="49.04508" lon="1.13236">
        <ele>135.199997</ele>
        <time>2015-11-29T08:07:40Z</time>
      </trkpt>
      <trkpt lat="49.04506" lon="1.13218">
        <ele>135.100006</ele>
        <time>2015-11-29T08:07:44Z</time>
      </trkpt>
      <trkpt lat="49.04505" lon="1.13205">
        <ele>135.100006</ele>
        <time>2015-11-29T08:07:47Z</time>
      </trkpt>
      <trkpt lat="49.04503" lon="1.13189">
        <ele>135.100006</ele>
        <time>2015-11-29T08:07:51Z</time>
      </trkpt>
      <trkpt lat="49.04503" lon="1.13172">
        <ele>135.100006</ele>
        <time>2015-11-29T08:07:56Z</time>
      </trkpt>
      <trkpt lat="49.04503" lon="1.13157">
        <ele>135.100006</ele>
        <time>2015-11-29T08:08:00Z</time>
      </trkpt>
      <trkpt lat="49.04503" lon="1.13141">
        <ele>135.100006</ele>
        <time>2015-11-29T08:08:04Z</time>
      </trkpt>
      <trkpt lat="49.04507" lon="1.13126">
        <ele>135.100006</ele>
        <time>2015-11-29T08:08:08Z</time>
      </trkpt>
      <trkpt lat="49.04512" lon="1.13111">
        <ele>135.100006</ele>
        <time>2015-11-29T08:08:12Z</time>
      </trkpt>
      <trkpt lat="49.04518" lon="1.13099">
        <ele>135</ele>
        <time>2015-11-29T08:08:15Z</time>
      </trkpt>
      <trkpt lat="49.04525" lon="1.13086">
        <ele>134.899994</ele>
        <time>2015-11-29T08:08:18Z</time>
      </trkpt>
      <trkpt lat="49.04531" lon="1.13072">
        <ele>134.800003</ele>
        <time>2015-11-29T08:08:21Z</time>
      </trkpt>
      <trkpt lat="49.04539" lon="1.13059">
        <ele>134.699997</ele>
        <time>2015-11-29T08:08:24Z</time>
      </trkpt>
      <trkpt lat="49.04547" lon="1.13051">
        <ele>134.5</ele>
        <time>2015-11-29T08:08:27Z</time>
      </trkpt>
      <trkpt lat="49.04554" lon="1.13042">
        <ele>134.399994</ele>
        <time>2015-11-29T08:08:31Z</time>
      </trkpt>
      <trkpt lat="49.0456" lon="1.13031">
        <ele>134.199997</ele>
        <time>2015-11-29T08:08:35Z</time>
      </trkpt>
      <trkpt lat="49.04569" lon="1.13022">
        <ele>134.100006</ele>
        <time>2015-11-29T08:08:38Z</time>
      </trkpt>
      <trkpt lat="49.0458" lon="1.13013">
        <ele>133.800003</ele>
        <time>2015-11-29T08:08:41Z</time>
      </trkpt>
      <trkpt lat="49.04591" lon="1.13005">
        <ele>133.5</ele>
        <time>2015-11-29T08:08:44Z</time>
      </trkpt>
      <trkpt lat="49.046" lon="1.13">
        <ele>133.300003</ele>
        <time>2015-11-29T08:08:46Z</time>
      </trkpt>
      <trkpt lat="49.04611" lon="1.12992">
        <ele>133.100006</ele>
        <time>2015-11-29T08:08:49Z</time>
      </trkpt>
      <trkpt lat="49.04621" lon="1.12988">
        <ele>132.699997</ele>
        <time>2015-11-29T08:08:52Z</time>
      </trkpt>
      <trkpt lat="49.0463" lon="1.12984">
        <ele>132.399994</ele>
        <time>2015-11-29T08:08:55Z</time>
      </trkpt>
      <trkpt lat="49.04642" lon="1.12979">
        <ele>132.100006</ele>
        <time>2015-11-29T08:08:59Z</time>
      </trkpt>
      <trkpt lat="49.04651" lon="1.12975">
        <ele>131.899994</ele>
        <time>2015-11-29T08:09:02Z</time>
      </trkpt>
      <trkpt lat="49.04662" lon="1.12969">
        <ele>132</ele>
        <time>2015-11-29T08:09:06Z</time>
      </trkpt>
      <trkpt lat="49.04671" lon="1.12963">
        <ele>132.199997</ele>
        <time>2015-11-29T08:09:09Z</time>
      </trkpt>
      <trkpt lat="49.04679" lon="1.12957">
        <ele>132.300003</ele>
        <time>2015-11-29T08:09:12Z</time>
      </trkpt>
      <trkpt lat="49.04689" lon="1.12949">
        <ele>132.5</ele>
        <time>2015-11-29T08:09:16Z</time>
      </trkpt>
      <trkpt lat="49.04699" lon="1.12938">
        <ele>132.600006</ele>
        <time>2015-11-29T08:09:20Z</time>
      </trkpt>
      <trkpt lat="49.04709" lon="1.12928">
        <ele>132.699997</ele>
        <time>2015-11-29T08:09:24Z</time>
      </trkpt>
      <trkpt lat="49.04718" lon="1.12918">
        <ele>132.899994</ele>
        <time>2015-11-29T08:09:28Z</time>
      </trkpt>
      <trkpt lat="49.04727" lon="1.1291">
        <ele>133</ele>
        <time>2015-11-29T08:09:31Z</time>
      </trkpt>
      <trkpt lat="49.04737" lon="1.129">
        <ele>133.100006</ele>
        <time>2015-11-29T08:09:35Z</time>
      </trkpt>
      <trkpt lat="49.04746" lon="1.12891">
        <ele>133.199997</ele>
        <time>2015-11-29T08:09:38Z</time>
      </trkpt>
      <trkpt lat="49.04755" lon="1.12884">
        <ele>133.199997</ele>
        <time>2015-11-29T08:09:41Z</time>
      </trkpt>
      <trkpt lat="49.04765" lon="1.12874">
        <ele>133.199997</ele>
        <time>2015-11-29T08:09:44Z</time>
      </trkpt>
      <trkpt lat="49.04772" lon="1.12865">
        <ele>133.100006</ele>
        <time>2015-11-29T08:09:47Z</time>
      </trkpt>
      <trkpt lat="49.0478" lon="1.12852">
        <ele>132.899994</ele>
        <time>2015-11-29T08:09:51Z</time>
      </trkpt>
      <trkpt lat="49.04789" lon="1.12842">
        <ele>132.800003</ele>
        <time>2015-11-29T08:09:54Z</time>
      </trkpt>
      <trkpt lat="49.04798" lon="1.12837">
        <ele>132.699997</ele>
        <time>2015-11-29T08:09:56Z</time>
      </trkpt>
      <trkpt lat="49.04808" lon="1.12828">
        <ele>132.600006</ele>
        <time>2015-11-29T08:09:59Z</time>
      </trkpt>
      <trkpt lat="49.04819" lon="1.12818">
        <ele>132.5</ele>
        <time>2015-11-29T08:10:02Z</time>
      </trkpt>
      <trkpt lat="49.04827" lon="1.1281">
        <ele>132.5</ele>
        <time>2015-11-29T08:10:04Z</time>
      </trkpt>
      <trkpt lat="49.04838" lon="1.12799">
        <ele>132.399994</ele>
        <time>2015-11-29T08:10:07Z</time>
      </trkpt>
      <trkpt lat="49.04848" lon="1.12788">
        <ele>132.399994</ele>
        <time>2015-11-29T08:10:10Z</time>
      </trkpt>
      <trkpt lat="49.04855" lon="1.12777">
        <ele>132.399994</ele>
        <time>2015-11-29T08:10:13Z</time>
      </trkpt>
      <trkpt lat="49.04865" lon="1.12766">
        <ele>132.300003</ele>
        <time>2015-11-29T08:10:16Z</time>
      </trkpt>
      <trkpt lat="49.04873" lon="1.12758">
        <ele>132.199997</ele>
        <time>2015-11-29T08:10:18Z</time>
      </trkpt>
      <trkpt lat="49.04881" lon="1.1275">
        <ele>132.100006</ele>
        <time>2015-11-29T08:10:20Z</time>
      </trkpt>
      <trkpt lat="49.04891" lon="1.12743">
        <ele>132</ele>
        <time>2015-11-29T08:10:22Z</time>
      </trkpt>
      <trkpt lat="49.04899" lon="1.12735">
        <ele>131.899994</ele>
        <time>2015-11-29T08:10:24Z</time>
      </trkpt>
      <trkpt lat="49.04907" lon="1.12727">
        <ele>131.800003</ele>
        <time>2015-11-29T08:10:26Z</time>
      </trkpt>
      <trkpt lat="49.04916" lon="1.12719">
        <ele>131.699997</ele>
        <time>2015-11-29T08:10:28Z</time>
      </trkpt>
      <trkpt lat="49.04924" lon="1.12711">
        <ele>131.600006</ele>
        <time>2015-11-29T08:10:30Z</time>
      </trkpt>
      <trkpt lat="49.04932" lon="1.12702">
        <ele>131.5</ele>
        <time>2015-11-29T08:10:32Z</time>
      </trkpt>
      <trkpt lat="49.0494" lon="1.12694">
        <ele>131.399994</ele>
        <time>2015-11-29T08:10:34Z</time>
      </trkpt>
      <trkpt lat="49.04948" lon="1.12687">
        <ele>131.399994</ele>
        <time>2015-11-29T08:10:36Z</time>
      </trkpt>
      <trkpt lat="49.04956" lon="1.12679">
        <ele>131.300003</ele>
        <time>2015-11-29T08:10:38Z</time>
      </trkpt>
      <trkpt lat="49.04967" lon="1.12667">
        <ele>131.199997</ele>
        <time>2015-11-29T08:10:41Z</time>
      </trkpt>
      <trkpt lat="49.04975" lon="1.12659">
        <ele>131.199997</ele>
        <time>2015-11-29T08:10:43Z</time>
      </trkpt>
      <trkpt lat="49.04982" lon="1.12651">
        <ele>131.300003</ele>
        <time>2015-11-29T08:10:45Z</time>
      </trkpt>
      <trkpt lat="49.0499" lon="1.12644">
        <ele>131.300003</ele>
        <time>2015-11-29T08:10:47Z</time>
      </trkpt>
      <trkpt lat="49.04997" lon="1.12635">
        <ele>131.300003</ele>
        <time>2015-11-29T08:10:49Z</time>
      </trkpt>
      <trkpt lat="49.05005" lon="1.12627">
        <ele>131.300003</ele>
        <time>2015-11-29T08:10:51Z</time>
      </trkpt>
      <trkpt lat="49.05012" lon="1.12618">
        <ele>131.300003</ele>
        <time>2015-11-29T08:10:53Z</time>
      </trkpt>
      <trkpt lat="49.0502" lon="1.1261">
        <ele>131.300003</ele>
        <time>2015-11-29T08:10:55Z</time>
      </trkpt>
      <trkpt lat="49.05028" lon="1.12601">
        <ele>131.399994</ele>
        <time>2015-11-29T08:10:57Z</time>
      </trkpt>
      <trkpt lat="49.05036" lon="1.12593">
        <ele>131.399994</ele>
        <time>2015-11-29T08:10:59Z</time>
      </trkpt>
      <trkpt lat="49.05043" lon="1.12584">
        <ele>131.399994</ele>
        <time>2015-11-29T08:11:01Z</time>
      </trkpt>
      <trkpt lat="49.05051" lon="1.12576">
        <ele>131.399994</ele>
        <time>2015-11-29T08:11:03Z</time>
      </trkpt>
      <trkpt lat="49.05062" lon="1.12566">
        <ele>131.5</ele>
        <time>2015-11-29T08:11:06Z</time>
      </trkpt>
      <trkpt lat="49.05072" lon="1.12558">
        <ele>131.600006</ele>
        <time>2015-11-29T08:11:09Z</time>
      </trkpt>
      <trkpt lat="49.05082" lon="1.12549">
        <ele>131.699997</ele>
        <time>2015-11-29T08:11:12Z</time>
      </trkpt>
      <trkpt lat="49.05094" lon="1.12541">
        <ele>131.800003</ele>
        <time>2015-11-29T08:11:15Z</time>
      </trkpt>
      <trkpt lat="49.05106" lon="1.12537">
        <ele>131.800003</ele>
        <time>2015-11-29T08:11:18Z</time>
      </trkpt>
      <trkpt lat="49.05119" lon="1.12532">
        <ele>131.899994</ele>
        <time>2015-11-29T08:11:21Z</time>
      </trkpt>
      <trkpt lat="49.05131" lon="1.12529">
        <ele>132</ele>
        <time>2015-11-29T08:11:24Z</time>
      </trkpt>
      <trkpt lat="49.05144" lon="1.12525">
        <ele>132.100006</ele>
        <time>2015-11-29T08:11:27Z</time>
      </trkpt>
      <trkpt lat="49.05155" lon="1.1252">
        <ele>132.100006</ele>
        <time>2015-11-29T08:11:30Z</time>
      </trkpt>
      <trkpt lat="49.05167" lon="1.12518">
        <ele>132.199997</ele>
        <time>2015-11-29T08:11:33Z</time>
      </trkpt>
      <trkpt lat="49.0518" lon="1.12517">
        <ele>132.399994</ele>
        <time>2015-11-29T08:11:36Z</time>
      </trkpt>
      <trkpt lat="49.05193" lon="1.12516">
        <ele>132.399994</ele>
        <time>2015-11-29T08:11:39Z</time>
      </trkpt>
      <trkpt lat="49.05207" lon="1.12515">
        <ele>132.5</ele>
        <time>2015-11-29T08:11:42Z</time>
      </trkpt>
      <trkpt lat="49.0522" lon="1.12512">
        <ele>132.699997</ele>
        <time>2015-11-29T08:11:45Z</time>
      </trkpt>
      <trkpt lat="49.05233" lon="1.12508">
        <ele>132.899994</ele>
        <time>2015-11-29T08:11:48Z</time>
      </trkpt>
      <trkpt lat="49.05245" lon="1.12501">
        <ele>133.100006</ele>
        <time>2015-11-29T08:11:51Z</time>
      </trkpt>
      <trkpt lat="49.05253" lon="1.12493">
        <ele>133.199997</ele>
        <time>2015-11-29T08:11:53Z</time>
      </trkpt>
      <trkpt lat="49.05263" lon="1.1248">
        <ele>133.300003</ele>
        <time>2015-11-29T08:11:56Z</time>
      </trkpt>
      <trkpt lat="49.0527" lon="1.12467">
        <ele>133.399994</ele>
        <time>2015-11-29T08:11:59Z</time>
      </trkpt>
      <trkpt lat="49.05278" lon="1.12454">
        <ele>133.600006</ele>
        <time>2015-11-29T08:12:02Z</time>
      </trkpt>
      <trkpt lat="49.05287" lon="1.12443">
        <ele>133.800003</ele>
        <time>2015-11-29T08:12:05Z</time>
      </trkpt>
      <trkpt lat="49.05296" lon="1.12435">
        <ele>133.899994</ele>
        <time>2015-11-29T08:12:08Z</time>
      </trkpt>
      <trkpt lat="49.05306" lon="1.1243">
        <ele>133.899994</ele>
        <time>2015-11-29T08:12:11Z</time>
      </trkpt>
      <trkpt lat="49.05315" lon="1.12425">
        <ele>133.800003</ele>
        <time>2015-11-29T08:12:14Z</time>
      </trkpt>
      <trkpt lat="49.05324" lon="1.12419">
        <ele>133.800003</ele>
        <time>2015-11-29T08:12:17Z</time>
      </trkpt>
      <trkpt lat="49.05335" lon="1.12416">
        <ele>133.800003</ele>
        <time>2015-11-29T08:12:20Z</time>
      </trkpt>
      <trkpt lat="49.05346" lon="1.1241">
        <ele>133.899994</ele>
        <time>2015-11-29T08:12:23Z</time>
      </trkpt>
      <trkpt lat="49.05358" lon="1.12404">
        <ele>133.899994</ele>
        <time>2015-11-29T08:12:26Z</time>
      </trkpt>
      <trkpt lat="49.05368" lon="1.12398">
        <ele>134</ele>
        <time>2015-11-29T08:12:29Z</time>
      </trkpt>
      <trkpt lat="49.0538" lon="1.12391">
        <ele>134</ele>
        <time>2015-11-29T08:12:32Z</time>
      </trkpt>
      <trkpt lat="49.05391" lon="1.12384">
        <ele>134</ele>
        <time>2015-11-29T08:12:35Z</time>
      </trkpt>
      <trkpt lat="49.05402" lon="1.12378">
        <ele>134</ele>
        <time>2015-11-29T08:12:38Z</time>
      </trkpt>
      <trkpt lat="49.05413" lon="1.12373">
        <ele>134</ele>
        <time>2015-11-29T08:12:41Z</time>
      </trkpt>
      <trkpt lat="49.05424" lon="1.12367">
        <ele>134</ele>
        <time>2015-11-29T08:12:44Z</time>
      </trkpt>
      <trkpt lat="49.05436" lon="1.12361">
        <ele>134</ele>
        <time>2015-11-29T08:12:47Z</time>
      </trkpt>
      <trkpt lat="49.05448" lon="1.12355">
        <ele>134</ele>
        <time>2015-11-29T08:12:50Z</time>
      </trkpt>
      <trkpt lat="49.0546" lon="1.12348">
        <ele>134</ele>
        <time>2015-11-29T08:12:53Z</time>
      </trkpt>
      <trkpt lat="49.05472" lon="1.12342">
        <ele>134</ele>
        <time>2015-11-29T08:12:56Z</time>
      </trkpt>
      <trkpt lat="49.05483" lon="1.12336">
        <ele>134</ele>
        <time>2015-11-29T08:12:59Z</time>
      </trkpt>
      <trkpt lat="49.05494" lon="1.1233">
        <ele>134</ele>
        <time>2015-11-29T08:13:02Z</time>
      </trkpt>
      <trkpt lat="49.05505" lon="1.12327">
        <ele>134</ele>
        <time>2015-11-29T08:13:05Z</time>
      </trkpt>
      <trkpt lat="49.05517" lon="1.1232">
        <ele>134</ele>
        <time>2015-11-29T08:13:08Z</time>
      </trkpt>
      <trkpt lat="49.05529" lon="1.12313">
        <ele>134</ele>
        <time>2015-11-29T08:13:11Z</time>
      </trkpt>
      <trkpt lat="49.05541" lon="1.12306">
        <ele>134.100006</ele>
        <time>2015-11-29T08:13:14Z</time>
      </trkpt>
      <trkpt lat="49.05553" lon="1.12299">
        <ele>134.199997</ele>
        <time>2015-11-29T08:13:17Z</time>
      </trkpt>
      <trkpt lat="49.05566" lon="1.12293">
        <ele>134.300003</ele>
        <time>2015-11-29T08:13:20Z</time>
      </trkpt>
      <trkpt lat="49.05578" lon="1.12286">
        <ele>134.5</ele>
        <time>2015-11-29T08:13:23Z</time>
      </trkpt>
      <trkpt lat="49.0559" lon="1.12279">
        <ele>134.600006</ele>
        <time>2015-11-29T08:13:26Z</time>
      </trkpt>
      <trkpt lat="49.05603" lon="1.12271">
        <ele>134.800003</ele>
        <time>2015-11-29T08:13:29Z</time>
      </trkpt>
      <trkpt lat="49.05612" lon="1.12267">
        <ele>134.800003</ele>
        <time>2015-11-29T08:13:31Z</time>
      </trkpt>
      <trkpt lat="49.0562" lon="1.12262">
        <ele>134.899994</ele>
        <time>2015-11-29T08:13:33Z</time>
      </trkpt>
      <trkpt lat="49.05629" lon="1.12257">
        <ele>135</ele>
        <time>2015-11-29T08:13:35Z</time>
      </trkpt>
      <trkpt lat="49.05638" lon="1.12251">
        <ele>135</ele>
        <time>2015-11-29T08:13:37Z</time>
      </trkpt>
      <trkpt lat="49.05647" lon="1.12245">
        <ele>135.100006</ele>
        <time>2015-11-29T08:13:39Z</time>
      </trkpt>
      <trkpt lat="49.05655" lon="1.12238">
        <ele>135.100006</ele>
        <time>2015-11-29T08:13:41Z</time>
      </trkpt>
      <trkpt lat="49.05663" lon="1.12232">
        <ele>135.199997</ele>
        <time>2015-11-29T08:13:43Z</time>
      </trkpt>
      <trkpt lat="49.05672" lon="1.12225">
        <ele>135.100006</ele>
        <time>2015-11-29T08:13:45Z</time>
      </trkpt>
      <trkpt lat="49.05682" lon="1.12217">
        <ele>135.100006</ele>
        <time>2015-11-29T08:13:47Z</time>
      </trkpt>
      <trkpt lat="49.05693" lon="1.12209">
        <ele>135</ele>
        <time>2015-11-29T08:13:49Z</time>
      </trkpt>
      <trkpt lat="49.05703" lon="1.122">
        <ele>134.899994</ele>
        <time>2015-11-29T08:13:51Z</time>
      </trkpt>
      <trkpt lat="49.05713" lon="1.12191">
        <ele>134.899994</ele>
        <time>2015-11-29T08:13:53Z</time>
      </trkpt>
      <trkpt lat="49.05724" lon="1.12183">
        <ele>134.899994</ele>
        <time>2015-11-29T08:13:55Z</time>
      </trkpt>
      <trkpt lat="49.05734" lon="1.12175">
        <ele>134.800003</ele>
        <time>2015-11-29T08:13:57Z</time>
      </trkpt>
      <trkpt lat="49.05744" lon="1.12173">
        <ele>134.800003</ele>
        <time>2015-11-29T08:13:59Z</time>
      </trkpt>
      <trkpt lat="49.05757" lon="1.12177">
        <ele>134.699997</ele>
        <time>2015-11-29T08:14:02Z</time>
      </trkpt>
      <trkpt lat="49.05766" lon="1.12188">
        <ele>134.699997</ele>
        <time>2015-11-29T08:14:05Z</time>
      </trkpt>
      <trkpt lat="49.05771" lon="1.12204">
        <ele>134.699997</ele>
        <time>2015-11-29T08:14:08Z</time>
      </trkpt>
      <trkpt lat="49.05777" lon="1.1222">
        <ele>134.699997</ele>
        <time>2015-11-29T08:14:11Z</time>
      </trkpt>
      <trkpt lat="49.05785" lon="1.12234">
        <ele>134.600006</ele>
        <time>2015-11-29T08:14:14Z</time>
      </trkpt>
      <trkpt lat="49.05796" lon="1.12244">
        <ele>134.600006</ele>
        <time>2015-11-29T08:14:17Z</time>
      </trkpt>
      <trkpt lat="49.05808" lon="1.12242">
        <ele>134.600006</ele>
        <time>2015-11-29T08:14:20Z</time>
      </trkpt>
      <trkpt lat="49.05821" lon="1.12235">
        <ele>134.600006</ele>
        <time>2015-11-29T08:14:23Z</time>
      </trkpt>
      <trkpt lat="49.05832" lon="1.12226">
        <ele>134.600006</ele>
        <time>2015-11-29T08:14:26Z</time>
      </trkpt>
      <trkpt lat="49.05842" lon="1.12218">
        <ele>134.800003</ele>
        <time>2015-11-29T08:14:29Z</time>
      </trkpt>
      <trkpt lat="49.05853" lon="1.12212">
        <ele>134.800003</ele>
        <time>2015-11-29T08:14:32Z</time>
      </trkpt>
      <trkpt lat="49.05863" lon="1.12206">
        <ele>134.899994</ele>
        <time>2015-11-29T08:14:35Z</time>
      </trkpt>
      <trkpt lat="49.05874" lon="1.12204">
        <ele>134.899994</ele>
        <time>2015-11-29T08:14:38Z</time>
      </trkpt>
      <trkpt lat="49.05881" lon="1.12212">
        <ele>134.699997</ele>
        <time>2015-11-29T08:14:41Z</time>
      </trkpt>
      <trkpt lat="49.05885" lon="1.12228">
        <ele>134.5</ele>
        <time>2015-11-29T08:14:44Z</time>
      </trkpt>
      <trkpt lat="49.05889" lon="1.12245">
        <ele>134.199997</ele>
        <time>2015-11-29T08:14:47Z</time>
      </trkpt>
      <trkpt lat="49.05895" lon="1.12262">
        <ele>134</ele>
        <time>2015-11-29T08:14:50Z</time>
      </trkpt>
      <trkpt lat="49.05901" lon="1.12279">
        <ele>133.699997</ele>
        <time>2015-11-29T08:14:53Z</time>
      </trkpt>
      <trkpt lat="49.05907" lon="1.12296">
        <ele>133.5</ele>
        <time>2015-11-29T08:14:56Z</time>
      </trkpt>
      <trkpt lat="49.05914" lon="1.1231">
        <ele>133.199997</ele>
        <time>2015-11-29T08:14:59Z</time>
      </trkpt>
      <trkpt lat="49.05923" lon="1.12322">
        <ele>133.100006</ele>
        <time>2015-11-29T08:15:02Z</time>
      </trkpt>
      <trkpt lat="49.05933" lon="1.12334">
        <ele>132.899994</ele>
        <time>2015-11-29T08:15:05Z</time>
      </trkpt>
      <trkpt lat="49.05942" lon="1.12345">
        <ele>132.899994</ele>
        <time>2015-11-29T08:15:08Z</time>
      </trkpt>
      <trkpt lat="49.0595" lon="1.12356">
        <ele>132.899994</ele>
        <time>2015-11-29T08:15:11Z</time>
      </trkpt>
      <trkpt lat="49.05959" lon="1.12366">
        <ele>132.800003</ele>
        <time>2015-11-29T08:15:14Z</time>
      </trkpt>
      <trkpt lat="49.05967" lon="1.12376">
        <ele>132.800003</ele>
        <time>2015-11-29T08:15:17Z</time>
      </trkpt>
      <trkpt lat="49.05975" lon="1.12387">
        <ele>132.800003</ele>
        <time>2015-11-29T08:15:20Z</time>
      </trkpt>
      <trkpt lat="49.05983" lon="1.12397">
        <ele>132.800003</ele>
        <time>2015-11-29T08:15:23Z</time>
      </trkpt>
      <trkpt lat="49.0599" lon="1.12406">
        <ele>132.800003</ele>
        <time>2015-11-29T08:15:26Z</time>
      </trkpt>
      <trkpt lat="49.05997" lon="1.12415">
        <ele>132.800003</ele>
        <time>2015-11-29T08:15:35Z</time>
      </trkpt>
      <trkpt lat="49.06003" lon="1.12425">
        <ele>133.100006</ele>
        <time>2015-11-29T08:15:47Z</time>
      </trkpt>
      <trkpt lat="49.06008" lon="1.12438">
        <ele>133.800003</ele>
        <time>2015-11-29T08:16:20Z</time>
      </trkpt>
      <trkpt lat="49.0601" lon="1.12456">
        <ele>133.800003</ele>
        <time>2015-11-29T08:16:24Z</time>
      </trkpt>
      <trkpt lat="49.06011" lon="1.12475">
        <ele>133.800003</ele>
        <time>2015-11-29T08:16:27Z</time>
      </trkpt>
      <trkpt lat="49.06012" lon="1.12495">
        <ele>133.899994</ele>
        <time>2015-11-29T08:16:30Z</time>
      </trkpt>
      <trkpt lat="49.06013" lon="1.12516">
        <ele>133.899994</ele>
        <time>2015-11-29T08:16:33Z</time>
      </trkpt>
      <trkpt lat="49.06013" lon="1.12534">
        <ele>133.899994</ele>
        <time>2015-11-29T08:16:36Z</time>
      </trkpt>
      <trkpt lat="49.06013" lon="1.12551">
        <ele>133.899994</ele>
        <time>2015-11-29T08:16:39Z</time>
      </trkpt>
      <trkpt lat="49.06021" lon="1.12561">
        <ele>133.899994</ele>
        <time>2015-11-29T08:16:42Z</time>
      </trkpt>
      <trkpt lat="49.0603" lon="1.12557">
        <ele>133.899994</ele>
        <time>2015-11-29T08:16:44Z</time>
      </trkpt>
      <trkpt lat="49.06039" lon="1.12552">
        <ele>133.899994</ele>
        <time>2015-11-29T08:16:46Z</time>
      </trkpt>
      <trkpt lat="49.06052" lon="1.12546">
        <ele>133.899994</ele>
        <time>2015-11-29T08:16:49Z</time>
      </trkpt>
      <trkpt lat="49.06065" lon="1.12541">
        <ele>133.899994</ele>
        <time>2015-11-29T08:16:52Z</time>
      </trkpt>
      <trkpt lat="49.06078" lon="1.1254">
        <ele>133.899994</ele>
        <time>2015-11-29T08:16:55Z</time>
      </trkpt>
      <trkpt lat="49.06091" lon="1.12542">
        <ele>133.899994</ele>
        <time>2015-11-29T08:16:58Z</time>
      </trkpt>
      <trkpt lat="49.06103" lon="1.12549">
        <ele>133.899994</ele>
        <time>2015-11-29T08:17:01Z</time>
      </trkpt>
      <trkpt lat="49.06115" lon="1.1256">
        <ele>134</ele>
        <time>2015-11-29T08:17:04Z</time>
      </trkpt>
      <trkpt lat="49.06122" lon="1.12568">
        <ele>134.100006</ele>
        <time>2015-11-29T08:17:06Z</time>
      </trkpt>
      <trkpt lat="49.0613" lon="1.12577">
        <ele>134.199997</ele>
        <time>2015-11-29T08:17:08Z</time>
      </trkpt>
      <trkpt lat="49.06137" lon="1.12586">
        <ele>134.300003</ele>
        <time>2015-11-29T08:17:10Z</time>
      </trkpt>
      <trkpt lat="49.06144" lon="1.12597">
        <ele>134.300003</ele>
        <time>2015-11-29T08:17:12Z</time>
      </trkpt>
      <trkpt lat="49.0615" lon="1.1261">
        <ele>134.399994</ele>
        <time>2015-11-29T08:17:14Z</time>
      </trkpt>
      <trkpt lat="49.06156" lon="1.12623">
        <ele>134.5</ele>
        <time>2015-11-29T08:17:16Z</time>
      </trkpt>
      <trkpt lat="49.06161" lon="1.12638">
        <ele>134.5</ele>
        <time>2015-11-29T08:17:18Z</time>
      </trkpt>
      <trkpt lat="49.06164" lon="1.12653">
        <ele>134.600006</ele>
        <time>2015-11-29T08:17:20Z</time>
      </trkpt>
      <trkpt lat="49.06168" lon="1.12668">
        <ele>134.600006</ele>
        <time>2015-11-29T08:17:22Z</time>
      </trkpt>
      <trkpt lat="49.06172" lon="1.12683">
        <ele>134.600006</ele>
        <time>2015-11-29T08:17:24Z</time>
      </trkpt>
      <trkpt lat="49.06177" lon="1.12699">
        <ele>134.699997</ele>
        <time>2015-11-29T08:17:26Z</time>
      </trkpt>
      <trkpt lat="49.06181" lon="1.12714">
        <ele>134.600006</ele>
        <time>2015-11-29T08:17:28Z</time>
      </trkpt>
      <trkpt lat="49.06186" lon="1.12729">
        <ele>134.600006</ele>
        <time>2015-11-29T08:17:30Z</time>
      </trkpt>
      <trkpt lat="49.06191" lon="1.12745">
        <ele>134.600006</ele>
        <time>2015-11-29T08:17:32Z</time>
      </trkpt>
      <trkpt lat="49.06196" lon="1.12761">
        <ele>134.5</ele>
        <time>2015-11-29T08:17:34Z</time>
      </trkpt>
      <trkpt lat="49.06201" lon="1.12776">
        <ele>134.399994</ele>
        <time>2015-11-29T08:17:36Z</time>
      </trkpt>
      <trkpt lat="49.06206" lon="1.12792">
        <ele>134.300003</ele>
        <time>2015-11-29T08:17:38Z</time>
      </trkpt>
      <trkpt lat="49.06211" lon="1.12807">
        <ele>134.199997</ele>
        <time>2015-11-29T08:17:40Z</time>
      </trkpt>
      <trkpt lat="49.06217" lon="1.12821">
        <ele>134</ele>
        <time>2015-11-29T08:17:42Z</time>
      </trkpt>
      <trkpt lat="49.06222" lon="1.12835">
        <ele>133.899994</ele>
        <time>2015-11-29T08:17:44Z</time>
      </trkpt>
      <trkpt lat="49.06229" lon="1.12847">
        <ele>133.800003</ele>
        <time>2015-11-29T08:17:46Z</time>
      </trkpt>
      <trkpt lat="49.06238" lon="1.12859">
        <ele>133.699997</ele>
        <time>2015-11-29T08:17:48Z</time>
      </trkpt>
      <trkpt lat="49.06248" lon="1.12868">
        <ele>133.5</ele>
        <time>2015-11-29T08:17:50Z</time>
      </trkpt>
      <trkpt lat="49.06257" lon="1.12875">
        <ele>133.399994</ele>
        <time>2015-11-29T08:17:52Z</time>
      </trkpt>
      <trkpt lat="49.06268" lon="1.12881">
        <ele>133.199997</ele>
        <time>2015-11-29T08:17:54Z</time>
      </trkpt>
      <trkpt lat="49.06278" lon="1.12887">
        <ele>133</ele>
        <time>2015-11-29T08:17:56Z</time>
      </trkpt>
      <trkpt lat="49.06288" lon="1.12892">
        <ele>132.800003</ele>
        <time>2015-11-29T08:17:58Z</time>
      </trkpt>
      <trkpt lat="49.06298" lon="1.12897">
        <ele>132.699997</ele>
        <time>2015-11-29T08:18:00Z</time>
      </trkpt>
      <trkpt lat="49.06309" lon="1.12903">
        <ele>132.5</ele>
        <time>2015-11-29T08:18:02Z</time>
      </trkpt>
      <trkpt lat="49.06319" lon="1.12908">
        <ele>132.300003</ele>
        <time>2015-11-29T08:18:04Z</time>
      </trkpt>
      <trkpt lat="49.06329" lon="1.12913">
        <ele>132.199997</ele>
        <time>2015-11-29T08:18:06Z</time>
      </trkpt>
      <trkpt lat="49.06339" lon="1.12918">
        <ele>132</ele>
        <time>2015-11-29T08:18:08Z</time>
      </trkpt>
      <trkpt lat="49.06348" lon="1.12923">
        <ele>131.899994</ele>
        <time>2015-11-29T08:18:10Z</time>
      </trkpt>
      <trkpt lat="49.06357" lon="1.12929">
        <ele>131.800003</ele>
        <time>2015-11-29T08:18:12Z</time>
      </trkpt>
      <trkpt lat="49.06366" lon="1.12935">
        <ele>131.699997</ele>
        <time>2015-11-29T08:18:14Z</time>
      </trkpt>
      <trkpt lat="49.06375" lon="1.12942">
        <ele>131.600006</ele>
        <time>2015-11-29T08:18:16Z</time>
      </trkpt>
      <trkpt lat="49.06383" lon="1.12948">
        <ele>131.5</ele>
        <time>2015-11-29T08:18:18Z</time>
      </trkpt>
      <trkpt lat="49.06392" lon="1.12949">
        <ele>131.5</ele>
        <time>2015-11-29T08:18:20Z</time>
      </trkpt>
      <trkpt lat="49.06402" lon="1.12946">
        <ele>131.5</ele>
        <time>2015-11-29T08:18:22Z</time>
      </trkpt>
      <trkpt lat="49.06411" lon="1.12945">
        <ele>131.600006</ele>
        <time>2015-11-29T08:18:24Z</time>
      </trkpt>
      <trkpt lat="49.06424" lon="1.12941">
        <ele>131.699997</ele>
        <time>2015-11-29T08:18:27Z</time>
      </trkpt>
      <trkpt lat="49.06436" lon="1.12938">
        <ele>131.800003</ele>
        <time>2015-11-29T08:18:30Z</time>
      </trkpt>
      <trkpt lat="49.06445" lon="1.12935">
        <ele>131.800003</ele>
        <time>2015-11-29T08:18:32Z</time>
      </trkpt>
      <trkpt lat="49.06457" lon="1.12931">
        <ele>131.899994</ele>
        <time>2015-11-29T08:18:35Z</time>
      </trkpt>
      <trkpt lat="49.06469" lon="1.12928">
        <ele>132</ele>
        <time>2015-11-29T08:18:38Z</time>
      </trkpt>
      <trkpt lat="49.06481" lon="1.12924">
        <ele>132.300003</ele>
        <time>2015-11-29T08:18:41Z</time>
      </trkpt>
      <trkpt lat="49.06493" lon="1.12919">
        <ele>132.5</ele>
        <time>2015-11-29T08:18:44Z</time>
      </trkpt>
      <trkpt lat="49.06505" lon="1.12915">
        <ele>132.600006</ele>
        <time>2015-11-29T08:18:47Z</time>
      </trkpt>
      <trkpt lat="49.06517" lon="1.1291">
        <ele>132.800003</ele>
        <time>2015-11-29T08:18:50Z</time>
      </trkpt>
      <trkpt lat="49.06529" lon="1.12905">
        <ele>133.100006</ele>
        <time>2015-11-29T08:18:53Z</time>
      </trkpt>
      <trkpt lat="49.06541" lon="1.129">
        <ele>133.199997</ele>
        <time>2015-11-29T08:18:56Z</time>
      </trkpt>
      <trkpt lat="49.06553" lon="1.12896">
        <ele>133.300003</ele>
        <time>2015-11-29T08:18:59Z</time>
      </trkpt>
      <trkpt lat="49.06565" lon="1.12892">
        <ele>133.399994</ele>
        <time>2015-11-29T08:19:02Z</time>
      </trkpt>
      <trkpt lat="49.06574" lon="1.12889">
        <ele>133.5</ele>
        <time>2015-11-29T08:19:04Z</time>
      </trkpt>
      <trkpt lat="49.06583" lon="1.12887">
        <ele>133.5</ele>
        <time>2015-11-29T08:19:06Z</time>
      </trkpt>
      <trkpt lat="49.06592" lon="1.12884">
        <ele>133.600006</ele>
        <time>2015-11-29T08:19:08Z</time>
      </trkpt>
      <trkpt lat="49.06601" lon="1.12881">
        <ele>133.600006</ele>
        <time>2015-11-29T08:19:10Z</time>
      </trkpt>
      <trkpt lat="49.06614" lon="1.12876">
        <ele>133.699997</ele>
        <time>2015-11-29T08:19:13Z</time>
      </trkpt>
      <trkpt lat="49.06627" lon="1.12871">
        <ele>133.699997</ele>
        <time>2015-11-29T08:19:16Z</time>
      </trkpt>
      <trkpt lat="49.0664" lon="1.12866">
        <ele>133.800003</ele>
        <time>2015-11-29T08:19:19Z</time>
      </trkpt>
      <trkpt lat="49.06652" lon="1.12861">
        <ele>133.899994</ele>
        <time>2015-11-29T08:19:22Z</time>
      </trkpt>
      <trkpt lat="49.06664" lon="1.12857">
        <ele>134</ele>
        <time>2015-11-29T08:19:25Z</time>
      </trkpt>
      <trkpt lat="49.06676" lon="1.12851">
        <ele>134.100006</ele>
        <time>2015-11-29T08:19:28Z</time>
      </trkpt>
      <trkpt lat="49.06688" lon="1.12847">
        <ele>134.199997</ele>
        <time>2015-11-29T08:19:31Z</time>
      </trkpt>
      <trkpt lat="49.067" lon="1.12843">
        <ele>134.300003</ele>
        <time>2015-11-29T08:19:34Z</time>
      </trkpt>
      <trkpt lat="49.06711" lon="1.12838">
        <ele>134.5</ele>
        <time>2015-11-29T08:19:37Z</time>
      </trkpt>
      <trkpt lat="49.06723" lon="1.12834">
        <ele>134.699997</ele>
        <time>2015-11-29T08:19:40Z</time>
      </trkpt>
      <trkpt lat="49.06736" lon="1.12832">
        <ele>135</ele>
        <time>2015-11-29T08:19:43Z</time>
      </trkpt>
      <trkpt lat="49.06748" lon="1.12828">
        <ele>135.199997</ele>
        <time>2015-11-29T08:19:46Z</time>
      </trkpt>
      <trkpt lat="49.06759" lon="1.12822">
        <ele>135.399994</ele>
        <time>2015-11-29T08:19:49Z</time>
      </trkpt>
      <trkpt lat="49.0677" lon="1.12812">
        <ele>135.699997</ele>
        <time>2015-11-29T08:19:52Z</time>
      </trkpt>
      <trkpt lat="49.0678" lon="1.128">
        <ele>135.899994</ele>
        <time>2015-11-29T08:19:55Z</time>
      </trkpt>
      <trkpt lat="49.0679" lon="1.12787">
        <ele>136.100006</ele>
        <time>2015-11-29T08:19:58Z</time>
      </trkpt>
      <trkpt lat="49.06801" lon="1.12774">
        <ele>136.300003</ele>
        <time>2015-11-29T08:20:01Z</time>
      </trkpt>
      <trkpt lat="49.06811" lon="1.12762">
        <ele>136.399994</ele>
        <time>2015-11-29T08:20:04Z</time>
      </trkpt>
      <trkpt lat="49.06821" lon="1.12748">
        <ele>136.5</ele>
        <time>2015-11-29T08:20:07Z</time>
      </trkpt>
      <trkpt lat="49.06828" lon="1.12739">
        <ele>136.5</ele>
        <time>2015-11-29T08:20:09Z</time>
      </trkpt>
      <trkpt lat="49.06839" lon="1.12727">
        <ele>136.600006</ele>
        <time>2015-11-29T08:20:12Z</time>
      </trkpt>
      <trkpt lat="49.06848" lon="1.12714">
        <ele>136.699997</ele>
        <time>2015-11-29T08:20:15Z</time>
      </trkpt>
      <trkpt lat="49.06859" lon="1.127">
        <ele>136.699997</ele>
        <time>2015-11-29T08:20:18Z</time>
      </trkpt>
      <trkpt lat="49.06866" lon="1.12692">
        <ele>136.800003</ele>
        <time>2015-11-29T08:20:20Z</time>
      </trkpt>
      <trkpt lat="49.06877" lon="1.12679">
        <ele>136.800003</ele>
        <time>2015-11-29T08:20:23Z</time>
      </trkpt>
      <trkpt lat="49.06884" lon="1.12671">
        <ele>136.800003</ele>
        <time>2015-11-29T08:20:25Z</time>
      </trkpt>
      <trkpt lat="49.06894" lon="1.12659">
        <ele>136.800003</ele>
        <time>2015-11-29T08:20:28Z</time>
      </trkpt>
      <trkpt lat="49.06904" lon="1.12646">
        <ele>136.899994</ele>
        <time>2015-11-29T08:20:31Z</time>
      </trkpt>
      <trkpt lat="49.06911" lon="1.12637">
        <ele>136.899994</ele>
        <time>2015-11-29T08:20:33Z</time>
      </trkpt>
      <trkpt lat="49.06919" lon="1.12629">
        <ele>136.899994</ele>
        <time>2015-11-29T08:20:35Z</time>
      </trkpt>
      <trkpt lat="49.06927" lon="1.1262">
        <ele>136.899994</ele>
        <time>2015-11-29T08:20:37Z</time>
      </trkpt>
      <trkpt lat="49.06935" lon="1.12612">
        <ele>136.899994</ele>
        <time>2015-11-29T08:20:39Z</time>
      </trkpt>
      <trkpt lat="49.06943" lon="1.12604">
        <ele>136.899994</ele>
        <time>2015-11-29T08:20:41Z</time>
      </trkpt>
      <trkpt lat="49.06951" lon="1.12596">
        <ele>136.899994</ele>
        <time>2015-11-29T08:20:43Z</time>
      </trkpt>
      <trkpt lat="49.06959" lon="1.12589">
        <ele>136.899994</ele>
        <time>2015-11-29T08:20:45Z</time>
      </trkpt>
      <trkpt lat="49.06967" lon="1.12582">
        <ele>136.899994</ele>
        <time>2015-11-29T08:20:47Z</time>
      </trkpt>
      <trkpt lat="49.06977" lon="1.12573">
        <ele>136.899994</ele>
        <time>2015-11-29T08:20:50Z</time>
      </trkpt>
      <trkpt lat="49.06977" lon="1.12554">
        <ele>136.899994</ele>
        <time>2015-11-29T08:20:54Z</time>
      </trkpt>
      <trkpt lat="49.06973" lon="1.12539">
        <ele>136.699997</ele>
        <time>2015-11-29T08:20:57Z</time>
      </trkpt>
      <trkpt lat="49.06972" lon="1.12519">
        <ele>136.600006</ele>
        <time>2015-11-29T08:21:00Z</time>
      </trkpt>
      <trkpt lat="49.06972" lon="1.12502">
        <ele>136.5</ele>
        <time>2015-11-29T08:21:03Z</time>
      </trkpt>
      <trkpt lat="49.06971" lon="1.12484">
        <ele>136.399994</ele>
        <time>2015-11-29T08:21:06Z</time>
      </trkpt>
      <trkpt lat="49.06969" lon="1.12465">
        <ele>136.199997</ele>
        <time>2015-11-29T08:21:09Z</time>
      </trkpt>
      <trkpt lat="49.06968" lon="1.1245">
        <ele>136</ele>
        <time>2015-11-29T08:21:11Z</time>
      </trkpt>
      <trkpt lat="49.06967" lon="1.12435">
        <ele>135.899994</ele>
        <time>2015-11-29T08:21:13Z</time>
      </trkpt>
      <trkpt lat="49.06966" lon="1.12419">
        <ele>135.800003</ele>
        <time>2015-11-29T08:21:15Z</time>
      </trkpt>
      <trkpt lat="49.06965" lon="1.12401">
        <ele>135.699997</ele>
        <time>2015-11-29T08:21:17Z</time>
      </trkpt>
      <trkpt lat="49.06966" lon="1.12385">
        <ele>135.5</ele>
        <time>2015-11-29T08:21:19Z</time>
      </trkpt>
      <trkpt lat="49.06967" lon="1.12369">
        <ele>135.199997</ele>
        <time>2015-11-29T08:21:21Z</time>
      </trkpt>
      <trkpt lat="49.06969" lon="1.12355">
        <ele>135</ele>
        <time>2015-11-29T08:21:23Z</time>
      </trkpt>
      <trkpt lat="49.06971" lon="1.12341">
        <ele>134.800003</ele>
        <time>2015-11-29T08:21:25Z</time>
      </trkpt>
      <trkpt lat="49.06974" lon="1.12321">
        <ele>134.600006</ele>
        <time>2015-11-29T08:21:28Z</time>
      </trkpt>
      <trkpt lat="49.06977" lon="1.12303">
        <ele>134.5</ele>
        <time>2015-11-29T08:21:31Z</time>
      </trkpt>
      <trkpt lat="49.0698" lon="1.12285">
        <ele>134.399994</ele>
        <time>2015-11-29T08:21:34Z</time>
      </trkpt>
      <trkpt lat="49.06981" lon="1.12265">
        <ele>134.5</ele>
        <time>2015-11-29T08:21:37Z</time>
      </trkpt>
      <trkpt lat="49.06984" lon="1.12247">
        <ele>134.5</ele>
        <time>2015-11-29T08:21:40Z</time>
      </trkpt>
      <trkpt lat="49.06987" lon="1.12229">
        <ele>134.5</ele>
        <time>2015-11-29T08:21:43Z</time>
      </trkpt>
      <trkpt lat="49.0699" lon="1.12212">
        <ele>134.5</ele>
        <time>2015-11-29T08:21:46Z</time>
      </trkpt>
      <trkpt lat="49.06992" lon="1.12194">
        <ele>134.600006</ele>
        <time>2015-11-29T08:21:49Z</time>
      </trkpt>
      <trkpt lat="49.06995" lon="1.12176">
        <ele>134.600006</ele>
        <time>2015-11-29T08:21:52Z</time>
      </trkpt>
      <trkpt lat="49.06997" lon="1.12159">
        <ele>134.699997</ele>
        <time>2015-11-29T08:21:55Z</time>
      </trkpt>
      <trkpt lat="49.07" lon="1.12142">
        <ele>134.800003</ele>
        <time>2015-11-29T08:21:58Z</time>
      </trkpt>
      <trkpt lat="49.07003" lon="1.12126">
        <ele>134.899994</ele>
        <time>2015-11-29T08:22:01Z</time>
      </trkpt>
      <trkpt lat="49.07006" lon="1.12109">
        <ele>135.100006</ele>
        <time>2015-11-29T08:22:04Z</time>
      </trkpt>
      <trkpt lat="49.07008" lon="1.12092">
        <ele>135.300003</ele>
        <time>2015-11-29T08:22:07Z</time>
      </trkpt>
      <trkpt lat="49.07011" lon="1.12076">
        <ele>135.5</ele>
        <time>2015-11-29T08:22:10Z</time>
      </trkpt>
      <trkpt lat="49.07013" lon="1.12059">
        <ele>135.600006</ele>
        <time>2015-11-29T08:22:13Z</time>
      </trkpt>
      <trkpt lat="49.07015" lon="1.12041">
        <ele>135.699997</ele>
        <time>2015-11-29T08:22:16Z</time>
      </trkpt>
      <trkpt lat="49.07018" lon="1.12023">
        <ele>135.899994</ele>
        <time>2015-11-29T08:22:19Z</time>
      </trkpt>
      <trkpt lat="49.07021" lon="1.12005">
        <ele>135.899994</ele>
        <time>2015-11-29T08:22:22Z</time>
      </trkpt>
      <trkpt lat="49.07023" lon="1.11986">
        <ele>136.100006</ele>
        <time>2015-11-29T08:22:25Z</time>
      </trkpt>
      <trkpt lat="49.07025" lon="1.11968">
        <ele>136.300003</ele>
        <time>2015-11-29T08:22:28Z</time>
      </trkpt>
      <trkpt lat="49.07023" lon="1.1195">
        <ele>136.5</ele>
        <time>2015-11-29T08:22:31Z</time>
      </trkpt>
      <trkpt lat="49.07017" lon="1.11935">
        <ele>136.600006</ele>
        <time>2015-11-29T08:22:34Z</time>
      </trkpt>
      <trkpt lat="49.07011" lon="1.1192">
        <ele>136.800003</ele>
        <time>2015-11-29T08:22:37Z</time>
      </trkpt>
      <trkpt lat="49.07004" lon="1.11906">
        <ele>137.199997</ele>
        <time>2015-11-29T08:22:40Z</time>
      </trkpt>
      <trkpt lat="49.06998" lon="1.11891">
        <ele>137.399994</ele>
        <time>2015-11-29T08:22:43Z</time>
      </trkpt>
      <trkpt lat="49.06991" lon="1.11877">
        <ele>137.5</ele>
        <time>2015-11-29T08:22:46Z</time>
      </trkpt>
      <trkpt lat="49.06985" lon="1.11862">
        <ele>137.600006</ele>
        <time>2015-11-29T08:22:49Z</time>
      </trkpt>
      <trkpt lat="49.06979" lon="1.11847">
        <ele>137.600006</ele>
        <time>2015-11-29T08:22:52Z</time>
      </trkpt>
      <trkpt lat="49.06973" lon="1.11832">
        <ele>137.699997</ele>
        <time>2015-11-29T08:22:55Z</time>
      </trkpt>
      <trkpt lat="49.06966" lon="1.11816">
        <ele>137.899994</ele>
        <time>2015-11-29T08:22:58Z</time>
      </trkpt>
      <trkpt lat="49.06962" lon="1.11797">
        <ele>138</ele>
        <time>2015-11-29T08:23:01Z</time>
      </trkpt>
      <trkpt lat="49.0696" lon="1.11777">
        <ele>138.100006</ele>
        <time>2015-11-29T08:23:04Z</time>
      </trkpt>
      <trkpt lat="49.06959" lon="1.11763">
        <ele>138.100006</ele>
        <time>2015-11-29T08:23:06Z</time>
      </trkpt>
      <trkpt lat="49.06956" lon="1.11748">
        <ele>138.199997</ele>
        <time>2015-11-29T08:23:08Z</time>
      </trkpt>
      <trkpt lat="49.06954" lon="1.11733">
        <ele>138.199997</ele>
        <time>2015-11-29T08:23:10Z</time>
      </trkpt>
      <trkpt lat="49.06951" lon="1.11718">
        <ele>138.199997</ele>
        <time>2015-11-29T08:23:12Z</time>
      </trkpt>
      <trkpt lat="49.06949" lon="1.11703">
        <ele>138.300003</ele>
        <time>2015-11-29T08:23:14Z</time>
      </trkpt>
      <trkpt lat="49.06948" lon="1.11688">
        <ele>138.300003</ele>
        <time>2015-11-29T08:23:16Z</time>
      </trkpt>
      <trkpt lat="49.06947" lon="1.11673">
        <ele>138.300003</ele>
        <time>2015-11-29T08:23:18Z</time>
      </trkpt>
      <trkpt lat="49.06947" lon="1.11658">
        <ele>138.300003</ele>
        <time>2015-11-29T08:23:20Z</time>
      </trkpt>
      <trkpt lat="49.06948" lon="1.11644">
        <ele>138.399994</ele>
        <time>2015-11-29T08:23:22Z</time>
      </trkpt>
      <trkpt lat="49.06953" lon="1.11631">
        <ele>138.399994</ele>
        <time>2015-11-29T08:23:24Z</time>
      </trkpt>
      <trkpt lat="49.06961" lon="1.11623">
        <ele>138.399994</ele>
        <time>2015-11-29T08:23:26Z</time>
      </trkpt>
      <trkpt lat="49.0697" lon="1.11618">
        <ele>138.399994</ele>
        <time>2015-11-29T08:23:28Z</time>
      </trkpt>
      <trkpt lat="49.06981" lon="1.11614">
        <ele>138.399994</ele>
        <time>2015-11-29T08:23:30Z</time>
      </trkpt>
      <trkpt lat="49.0699" lon="1.1161">
        <ele>138.399994</ele>
        <time>2015-11-29T08:23:32Z</time>
      </trkpt>
      <trkpt lat="49.06999" lon="1.11606">
        <ele>138.399994</ele>
        <time>2015-11-29T08:23:34Z</time>
      </trkpt>
      <trkpt lat="49.07009" lon="1.11603">
        <ele>138.300003</ele>
        <time>2015-11-29T08:23:36Z</time>
      </trkpt>
      <trkpt lat="49.07018" lon="1.11599">
        <ele>138.300003</ele>
        <time>2015-11-29T08:23:38Z</time>
      </trkpt>
      <trkpt lat="49.07028" lon="1.11595">
        <ele>138.199997</ele>
        <time>2015-11-29T08:23:40Z</time>
      </trkpt>
      <trkpt lat="49.07038" lon="1.11591">
        <ele>138.199997</ele>
        <time>2015-11-29T08:23:42Z</time>
      </trkpt>
      <trkpt lat="49.07048" lon="1.11587">
        <ele>138.199997</ele>
        <time>2015-11-29T08:23:44Z</time>
      </trkpt>
      <trkpt lat="49.07058" lon="1.11583">
        <ele>138.100006</ele>
        <time>2015-11-29T08:23:46Z</time>
      </trkpt>
      <trkpt lat="49.07068" lon="1.11579">
        <ele>138</ele>
        <time>2015-11-29T08:23:48Z</time>
      </trkpt>
      <trkpt lat="49.07078" lon="1.11575">
        <ele>137.899994</ele>
        <time>2015-11-29T08:23:50Z</time>
      </trkpt>
      <trkpt lat="49.07089" lon="1.11571">
        <ele>137.899994</ele>
        <time>2015-11-29T08:23:52Z</time>
      </trkpt>
      <trkpt lat="49.07099" lon="1.11568">
        <ele>137.800003</ele>
        <time>2015-11-29T08:23:54Z</time>
      </trkpt>
      <trkpt lat="49.0711" lon="1.11565">
        <ele>137.699997</ele>
        <time>2015-11-29T08:23:56Z</time>
      </trkpt>
      <trkpt lat="49.07121" lon="1.11563">
        <ele>137.600006</ele>
        <time>2015-11-29T08:23:58Z</time>
      </trkpt>
      <trkpt lat="49.07133" lon="1.11561">
        <ele>137.5</ele>
        <time>2015-11-29T08:24:00Z</time>
      </trkpt>
      <trkpt lat="49.07144" lon="1.1156">
        <ele>137.399994</ele>
        <time>2015-11-29T08:24:02Z</time>
      </trkpt>
      <trkpt lat="49.07155" lon="1.11558">
        <ele>137.399994</ele>
        <time>2015-11-29T08:24:04Z</time>
      </trkpt>
      <trkpt lat="49.07166" lon="1.11556">
        <ele>137.300003</ele>
        <time>2015-11-29T08:24:06Z</time>
      </trkpt>
      <trkpt lat="49.07177" lon="1.11556">
        <ele>137.300003</ele>
        <time>2015-11-29T08:24:08Z</time>
      </trkpt>
      <trkpt lat="49.07189" lon="1.11557">
        <ele>137.199997</ele>
        <time>2015-11-29T08:24:10Z</time>
      </trkpt>
      <trkpt lat="49.072" lon="1.11558">
        <ele>137.199997</ele>
        <time>2015-11-29T08:24:12Z</time>
      </trkpt>
      <trkpt lat="49.07212" lon="1.1156">
        <ele>137.100006</ele>
        <time>2015-11-29T08:24:14Z</time>
      </trkpt>
      <trkpt lat="49.07224" lon="1.11561">
        <ele>137.100006</ele>
        <time>2015-11-29T08:24:16Z</time>
      </trkpt>
      <trkpt lat="49.07236" lon="1.11561">
        <ele>137</ele>
        <time>2015-11-29T08:24:18Z</time>
      </trkpt>
      <trkpt lat="49.07246" lon="1.11558">
        <ele>136.899994</ele>
        <time>2015-11-29T08:24:20Z</time>
      </trkpt>
      <trkpt lat="49.07255" lon="1.11556">
        <ele>136.800003</ele>
        <time>2015-11-29T08:24:22Z</time>
      </trkpt>
      <trkpt lat="49.07267" lon="1.11555">
        <ele>136.5</ele>
        <time>2015-11-29T08:24:25Z</time>
      </trkpt>
      <trkpt lat="49.07276" lon="1.11554">
        <ele>135.899994</ele>
        <time>2015-11-29T08:24:29Z</time>
      </trkpt>
      <trkpt lat="49.07286" lon="1.11551">
        <ele>135.300003</ele>
        <time>2015-11-29T08:24:33Z</time>
      </trkpt>
      <trkpt lat="49.07296" lon="1.11557">
        <ele>134.300003</ele>
        <time>2015-11-29T08:24:37Z</time>
      </trkpt>
      <trkpt lat="49.07305" lon="1.11563">
        <ele>133.399994</ele>
        <time>2015-11-29T08:24:40Z</time>
      </trkpt>
      <trkpt lat="49.07314" lon="1.11568">
        <ele>132.199997</ele>
        <time>2015-11-29T08:24:43Z</time>
      </trkpt>
      <trkpt lat="49.07322" lon="1.11577">
        <ele>130.600006</ele>
        <time>2015-11-29T08:24:47Z</time>
      </trkpt>
      <trkpt lat="49.07331" lon="1.11587">
        <ele>129.199997</ele>
        <time>2015-11-29T08:24:50Z</time>
      </trkpt>
      <trkpt lat="49.07336" lon="1.11599">
        <ele>127.800003</ele>
        <time>2015-11-29T08:24:53Z</time>
      </trkpt>
      <trkpt lat="49.07345" lon="1.11608">
        <ele>126.5</ele>
        <time>2015-11-29T08:24:56Z</time>
      </trkpt>
      <trkpt lat="49.07352" lon="1.11619">
        <ele>125</ele>
        <time>2015-11-29T08:25:00Z</time>
      </trkpt>
      <trkpt lat="49.07362" lon="1.11632">
        <ele>123.900002</ele>
        <time>2015-11-29T08:25:03Z</time>
      </trkpt>
      <trkpt lat="49.07368" lon="1.11643">
        <ele>123.199997</ele>
        <time>2015-11-29T08:25:05Z</time>
      </trkpt>
      <trkpt lat="49.07376" lon="1.11657">
        <ele>122.300003</ele>
        <time>2015-11-29T08:25:08Z</time>
      </trkpt>
      <trkpt lat="49.07383" lon="1.11668">
        <ele>121.400002</ele>
        <time>2015-11-29T08:25:11Z</time>
      </trkpt>
      <trkpt lat="49.07392" lon="1.1168">
        <ele>120.400002</ele>
        <time>2015-11-29T08:25:14Z</time>
      </trkpt>
      <trkpt lat="49.07401" lon="1.11689">
        <ele>119.599998</ele>
        <time>2015-11-29T08:25:17Z</time>
      </trkpt>
      <trkpt lat="49.0741" lon="1.11702">
        <ele>118.900002</ele>
        <time>2015-11-29T08:25:20Z</time>
      </trkpt>
      <trkpt lat="49.07416" lon="1.11712">
        <ele>118.199997</ele>
        <time>2015-11-29T08:25:23Z</time>
      </trkpt>
      <trkpt lat="49.07424" lon="1.11719">
        <ele>117.300003</ele>
        <time>2015-11-29T08:25:27Z</time>
      </trkpt>
      <trkpt lat="49.07433" lon="1.11722">
        <ele>116.800003</ele>
        <time>2015-11-29T08:25:30Z</time>
      </trkpt>
      <trkpt lat="49.07444" lon="1.11727">
        <ele>115.900002</ele>
        <time>2015-11-29T08:25:35Z</time>
      </trkpt>
      <trkpt lat="49.07453" lon="1.11732">
        <ele>115.300003</ele>
        <time>2015-11-29T08:25:39Z</time>
      </trkpt>
      <trkpt lat="49.07462" lon="1.11734">
        <ele>114.800003</ele>
        <time>2015-11-29T08:25:42Z</time>
      </trkpt>
      <trkpt lat="49.07473" lon="1.11736">
        <ele>114.199997</ele>
        <time>2015-11-29T08:25:47Z</time>
      </trkpt>
      <trkpt lat="49.07483" lon="1.11742">
        <ele>113.400002</ele>
        <time>2015-11-29T08:25:54Z</time>
      </trkpt>
      <trkpt lat="49.07492" lon="1.11748">
        <ele>112.900002</ele>
        <time>2015-11-29T08:26:01Z</time>
      </trkpt>
      <trkpt lat="49.07502" lon="1.11755">
        <ele>112.699997</ele>
        <time>2015-11-29T08:26:05Z</time>
      </trkpt>
      <trkpt lat="49.07511" lon="1.11762">
        <ele>112.599998</ele>
        <time>2015-11-29T08:26:09Z</time>
      </trkpt>
      <trkpt lat="49.0752" lon="1.11769">
        <ele>112.400002</ele>
        <time>2015-11-29T08:26:16Z</time>
      </trkpt>
      <trkpt lat="49.07529" lon="1.11768">
        <ele>112.300003</ele>
        <time>2015-11-29T08:26:21Z</time>
      </trkpt>
      <trkpt lat="49.0754" lon="1.11777">
        <ele>112.099998</ele>
        <time>2015-11-29T08:26:25Z</time>
      </trkpt>
      <trkpt lat="49.07549" lon="1.11784">
        <ele>111.699997</ele>
        <time>2015-11-29T08:26:30Z</time>
      </trkpt>
      <trkpt lat="49.07557" lon="1.11792">
        <ele>111.400002</ele>
        <time>2015-11-29T08:26:34Z</time>
      </trkpt>
      <trkpt lat="49.07566" lon="1.11802">
        <ele>111</ele>
        <time>2015-11-29T08:26:39Z</time>
      </trkpt>
      <trkpt lat="49.07575" lon="1.1181">
        <ele>110.800003</ele>
        <time>2015-11-29T08:26:42Z</time>
      </trkpt>
      <trkpt lat="49.07585" lon="1.11819">
        <ele>110.400002</ele>
        <time>2015-11-29T08:26:46Z</time>
      </trkpt>
      <trkpt lat="49.07596" lon="1.11828">
        <ele>110</ele>
        <time>2015-11-29T08:26:49Z</time>
      </trkpt>
      <trkpt lat="49.07604" lon="1.11836">
        <ele>109.599998</ele>
        <time>2015-11-29T08:26:52Z</time>
      </trkpt>
      <trkpt lat="49.07614" lon="1.11844">
        <ele>109.199997</ele>
        <time>2015-11-29T08:26:55Z</time>
      </trkpt>
      <trkpt lat="49.07624" lon="1.11854">
        <ele>108.800003</ele>
        <time>2015-11-29T08:26:58Z</time>
      </trkpt>
      <trkpt lat="49.07633" lon="1.11862">
        <ele>108.400002</ele>
        <time>2015-11-29T08:27:01Z</time>
      </trkpt>
      <trkpt lat="49.07642" lon="1.1187">
        <ele>108</ele>
        <time>2015-11-29T08:27:04Z</time>
      </trkpt>
      <trkpt lat="49.07652" lon="1.11876">
        <ele>107.599998</ele>
        <time>2015-11-29T08:27:06Z</time>
      </trkpt>
      <trkpt lat="49.07661" lon="1.11882">
        <ele>107.199997</ele>
        <time>2015-11-29T08:27:08Z</time>
      </trkpt>
      <trkpt lat="49.07672" lon="1.11894">
        <ele>106.5</ele>
        <time>2015-11-29T08:27:12Z</time>
      </trkpt>
      <trkpt lat="49.07682" lon="1.11903">
        <ele>106.199997</ele>
        <time>2015-11-29T08:27:14Z</time>
      </trkpt>
      <trkpt lat="49.07689" lon="1.11914">
        <ele>105.900002</ele>
        <time>2015-11-29T08:27:16Z</time>
      </trkpt>
      <trkpt lat="49.07697" lon="1.11923">
        <ele>105.699997</ele>
        <time>2015-11-29T08:27:18Z</time>
      </trkpt>
      <trkpt lat="49.07705" lon="1.11934">
        <ele>105.400002</ele>
        <time>2015-11-29T08:27:20Z</time>
      </trkpt>
      <trkpt lat="49.07717" lon="1.11947">
        <ele>105.099998</ele>
        <time>2015-11-29T08:27:22Z</time>
      </trkpt>
      <trkpt lat="49.07724" lon="1.11964">
        <ele>104.699997</ele>
        <time>2015-11-29T08:27:25Z</time>
      </trkpt>
      <trkpt lat="49.07732" lon="1.11981">
        <ele>104.300003</ele>
        <time>2015-11-29T08:27:28Z</time>
      </trkpt>
      <trkpt lat="49.07737" lon="1.11992">
        <ele>104</ele>
        <time>2015-11-29T08:27:30Z</time>
      </trkpt>
      <trkpt lat="49.07744" lon="1.12005">
        <ele>103.699997</ele>
        <time>2015-11-29T08:27:33Z</time>
      </trkpt>
      <trkpt lat="49.07755" lon="1.12007">
        <ele>103.300003</ele>
        <time>2015-11-29T08:27:37Z</time>
      </trkpt>
      <trkpt lat="49.07764" lon="1.12017">
        <ele>102.800003</ele>
        <time>2015-11-29T08:27:41Z</time>
      </trkpt>
      <trkpt lat="49.07767" lon="1.12033">
        <ele>102.400002</ele>
        <time>2015-11-29T08:27:45Z</time>
      </trkpt>
      <trkpt lat="49.07768" lon="1.12048">
        <ele>102.199997</ele>
        <time>2015-11-29T08:27:47Z</time>
      </trkpt>
      <trkpt lat="49.07769" lon="1.12062">
        <ele>101.900002</ele>
        <time>2015-11-29T08:27:49Z</time>
      </trkpt>
      <trkpt lat="49.0777" lon="1.12081">
        <ele>101.599998</ele>
        <time>2015-11-29T08:27:52Z</time>
      </trkpt>
      <trkpt lat="49.07771" lon="1.12101">
        <ele>101.400002</ele>
        <time>2015-11-29T08:27:55Z</time>
      </trkpt>
      <trkpt lat="49.07772" lon="1.1212">
        <ele>101</ele>
        <time>2015-11-29T08:27:58Z</time>
      </trkpt>
      <trkpt lat="49.07776" lon="1.1214">
        <ele>100.699997</ele>
        <time>2015-11-29T08:28:01Z</time>
      </trkpt>
      <trkpt lat="49.07779" lon="1.12154">
        <ele>100.5</ele>
        <time>2015-11-29T08:28:03Z</time>
      </trkpt>
      <trkpt lat="49.07782" lon="1.12167">
        <ele>100.300003</ele>
        <time>2015-11-29T08:28:05Z</time>
      </trkpt>
      <trkpt lat="49.07785" lon="1.12181">
        <ele>100.099998</ele>
        <time>2015-11-29T08:28:07Z</time>
      </trkpt>
      <trkpt lat="49.07789" lon="1.12194">
        <ele>99.800003</ele>
        <time>2015-11-29T08:28:09Z</time>
      </trkpt>
      <trkpt lat="49.07793" lon="1.12207">
        <ele>99.5</ele>
        <time>2015-11-29T08:28:11Z</time>
      </trkpt>
      <trkpt lat="49.078" lon="1.12224">
        <ele>99.099998</ele>
        <time>2015-11-29T08:28:14Z</time>
      </trkpt>
      <trkpt lat="49.07808" lon="1.12236">
        <ele>98.800003</ele>
        <time>2015-11-29T08:28:17Z</time>
      </trkpt>
      <trkpt lat="49.07815" lon="1.12247">
        <ele>98.300003</ele>
        <time>2015-11-29T08:28:21Z</time>
      </trkpt>
      <trkpt lat="49.07824" lon="1.12257">
        <ele>97.699997</ele>
        <time>2015-11-29T08:28:27Z</time>
      </trkpt>
      <trkpt lat="49.07831" lon="1.12267">
        <ele>97.199997</ele>
        <time>2015-11-29T08:28:37Z</time>
      </trkpt>
      <trkpt lat="49.07839" lon="1.12274">
        <ele>96.699997</ele>
        <time>2015-11-29T08:28:49Z</time>
      </trkpt>
      <trkpt lat="49.07848" lon="1.12271">
        <ele>96.5</ele>
        <time>2015-11-29T08:28:55Z</time>
      </trkpt>
      <trkpt lat="49.07858" lon="1.1227">
        <ele>96.800003</ele>
        <time>2015-11-29T08:29:01Z</time>
      </trkpt>
      <trkpt lat="49.07867" lon="1.12272">
        <ele>97.599998</ele>
        <time>2015-11-29T08:29:09Z</time>
      </trkpt>
      <trkpt lat="49.07876" lon="1.12274">
        <ele>98.900002</ele>
        <time>2015-11-29T08:29:17Z</time>
      </trkpt>
      <trkpt lat="49.07887" lon="1.12271">
        <ele>100.199997</ele>
        <time>2015-11-29T08:29:25Z</time>
      </trkpt>
      <trkpt lat="49.07895" lon="1.12268">
        <ele>101.400002</ele>
        <time>2015-11-29T08:29:31Z</time>
      </trkpt>
      <trkpt lat="49.07904" lon="1.12265">
        <ele>103.300003</ele>
        <time>2015-11-29T08:29:39Z</time>
      </trkpt>
      <trkpt lat="49.07915" lon="1.12263">
        <ele>105.099998</ele>
        <time>2015-11-29T08:29:47Z</time>
      </trkpt>
      <trkpt lat="49.07924" lon="1.12262">
        <ele>106.800003</ele>
        <time>2015-11-29T08:29:55Z</time>
      </trkpt>
      <trkpt lat="49.07934" lon="1.12263">
        <ele>109.699997</ele>
        <time>2015-11-29T08:30:11Z</time>
      </trkpt>
      <trkpt lat="49.07944" lon="1.1226">
        <ele>110.400002</ele>
        <time>2015-11-29T08:30:17Z</time>
      </trkpt>
      <trkpt lat="49.07952" lon="1.12253">
        <ele>111.199997</ele>
        <time>2015-11-29T08:30:24Z</time>
      </trkpt>
      <trkpt lat="49.07962" lon="1.12253">
        <ele>113.699997</ele>
        <time>2015-11-29T08:31:23Z</time>
      </trkpt>
      <trkpt lat="49.07973" lon="1.12257">
        <ele>113.599998</ele>
        <time>2015-11-29T08:31:27Z</time>
      </trkpt>
      <trkpt lat="49.07982" lon="1.1226">
        <ele>113.5</ele>
        <time>2015-11-29T08:31:30Z</time>
      </trkpt>
      <trkpt lat="49.07994" lon="1.12262">
        <ele>113.400002</ele>
        <time>2015-11-29T08:31:33Z</time>
      </trkpt>
      <trkpt lat="49.08003" lon="1.1226">
        <ele>113.300003</ele>
        <time>2015-11-29T08:31:35Z</time>
      </trkpt>
      <trkpt lat="49.08014" lon="1.12256">
        <ele>113.300003</ele>
        <time>2015-11-29T08:31:37Z</time>
      </trkpt>
      <trkpt lat="49.08026" lon="1.12251">
        <ele>113</ele>
        <time>2015-11-29T08:31:39Z</time>
      </trkpt>
      <trkpt lat="49.08038" lon="1.12243">
        <ele>112.699997</ele>
        <time>2015-11-29T08:31:41Z</time>
      </trkpt>
      <trkpt lat="49.0805" lon="1.12234">
        <ele>112.300003</ele>
        <time>2015-11-29T08:31:43Z</time>
      </trkpt>
      <trkpt lat="49.08061" lon="1.12226">
        <ele>111.900002</ele>
        <time>2015-11-29T08:31:45Z</time>
      </trkpt>
      <trkpt lat="49.08071" lon="1.12218">
        <ele>111.5</ele>
        <time>2015-11-29T08:31:47Z</time>
      </trkpt>
      <trkpt lat="49.08081" lon="1.1221">
        <ele>111</ele>
        <time>2015-11-29T08:31:49Z</time>
      </trkpt>
      <trkpt lat="49.08091" lon="1.12206">
        <ele>110.400002</ele>
        <time>2015-11-29T08:31:51Z</time>
      </trkpt>
      <trkpt lat="49.08101" lon="1.12207">
        <ele>109.800003</ele>
        <time>2015-11-29T08:31:53Z</time>
      </trkpt>
      <trkpt lat="49.08115" lon="1.12212">
        <ele>108.800003</ele>
        <time>2015-11-29T08:31:55Z</time>
      </trkpt>
      <trkpt lat="49.08128" lon="1.12216">
        <ele>107.900002</ele>
        <time>2015-11-29T08:31:57Z</time>
      </trkpt>
      <trkpt lat="49.08141" lon="1.12222">
        <ele>106.800003</ele>
        <time>2015-11-29T08:31:59Z</time>
      </trkpt>
      <trkpt lat="49.08157" lon="1.12229">
        <ele>105.699997</ele>
        <time>2015-11-29T08:32:01Z</time>
      </trkpt>
      <trkpt lat="49.08175" lon="1.12237">
        <ele>104.5</ele>
        <time>2015-11-29T08:32:03Z</time>
      </trkpt>
      <trkpt lat="49.08184" lon="1.12241">
        <ele>103.800003</ele>
        <time>2015-11-29T08:32:04Z</time>
      </trkpt>
      <trkpt lat="49.08193" lon="1.12246">
        <ele>103.099998</ele>
        <time>2015-11-29T08:32:05Z</time>
      </trkpt>
      <trkpt lat="49.08202" lon="1.12251">
        <ele>102.400002</ele>
        <time>2015-11-29T08:32:06Z</time>
      </trkpt>
      <trkpt lat="49.08211" lon="1.12256">
        <ele>101.699997</ele>
        <time>2015-11-29T08:32:07Z</time>
      </trkpt>
      <trkpt lat="49.08228" lon="1.12266">
        <ele>100.099998</ele>
        <time>2015-11-29T08:32:09Z</time>
      </trkpt>
      <trkpt lat="49.08245" lon="1.12273">
        <ele>98.5</ele>
        <time>2015-11-29T08:32:11Z</time>
      </trkpt>
      <trkpt lat="49.08254" lon="1.12277">
        <ele>97.599998</ele>
        <time>2015-11-29T08:32:12Z</time>
      </trkpt>
      <trkpt lat="49.08263" lon="1.12281">
        <ele>96.699997</ele>
        <time>2015-11-29T08:32:13Z</time>
      </trkpt>
      <trkpt lat="49.08272" lon="1.12286">
        <ele>95.900002</ele>
        <time>2015-11-29T08:32:14Z</time>
      </trkpt>
      <trkpt lat="49.08281" lon="1.12291">
        <ele>95.099998</ele>
        <time>2015-11-29T08:32:15Z</time>
      </trkpt>
      <trkpt lat="49.0829" lon="1.12294">
        <ele>94.199997</ele>
        <time>2015-11-29T08:32:16Z</time>
      </trkpt>
      <trkpt lat="49.08304" lon="1.12296">
        <ele>92.599998</ele>
        <time>2015-11-29T08:32:18Z</time>
      </trkpt>
      <trkpt lat="49.08315" lon="1.1229">
        <ele>91.199997</ele>
        <time>2015-11-29T08:32:20Z</time>
      </trkpt>
      <trkpt lat="49.08324" lon="1.12284">
        <ele>89.300003</ele>
        <time>2015-11-29T08:32:23Z</time>
      </trkpt>
      <trkpt lat="49.08331" lon="1.12271">
        <ele>86.400002</ele>
        <time>2015-11-29T08:32:29Z</time>
      </trkpt>
      <trkpt lat="49.08341" lon="1.12262">
        <ele>85.199997</ele>
        <time>2015-11-29T08:32:32Z</time>
      </trkpt>
      <trkpt lat="49.0835" lon="1.12254">
        <ele>84.199997</ele>
        <time>2015-11-29T08:32:35Z</time>
      </trkpt>
      <trkpt lat="49.0836" lon="1.12248">
        <ele>83.300003</ele>
        <time>2015-11-29T08:32:38Z</time>
      </trkpt>
      <trkpt lat="49.0837" lon="1.1224">
        <ele>82.5</ele>
        <time>2015-11-29T08:32:41Z</time>
      </trkpt>
      <trkpt lat="49.08378" lon="1.12233">
        <ele>82.099998</ele>
        <time>2015-11-29T08:32:43Z</time>
      </trkpt>
      <trkpt lat="49.08388" lon="1.12229">
        <ele>81.599998</ele>
        <time>2015-11-29T08:32:45Z</time>
      </trkpt>
      <trkpt lat="49.08397" lon="1.12225">
        <ele>81.199997</ele>
        <time>2015-11-29T08:32:47Z</time>
      </trkpt>
      <trkpt lat="49.08407" lon="1.12221">
        <ele>80.400002</ele>
        <time>2015-11-29T08:32:52Z</time>
      </trkpt>
      <trkpt lat="49.08417" lon="1.12215">
        <ele>79.400002</ele>
        <time>2015-11-29T08:32:58Z</time>
      </trkpt>
      <trkpt lat="49.08426" lon="1.12209">
        <ele>79</ele>
        <time>2015-11-29T08:33:00Z</time>
      </trkpt>
      <trkpt lat="49.08435" lon="1.122">
        <ele>78.599998</ele>
        <time>2015-11-29T08:33:02Z</time>
      </trkpt>
      <trkpt lat="49.08449" lon="1.12185">
        <ele>78.199997</ele>
        <time>2015-11-29T08:33:05Z</time>
      </trkpt>
      <trkpt lat="49.08462" lon="1.12176">
        <ele>77.699997</ele>
        <time>2015-11-29T08:33:08Z</time>
      </trkpt>
      <trkpt lat="49.0847" lon="1.12164">
        <ele>77.400002</ele>
        <time>2015-11-29T08:33:11Z</time>
      </trkpt>
      <trkpt lat="49.08479" lon="1.12152">
        <ele>77</ele>
        <time>2015-11-29T08:33:14Z</time>
      </trkpt>
      <trkpt lat="49.08486" lon="1.1214">
        <ele>76.699997</ele>
        <time>2015-11-29T08:33:17Z</time>
      </trkpt>
      <trkpt lat="49.08493" lon="1.12127">
        <ele>76.400002</ele>
        <time>2015-11-29T08:33:20Z</time>
      </trkpt>
      <trkpt lat="49.08503" lon="1.12113">
        <ele>76.199997</ele>
        <time>2015-11-29T08:33:23Z</time>
      </trkpt>
      <trkpt lat="49.08511" lon="1.12099">
        <ele>76.099998</ele>
        <time>2015-11-29T08:33:25Z</time>
      </trkpt>
      <trkpt lat="49.08518" lon="1.12087">
        <ele>75.900002</ele>
        <time>2015-11-29T08:33:28Z</time>
      </trkpt>
      <trkpt lat="49.08527" lon="1.12073">
        <ele>75.800003</ele>
        <time>2015-11-29T08:33:31Z</time>
      </trkpt>
      <trkpt lat="49.08533" lon="1.12061">
        <ele>75.599998</ele>
        <time>2015-11-29T08:33:33Z</time>
      </trkpt>
      <trkpt lat="49.08539" lon="1.1205">
        <ele>75.300003</ele>
        <time>2015-11-29T08:33:36Z</time>
      </trkpt>
      <trkpt lat="49.08547" lon="1.12041">
        <ele>74.900002</ele>
        <time>2015-11-29T08:33:39Z</time>
      </trkpt>
      <trkpt lat="49.08557" lon="1.12032">
        <ele>74.400002</ele>
        <time>2015-11-29T08:33:43Z</time>
      </trkpt>
      <trkpt lat="49.08566" lon="1.12023">
        <ele>74</ele>
        <time>2015-11-29T08:33:46Z</time>
      </trkpt>
      <trkpt lat="49.08574" lon="1.12016">
        <ele>73.699997</ele>
        <time>2015-11-29T08:33:49Z</time>
      </trkpt>
      <trkpt lat="49.08586" lon="1.12007">
        <ele>73.300003</ele>
        <time>2015-11-29T08:33:52Z</time>
      </trkpt>
      <trkpt lat="49.08594" lon="1.12001">
        <ele>73.099998</ele>
        <time>2015-11-29T08:33:54Z</time>
      </trkpt>
      <trkpt lat="49.08603" lon="1.11996">
        <ele>72.800003</ele>
        <time>2015-11-29T08:33:56Z</time>
      </trkpt>
      <trkpt lat="49.08614" lon="1.11992">
        <ele>72.400002</ele>
        <time>2015-11-29T08:33:59Z</time>
      </trkpt>
      <trkpt lat="49.08624" lon="1.11993">
        <ele>72.199997</ele>
        <time>2015-11-29T08:34:01Z</time>
      </trkpt>
      <trkpt lat="49.08633" lon="1.11994">
        <ele>71.900002</ele>
        <time>2015-11-29T08:34:03Z</time>
      </trkpt>
      <trkpt lat="49.08646" lon="1.11996">
        <ele>71.599998</ele>
        <time>2015-11-29T08:34:06Z</time>
      </trkpt>
      <trkpt lat="49.0866" lon="1.12">
        <ele>71.400002</ele>
        <time>2015-11-29T08:34:08Z</time>
      </trkpt>
      <trkpt lat="49.08669" lon="1.12002">
        <ele>71.199997</ele>
        <time>2015-11-29T08:34:09Z</time>
      </trkpt>
      <trkpt lat="49.08681" lon="1.12002">
        <ele>71.099998</ele>
        <time>2015-11-29T08:34:10Z</time>
      </trkpt>
      <trkpt lat="49.08693" lon="1.12003">
        <ele>71</ele>
        <time>2015-11-29T08:34:11Z</time>
      </trkpt>
      <trkpt lat="49.08703" lon="1.12002">
        <ele>70.900002</ele>
        <time>2015-11-29T08:34:12Z</time>
      </trkpt>
      <trkpt lat="49.08716" lon="1.12007">
        <ele>70.699997</ele>
        <time>2015-11-29T08:34:14Z</time>
      </trkpt>
      <trkpt lat="49.08727" lon="1.12008">
        <ele>70.5</ele>
        <time>2015-11-29T08:34:16Z</time>
      </trkpt>
      <trkpt lat="49.08737" lon="1.1201">
        <ele>70.199997</ele>
        <time>2015-11-29T08:34:18Z</time>
      </trkpt>
      <trkpt lat="49.0875" lon="1.12009">
        <ele>69.699997</ele>
        <time>2015-11-29T08:34:21Z</time>
      </trkpt>
      <trkpt lat="49.08761" lon="1.12012">
        <ele>69.199997</ele>
        <time>2015-11-29T08:34:24Z</time>
      </trkpt>
      <trkpt lat="49.0877" lon="1.12017">
        <ele>68.300003</ele>
        <time>2015-11-29T08:34:31Z</time>
      </trkpt>
      <trkpt lat="49.08778" lon="1.12027">
        <ele>67.900002</ele>
        <time>2015-11-29T08:34:37Z</time>
      </trkpt>
      <trkpt lat="49.08785" lon="1.12037">
        <ele>67.800003</ele>
        <time>2015-11-29T08:34:41Z</time>
      </trkpt>
      <trkpt lat="49.08792" lon="1.12051">
        <ele>67.699997</ele>
        <time>2015-11-29T08:34:44Z</time>
      </trkpt>
      <trkpt lat="49.08797" lon="1.12066">
        <ele>67.699997</ele>
        <time>2015-11-29T08:34:46Z</time>
      </trkpt>
      <trkpt lat="49.08801" lon="1.1208">
        <ele>67.599998</ele>
        <time>2015-11-29T08:34:48Z</time>
      </trkpt>
      <trkpt lat="49.08804" lon="1.12097">
        <ele>67.599998</ele>
        <time>2015-11-29T08:34:50Z</time>
      </trkpt>
      <trkpt lat="49.08808" lon="1.12112">
        <ele>67.5</ele>
        <time>2015-11-29T08:34:52Z</time>
      </trkpt>
      <trkpt lat="49.08814" lon="1.12127">
        <ele>67.199997</ele>
        <time>2015-11-29T08:34:54Z</time>
      </trkpt>
      <trkpt lat="49.08821" lon="1.1214">
        <ele>66.900002</ele>
        <time>2015-11-29T08:34:56Z</time>
      </trkpt>
      <trkpt lat="49.08829" lon="1.12155">
        <ele>66.599998</ele>
        <time>2015-11-29T08:34:58Z</time>
      </trkpt>
      <trkpt lat="49.08838" lon="1.12171">
        <ele>66.300003</ele>
        <time>2015-11-29T08:35:00Z</time>
      </trkpt>
      <trkpt lat="49.08847" lon="1.12185">
        <ele>66</ele>
        <time>2015-11-29T08:35:02Z</time>
      </trkpt>
      <trkpt lat="49.08855" lon="1.12194">
        <ele>65.699997</ele>
        <time>2015-11-29T08:35:04Z</time>
      </trkpt>
      <trkpt lat="49.08866" lon="1.12201">
        <ele>65.400002</ele>
        <time>2015-11-29T08:35:06Z</time>
      </trkpt>
      <trkpt lat="49.08875" lon="1.12205">
        <ele>64.900002</ele>
        <time>2015-11-29T08:35:10Z</time>
      </trkpt>
      <trkpt lat="49.08883" lon="1.12209">
        <ele>64.300003</ele>
        <time>2015-11-29T08:35:15Z</time>
      </trkpt>
      <trkpt lat="49.08893" lon="1.12212">
        <ele>63.700001</ele>
        <time>2015-11-29T08:35:23Z</time>
      </trkpt>
      <trkpt lat="49.08904" lon="1.12207">
        <ele>63.299999</ele>
        <time>2015-11-29T08:35:27Z</time>
      </trkpt>
      <trkpt lat="49.08914" lon="1.12204">
        <ele>62.799999</ele>
        <time>2015-11-29T08:35:30Z</time>
      </trkpt>
      <trkpt lat="49.08924" lon="1.12199">
        <ele>62.200001</ele>
        <time>2015-11-29T08:35:34Z</time>
      </trkpt>
      <trkpt lat="49.08935" lon="1.12195">
        <ele>61.900002</ele>
        <time>2015-11-29T08:35:36Z</time>
      </trkpt>
      <trkpt lat="49.08945" lon="1.12191">
        <ele>61.700001</ele>
        <time>2015-11-29T08:35:38Z</time>
      </trkpt>
      <trkpt lat="49.08956" lon="1.12186">
        <ele>61.200001</ele>
        <time>2015-11-29T08:35:41Z</time>
      </trkpt>
      <trkpt lat="49.08967" lon="1.12183">
        <ele>60.799999</ele>
        <time>2015-11-29T08:35:44Z</time>
      </trkpt>
      <trkpt lat="49.08979" lon="1.1218">
        <ele>60.400002</ele>
        <time>2015-11-29T08:35:47Z</time>
      </trkpt>
      <trkpt lat="49.08993" lon="1.12176">
        <ele>60.099998</ele>
        <time>2015-11-29T08:35:50Z</time>
      </trkpt>
      <trkpt lat="49.09004" lon="1.12171">
        <ele>59.900002</ele>
        <time>2015-11-29T08:35:52Z</time>
      </trkpt>
      <trkpt lat="49.09016" lon="1.12168">
        <ele>59.599998</ele>
        <time>2015-11-29T08:35:55Z</time>
      </trkpt>
      <trkpt lat="49.09026" lon="1.12161">
        <ele>59.200001</ele>
        <time>2015-11-29T08:35:58Z</time>
      </trkpt>
      <trkpt lat="49.09036" lon="1.1216">
        <ele>59</ele>
        <time>2015-11-29T08:36:00Z</time>
      </trkpt>
      <trkpt lat="49.09049" lon="1.12157">
        <ele>58.700001</ele>
        <time>2015-11-29T08:36:03Z</time>
      </trkpt>
      <trkpt lat="49.09062" lon="1.12154">
        <ele>58.299999</ele>
        <time>2015-11-29T08:36:06Z</time>
      </trkpt>
      <trkpt lat="49.09073" lon="1.12148">
        <ele>58</ele>
        <time>2015-11-29T08:36:08Z</time>
      </trkpt>
      <trkpt lat="49.09083" lon="1.12142">
        <ele>57.700001</ele>
        <time>2015-11-29T08:36:10Z</time>
      </trkpt>
      <trkpt lat="49.09091" lon="1.12133">
        <ele>57.400002</ele>
        <time>2015-11-29T08:36:12Z</time>
      </trkpt>
      <trkpt lat="49.091" lon="1.12125">
        <ele>57.099998</ele>
        <time>2015-11-29T08:36:14Z</time>
      </trkpt>
      <trkpt lat="49.09108" lon="1.12117">
        <ele>56.900002</ele>
        <time>2015-11-29T08:36:16Z</time>
      </trkpt>
      <trkpt lat="49.09116" lon="1.1211">
        <ele>56.700001</ele>
        <time>2015-11-29T08:36:18Z</time>
      </trkpt>
      <trkpt lat="49.09128" lon="1.12101">
        <ele>56.5</ele>
        <time>2015-11-29T08:36:21Z</time>
      </trkpt>
      <trkpt lat="49.09139" lon="1.12093">
        <ele>56.299999</ele>
        <time>2015-11-29T08:36:24Z</time>
      </trkpt>
      <trkpt lat="49.09148" lon="1.12087">
        <ele>56.299999</ele>
        <time>2015-11-29T08:36:27Z</time>
      </trkpt>
      <trkpt lat="49.09159" lon="1.12082">
        <ele>56.400002</ele>
        <time>2015-11-29T08:36:30Z</time>
      </trkpt>
      <trkpt lat="49.09169" lon="1.1208">
        <ele>56.599998</ele>
        <time>2015-11-29T08:36:33Z</time>
      </trkpt>
      <trkpt lat="49.09178" lon="1.12081">
        <ele>56.799999</ele>
        <time>2015-11-29T08:36:36Z</time>
      </trkpt>
      <trkpt lat="49.09187" lon="1.12082">
        <ele>57.200001</ele>
        <time>2015-11-29T08:36:40Z</time>
      </trkpt>
      <trkpt lat="49.09197" lon="1.12084">
        <ele>57.700001</ele>
        <time>2015-11-29T08:36:44Z</time>
      </trkpt>
      <trkpt lat="49.09208" lon="1.12086">
        <ele>58.299999</ele>
        <time>2015-11-29T08:36:48Z</time>
      </trkpt>
      <trkpt lat="49.09217" lon="1.12089">
        <ele>59.099998</ele>
        <time>2015-11-29T08:36:52Z</time>
      </trkpt>
      <trkpt lat="49.09228" lon="1.12088">
        <ele>60.400002</ele>
        <time>2015-11-29T08:36:58Z</time>
      </trkpt>
      <trkpt lat="49.09237" lon="1.12079">
        <ele>61.400002</ele>
        <time>2015-11-29T08:37:03Z</time>
      </trkpt>
      <trkpt lat="49.09244" lon="1.12069">
        <ele>62.099998</ele>
        <time>2015-11-29T08:37:07Z</time>
      </trkpt>
      <trkpt lat="49.09252" lon="1.12057">
        <ele>62.700001</ele>
        <time>2015-11-29T08:37:11Z</time>
      </trkpt>
      <trkpt lat="49.09259" lon="1.12046">
        <ele>63.200001</ele>
        <time>2015-11-29T08:37:16Z</time>
      </trkpt>
      <trkpt lat="49.09261" lon="1.1203">
        <ele>63.5</ele>
        <time>2015-11-29T08:37:21Z</time>
      </trkpt>
      <trkpt lat="49.09252" lon="1.12023">
        <ele>63.799999</ele>
        <time>2015-11-29T08:37:27Z</time>
      </trkpt>
      <trkpt lat="49.09243" lon="1.12019">
        <ele>64</ele>
        <time>2015-11-29T08:37:33Z</time>
      </trkpt>
      <trkpt lat="49.09233" lon="1.12015">
        <ele>64.300003</ele>
        <time>2015-11-29T08:37:39Z</time>
      </trkpt>
      <trkpt lat="49.09224" lon="1.12013">
        <ele>64.800003</ele>
        <time>2015-11-29T08:37:45Z</time>
      </trkpt>
      <trkpt lat="49.09214" lon="1.12011">
        <ele>65.400002</ele>
        <time>2015-11-29T08:37:51Z</time>
      </trkpt>
      <trkpt lat="49.09204" lon="1.12008">
        <ele>66.199997</ele>
        <time>2015-11-29T08:37:57Z</time>
      </trkpt>
      <trkpt lat="49.09194" lon="1.12006">
        <ele>66.900002</ele>
        <time>2015-11-29T08:38:03Z</time>
      </trkpt>
      <trkpt lat="49.09183" lon="1.12004">
        <ele>67.900002</ele>
        <time>2015-11-29T08:38:09Z</time>
      </trkpt>
      <trkpt lat="49.09174" lon="1.12002">
        <ele>68.699997</ele>
        <time>2015-11-29T08:38:14Z</time>
      </trkpt>
      <trkpt lat="49.09164" lon="1.11998">
        <ele>69.699997</ele>
        <time>2015-11-29T08:38:20Z</time>
      </trkpt>
      <trkpt lat="49.09154" lon="1.11994">
        <ele>70.599998</ele>
        <time>2015-11-29T08:38:26Z</time>
      </trkpt>
      <trkpt lat="49.09145" lon="1.11989">
        <ele>71.5</ele>
        <time>2015-11-29T08:38:32Z</time>
      </trkpt>
      <trkpt lat="49.09137" lon="1.11981">
        <ele>72.900002</ele>
        <time>2015-11-29T08:38:39Z</time>
      </trkpt>
      <trkpt lat="49.09132" lon="1.11969">
        <ele>74.199997</ele>
        <time>2015-11-29T08:38:46Z</time>
      </trkpt>
      <trkpt lat="49.09128" lon="1.11956">
        <ele>75.800003</ele>
        <time>2015-11-29T08:38:54Z</time>
      </trkpt>
      <trkpt lat="49.09128" lon="1.1194">
        <ele>77.400002</ele>
        <time>2015-11-29T08:39:02Z</time>
      </trkpt>
      <trkpt lat="49.09128" lon="1.11926">
        <ele>78.800003</ele>
        <time>2015-11-29T08:39:08Z</time>
      </trkpt>
      <trkpt lat="49.09126" lon="1.11912">
        <ele>80.300003</ele>
        <time>2015-11-29T08:39:15Z</time>
      </trkpt>
      <trkpt lat="49.09123" lon="1.11898">
        <ele>81.900002</ele>
        <time>2015-11-29T08:39:23Z</time>
      </trkpt>
      <trkpt lat="49.09119" lon="1.11883">
        <ele>83.5</ele>
        <time>2015-11-29T08:39:31Z</time>
      </trkpt>
      <trkpt lat="49.09115" lon="1.1187">
        <ele>85</ele>
        <time>2015-11-29T08:39:36Z</time>
      </trkpt>
      <trkpt lat="49.09112" lon="1.11856">
        <ele>86.599998</ele>
        <time>2015-11-29T08:39:42Z</time>
      </trkpt>
      <trkpt lat="49.09109" lon="1.11843">
        <ele>88.099998</ele>
        <time>2015-11-29T08:39:48Z</time>
      </trkpt>
      <trkpt lat="49.09104" lon="1.1183">
        <ele>89</ele>
        <time>2015-11-29T08:39:52Z</time>
      </trkpt>
      <trkpt lat="49.091" lon="1.11816">
        <ele>90.5</ele>
        <time>2015-11-29T08:39:58Z</time>
      </trkpt>
      <trkpt lat="49.09097" lon="1.11801">
        <ele>91.900002</ele>
        <time>2015-11-29T08:40:03Z</time>
      </trkpt>
      <trkpt lat="49.09094" lon="1.11785">
        <ele>93.300003</ele>
        <time>2015-11-29T08:40:08Z</time>
      </trkpt>
      <trkpt lat="49.09093" lon="1.1177">
        <ele>94.699997</ele>
        <time>2015-11-29T08:40:13Z</time>
      </trkpt>
      <trkpt lat="49.09089" lon="1.11752">
        <ele>95.900002</ele>
        <time>2015-11-29T08:40:18Z</time>
      </trkpt>
      <trkpt lat="49.09085" lon="1.11739">
        <ele>96.599998</ele>
        <time>2015-11-29T08:40:21Z</time>
      </trkpt>
      <trkpt lat="49.09082" lon="1.11724">
        <ele>97.800003</ele>
        <time>2015-11-29T08:40:26Z</time>
      </trkpt>
      <trkpt lat="49.09079" lon="1.1171">
        <ele>99</ele>
        <time>2015-11-29T08:40:31Z</time>
      </trkpt>
      <trkpt lat="49.09075" lon="1.11696">
        <ele>100.199997</ele>
        <time>2015-11-29T08:40:36Z</time>
      </trkpt>
      <trkpt lat="49.09071" lon="1.11684">
        <ele>101.199997</ele>
        <time>2015-11-29T08:40:41Z</time>
      </trkpt>
      <trkpt lat="49.09064" lon="1.1167">
        <ele>102.400002</ele>
        <time>2015-11-29T08:40:46Z</time>
      </trkpt>
      <trkpt lat="49.09054" lon="1.11661">
        <ele>103.5</ele>
        <time>2015-11-29T08:40:51Z</time>
      </trkpt>
      <trkpt lat="49.09046" lon="1.11654">
        <ele>105.099998</ele>
        <time>2015-11-29T08:40:57Z</time>
      </trkpt>
      <trkpt lat="49.09036" lon="1.11647">
        <ele>106.199997</ele>
        <time>2015-11-29T08:41:01Z</time>
      </trkpt>
      <trkpt lat="49.09028" lon="1.11639">
        <ele>106.900002</ele>
        <time>2015-11-29T08:41:04Z</time>
      </trkpt>
      <trkpt lat="49.09018" lon="1.11632">
        <ele>108</ele>
        <time>2015-11-29T08:41:08Z</time>
      </trkpt>
      <trkpt lat="49.09008" lon="1.11626">
        <ele>108.900002</ele>
        <time>2015-11-29T08:41:12Z</time>
      </trkpt>
      <trkpt lat="49.08999" lon="1.1162">
        <ele>109.699997</ele>
        <time>2015-11-29T08:41:16Z</time>
      </trkpt>
      <trkpt lat="49.0899" lon="1.11615">
        <ele>110.5</ele>
        <time>2015-11-29T08:41:20Z</time>
      </trkpt>
      <trkpt lat="49.08981" lon="1.1161">
        <ele>111.5</ele>
        <time>2015-11-29T08:41:24Z</time>
      </trkpt>
      <trkpt lat="49.08971" lon="1.11605">
        <ele>112.400002</ele>
        <time>2015-11-29T08:41:28Z</time>
      </trkpt>
      <trkpt lat="49.08961" lon="1.11596">
        <ele>113.099998</ele>
        <time>2015-11-29T08:41:32Z</time>
      </trkpt>
      <trkpt lat="49.08953" lon="1.11583">
        <ele>113.800003</ele>
        <time>2015-11-29T08:41:36Z</time>
      </trkpt>
      <trkpt lat="49.08947" lon="1.11568">
        <ele>114.599998</ele>
        <time>2015-11-29T08:41:40Z</time>
      </trkpt>
      <trkpt lat="49.0894" lon="1.11553">
        <ele>115.5</ele>
        <time>2015-11-29T08:41:44Z</time>
      </trkpt>
      <trkpt lat="49.08933" lon="1.1154">
        <ele>116.199997</ele>
        <time>2015-11-29T08:41:47Z</time>
      </trkpt>
      <trkpt lat="49.08928" lon="1.11528">
        <ele>116.900002</ele>
        <time>2015-11-29T08:41:50Z</time>
      </trkpt>
      <trkpt lat="49.08921" lon="1.11516">
        <ele>117.699997</ele>
        <time>2015-11-29T08:41:53Z</time>
      </trkpt>
      <trkpt lat="49.08916" lon="1.11504">
        <ele>118.5</ele>
        <time>2015-11-29T08:41:56Z</time>
      </trkpt>
      <trkpt lat="49.08909" lon="1.11494">
        <ele>119</ele>
        <time>2015-11-29T08:41:58Z</time>
      </trkpt>
      <trkpt lat="49.08901" lon="1.11481">
        <ele>119.699997</ele>
        <time>2015-11-29T08:42:01Z</time>
      </trkpt>
      <trkpt lat="49.08893" lon="1.11469">
        <ele>120.300003</ele>
        <time>2015-11-29T08:42:04Z</time>
      </trkpt>
      <trkpt lat="49.08884" lon="1.11457">
        <ele>120.900002</ele>
        <time>2015-11-29T08:42:07Z</time>
      </trkpt>
      <trkpt lat="49.08875" lon="1.11444">
        <ele>121.400002</ele>
        <time>2015-11-29T08:42:10Z</time>
      </trkpt>
      <trkpt lat="49.08868" lon="1.11433">
        <ele>121.900002</ele>
        <time>2015-11-29T08:42:13Z</time>
      </trkpt>
      <trkpt lat="49.08861" lon="1.1142">
        <ele>122.400002</ele>
        <time>2015-11-29T08:42:17Z</time>
      </trkpt>
      <trkpt lat="49.08851" lon="1.11407">
        <ele>122.800003</ele>
        <time>2015-11-29T08:42:20Z</time>
      </trkpt>
      <trkpt lat="49.08843" lon="1.11395">
        <ele>123.300003</ele>
        <time>2015-11-29T08:42:23Z</time>
      </trkpt>
      <trkpt lat="49.08836" lon="1.11383">
        <ele>123.699997</ele>
        <time>2015-11-29T08:42:26Z</time>
      </trkpt>
      <trkpt lat="49.08829" lon="1.1137">
        <ele>124.099998</ele>
        <time>2015-11-29T08:42:29Z</time>
      </trkpt>
      <trkpt lat="49.08823" lon="1.11358">
        <ele>124.400002</ele>
        <time>2015-11-29T08:42:32Z</time>
      </trkpt>
      <trkpt lat="49.08816" lon="1.11346">
        <ele>124.800003</ele>
        <time>2015-11-29T08:42:35Z</time>
      </trkpt>
      <trkpt lat="49.08808" lon="1.11334">
        <ele>125.199997</ele>
        <time>2015-11-29T08:42:38Z</time>
      </trkpt>
      <trkpt lat="49.088" lon="1.1132">
        <ele>125.599998</ele>
        <time>2015-11-29T08:42:41Z</time>
      </trkpt>
      <trkpt lat="49.08792" lon="1.11307">
        <ele>126</ele>
        <time>2015-11-29T08:42:44Z</time>
      </trkpt>
      <trkpt lat="49.08784" lon="1.11293">
        <ele>126.400002</ele>
        <time>2015-11-29T08:42:47Z</time>
      </trkpt>
      <trkpt lat="49.08777" lon="1.1128">
        <ele>126.699997</ele>
        <time>2015-11-29T08:42:50Z</time>
      </trkpt>
      <trkpt lat="49.08769" lon="1.11266">
        <ele>127</ele>
        <time>2015-11-29T08:42:53Z</time>
      </trkpt>
      <trkpt lat="49.08764" lon="1.11253">
        <ele>127.300003</ele>
        <time>2015-11-29T08:42:56Z</time>
      </trkpt>
      <trkpt lat="49.08757" lon="1.11241">
        <ele>127.599998</ele>
        <time>2015-11-29T08:42:59Z</time>
      </trkpt>
      <trkpt lat="49.08751" lon="1.11229">
        <ele>127.800003</ele>
        <time>2015-11-29T08:43:02Z</time>
      </trkpt>
      <trkpt lat="49.08741" lon="1.11216">
        <ele>128.100006</ele>
        <time>2015-11-29T08:43:05Z</time>
      </trkpt>
      <trkpt lat="49.08735" lon="1.11205">
        <ele>128.399994</ele>
        <time>2015-11-29T08:43:08Z</time>
      </trkpt>
      <trkpt lat="49.08728" lon="1.11194">
        <ele>128.600006</ele>
        <time>2015-11-29T08:43:11Z</time>
      </trkpt>
      <trkpt lat="49.0872" lon="1.11183">
        <ele>129</ele>
        <time>2015-11-29T08:43:15Z</time>
      </trkpt>
      <trkpt lat="49.08711" lon="1.1117">
        <ele>129.5</ele>
        <time>2015-11-29T08:43:19Z</time>
      </trkpt>
      <trkpt lat="49.08704" lon="1.11159">
        <ele>129.800003</ele>
        <time>2015-11-29T08:43:23Z</time>
      </trkpt>
      <trkpt lat="49.08696" lon="1.11144">
        <ele>130.100006</ele>
        <time>2015-11-29T08:43:27Z</time>
      </trkpt>
      <trkpt lat="49.0869" lon="1.11131">
        <ele>130.399994</ele>
        <time>2015-11-29T08:43:32Z</time>
      </trkpt>
      <trkpt lat="49.08683" lon="1.11121">
        <ele>130.600006</ele>
        <time>2015-11-29T08:43:35Z</time>
      </trkpt>
      <trkpt lat="49.08675" lon="1.11112">
        <ele>130.699997</ele>
        <time>2015-11-29T08:43:38Z</time>
      </trkpt>
      <trkpt lat="49.08668" lon="1.11102">
        <ele>130.899994</ele>
        <time>2015-11-29T08:43:42Z</time>
      </trkpt>
      <trkpt lat="49.08659" lon="1.11089">
        <ele>131.199997</ele>
        <time>2015-11-29T08:43:46Z</time>
      </trkpt>
      <trkpt lat="49.08653" lon="1.11078">
        <ele>131.300003</ele>
        <time>2015-11-29T08:43:50Z</time>
      </trkpt>
      <trkpt lat="49.08645" lon="1.11064">
        <ele>131.5</ele>
        <time>2015-11-29T08:43:54Z</time>
      </trkpt>
      <trkpt lat="49.08638" lon="1.11052">
        <ele>131.600006</ele>
        <time>2015-11-29T08:43:57Z</time>
      </trkpt>
      <trkpt lat="49.08632" lon="1.11038">
        <ele>131.699997</ele>
        <time>2015-11-29T08:44:01Z</time>
      </trkpt>
      <trkpt lat="49.08626" lon="1.11028">
        <ele>131.800003</ele>
        <time>2015-11-29T08:44:04Z</time>
      </trkpt>
      <trkpt lat="49.08619" lon="1.11016">
        <ele>132</ele>
        <time>2015-11-29T08:44:07Z</time>
      </trkpt>
      <trkpt lat="49.08611" lon="1.11003">
        <ele>132.100006</ele>
        <time>2015-11-29T08:44:10Z</time>
      </trkpt>
      <trkpt lat="49.08604" lon="1.10991">
        <ele>132.199997</ele>
        <time>2015-11-29T08:44:13Z</time>
      </trkpt>
      <trkpt lat="49.08596" lon="1.10977">
        <ele>132.300003</ele>
        <time>2015-11-29T08:44:16Z</time>
      </trkpt>
      <trkpt lat="49.08588" lon="1.10963">
        <ele>132.5</ele>
        <time>2015-11-29T08:44:19Z</time>
      </trkpt>
      <trkpt lat="49.08581" lon="1.10949">
        <ele>132.699997</ele>
        <time>2015-11-29T08:44:22Z</time>
      </trkpt>
      <trkpt lat="49.08577" lon="1.10934">
        <ele>132.899994</ele>
        <time>2015-11-29T08:44:25Z</time>
      </trkpt>
      <trkpt lat="49.08568" lon="1.10929">
        <ele>133.100006</ele>
        <time>2015-11-29T08:44:29Z</time>
      </trkpt>
      <trkpt lat="49.08573" lon="1.10942">
        <ele>133.300003</ele>
        <time>2015-11-29T08:44:35Z</time>
      </trkpt>
      <trkpt lat="49.08579" lon="1.10954">
        <ele>133.300003</ele>
        <time>2015-11-29T08:44:38Z</time>
      </trkpt>
      <trkpt lat="49.08587" lon="1.10967">
        <ele>133.300003</ele>
        <time>2015-11-29T08:44:41Z</time>
      </trkpt>
      <trkpt lat="49.08593" lon="1.1098">
        <ele>133.399994</ele>
        <time>2015-11-29T08:44:44Z</time>
      </trkpt>
      <trkpt lat="49.08601" lon="1.10993">
        <ele>133.399994</ele>
        <time>2015-11-29T08:44:47Z</time>
      </trkpt>
      <trkpt lat="49.08609" lon="1.11004">
        <ele>133.399994</ele>
        <time>2015-11-29T08:44:50Z</time>
      </trkpt>
      <trkpt lat="49.08617" lon="1.11019">
        <ele>133.399994</ele>
        <time>2015-11-29T08:44:53Z</time>
      </trkpt>
      <trkpt lat="49.08625" lon="1.11035">
        <ele>133.399994</ele>
        <time>2015-11-29T08:44:56Z</time>
      </trkpt>
      <trkpt lat="49.08633" lon="1.11049">
        <ele>133.300003</ele>
        <time>2015-11-29T08:44:59Z</time>
      </trkpt>
      <trkpt lat="49.0864" lon="1.11061">
        <ele>133.300003</ele>
        <time>2015-11-29T08:45:02Z</time>
      </trkpt>
      <trkpt lat="49.08648" lon="1.11071">
        <ele>133.100006</ele>
        <time>2015-11-29T08:45:07Z</time>
      </trkpt>
      <trkpt lat="49.08657" lon="1.11082">
        <ele>133</ele>
        <time>2015-11-29T08:45:11Z</time>
      </trkpt>
      <trkpt lat="49.08664" lon="1.11095">
        <ele>132.899994</ele>
        <time>2015-11-29T08:45:15Z</time>
      </trkpt>
      <trkpt lat="49.08671" lon="1.11108">
        <ele>132.800003</ele>
        <time>2015-11-29T08:45:19Z</time>
      </trkpt>
      <trkpt lat="49.08677" lon="1.11121">
        <ele>132.699997</ele>
        <time>2015-11-29T08:45:23Z</time>
      </trkpt>
      <trkpt lat="49.08686" lon="1.11134">
        <ele>132.600006</ele>
        <time>2015-11-29T08:45:26Z</time>
      </trkpt>
      <trkpt lat="49.08692" lon="1.11144">
        <ele>132.600006</ele>
        <time>2015-11-29T08:45:28Z</time>
      </trkpt>
      <trkpt lat="49.08702" lon="1.11159">
        <ele>132.5</ele>
        <time>2015-11-29T08:45:31Z</time>
      </trkpt>
      <trkpt lat="49.08709" lon="1.11169">
        <ele>132.300003</ele>
        <time>2015-11-29T08:45:33Z</time>
      </trkpt>
      <trkpt lat="49.08717" lon="1.11184">
        <ele>132.100006</ele>
        <time>2015-11-29T08:45:36Z</time>
      </trkpt>
      <trkpt lat="49.08724" lon="1.11198">
        <ele>131.699997</ele>
        <time>2015-11-29T08:45:39Z</time>
      </trkpt>
      <trkpt lat="49.08731" lon="1.11214">
        <ele>131.399994</ele>
        <time>2015-11-29T08:45:42Z</time>
      </trkpt>
      <trkpt lat="49.08737" lon="1.11226">
        <ele>131.199997</ele>
        <time>2015-11-29T08:45:44Z</time>
      </trkpt>
      <trkpt lat="49.08743" lon="1.11237">
        <ele>131</ele>
        <time>2015-11-29T08:45:46Z</time>
      </trkpt>
      <trkpt lat="49.0875" lon="1.1125">
        <ele>130.899994</ele>
        <time>2015-11-29T08:45:48Z</time>
      </trkpt>
      <trkpt lat="49.08757" lon="1.11262">
        <ele>130.699997</ele>
        <time>2015-11-29T08:45:50Z</time>
      </trkpt>
      <trkpt lat="49.08765" lon="1.11274">
        <ele>130.600006</ele>
        <time>2015-11-29T08:45:52Z</time>
      </trkpt>
      <trkpt lat="49.08773" lon="1.11285">
        <ele>130.399994</ele>
        <time>2015-11-29T08:45:54Z</time>
      </trkpt>
      <trkpt lat="49.0878" lon="1.11298">
        <ele>130.199997</ele>
        <time>2015-11-29T08:45:56Z</time>
      </trkpt>
      <trkpt lat="49.08786" lon="1.1131">
        <ele>130</ele>
        <time>2015-11-29T08:45:58Z</time>
      </trkpt>
      <trkpt lat="49.08795" lon="1.11322">
        <ele>129.800003</ele>
        <time>2015-11-29T08:46:00Z</time>
      </trkpt>
      <trkpt lat="49.08803" lon="1.11335">
        <ele>129.5</ele>
        <time>2015-11-29T08:46:02Z</time>
      </trkpt>
      <trkpt lat="49.0881" lon="1.11349">
        <ele>129.300003</ele>
        <time>2015-11-29T08:46:04Z</time>
      </trkpt>
      <trkpt lat="49.08818" lon="1.11362">
        <ele>129.100006</ele>
        <time>2015-11-29T08:46:06Z</time>
      </trkpt>
      <trkpt lat="49.08826" lon="1.11375">
        <ele>128.800003</ele>
        <time>2015-11-29T08:46:08Z</time>
      </trkpt>
      <trkpt lat="49.08835" lon="1.11388">
        <ele>128.5</ele>
        <time>2015-11-29T08:46:10Z</time>
      </trkpt>
      <trkpt lat="49.08842" lon="1.11402">
        <ele>128.300003</ele>
        <time>2015-11-29T08:46:12Z</time>
      </trkpt>
      <trkpt lat="49.0885" lon="1.11415">
        <ele>127.900002</ele>
        <time>2015-11-29T08:46:14Z</time>
      </trkpt>
      <trkpt lat="49.08858" lon="1.11428">
        <ele>127.599998</ele>
        <time>2015-11-29T08:46:16Z</time>
      </trkpt>
      <trkpt lat="49.08867" lon="1.11442">
        <ele>127.300003</ele>
        <time>2015-11-29T08:46:18Z</time>
      </trkpt>
      <trkpt lat="49.08876" lon="1.11455">
        <ele>126.900002</ele>
        <time>2015-11-29T08:46:20Z</time>
      </trkpt>
      <trkpt lat="49.08885" lon="1.1147">
        <ele>126.5</ele>
        <time>2015-11-29T08:46:22Z</time>
      </trkpt>
      <trkpt lat="49.08893" lon="1.11485">
        <ele>126.099998</ele>
        <time>2015-11-29T08:46:24Z</time>
      </trkpt>
      <trkpt lat="49.08902" lon="1.11502">
        <ele>125.599998</ele>
        <time>2015-11-29T08:46:26Z</time>
      </trkpt>
      <trkpt lat="49.08912" lon="1.11518">
        <ele>125.099998</ele>
        <time>2015-11-29T08:46:28Z</time>
      </trkpt>
      <trkpt lat="49.08921" lon="1.11534">
        <ele>124.599998</ele>
        <time>2015-11-29T08:46:30Z</time>
      </trkpt>
      <trkpt lat="49.08932" lon="1.11549">
        <ele>124</ele>
        <time>2015-11-29T08:46:32Z</time>
      </trkpt>
      <trkpt lat="49.08942" lon="1.11563">
        <ele>123.400002</ele>
        <time>2015-11-29T08:46:34Z</time>
      </trkpt>
      <trkpt lat="49.08951" lon="1.11574">
        <ele>122.699997</ele>
        <time>2015-11-29T08:46:36Z</time>
      </trkpt>
      <trkpt lat="49.08959" lon="1.11583">
        <ele>122.099998</ele>
        <time>2015-11-29T08:46:38Z</time>
      </trkpt>
      <trkpt lat="49.08967" lon="1.11589">
        <ele>121.400002</ele>
        <time>2015-11-29T08:46:40Z</time>
      </trkpt>
      <trkpt lat="49.08977" lon="1.11594">
        <ele>120.5</ele>
        <time>2015-11-29T08:46:43Z</time>
      </trkpt>
      <trkpt lat="49.08988" lon="1.11604">
        <ele>119.400002</ele>
        <time>2015-11-29T08:46:46Z</time>
      </trkpt>
      <trkpt lat="49.09001" lon="1.11615">
        <ele>118.300003</ele>
        <time>2015-11-29T08:46:49Z</time>
      </trkpt>
      <trkpt lat="49.09012" lon="1.11621">
        <ele>117.5</ele>
        <time>2015-11-29T08:46:51Z</time>
      </trkpt>
      <trkpt lat="49.09024" lon="1.11632">
        <ele>116.300003</ele>
        <time>2015-11-29T08:46:54Z</time>
      </trkpt>
      <trkpt lat="49.09032" lon="1.11641">
        <ele>115.5</ele>
        <time>2015-11-29T08:46:56Z</time>
      </trkpt>
      <trkpt lat="49.0904" lon="1.11649">
        <ele>114.599998</ele>
        <time>2015-11-29T08:46:58Z</time>
      </trkpt>
      <trkpt lat="49.09047" lon="1.11659">
        <ele>113.599998</ele>
        <time>2015-11-29T08:47:00Z</time>
      </trkpt>
      <trkpt lat="49.09054" lon="1.1167">
        <ele>111.800003</ele>
        <time>2015-11-29T08:47:04Z</time>
      </trkpt>
      <trkpt lat="49.09062" lon="1.11684">
        <ele>109.400002</ele>
        <time>2015-11-29T08:47:11Z</time>
      </trkpt>
      <trkpt lat="49.09066" lon="1.117">
        <ele>108.5</ele>
        <time>2015-11-29T08:47:14Z</time>
      </trkpt>
      <trkpt lat="49.0907" lon="1.11716">
        <ele>107.5</ele>
        <time>2015-11-29T08:47:17Z</time>
      </trkpt>
      <trkpt lat="49.09072" lon="1.11731">
        <ele>106.5</ele>
        <time>2015-11-29T08:47:20Z</time>
      </trkpt>
      <trkpt lat="49.09077" lon="1.11747">
        <ele>105.400002</ele>
        <time>2015-11-29T08:47:23Z</time>
      </trkpt>
      <trkpt lat="49.09081" lon="1.11764">
        <ele>104.5</ele>
        <time>2015-11-29T08:47:26Z</time>
      </trkpt>
      <trkpt lat="49.09084" lon="1.11776">
        <ele>103.5</ele>
        <time>2015-11-29T08:47:28Z</time>
      </trkpt>
      <trkpt lat="49.09089" lon="1.11789">
        <ele>102.699997</ele>
        <time>2015-11-29T08:47:30Z</time>
      </trkpt>
      <trkpt lat="49.09095" lon="1.11803">
        <ele>101.699997</ele>
        <time>2015-11-29T08:47:32Z</time>
      </trkpt>
      <trkpt lat="49.09101" lon="1.11819">
        <ele>100.199997</ele>
        <time>2015-11-29T08:47:35Z</time>
      </trkpt>
      <trkpt lat="49.09106" lon="1.11835">
        <ele>98.599998</ele>
        <time>2015-11-29T08:47:38Z</time>
      </trkpt>
      <trkpt lat="49.09113" lon="1.11851">
        <ele>97</ele>
        <time>2015-11-29T08:47:41Z</time>
      </trkpt>
      <trkpt lat="49.09117" lon="1.11866">
        <ele>95.300003</ele>
        <time>2015-11-29T08:47:44Z</time>
      </trkpt>
      <trkpt lat="49.09118" lon="1.1188">
        <ele>92.699997</ele>
        <time>2015-11-29T08:47:49Z</time>
      </trkpt>
      <trkpt lat="49.09123" lon="1.11891">
        <ele>88.400002</ele>
        <time>2015-11-29T08:48:02Z</time>
      </trkpt>
      <trkpt lat="49.0913" lon="1.119">
        <ele>85.400002</ele>
        <time>2015-11-29T08:48:27Z</time>
      </trkpt>
      <trkpt lat="49.09121" lon="1.11904">
        <ele>84.5</ele>
        <time>2015-11-29T08:48:58Z</time>
      </trkpt>
      <trkpt lat="49.0912" lon="1.1189">
        <ele>84.599998</ele>
        <time>2015-11-29T08:52:25Z</time>
      </trkpt>
      <trkpt lat="49.09116" lon="1.11876">
        <ele>85.599998</ele>
        <time>2015-11-29T08:52:31Z</time>
      </trkpt>
      <trkpt lat="49.09111" lon="1.11862">
        <ele>86.900002</ele>
        <time>2015-11-29T08:52:37Z</time>
      </trkpt>
      <trkpt lat="49.09107" lon="1.11849">
        <ele>88.199997</ele>
        <time>2015-11-29T08:52:42Z</time>
      </trkpt>
      <trkpt lat="49.09105" lon="1.11835">
        <ele>89.5</ele>
        <time>2015-11-29T08:52:48Z</time>
      </trkpt>
      <trkpt lat="49.09101" lon="1.11821">
        <ele>90.800003</ele>
        <time>2015-11-29T08:52:54Z</time>
      </trkpt>
      <trkpt lat="49.09096" lon="1.11807">
        <ele>92.199997</ele>
        <time>2015-11-29T08:53:00Z</time>
      </trkpt>
      <trkpt lat="49.09094" lon="1.11791">
        <ele>94</ele>
        <time>2015-11-29T08:53:07Z</time>
      </trkpt>
      <trkpt lat="49.09092" lon="1.11776">
        <ele>95.300003</ele>
        <time>2015-11-29T08:53:13Z</time>
      </trkpt>
      <trkpt lat="49.09089" lon="1.11761">
        <ele>96.300003</ele>
        <time>2015-11-29T08:53:18Z</time>
      </trkpt>
      <trkpt lat="49.09086" lon="1.11747">
        <ele>97.300003</ele>
        <time>2015-11-29T08:53:23Z</time>
      </trkpt>
      <trkpt lat="49.09082" lon="1.11733">
        <ele>98.300003</ele>
        <time>2015-11-29T08:53:28Z</time>
      </trkpt>
      <trkpt lat="49.0908" lon="1.1172">
        <ele>99.300003</ele>
        <time>2015-11-29T08:53:33Z</time>
      </trkpt>
      <trkpt lat="49.09077" lon="1.11705">
        <ele>100.400002</ele>
        <time>2015-11-29T08:53:40Z</time>
      </trkpt>
      <trkpt lat="49.09071" lon="1.11693">
        <ele>101.5</ele>
        <time>2015-11-29T08:53:46Z</time>
      </trkpt>
      <trkpt lat="49.09066" lon="1.1168">
        <ele>102.599998</ele>
        <time>2015-11-29T08:53:52Z</time>
      </trkpt>
      <trkpt lat="49.0906" lon="1.11669">
        <ele>103.800003</ele>
        <time>2015-11-29T08:54:00Z</time>
      </trkpt>
      <trkpt lat="49.09049" lon="1.11659">
        <ele>104.900002</ele>
        <time>2015-11-29T08:54:06Z</time>
      </trkpt>
      <trkpt lat="49.09042" lon="1.11651">
        <ele>106.199997</ele>
        <time>2015-11-29T08:54:12Z</time>
      </trkpt>
      <trkpt lat="49.09034" lon="1.11644">
        <ele>107.5</ele>
        <time>2015-11-29T08:54:19Z</time>
      </trkpt>
      <trkpt lat="49.09025" lon="1.11637">
        <ele>108.400002</ele>
        <time>2015-11-29T08:54:25Z</time>
      </trkpt>
      <trkpt lat="49.09016" lon="1.1163">
        <ele>109.199997</ele>
        <time>2015-11-29T08:54:31Z</time>
      </trkpt>
      <trkpt lat="49.09007" lon="1.11623">
        <ele>110</ele>
        <time>2015-11-29T08:54:37Z</time>
      </trkpt>
      <trkpt lat="49.08996" lon="1.11617">
        <ele>111</ele>
        <time>2015-11-29T08:54:44Z</time>
      </trkpt>
      <trkpt lat="49.08987" lon="1.11613">
        <ele>111.800003</ele>
        <time>2015-11-29T08:54:49Z</time>
      </trkpt>
      <trkpt lat="49.08977" lon="1.11608">
        <ele>112.599998</ele>
        <time>2015-11-29T08:54:56Z</time>
      </trkpt>
      <trkpt lat="49.08968" lon="1.11603">
        <ele>113.300003</ele>
        <time>2015-11-29T08:55:01Z</time>
      </trkpt>
      <trkpt lat="49.0896" lon="1.11597">
        <ele>113.800003</ele>
        <time>2015-11-29T08:55:05Z</time>
      </trkpt>
      <trkpt lat="49.08953" lon="1.11587">
        <ele>114.199997</ele>
        <time>2015-11-29T08:55:09Z</time>
      </trkpt>
      <trkpt lat="49.08946" lon="1.11575">
        <ele>114.800003</ele>
        <time>2015-11-29T08:55:14Z</time>
      </trkpt>
      <trkpt lat="49.08938" lon="1.11562">
        <ele>115.599998</ele>
        <time>2015-11-29T08:55:20Z</time>
      </trkpt>
      <trkpt lat="49.08932" lon="1.11552">
        <ele>116.099998</ele>
        <time>2015-11-29T08:55:25Z</time>
      </trkpt>
      <trkpt lat="49.08926" lon="1.11539">
        <ele>117</ele>
        <time>2015-11-29T08:55:31Z</time>
      </trkpt>
      <trkpt lat="49.08919" lon="1.11528">
        <ele>117.5</ele>
        <time>2015-11-29T08:55:35Z</time>
      </trkpt>
      <trkpt lat="49.08913" lon="1.11517">
        <ele>118.099998</ele>
        <time>2015-11-29T08:55:39Z</time>
      </trkpt>
      <trkpt lat="49.08907" lon="1.11506">
        <ele>118.599998</ele>
        <time>2015-11-29T08:55:43Z</time>
      </trkpt>
      <trkpt lat="49.08901" lon="1.11496">
        <ele>119.099998</ele>
        <time>2015-11-29T08:55:47Z</time>
      </trkpt>
      <trkpt lat="49.08894" lon="1.11485">
        <ele>119.5</ele>
        <time>2015-11-29T08:55:51Z</time>
      </trkpt>
      <trkpt lat="49.08887" lon="1.11471">
        <ele>120</ele>
        <time>2015-11-29T08:55:56Z</time>
      </trkpt>
      <trkpt lat="49.08881" lon="1.1146">
        <ele>120.5</ele>
        <time>2015-11-29T08:56:00Z</time>
      </trkpt>
      <trkpt lat="49.08873" lon="1.1145">
        <ele>120.800003</ele>
        <time>2015-11-29T08:56:04Z</time>
      </trkpt>
      <trkpt lat="49.08865" lon="1.11439">
        <ele>121.199997</ele>
        <time>2015-11-29T08:56:08Z</time>
      </trkpt>
      <trkpt lat="49.08857" lon="1.11425">
        <ele>121.699997</ele>
        <time>2015-11-29T08:56:12Z</time>
      </trkpt>
      <trkpt lat="49.0885" lon="1.11415">
        <ele>122</ele>
        <time>2015-11-29T08:56:15Z</time>
      </trkpt>
      <trkpt lat="49.08842" lon="1.11404">
        <ele>122.400002</ele>
        <time>2015-11-29T08:56:18Z</time>
      </trkpt>
      <trkpt lat="49.08836" lon="1.11392">
        <ele>122.800003</ele>
        <time>2015-11-29T08:56:22Z</time>
      </trkpt>
      <trkpt lat="49.08829" lon="1.11382">
        <ele>123.099998</ele>
        <time>2015-11-29T08:56:25Z</time>
      </trkpt>
      <trkpt lat="49.08823" lon="1.11371">
        <ele>123.400002</ele>
        <time>2015-11-29T08:56:28Z</time>
      </trkpt>
      <trkpt lat="49.08817" lon="1.1136">
        <ele>123.800003</ele>
        <time>2015-11-29T08:56:31Z</time>
      </trkpt>
      <trkpt lat="49.08809" lon="1.11349">
        <ele>124.099998</ele>
        <time>2015-11-29T08:56:34Z</time>
      </trkpt>
      <trkpt lat="49.08803" lon="1.11338">
        <ele>124.400002</ele>
        <time>2015-11-29T08:56:37Z</time>
      </trkpt>
      <trkpt lat="49.08796" lon="1.11327">
        <ele>124.699997</ele>
        <time>2015-11-29T08:56:41Z</time>
      </trkpt>
      <trkpt lat="49.08789" lon="1.11316">
        <ele>124.900002</ele>
        <time>2015-11-29T08:56:44Z</time>
      </trkpt>
      <trkpt lat="49.08782" lon="1.11306">
        <ele>125.099998</ele>
        <time>2015-11-29T08:56:47Z</time>
      </trkpt>
      <trkpt lat="49.08776" lon="1.11294">
        <ele>125.300003</ele>
        <time>2015-11-29T08:56:50Z</time>
      </trkpt>
      <trkpt lat="49.08768" lon="1.11281">
        <ele>125.699997</ele>
        <time>2015-11-29T08:56:54Z</time>
      </trkpt>
      <trkpt lat="49.08762" lon="1.11268">
        <ele>126</ele>
        <time>2015-11-29T08:56:57Z</time>
      </trkpt>
      <trkpt lat="49.08755" lon="1.11254">
        <ele>126.199997</ele>
        <time>2015-11-29T08:57:00Z</time>
      </trkpt>
      <trkpt lat="49.08749" lon="1.11241">
        <ele>126.400002</ele>
        <time>2015-11-29T08:57:04Z</time>
      </trkpt>
      <trkpt lat="49.08743" lon="1.11227">
        <ele>126.800003</ele>
        <time>2015-11-29T08:57:10Z</time>
      </trkpt>
      <trkpt lat="49.0874" lon="1.11214">
        <ele>127</ele>
        <time>2015-11-29T08:57:15Z</time>
      </trkpt>
      <trkpt lat="49.08737" lon="1.112">
        <ele>127.199997</ele>
        <time>2015-11-29T08:57:20Z</time>
      </trkpt>
      <trkpt lat="49.08733" lon="1.11186">
        <ele>128.100006</ele>
        <time>2015-11-29T08:57:35Z</time>
      </trkpt>
      <trkpt lat="49.08733" lon="1.1117">
        <ele>128.300003</ele>
        <time>2015-11-29T08:57:39Z</time>
      </trkpt>
      <trkpt lat="49.08733" lon="1.11154">
        <ele>128.399994</ele>
        <time>2015-11-29T08:57:43Z</time>
      </trkpt>
      <trkpt lat="49.08733" lon="1.1114">
        <ele>128.600006</ele>
        <time>2015-11-29T08:57:47Z</time>
      </trkpt>
      <trkpt lat="49.08732" lon="1.11125">
        <ele>128.800003</ele>
        <time>2015-11-29T08:57:51Z</time>
      </trkpt>
      <trkpt lat="49.08731" lon="1.11111">
        <ele>129</ele>
        <time>2015-11-29T08:57:55Z</time>
      </trkpt>
      <trkpt lat="49.08729" lon="1.11096">
        <ele>129.300003</ele>
        <time>2015-11-29T08:57:59Z</time>
      </trkpt>
      <trkpt lat="49.08728" lon="1.11078">
        <ele>129.600006</ele>
        <time>2015-11-29T08:58:03Z</time>
      </trkpt>
      <trkpt lat="49.08729" lon="1.1106">
        <ele>129.800003</ele>
        <time>2015-11-29T08:58:07Z</time>
      </trkpt>
      <trkpt lat="49.08728" lon="1.11047">
        <ele>130</ele>
        <time>2015-11-29T08:58:10Z</time>
      </trkpt>
      <trkpt lat="49.08727" lon="1.1103">
        <ele>130.100006</ele>
        <time>2015-11-29T08:58:13Z</time>
      </trkpt>
      <trkpt lat="49.08725" lon="1.11015">
        <ele>130.199997</ele>
        <time>2015-11-29T08:58:16Z</time>
      </trkpt>
      <trkpt lat="49.08725" lon="1.10999">
        <ele>130.300003</ele>
        <time>2015-11-29T08:58:19Z</time>
      </trkpt>
      <trkpt lat="49.08724" lon="1.10983">
        <ele>130.399994</ele>
        <time>2015-11-29T08:58:22Z</time>
      </trkpt>
      <trkpt lat="49.08723" lon="1.10967">
        <ele>130.399994</ele>
        <time>2015-11-29T08:58:25Z</time>
      </trkpt>
      <trkpt lat="49.08723" lon="1.10952">
        <ele>130.399994</ele>
        <time>2015-11-29T08:58:28Z</time>
      </trkpt>
      <trkpt lat="49.08722" lon="1.10936">
        <ele>130.399994</ele>
        <time>2015-11-29T08:58:31Z</time>
      </trkpt>
      <trkpt lat="49.08722" lon="1.10922">
        <ele>130.300003</ele>
        <time>2015-11-29T08:58:34Z</time>
      </trkpt>
      <trkpt lat="49.08722" lon="1.10907">
        <ele>130.300003</ele>
        <time>2015-11-29T08:58:37Z</time>
      </trkpt>
      <trkpt lat="49.08721" lon="1.10892">
        <ele>130.199997</ele>
        <time>2015-11-29T08:58:40Z</time>
      </trkpt>
      <trkpt lat="49.0872" lon="1.10877">
        <ele>130</ele>
        <time>2015-11-29T08:58:43Z</time>
      </trkpt>
      <trkpt lat="49.08718" lon="1.10862">
        <ele>129.899994</ele>
        <time>2015-11-29T08:58:46Z</time>
      </trkpt>
      <trkpt lat="49.08718" lon="1.10848">
        <ele>129.800003</ele>
        <time>2015-11-29T08:58:50Z</time>
      </trkpt>
      <trkpt lat="49.0872" lon="1.10834">
        <ele>129.600006</ele>
        <time>2015-11-29T08:59:31Z</time>
      </trkpt>
      <trkpt lat="49.08717" lon="1.10817">
        <ele>129.5</ele>
        <time>2015-11-29T09:08:26Z</time>
      </trkpt>
      <trkpt lat="49.08718" lon="1.10799">
        <ele>129.5</ele>
        <time>2015-11-29T09:08:29Z</time>
      </trkpt>
      <trkpt lat="49.08718" lon="1.10781">
        <ele>129.5</ele>
        <time>2015-11-29T09:08:32Z</time>
      </trkpt>
      <trkpt lat="49.08716" lon="1.10762">
        <ele>129.399994</ele>
        <time>2015-11-29T09:08:35Z</time>
      </trkpt>
      <trkpt lat="49.08714" lon="1.10745">
        <ele>129.5</ele>
        <time>2015-11-29T09:08:38Z</time>
      </trkpt>
      <trkpt lat="49.08714" lon="1.10728">
        <ele>129.5</ele>
        <time>2015-11-29T09:08:41Z</time>
      </trkpt>
      <trkpt lat="49.08715" lon="1.10711">
        <ele>129.5</ele>
        <time>2015-11-29T09:08:44Z</time>
      </trkpt>
      <trkpt lat="49.08713" lon="1.10694">
        <ele>129.600006</ele>
        <time>2015-11-29T09:08:47Z</time>
      </trkpt>
      <trkpt lat="49.08712" lon="1.10677">
        <ele>129.699997</ele>
        <time>2015-11-29T09:08:50Z</time>
      </trkpt>
      <trkpt lat="49.08712" lon="1.1066">
        <ele>129.800003</ele>
        <time>2015-11-29T09:08:53Z</time>
      </trkpt>
      <trkpt lat="49.0871" lon="1.10641">
        <ele>129.899994</ele>
        <time>2015-11-29T09:08:56Z</time>
      </trkpt>
      <trkpt lat="49.08713" lon="1.10625">
        <ele>130.100006</ele>
        <time>2015-11-29T09:08:59Z</time>
      </trkpt>
      <trkpt lat="49.08712" lon="1.10608">
        <ele>130.199997</ele>
        <time>2015-11-29T09:09:02Z</time>
      </trkpt>
      <trkpt lat="49.0871" lon="1.1059">
        <ele>130.399994</ele>
        <time>2015-11-29T09:09:05Z</time>
      </trkpt>
      <trkpt lat="49.0871" lon="1.10575">
        <ele>130.5</ele>
        <time>2015-11-29T09:09:08Z</time>
      </trkpt>
      <trkpt lat="49.08711" lon="1.10558">
        <ele>130.699997</ele>
        <time>2015-11-29T09:09:11Z</time>
      </trkpt>
      <trkpt lat="49.08709" lon="1.10543">
        <ele>131.199997</ele>
        <time>2015-11-29T09:09:14Z</time>
      </trkpt>
      <trkpt lat="49.0871" lon="1.10527">
        <ele>131.5</ele>
        <time>2015-11-29T09:09:17Z</time>
      </trkpt>
      <trkpt lat="49.08711" lon="1.1051">
        <ele>131.699997</ele>
        <time>2015-11-29T09:09:20Z</time>
      </trkpt>
      <trkpt lat="49.08709" lon="1.10491">
        <ele>131.899994</ele>
        <time>2015-11-29T09:09:23Z</time>
      </trkpt>
      <trkpt lat="49.08705" lon="1.10473">
        <ele>132</ele>
        <time>2015-11-29T09:09:26Z</time>
      </trkpt>
      <trkpt lat="49.08704" lon="1.10456">
        <ele>132.300003</ele>
        <time>2015-11-29T09:09:29Z</time>
      </trkpt>
      <trkpt lat="49.08705" lon="1.1044">
        <ele>132.399994</ele>
        <time>2015-11-29T09:09:32Z</time>
      </trkpt>
      <trkpt lat="49.08704" lon="1.10423">
        <ele>132.5</ele>
        <time>2015-11-29T09:09:35Z</time>
      </trkpt>
      <trkpt lat="49.08706" lon="1.10408">
        <ele>132.199997</ele>
        <time>2015-11-29T09:09:38Z</time>
      </trkpt>
      <trkpt lat="49.08707" lon="1.10392">
        <ele>132.100006</ele>
        <time>2015-11-29T09:09:41Z</time>
      </trkpt>
      <trkpt lat="49.08709" lon="1.10377">
        <ele>132</ele>
        <time>2015-11-29T09:09:44Z</time>
      </trkpt>
      <trkpt lat="49.08711" lon="1.10362">
        <ele>131.899994</ele>
        <time>2015-11-29T09:09:47Z</time>
      </trkpt>
      <trkpt lat="49.08717" lon="1.10347">
        <ele>131.800003</ele>
        <time>2015-11-29T09:09:50Z</time>
      </trkpt>
      <trkpt lat="49.08725" lon="1.10337">
        <ele>131.699997</ele>
        <time>2015-11-29T09:09:53Z</time>
      </trkpt>
      <trkpt lat="49.08735" lon="1.1033">
        <ele>131.5</ele>
        <time>2015-11-29T09:09:56Z</time>
      </trkpt>
      <trkpt lat="49.08742" lon="1.10322">
        <ele>131.199997</ele>
        <time>2015-11-29T09:09:58Z</time>
      </trkpt>
      <trkpt lat="49.08751" lon="1.10315">
        <ele>131</ele>
        <time>2015-11-29T09:10:00Z</time>
      </trkpt>
      <trkpt lat="49.08759" lon="1.10304">
        <ele>130.600006</ele>
        <time>2015-11-29T09:10:03Z</time>
      </trkpt>
      <trkpt lat="49.08765" lon="1.10292">
        <ele>130.399994</ele>
        <time>2015-11-29T09:10:06Z</time>
      </trkpt>
      <trkpt lat="49.08772" lon="1.10278">
        <ele>130.300003</ele>
        <time>2015-11-29T09:10:09Z</time>
      </trkpt>
      <trkpt lat="49.08779" lon="1.10266">
        <ele>130.100006</ele>
        <time>2015-11-29T09:10:12Z</time>
      </trkpt>
      <trkpt lat="49.08788" lon="1.10254">
        <ele>130</ele>
        <time>2015-11-29T09:10:16Z</time>
      </trkpt>
      <trkpt lat="49.08796" lon="1.10245">
        <ele>130</ele>
        <time>2015-11-29T09:10:19Z</time>
      </trkpt>
      <trkpt lat="49.08805" lon="1.10238">
        <ele>129.899994</ele>
        <time>2015-11-29T09:10:22Z</time>
      </trkpt>
      <trkpt lat="49.08813" lon="1.10232">
        <ele>129.899994</ele>
        <time>2015-11-29T09:10:25Z</time>
      </trkpt>
      <trkpt lat="49.08823" lon="1.10223">
        <ele>129.899994</ele>
        <time>2015-11-29T09:10:29Z</time>
      </trkpt>
      <trkpt lat="49.08832" lon="1.10217">
        <ele>129.899994</ele>
        <time>2015-11-29T09:10:32Z</time>
      </trkpt>
      <trkpt lat="49.08842" lon="1.1021">
        <ele>129.899994</ele>
        <time>2015-11-29T09:10:35Z</time>
      </trkpt>
      <trkpt lat="49.08852" lon="1.10203">
        <ele>130</ele>
        <time>2015-11-29T09:10:38Z</time>
      </trkpt>
      <trkpt lat="49.08864" lon="1.10197">
        <ele>130.100006</ele>
        <time>2015-11-29T09:10:41Z</time>
      </trkpt>
      <trkpt lat="49.08874" lon="1.10191">
        <ele>130.199997</ele>
        <time>2015-11-29T09:10:43Z</time>
      </trkpt>
      <trkpt lat="49.08884" lon="1.10182">
        <ele>130.300003</ele>
        <time>2015-11-29T09:10:46Z</time>
      </trkpt>
      <trkpt lat="49.08895" lon="1.10175">
        <ele>130.300003</ele>
        <time>2015-11-29T09:10:49Z</time>
      </trkpt>
      <trkpt lat="49.08905" lon="1.10168">
        <ele>130.399994</ele>
        <time>2015-11-29T09:10:52Z</time>
      </trkpt>
      <trkpt lat="49.08914" lon="1.10163">
        <ele>130.5</ele>
        <time>2015-11-29T09:10:55Z</time>
      </trkpt>
      <trkpt lat="49.08925" lon="1.10157">
        <ele>130.699997</ele>
        <time>2015-11-29T09:11:00Z</time>
      </trkpt>
      <trkpt lat="49.08935" lon="1.10148">
        <ele>130.899994</ele>
        <time>2015-11-29T09:11:03Z</time>
      </trkpt>
      <trkpt lat="49.08943" lon="1.10141">
        <ele>131.100006</ele>
        <time>2015-11-29T09:11:07Z</time>
      </trkpt>
      <trkpt lat="49.08952" lon="1.10136">
        <ele>131.300003</ele>
        <time>2015-11-29T09:11:13Z</time>
      </trkpt>
      <trkpt lat="49.08961" lon="1.10131">
        <ele>131.399994</ele>
        <time>2015-11-29T09:11:18Z</time>
      </trkpt>
      <trkpt lat="49.08972" lon="1.10124">
        <ele>131.5</ele>
        <time>2015-11-29T09:11:22Z</time>
      </trkpt>
      <trkpt lat="49.08981" lon="1.10117">
        <ele>131.600006</ele>
        <time>2015-11-29T09:11:25Z</time>
      </trkpt>
      <trkpt lat="49.08991" lon="1.1011">
        <ele>131.600006</ele>
        <time>2015-11-29T09:11:28Z</time>
      </trkpt>
      <trkpt lat="49.09" lon="1.10105">
        <ele>131.699997</ele>
        <time>2015-11-29T09:11:31Z</time>
      </trkpt>
      <trkpt lat="49.0901" lon="1.10098">
        <ele>131.699997</ele>
        <time>2015-11-29T09:11:34Z</time>
      </trkpt>
      <trkpt lat="49.0902" lon="1.10089">
        <ele>131.800003</ele>
        <time>2015-11-29T09:11:38Z</time>
      </trkpt>
      <trkpt lat="49.09029" lon="1.1008">
        <ele>132</ele>
        <time>2015-11-29T09:11:41Z</time>
      </trkpt>
      <trkpt lat="49.09035" lon="1.10068">
        <ele>132.100006</ele>
        <time>2015-11-29T09:11:44Z</time>
      </trkpt>
      <trkpt lat="49.09041" lon="1.10058">
        <ele>132.199997</ele>
        <time>2015-11-29T09:11:47Z</time>
      </trkpt>
      <trkpt lat="49.09049" lon="1.10047">
        <ele>132.300003</ele>
        <time>2015-11-29T09:11:50Z</time>
      </trkpt>
      <trkpt lat="49.09056" lon="1.10036">
        <ele>132.399994</ele>
        <time>2015-11-29T09:11:53Z</time>
      </trkpt>
      <trkpt lat="49.09063" lon="1.10024">
        <ele>132.399994</ele>
        <time>2015-11-29T09:11:56Z</time>
      </trkpt>
      <trkpt lat="49.09071" lon="1.10009">
        <ele>132.5</ele>
        <time>2015-11-29T09:11:59Z</time>
      </trkpt>
      <trkpt lat="49.0908" lon="1.09995">
        <ele>132.5</ele>
        <time>2015-11-29T09:12:02Z</time>
      </trkpt>
      <trkpt lat="49.09088" lon="1.0998">
        <ele>132.399994</ele>
        <time>2015-11-29T09:12:05Z</time>
      </trkpt>
      <trkpt lat="49.09099" lon="1.09971">
        <ele>132.199997</ele>
        <time>2015-11-29T09:12:08Z</time>
      </trkpt>
      <trkpt lat="49.0911" lon="1.09966">
        <ele>132.100006</ele>
        <time>2015-11-29T09:12:11Z</time>
      </trkpt>
      <trkpt lat="49.09121" lon="1.09964">
        <ele>131.899994</ele>
        <time>2015-11-29T09:12:14Z</time>
      </trkpt>
      <trkpt lat="49.09132" lon="1.09963">
        <ele>131.800003</ele>
        <time>2015-11-29T09:12:17Z</time>
      </trkpt>
      <trkpt lat="49.09142" lon="1.09963">
        <ele>131.800003</ele>
        <time>2015-11-29T09:12:20Z</time>
      </trkpt>
      <trkpt lat="49.09154" lon="1.09963">
        <ele>131.699997</ele>
        <time>2015-11-29T09:12:24Z</time>
      </trkpt>
      <trkpt lat="49.09163" lon="1.09963">
        <ele>131.699997</ele>
        <time>2015-11-29T09:12:27Z</time>
      </trkpt>
      <trkpt lat="49.09175" lon="1.0996">
        <ele>131.699997</ele>
        <time>2015-11-29T09:12:30Z</time>
      </trkpt>
      <trkpt lat="49.09186" lon="1.09954">
        <ele>131.699997</ele>
        <time>2015-11-29T09:12:33Z</time>
      </trkpt>
      <trkpt lat="49.09197" lon="1.09948">
        <ele>131.699997</ele>
        <time>2015-11-29T09:12:36Z</time>
      </trkpt>
      <trkpt lat="49.09209" lon="1.09942">
        <ele>131.800003</ele>
        <time>2015-11-29T09:12:39Z</time>
      </trkpt>
      <trkpt lat="49.09222" lon="1.09939">
        <ele>131.800003</ele>
        <time>2015-11-29T09:12:42Z</time>
      </trkpt>
      <trkpt lat="49.09232" lon="1.09935">
        <ele>131.800003</ele>
        <time>2015-11-29T09:12:44Z</time>
      </trkpt>
      <trkpt lat="49.09243" lon="1.09931">
        <ele>131.800003</ele>
        <time>2015-11-29T09:12:46Z</time>
      </trkpt>
      <trkpt lat="49.09254" lon="1.09927">
        <ele>131.800003</ele>
        <time>2015-11-29T09:12:48Z</time>
      </trkpt>
      <trkpt lat="49.09264" lon="1.09925">
        <ele>131.899994</ele>
        <time>2015-11-29T09:12:50Z</time>
      </trkpt>
      <trkpt lat="49.09273" lon="1.09923">
        <ele>131.899994</ele>
        <time>2015-11-29T09:12:52Z</time>
      </trkpt>
      <trkpt lat="49.09286" lon="1.0992">
        <ele>131.899994</ele>
        <time>2015-11-29T09:12:55Z</time>
      </trkpt>
      <trkpt lat="49.09298" lon="1.09917">
        <ele>131.699997</ele>
        <time>2015-11-29T09:12:58Z</time>
      </trkpt>
      <trkpt lat="49.09307" lon="1.09915">
        <ele>131.600006</ele>
        <time>2015-11-29T09:13:00Z</time>
      </trkpt>
      <trkpt lat="49.0932" lon="1.09913">
        <ele>131.5</ele>
        <time>2015-11-29T09:13:03Z</time>
      </trkpt>
      <trkpt lat="49.09334" lon="1.09912">
        <ele>131.399994</ele>
        <time>2015-11-29T09:13:06Z</time>
      </trkpt>
      <trkpt lat="49.09343" lon="1.09912">
        <ele>131.300003</ele>
        <time>2015-11-29T09:13:08Z</time>
      </trkpt>
      <trkpt lat="49.09355" lon="1.09911">
        <ele>131.300003</ele>
        <time>2015-11-29T09:13:11Z</time>
      </trkpt>
      <trkpt lat="49.09367" lon="1.09913">
        <ele>131.199997</ele>
        <time>2015-11-29T09:13:14Z</time>
      </trkpt>
      <trkpt lat="49.09379" lon="1.09915">
        <ele>131.100006</ele>
        <time>2015-11-29T09:13:17Z</time>
      </trkpt>
      <trkpt lat="49.0939" lon="1.09918">
        <ele>131</ele>
        <time>2015-11-29T09:13:20Z</time>
      </trkpt>
      <trkpt lat="49.094" lon="1.09924">
        <ele>130.899994</ele>
        <time>2015-11-29T09:13:23Z</time>
      </trkpt>
      <trkpt lat="49.09411" lon="1.09928">
        <ele>130.800003</ele>
        <time>2015-11-29T09:13:26Z</time>
      </trkpt>
      <trkpt lat="49.0942" lon="1.09933">
        <ele>130.699997</ele>
        <time>2015-11-29T09:13:29Z</time>
      </trkpt>
      <trkpt lat="49.0943" lon="1.09936">
        <ele>130.600006</ele>
        <time>2015-11-29T09:13:32Z</time>
      </trkpt>
      <trkpt lat="49.09438" lon="1.09941">
        <ele>130.600006</ele>
        <time>2015-11-29T09:13:35Z</time>
      </trkpt>
      <trkpt lat="49.09447" lon="1.09948">
        <ele>130.5</ele>
        <time>2015-11-29T09:13:38Z</time>
      </trkpt>
      <trkpt lat="49.09457" lon="1.09956">
        <ele>130.5</ele>
        <time>2015-11-29T09:13:41Z</time>
      </trkpt>
      <trkpt lat="49.09466" lon="1.09964">
        <ele>130.600006</ele>
        <time>2015-11-29T09:13:44Z</time>
      </trkpt>
      <trkpt lat="49.09476" lon="1.09972">
        <ele>130.699997</ele>
        <time>2015-11-29T09:13:47Z</time>
      </trkpt>
      <trkpt lat="49.09485" lon="1.09979">
        <ele>130.800003</ele>
        <time>2015-11-29T09:13:50Z</time>
      </trkpt>
      <trkpt lat="49.09494" lon="1.09988">
        <ele>130.899994</ele>
        <time>2015-11-29T09:13:54Z</time>
      </trkpt>
      <trkpt lat="49.09503" lon="1.09999">
        <ele>131</ele>
        <time>2015-11-29T09:13:57Z</time>
      </trkpt>
      <trkpt lat="49.09512" lon="1.10004">
        <ele>131.100006</ele>
        <time>2015-11-29T09:13:59Z</time>
      </trkpt>
      <trkpt lat="49.09522" lon="1.10011">
        <ele>131.100006</ele>
        <time>2015-11-29T09:14:02Z</time>
      </trkpt>
      <trkpt lat="49.09533" lon="1.10022">
        <ele>131.100006</ele>
        <time>2015-11-29T09:14:05Z</time>
      </trkpt>
      <trkpt lat="49.09543" lon="1.1003">
        <ele>131</ele>
        <time>2015-11-29T09:14:08Z</time>
      </trkpt>
      <trkpt lat="49.09551" lon="1.10036">
        <ele>130.899994</ele>
        <time>2015-11-29T09:14:10Z</time>
      </trkpt>
      <trkpt lat="49.09562" lon="1.10046">
        <ele>130.699997</ele>
        <time>2015-11-29T09:14:13Z</time>
      </trkpt>
      <trkpt lat="49.09572" lon="1.10056">
        <ele>130.5</ele>
        <time>2015-11-29T09:14:16Z</time>
      </trkpt>
      <trkpt lat="49.09582" lon="1.10068">
        <ele>130.300003</ele>
        <time>2015-11-29T09:14:19Z</time>
      </trkpt>
      <trkpt lat="49.09591" lon="1.10078">
        <ele>129.899994</ele>
        <time>2015-11-29T09:14:22Z</time>
      </trkpt>
      <trkpt lat="49.09599" lon="1.10087">
        <ele>129.5</ele>
        <time>2015-11-29T09:14:25Z</time>
      </trkpt>
      <trkpt lat="49.09608" lon="1.10095">
        <ele>129</ele>
        <time>2015-11-29T09:14:28Z</time>
      </trkpt>
      <trkpt lat="49.09617" lon="1.101">
        <ele>128.5</ele>
        <time>2015-11-29T09:14:31Z</time>
      </trkpt>
      <trkpt lat="49.09626" lon="1.10102">
        <ele>128</ele>
        <time>2015-11-29T09:14:34Z</time>
      </trkpt>
      <trkpt lat="49.09637" lon="1.10101">
        <ele>127.400002</ele>
        <time>2015-11-29T09:14:37Z</time>
      </trkpt>
      <trkpt lat="49.09648" lon="1.10107">
        <ele>126.599998</ele>
        <time>2015-11-29T09:14:40Z</time>
      </trkpt>
      <trkpt lat="49.09654" lon="1.10117">
        <ele>125.800003</ele>
        <time>2015-11-29T09:14:43Z</time>
      </trkpt>
      <trkpt lat="49.09664" lon="1.10125">
        <ele>125.099998</ele>
        <time>2015-11-29T09:14:46Z</time>
      </trkpt>
      <trkpt lat="49.09674" lon="1.10125">
        <ele>123.900002</ele>
        <time>2015-11-29T09:14:50Z</time>
      </trkpt>
      <trkpt lat="49.09684" lon="1.10133">
        <ele>122.5</ele>
        <time>2015-11-29T09:14:54Z</time>
      </trkpt>
      <trkpt lat="49.09694" lon="1.10137">
        <ele>121.400002</ele>
        <time>2015-11-29T09:14:57Z</time>
      </trkpt>
      <trkpt lat="49.09705" lon="1.10146">
        <ele>120.099998</ele>
        <time>2015-11-29T09:15:00Z</time>
      </trkpt>
      <trkpt lat="49.09714" lon="1.10152">
        <ele>119.199997</ele>
        <time>2015-11-29T09:15:02Z</time>
      </trkpt>
      <trkpt lat="49.09725" lon="1.1016">
        <ele>118</ele>
        <time>2015-11-29T09:15:05Z</time>
      </trkpt>
      <trkpt lat="49.09733" lon="1.10167">
        <ele>117.199997</ele>
        <time>2015-11-29T09:15:07Z</time>
      </trkpt>
      <trkpt lat="49.09744" lon="1.1017">
        <ele>115.900002</ele>
        <time>2015-11-29T09:15:10Z</time>
      </trkpt>
      <trkpt lat="49.09755" lon="1.10175">
        <ele>114.599998</ele>
        <time>2015-11-29T09:15:13Z</time>
      </trkpt>
      <trkpt lat="49.09763" lon="1.10183">
        <ele>113.400002</ele>
        <time>2015-11-29T09:15:16Z</time>
      </trkpt>
      <trkpt lat="49.09773" lon="1.10189">
        <ele>111.599998</ele>
        <time>2015-11-29T09:15:20Z</time>
      </trkpt>
      <trkpt lat="49.09779" lon="1.10202">
        <ele>109.5</ele>
        <time>2015-11-29T09:15:26Z</time>
      </trkpt>
      <trkpt lat="49.09789" lon="1.10206">
        <ele>107.900002</ele>
        <time>2015-11-29T09:15:31Z</time>
      </trkpt>
      <trkpt lat="49.09798" lon="1.10204">
        <ele>104.800003</ele>
        <time>2015-11-29T09:15:43Z</time>
      </trkpt>
      <trkpt lat="49.09807" lon="1.1021">
        <ele>103</ele>
        <time>2015-11-29T09:15:51Z</time>
      </trkpt>
      <trkpt lat="49.09816" lon="1.10216">
        <ele>100.300003</ele>
        <time>2015-11-29T09:16:05Z</time>
      </trkpt>
      <trkpt lat="49.09824" lon="1.10208">
        <ele>98.699997</ele>
        <time>2015-11-29T09:16:11Z</time>
      </trkpt>
      <trkpt lat="49.09832" lon="1.10214">
        <ele>96.5</ele>
        <time>2015-11-29T09:16:19Z</time>
      </trkpt>
      <trkpt lat="49.09841" lon="1.10221">
        <ele>94.199997</ele>
        <time>2015-11-29T09:16:30Z</time>
      </trkpt>
      <trkpt lat="49.0985" lon="1.10218">
        <ele>92.400002</ele>
        <time>2015-11-29T09:16:40Z</time>
      </trkpt>
      <trkpt lat="49.09857" lon="1.10226">
        <ele>90.300003</ele>
        <time>2015-11-29T09:16:50Z</time>
      </trkpt>
      <trkpt lat="49.09866" lon="1.10229">
        <ele>86.300003</ele>
        <time>2015-11-29T09:18:18Z</time>
      </trkpt>
      <trkpt lat="49.09875" lon="1.10228">
        <ele>86.099998</ele>
        <time>2015-11-29T09:18:23Z</time>
      </trkpt>
      <trkpt lat="49.09885" lon="1.10233">
        <ele>85.199997</ele>
        <time>2015-11-29T09:18:31Z</time>
      </trkpt>
      <trkpt lat="49.09894" lon="1.10234">
        <ele>83.900002</ele>
        <time>2015-11-29T09:18:38Z</time>
      </trkpt>
      <trkpt lat="49.09903" lon="1.10242">
        <ele>81.800003</ele>
        <time>2015-11-29T09:18:53Z</time>
      </trkpt>
      <trkpt lat="49.09913" lon="1.10242">
        <ele>80.599998</ele>
        <time>2015-11-29T09:18:59Z</time>
      </trkpt>
      <trkpt lat="49.09922" lon="1.10245">
        <ele>78</ele>
        <time>2015-11-29T09:19:07Z</time>
      </trkpt>
      <trkpt lat="49.09932" lon="1.10247">
        <ele>75.599998</ele>
        <time>2015-11-29T09:19:15Z</time>
      </trkpt>
      <trkpt lat="49.09941" lon="1.1025">
        <ele>73.800003</ele>
        <time>2015-11-29T09:19:20Z</time>
      </trkpt>
      <trkpt lat="49.09951" lon="1.10253">
        <ele>71.099998</ele>
        <time>2015-11-29T09:19:27Z</time>
      </trkpt>
      <trkpt lat="49.09962" lon="1.10255">
        <ele>68.900002</ele>
        <time>2015-11-29T09:19:32Z</time>
      </trkpt>
      <trkpt lat="49.09973" lon="1.10257">
        <ele>66.900002</ele>
        <time>2015-11-29T09:19:36Z</time>
      </trkpt>
      <trkpt lat="49.09982" lon="1.10258">
        <ele>64.599998</ele>
        <time>2015-11-29T09:19:41Z</time>
      </trkpt>
      <trkpt lat="49.09991" lon="1.10257">
        <ele>60.700001</ele>
        <time>2015-11-29T09:19:53Z</time>
      </trkpt>
      <trkpt lat="49.10002" lon="1.1026">
        <ele>57.900002</ele>
        <time>2015-11-29T09:20:02Z</time>
      </trkpt>
      <trkpt lat="49.10011" lon="1.10261">
        <ele>55</ele>
        <time>2015-11-29T09:20:09Z</time>
      </trkpt>
      <trkpt lat="49.1002" lon="1.10266">
        <ele>51.599998</ele>
        <time>2015-11-29T09:20:18Z</time>
      </trkpt>
      <trkpt lat="49.10028" lon="1.10273">
        <ele>47.200001</ele>
        <time>2015-11-29T09:20:33Z</time>
      </trkpt>
      <trkpt lat="49.10036" lon="1.1028">
        <ele>44.299999</ele>
        <time>2015-11-29T09:20:50Z</time>
      </trkpt>
      <trkpt lat="49.1004" lon="1.10293">
        <ele>43.400002</ele>
        <time>2015-11-29T09:20:57Z</time>
      </trkpt>
      <trkpt lat="49.10043" lon="1.10307">
        <ele>42.400002</ele>
        <time>2015-11-29T09:21:03Z</time>
      </trkpt>
      <trkpt lat="49.10044" lon="1.10323">
        <ele>40.099998</ele>
        <time>2015-11-29T09:21:22Z</time>
      </trkpt>
      <trkpt lat="49.10045" lon="1.10338">
        <ele>39.700001</ele>
        <time>2015-11-29T09:21:29Z</time>
      </trkpt>
      <trkpt lat="49.10051" lon="1.10349">
        <ele>38.900002</ele>
        <time>2015-11-29T09:21:37Z</time>
      </trkpt>
      <trkpt lat="49.10061" lon="1.10354">
        <ele>38.400002</ele>
        <time>2015-11-29T09:21:43Z</time>
      </trkpt>
      <trkpt lat="49.1007" lon="1.1036">
        <ele>37.200001</ele>
        <time>2015-11-29T09:22:11Z</time>
      </trkpt>
      <trkpt lat="49.10078" lon="1.10374">
        <ele>37.099998</ele>
        <time>2015-11-29T09:22:16Z</time>
      </trkpt>
      <trkpt lat="49.10085" lon="1.10382">
        <ele>37</ele>
        <time>2015-11-29T09:22:19Z</time>
      </trkpt>
      <trkpt lat="49.10094" lon="1.10391">
        <ele>36.900002</ele>
        <time>2015-11-29T09:22:22Z</time>
      </trkpt>
      <trkpt lat="49.10104" lon="1.10398">
        <ele>36.799999</ele>
        <time>2015-11-29T09:22:25Z</time>
      </trkpt>
      <trkpt lat="49.10115" lon="1.10403">
        <ele>36.799999</ele>
        <time>2015-11-29T09:22:28Z</time>
      </trkpt>
      <trkpt lat="49.10126" lon="1.10406">
        <ele>36.700001</ele>
        <time>2015-11-29T09:22:31Z</time>
      </trkpt>
      <trkpt lat="49.10136" lon="1.10408">
        <ele>36.700001</ele>
        <time>2015-11-29T09:22:34Z</time>
      </trkpt>
      <trkpt lat="49.10145" lon="1.10408">
        <ele>36.599998</ele>
        <time>2015-11-29T09:22:37Z</time>
      </trkpt>
      <trkpt lat="49.10155" lon="1.10408">
        <ele>36.599998</ele>
        <time>2015-11-29T09:22:40Z</time>
      </trkpt>
      <trkpt lat="49.10164" lon="1.10407">
        <ele>36.599998</ele>
        <time>2015-11-29T09:22:43Z</time>
      </trkpt>
      <trkpt lat="49.10174" lon="1.10406">
        <ele>36.5</ele>
        <time>2015-11-29T09:22:46Z</time>
      </trkpt>
      <trkpt lat="49.10184" lon="1.10405">
        <ele>36.5</ele>
        <time>2015-11-29T09:22:49Z</time>
      </trkpt>
      <trkpt lat="49.10194" lon="1.10404">
        <ele>36.5</ele>
        <time>2015-11-29T09:22:52Z</time>
      </trkpt>
      <trkpt lat="49.10205" lon="1.10403">
        <ele>36.5</ele>
        <time>2015-11-29T09:22:55Z</time>
      </trkpt>
      <trkpt lat="49.10217" lon="1.10402">
        <ele>36.5</ele>
        <time>2015-11-29T09:22:58Z</time>
      </trkpt>
      <trkpt lat="49.10228" lon="1.10401">
        <ele>36.5</ele>
        <time>2015-11-29T09:23:01Z</time>
      </trkpt>
      <trkpt lat="49.10238" lon="1.10399">
        <ele>36.5</ele>
        <time>2015-11-29T09:23:04Z</time>
      </trkpt>
      <trkpt lat="49.1025" lon="1.10398">
        <ele>36.5</ele>
        <time>2015-11-29T09:23:07Z</time>
      </trkpt>
      <trkpt lat="49.1026" lon="1.10398">
        <ele>36.5</ele>
        <time>2015-11-29T09:23:10Z</time>
      </trkpt>
      <trkpt lat="49.10271" lon="1.10399">
        <ele>36.5</ele>
        <time>2015-11-29T09:23:13Z</time>
      </trkpt>
      <trkpt lat="49.10282" lon="1.10403">
        <ele>36.400002</ele>
        <time>2015-11-29T09:23:16Z</time>
      </trkpt>
      <trkpt lat="49.10292" lon="1.10408">
        <ele>36.400002</ele>
        <time>2015-11-29T09:23:19Z</time>
      </trkpt>
      <trkpt lat="49.10304" lon="1.10416">
        <ele>36.299999</ele>
        <time>2015-11-29T09:23:22Z</time>
      </trkpt>
      <trkpt lat="49.10315" lon="1.10424">
        <ele>36.299999</ele>
        <time>2015-11-29T09:23:25Z</time>
      </trkpt>
      <trkpt lat="49.10326" lon="1.10433">
        <ele>36.200001</ele>
        <time>2015-11-29T09:23:28Z</time>
      </trkpt>
      <trkpt lat="49.10335" lon="1.10444">
        <ele>36.200001</ele>
        <time>2015-11-29T09:23:31Z</time>
      </trkpt>
      <trkpt lat="49.10342" lon="1.10457">
        <ele>36.099998</ele>
        <time>2015-11-29T09:23:34Z</time>
      </trkpt>
      <trkpt lat="49.10349" lon="1.10471">
        <ele>36.099998</ele>
        <time>2015-11-29T09:23:37Z</time>
      </trkpt>
      <trkpt lat="49.10356" lon="1.10485">
        <ele>36.099998</ele>
        <time>2015-11-29T09:23:40Z</time>
      </trkpt>
      <trkpt lat="49.10363" lon="1.10498">
        <ele>36.099998</ele>
        <time>2015-11-29T09:23:43Z</time>
      </trkpt>
      <trkpt lat="49.10373" lon="1.10506">
        <ele>36.299999</ele>
        <time>2015-11-29T09:23:46Z</time>
      </trkpt>
      <trkpt lat="49.10384" lon="1.10509">
        <ele>36.599998</ele>
        <time>2015-11-29T09:23:49Z</time>
      </trkpt>
      <trkpt lat="49.10391" lon="1.10499">
        <ele>36.900002</ele>
        <time>2015-11-29T09:23:52Z</time>
      </trkpt>
      <trkpt lat="49.10395" lon="1.10482">
        <ele>37.400002</ele>
        <time>2015-11-29T09:23:56Z</time>
      </trkpt>
      <trkpt lat="49.10399" lon="1.10467">
        <ele>38.099998</ele>
        <time>2015-11-29T09:24:00Z</time>
      </trkpt>
      <trkpt lat="49.10401" lon="1.10453">
        <ele>38.799999</ele>
        <time>2015-11-29T09:24:04Z</time>
      </trkpt>
      <trkpt lat="49.10402" lon="1.10437">
        <ele>39.799999</ele>
        <time>2015-11-29T09:24:09Z</time>
      </trkpt>
      <trkpt lat="49.10403" lon="1.10423">
        <ele>41.099998</ele>
        <time>2015-11-29T09:24:15Z</time>
      </trkpt>
      <trkpt lat="49.10402" lon="1.10407">
        <ele>43.099998</ele>
        <time>2015-11-29T09:24:23Z</time>
      </trkpt>
      <trkpt lat="49.10403" lon="1.10393">
        <ele>44.799999</ele>
        <time>2015-11-29T09:24:31Z</time>
      </trkpt>
      <trkpt lat="49.10403" lon="1.10378">
        <ele>46.5</ele>
        <time>2015-11-29T09:24:39Z</time>
      </trkpt>
      <trkpt lat="49.10402" lon="1.10362">
        <ele>48.400002</ele>
        <time>2015-11-29T09:24:46Z</time>
      </trkpt>
      <trkpt lat="49.10403" lon="1.10347">
        <ele>50</ele>
        <time>2015-11-29T09:24:52Z</time>
      </trkpt>
      <trkpt lat="49.10406" lon="1.10333">
        <ele>51.5</ele>
        <time>2015-11-29T09:24:58Z</time>
      </trkpt>
      <trkpt lat="49.1041" lon="1.10318">
        <ele>53.099998</ele>
        <time>2015-11-29T09:25:05Z</time>
      </trkpt>
      <trkpt lat="49.10414" lon="1.10306">
        <ele>54.400002</ele>
        <time>2015-11-29T09:25:11Z</time>
      </trkpt>
      <trkpt lat="49.10417" lon="1.10292">
        <ele>55.299999</ele>
        <time>2015-11-29T09:25:16Z</time>
      </trkpt>
      <trkpt lat="49.10421" lon="1.10277">
        <ele>56.299999</ele>
        <time>2015-11-29T09:25:21Z</time>
      </trkpt>
      <trkpt lat="49.10424" lon="1.10264">
        <ele>57.5</ele>
        <time>2015-11-29T09:25:26Z</time>
      </trkpt>
      <trkpt lat="49.10428" lon="1.1025">
        <ele>58.900002</ele>
        <time>2015-11-29T09:25:33Z</time>
      </trkpt>
      <trkpt lat="49.1043" lon="1.10234">
        <ele>59.900002</ele>
        <time>2015-11-29T09:25:38Z</time>
      </trkpt>
      <trkpt lat="49.10433" lon="1.10218">
        <ele>61.099998</ele>
        <time>2015-11-29T09:25:43Z</time>
      </trkpt>
      <trkpt lat="49.10435" lon="1.10202">
        <ele>62.099998</ele>
        <time>2015-11-29T09:25:48Z</time>
      </trkpt>
      <trkpt lat="49.1044" lon="1.10188">
        <ele>62.799999</ele>
        <time>2015-11-29T09:25:53Z</time>
      </trkpt>
      <trkpt lat="49.10443" lon="1.10174">
        <ele>63.599998</ele>
        <time>2015-11-29T09:25:58Z</time>
      </trkpt>
      <trkpt lat="49.10446" lon="1.1016">
        <ele>64.300003</ele>
        <time>2015-11-29T09:26:03Z</time>
      </trkpt>
      <trkpt lat="49.1045" lon="1.10148">
        <ele>65</ele>
        <time>2015-11-29T09:26:09Z</time>
      </trkpt>
      <trkpt lat="49.10453" lon="1.10135">
        <ele>65.800003</ele>
        <time>2015-11-29T09:26:16Z</time>
      </trkpt>
      <trkpt lat="49.10458" lon="1.10122">
        <ele>66.599998</ele>
        <time>2015-11-29T09:26:24Z</time>
      </trkpt>
      <trkpt lat="49.10462" lon="1.10108">
        <ele>67.699997</ele>
        <time>2015-11-29T09:26:30Z</time>
      </trkpt>
      <trkpt lat="49.10466" lon="1.10095">
        <ele>69</ele>
        <time>2015-11-29T09:26:36Z</time>
      </trkpt>
      <trkpt lat="49.10471" lon="1.10083">
        <ele>70.599998</ele>
        <time>2015-11-29T09:26:43Z</time>
      </trkpt>
      <trkpt lat="49.10477" lon="1.10071">
        <ele>72.199997</ele>
        <time>2015-11-29T09:26:50Z</time>
      </trkpt>
      <trkpt lat="49.10482" lon="1.10058">
        <ele>73.699997</ele>
        <time>2015-11-29T09:26:56Z</time>
      </trkpt>
      <trkpt lat="49.10488" lon="1.10046">
        <ele>75.400002</ele>
        <time>2015-11-29T09:27:03Z</time>
      </trkpt>
      <trkpt lat="49.10492" lon="1.10033">
        <ele>77</ele>
        <time>2015-11-29T09:27:10Z</time>
      </trkpt>
      <trkpt lat="49.10498" lon="1.10021">
        <ele>78.300003</ele>
        <time>2015-11-29T09:27:16Z</time>
      </trkpt>
      <trkpt lat="49.10504" lon="1.10011">
        <ele>79.599998</ele>
        <time>2015-11-29T09:27:22Z</time>
      </trkpt>
      <trkpt lat="49.1051" lon="1.09998">
        <ele>81</ele>
        <time>2015-11-29T09:27:28Z</time>
      </trkpt>
      <trkpt lat="49.10514" lon="1.09985">
        <ele>82.5</ele>
        <time>2015-11-29T09:27:34Z</time>
      </trkpt>
      <trkpt lat="49.10518" lon="1.09972">
        <ele>84</ele>
        <time>2015-11-29T09:27:40Z</time>
      </trkpt>
      <trkpt lat="49.10525" lon="1.0996">
        <ele>85.599998</ele>
        <time>2015-11-29T09:27:47Z</time>
      </trkpt>
      <trkpt lat="49.10533" lon="1.09953">
        <ele>86.5</ele>
        <time>2015-11-29T09:27:53Z</time>
      </trkpt>
      <trkpt lat="49.1054" lon="1.09942">
        <ele>87.699997</ele>
        <time>2015-11-29T09:27:59Z</time>
      </trkpt>
      <trkpt lat="49.10546" lon="1.09931">
        <ele>88.699997</ele>
        <time>2015-11-29T09:28:05Z</time>
      </trkpt>
      <trkpt lat="49.10548" lon="1.09945">
        <ele>91.900002</ele>
        <time>2015-11-29T09:28:20Z</time>
      </trkpt>
      <trkpt lat="49.10545" lon="1.09958">
        <ele>93.300003</ele>
        <time>2015-11-29T09:28:26Z</time>
      </trkpt>
      <trkpt lat="49.10541" lon="1.09974">
        <ele>94.5</ele>
        <time>2015-11-29T09:28:32Z</time>
      </trkpt>
      <trkpt lat="49.10539" lon="1.09989">
        <ele>95.599998</ele>
        <time>2015-11-29T09:28:37Z</time>
      </trkpt>
      <trkpt lat="49.10539" lon="1.10004">
        <ele>96.900002</ele>
        <time>2015-11-29T09:28:42Z</time>
      </trkpt>
      <trkpt lat="49.10541" lon="1.10018">
        <ele>98.400002</ele>
        <time>2015-11-29T09:28:48Z</time>
      </trkpt>
      <trkpt lat="49.10542" lon="1.10033">
        <ele>99.5</ele>
        <time>2015-11-29T09:28:53Z</time>
      </trkpt>
      <trkpt lat="49.10544" lon="1.10048">
        <ele>101.199997</ele>
        <time>2015-11-29T09:28:59Z</time>
      </trkpt>
      <trkpt lat="49.10543" lon="1.10062">
        <ele>102.5</ele>
        <time>2015-11-29T09:29:04Z</time>
      </trkpt>
      <trkpt lat="49.10544" lon="1.10078">
        <ele>103.900002</ele>
        <time>2015-11-29T09:29:10Z</time>
      </trkpt>
      <trkpt lat="49.10549" lon="1.10091">
        <ele>105.099998</ele>
        <time>2015-11-29T09:29:14Z</time>
      </trkpt>
      <trkpt lat="49.10555" lon="1.10106">
        <ele>106.400002</ele>
        <time>2015-11-29T09:29:19Z</time>
      </trkpt>
      <trkpt lat="49.10561" lon="1.10119">
        <ele>107.599998</ele>
        <time>2015-11-29T09:29:24Z</time>
      </trkpt>
      <trkpt lat="49.10568" lon="1.1013">
        <ele>109</ele>
        <time>2015-11-29T09:29:29Z</time>
      </trkpt>
      <trkpt lat="49.10577" lon="1.10134">
        <ele>110.199997</ele>
        <time>2015-11-29T09:29:34Z</time>
      </trkpt>
      <trkpt lat="49.10585" lon="1.10142">
        <ele>111.400002</ele>
        <time>2015-11-29T09:29:39Z</time>
      </trkpt>
      <trkpt lat="49.10595" lon="1.10148">
        <ele>112.699997</ele>
        <time>2015-11-29T09:29:46Z</time>
      </trkpt>
      <trkpt lat="49.10603" lon="1.10154">
        <ele>114</ele>
        <time>2015-11-29T09:29:53Z</time>
      </trkpt>
      <trkpt lat="49.10612" lon="1.10159">
        <ele>116.900002</ele>
        <time>2015-11-29T09:32:29Z</time>
      </trkpt>
      <trkpt lat="49.10623" lon="1.10163">
        <ele>116.900002</ele>
        <time>2015-11-29T09:32:34Z</time>
      </trkpt>
      <trkpt lat="49.10631" lon="1.10167">
        <ele>116.900002</ele>
        <time>2015-11-29T09:32:37Z</time>
      </trkpt>
      <trkpt lat="49.10642" lon="1.10169">
        <ele>116.900002</ele>
        <time>2015-11-29T09:32:40Z</time>
      </trkpt>
      <trkpt lat="49.10653" lon="1.10172">
        <ele>116.900002</ele>
        <time>2015-11-29T09:32:43Z</time>
      </trkpt>
      <trkpt lat="49.10664" lon="1.10174">
        <ele>116.900002</ele>
        <time>2015-11-29T09:32:46Z</time>
      </trkpt>
      <trkpt lat="49.10674" lon="1.10178">
        <ele>116.800003</ele>
        <time>2015-11-29T09:32:48Z</time>
      </trkpt>
      <trkpt lat="49.10684" lon="1.10182">
        <ele>116.699997</ele>
        <time>2015-11-29T09:32:50Z</time>
      </trkpt>
      <trkpt lat="49.10692" lon="1.10189">
        <ele>116.5</ele>
        <time>2015-11-29T09:32:52Z</time>
      </trkpt>
      <trkpt lat="49.107" lon="1.10198">
        <ele>116.400002</ele>
        <time>2015-11-29T09:32:55Z</time>
      </trkpt>
      <trkpt lat="49.10711" lon="1.10205">
        <ele>116.400002</ele>
        <time>2015-11-29T09:32:58Z</time>
      </trkpt>
      <trkpt lat="49.10719" lon="1.10212">
        <ele>116.5</ele>
        <time>2015-11-29T09:33:02Z</time>
      </trkpt>
      <trkpt lat="49.10729" lon="1.10217">
        <ele>116.599998</ele>
        <time>2015-11-29T09:33:05Z</time>
      </trkpt>
      <trkpt lat="49.1074" lon="1.1022">
        <ele>116.800003</ele>
        <time>2015-11-29T09:33:08Z</time>
      </trkpt>
      <trkpt lat="49.1075" lon="1.10224">
        <ele>117.199997</ele>
        <time>2015-11-29T09:33:11Z</time>
      </trkpt>
      <trkpt lat="49.1076" lon="1.10229">
        <ele>117.599998</ele>
        <time>2015-11-29T09:33:14Z</time>
      </trkpt>
      <trkpt lat="49.10769" lon="1.10233">
        <ele>118.099998</ele>
        <time>2015-11-29T09:33:17Z</time>
      </trkpt>
      <trkpt lat="49.10779" lon="1.10236">
        <ele>118.5</ele>
        <time>2015-11-29T09:33:20Z</time>
      </trkpt>
      <trkpt lat="49.10788" lon="1.10239">
        <ele>118.900002</ele>
        <time>2015-11-29T09:33:23Z</time>
      </trkpt>
      <trkpt lat="49.10797" lon="1.10242">
        <ele>119.300003</ele>
        <time>2015-11-29T09:33:27Z</time>
      </trkpt>
      <trkpt lat="49.10806" lon="1.10245">
        <ele>119.5</ele>
        <time>2015-11-29T09:33:30Z</time>
      </trkpt>
      <trkpt lat="49.10816" lon="1.10248">
        <ele>119.699997</ele>
        <time>2015-11-29T09:33:33Z</time>
      </trkpt>
      <trkpt lat="49.10825" lon="1.10253">
        <ele>120</ele>
        <time>2015-11-29T09:33:36Z</time>
      </trkpt>
      <trkpt lat="49.10835" lon="1.10257">
        <ele>120.300003</ele>
        <time>2015-11-29T09:33:39Z</time>
      </trkpt>
      <trkpt lat="49.10844" lon="1.10262">
        <ele>120.599998</ele>
        <time>2015-11-29T09:33:42Z</time>
      </trkpt>
      <trkpt lat="49.10853" lon="1.10267">
        <ele>121</ele>
        <time>2015-11-29T09:33:45Z</time>
      </trkpt>
      <trkpt lat="49.10862" lon="1.10274">
        <ele>121.300003</ele>
        <time>2015-11-29T09:33:48Z</time>
      </trkpt>
      <trkpt lat="49.10875" lon="1.1028">
        <ele>121.699997</ele>
        <time>2015-11-29T09:33:51Z</time>
      </trkpt>
      <trkpt lat="49.10885" lon="1.10283">
        <ele>122</ele>
        <time>2015-11-29T09:33:54Z</time>
      </trkpt>
      <trkpt lat="49.10895" lon="1.10288">
        <ele>122.300003</ele>
        <time>2015-11-29T09:33:57Z</time>
      </trkpt>
      <trkpt lat="49.10904" lon="1.10293">
        <ele>122.599998</ele>
        <time>2015-11-29T09:34:00Z</time>
      </trkpt>
      <trkpt lat="49.10913" lon="1.10297">
        <ele>122.900002</ele>
        <time>2015-11-29T09:34:03Z</time>
      </trkpt>
      <trkpt lat="49.10922" lon="1.10301">
        <ele>123.199997</ele>
        <time>2015-11-29T09:34:06Z</time>
      </trkpt>
      <trkpt lat="49.10931" lon="1.10303">
        <ele>123.5</ele>
        <time>2015-11-29T09:34:09Z</time>
      </trkpt>
      <trkpt lat="49.1094" lon="1.10307">
        <ele>123.800003</ele>
        <time>2015-11-29T09:34:12Z</time>
      </trkpt>
      <trkpt lat="49.1095" lon="1.10311">
        <ele>124.300003</ele>
        <time>2015-11-29T09:34:16Z</time>
      </trkpt>
      <trkpt lat="49.10959" lon="1.10315">
        <ele>124.5</ele>
        <time>2015-11-29T09:34:19Z</time>
      </trkpt>
      <trkpt lat="49.10968" lon="1.1032">
        <ele>124.699997</ele>
        <time>2015-11-29T09:34:22Z</time>
      </trkpt>
      <trkpt lat="49.10978" lon="1.10324">
        <ele>124.900002</ele>
        <time>2015-11-29T09:34:25Z</time>
      </trkpt>
      <trkpt lat="49.10987" lon="1.10328">
        <ele>125</ele>
        <time>2015-11-29T09:34:28Z</time>
      </trkpt>
      <trkpt lat="49.10998" lon="1.10331">
        <ele>125.099998</ele>
        <time>2015-11-29T09:34:31Z</time>
      </trkpt>
      <trkpt lat="49.11008" lon="1.10335">
        <ele>125.199997</ele>
        <time>2015-11-29T09:34:35Z</time>
      </trkpt>
      <trkpt lat="49.11019" lon="1.10339">
        <ele>125.400002</ele>
        <time>2015-11-29T09:34:40Z</time>
      </trkpt>
      <trkpt lat="49.11028" lon="1.10342">
        <ele>125.400002</ele>
        <time>2015-11-29T09:34:43Z</time>
      </trkpt>
      <trkpt lat="49.11038" lon="1.10344">
        <ele>125.199997</ele>
        <time>2015-11-29T09:34:46Z</time>
      </trkpt>
      <trkpt lat="49.11048" lon="1.10348">
        <ele>125</ele>
        <time>2015-11-29T09:34:49Z</time>
      </trkpt>
      <trkpt lat="49.11058" lon="1.10353">
        <ele>124.699997</ele>
        <time>2015-11-29T09:34:52Z</time>
      </trkpt>
      <trkpt lat="49.11071" lon="1.1036">
        <ele>124.400002</ele>
        <time>2015-11-29T09:34:55Z</time>
      </trkpt>
      <trkpt lat="49.1108" lon="1.10364">
        <ele>124.199997</ele>
        <time>2015-11-29T09:34:57Z</time>
      </trkpt>
      <trkpt lat="49.11093" lon="1.10371">
        <ele>123.900002</ele>
        <time>2015-11-29T09:35:00Z</time>
      </trkpt>
      <trkpt lat="49.11103" lon="1.10376">
        <ele>123.5</ele>
        <time>2015-11-29T09:35:03Z</time>
      </trkpt>
      <trkpt lat="49.11114" lon="1.10381">
        <ele>123.300003</ele>
        <time>2015-11-29T09:35:06Z</time>
      </trkpt>
      <trkpt lat="49.11126" lon="1.10387">
        <ele>123</ele>
        <time>2015-11-29T09:35:09Z</time>
      </trkpt>
      <trkpt lat="49.11137" lon="1.10391">
        <ele>122.800003</ele>
        <time>2015-11-29T09:35:12Z</time>
      </trkpt>
      <trkpt lat="49.11149" lon="1.10397">
        <ele>122.599998</ele>
        <time>2015-11-29T09:35:15Z</time>
      </trkpt>
      <trkpt lat="49.11162" lon="1.10402">
        <ele>122.199997</ele>
        <time>2015-11-29T09:35:18Z</time>
      </trkpt>
      <trkpt lat="49.11174" lon="1.10407">
        <ele>121.800003</ele>
        <time>2015-11-29T09:35:21Z</time>
      </trkpt>
      <trkpt lat="49.11183" lon="1.10411">
        <ele>121.599998</ele>
        <time>2015-11-29T09:35:23Z</time>
      </trkpt>
      <trkpt lat="49.11193" lon="1.10419">
        <ele>120.800003</ele>
        <time>2015-11-29T09:35:26Z</time>
      </trkpt>
      <trkpt lat="49.11202" lon="1.10434">
        <ele>119.900002</ele>
        <time>2015-11-29T09:35:29Z</time>
      </trkpt>
      <trkpt lat="49.1121" lon="1.10445">
        <ele>119.199997</ele>
        <time>2015-11-29T09:35:31Z</time>
      </trkpt>
      <trkpt lat="49.11219" lon="1.10459">
        <ele>118.400002</ele>
        <time>2015-11-29T09:35:33Z</time>
      </trkpt>
      <trkpt lat="49.11227" lon="1.10473">
        <ele>117.300003</ele>
        <time>2015-11-29T09:35:35Z</time>
      </trkpt>
      <trkpt lat="49.11233" lon="1.1049">
        <ele>116.300003</ele>
        <time>2015-11-29T09:35:37Z</time>
      </trkpt>
      <trkpt lat="49.11238" lon="1.10508">
        <ele>115.300003</ele>
        <time>2015-11-29T09:35:39Z</time>
      </trkpt>
      <trkpt lat="49.11242" lon="1.10529">
        <ele>114.199997</ele>
        <time>2015-11-29T09:35:41Z</time>
      </trkpt>
      <trkpt lat="49.11248" lon="1.10552">
        <ele>113</ele>
        <time>2015-11-29T09:35:43Z</time>
      </trkpt>
      <trkpt lat="49.11255" lon="1.10573">
        <ele>111.699997</ele>
        <time>2015-11-29T09:35:45Z</time>
      </trkpt>
      <trkpt lat="49.11261" lon="1.10593">
        <ele>110.300003</ele>
        <time>2015-11-29T09:35:47Z</time>
      </trkpt>
      <trkpt lat="49.11266" lon="1.1061">
        <ele>108.800003</ele>
        <time>2015-11-29T09:35:49Z</time>
      </trkpt>
      <trkpt lat="49.1127" lon="1.10626">
        <ele>107.5</ele>
        <time>2015-11-29T09:35:51Z</time>
      </trkpt>
      <trkpt lat="49.11275" lon="1.10643">
        <ele>105.900002</ele>
        <time>2015-11-29T09:35:53Z</time>
      </trkpt>
      <trkpt lat="49.11276" lon="1.10663">
        <ele>104.5</ele>
        <time>2015-11-29T09:35:55Z</time>
      </trkpt>
      <trkpt lat="49.11277" lon="1.10683">
        <ele>103</ele>
        <time>2015-11-29T09:35:57Z</time>
      </trkpt>
      <trkpt lat="49.11278" lon="1.10703">
        <ele>101.400002</ele>
        <time>2015-11-29T09:35:59Z</time>
      </trkpt>
      <trkpt lat="49.11277" lon="1.10722">
        <ele>99.800003</ele>
        <time>2015-11-29T09:36:01Z</time>
      </trkpt>
      <trkpt lat="49.11272" lon="1.10743">
        <ele>98.300003</ele>
        <time>2015-11-29T09:36:03Z</time>
      </trkpt>
      <trkpt lat="49.11264" lon="1.10762">
        <ele>96.599998</ele>
        <time>2015-11-29T09:36:05Z</time>
      </trkpt>
      <trkpt lat="49.11255" lon="1.10777">
        <ele>95.099998</ele>
        <time>2015-11-29T09:36:07Z</time>
      </trkpt>
      <trkpt lat="49.11244" lon="1.10789">
        <ele>93.699997</ele>
        <time>2015-11-29T09:36:09Z</time>
      </trkpt>
      <trkpt lat="49.11231" lon="1.10795">
        <ele>92.199997</ele>
        <time>2015-11-29T09:36:11Z</time>
      </trkpt>
      <trkpt lat="49.11218" lon="1.10798">
        <ele>90.900002</ele>
        <time>2015-11-29T09:36:13Z</time>
      </trkpt>
      <trkpt lat="49.11204" lon="1.10799">
        <ele>89.5</ele>
        <time>2015-11-29T09:36:15Z</time>
      </trkpt>
      <trkpt lat="49.11189" lon="1.10799">
        <ele>88</ele>
        <time>2015-11-29T09:36:17Z</time>
      </trkpt>
      <trkpt lat="49.11174" lon="1.108">
        <ele>86.599998</ele>
        <time>2015-11-29T09:36:19Z</time>
      </trkpt>
      <trkpt lat="49.11162" lon="1.10802">
        <ele>85.300003</ele>
        <time>2015-11-29T09:36:21Z</time>
      </trkpt>
      <trkpt lat="49.11153" lon="1.10808">
        <ele>84</ele>
        <time>2015-11-29T09:36:23Z</time>
      </trkpt>
      <trkpt lat="49.1115" lon="1.10823">
        <ele>82.599998</ele>
        <time>2015-11-29T09:36:25Z</time>
      </trkpt>
      <trkpt lat="49.11156" lon="1.10839">
        <ele>81.199997</ele>
        <time>2015-11-29T09:36:27Z</time>
      </trkpt>
      <trkpt lat="49.11165" lon="1.10856">
        <ele>79.900002</ele>
        <time>2015-11-29T09:36:29Z</time>
      </trkpt>
      <trkpt lat="49.11174" lon="1.10874">
        <ele>78.300003</ele>
        <time>2015-11-29T09:36:31Z</time>
      </trkpt>
      <trkpt lat="49.11181" lon="1.10894">
        <ele>76.699997</ele>
        <time>2015-11-29T09:36:33Z</time>
      </trkpt>
      <trkpt lat="49.11186" lon="1.10917">
        <ele>74.900002</ele>
        <time>2015-11-29T09:36:35Z</time>
      </trkpt>
      <trkpt lat="49.11189" lon="1.1094">
        <ele>73.300003</ele>
        <time>2015-11-29T09:36:37Z</time>
      </trkpt>
      <trkpt lat="49.1119" lon="1.10963">
        <ele>71.599998</ele>
        <time>2015-11-29T09:36:39Z</time>
      </trkpt>
      <trkpt lat="49.11191" lon="1.10985">
        <ele>70.099998</ele>
        <time>2015-11-29T09:36:41Z</time>
      </trkpt>
      <trkpt lat="49.11191" lon="1.11007">
        <ele>68.400002</ele>
        <time>2015-11-29T09:36:43Z</time>
      </trkpt>
      <trkpt lat="49.11191" lon="1.11027">
        <ele>66.900002</ele>
        <time>2015-11-29T09:36:45Z</time>
      </trkpt>
      <trkpt lat="49.11192" lon="1.11043">
        <ele>65.300003</ele>
        <time>2015-11-29T09:36:47Z</time>
      </trkpt>
      <trkpt lat="49.11193" lon="1.1106">
        <ele>63.700001</ele>
        <time>2015-11-29T09:36:49Z</time>
      </trkpt>
      <trkpt lat="49.11193" lon="1.11076">
        <ele>62</ele>
        <time>2015-11-29T09:36:51Z</time>
      </trkpt>
      <trkpt lat="49.11192" lon="1.11092">
        <ele>60.400002</ele>
        <time>2015-11-29T09:36:53Z</time>
      </trkpt>
      <trkpt lat="49.11189" lon="1.11106">
        <ele>58.799999</ele>
        <time>2015-11-29T09:36:55Z</time>
      </trkpt>
      <trkpt lat="49.11185" lon="1.11121">
        <ele>57.299999</ele>
        <time>2015-11-29T09:36:57Z</time>
      </trkpt>
      <trkpt lat="49.11181" lon="1.11136">
        <ele>55.900002</ele>
        <time>2015-11-29T09:36:59Z</time>
      </trkpt>
      <trkpt lat="49.11176" lon="1.11152">
        <ele>54.5</ele>
        <time>2015-11-29T09:37:01Z</time>
      </trkpt>
      <trkpt lat="49.1117" lon="1.11168">
        <ele>53</ele>
        <time>2015-11-29T09:37:03Z</time>
      </trkpt>
      <trkpt lat="49.11168" lon="1.11184">
        <ele>51.599998</ele>
        <time>2015-11-29T09:37:05Z</time>
      </trkpt>
      <trkpt lat="49.11168" lon="1.11201">
        <ele>50.200001</ele>
        <time>2015-11-29T09:37:07Z</time>
      </trkpt>
      <trkpt lat="49.11167" lon="1.11219">
        <ele>48.799999</ele>
        <time>2015-11-29T09:37:09Z</time>
      </trkpt>
      <trkpt lat="49.11167" lon="1.11237">
        <ele>47.5</ele>
        <time>2015-11-29T09:37:11Z</time>
      </trkpt>
      <trkpt lat="49.11167" lon="1.11254">
        <ele>46.099998</ele>
        <time>2015-11-29T09:37:13Z</time>
      </trkpt>
      <trkpt lat="49.11167" lon="1.11271">
        <ele>44.700001</ele>
        <time>2015-11-29T09:37:15Z</time>
      </trkpt>
      <trkpt lat="49.11167" lon="1.11288">
        <ele>43.5</ele>
        <time>2015-11-29T09:37:17Z</time>
      </trkpt>
      <trkpt lat="49.11167" lon="1.11304">
        <ele>42.5</ele>
        <time>2015-11-29T09:37:19Z</time>
      </trkpt>
      <trkpt lat="49.11167" lon="1.11319">
        <ele>41.5</ele>
        <time>2015-11-29T09:37:21Z</time>
      </trkpt>
      <trkpt lat="49.11166" lon="1.11338">
        <ele>40.200001</ele>
        <time>2015-11-29T09:37:24Z</time>
      </trkpt>
      <trkpt lat="49.11167" lon="1.11359">
        <ele>39</ele>
        <time>2015-11-29T09:37:27Z</time>
      </trkpt>
      <trkpt lat="49.11167" lon="1.11375">
        <ele>38.200001</ele>
        <time>2015-11-29T09:37:29Z</time>
      </trkpt>
      <trkpt lat="49.11167" lon="1.11392">
        <ele>37.5</ele>
        <time>2015-11-29T09:37:31Z</time>
      </trkpt>
      <trkpt lat="49.11167" lon="1.11407">
        <ele>36.799999</ele>
        <time>2015-11-29T09:37:33Z</time>
      </trkpt>
      <trkpt lat="49.11165" lon="1.11422">
        <ele>35.5</ele>
        <time>2015-11-29T09:37:37Z</time>
      </trkpt>
      <trkpt lat="49.11168" lon="1.11435">
        <ele>29.6</ele>
        <time>2015-11-29T09:44:36Z</time>
      </trkpt>
      <trkpt lat="49.11172" lon="1.1145">
        <ele>29.700001</ele>
        <time>2015-11-29T09:45:57Z</time>
      </trkpt>
      <trkpt lat="49.11168" lon="1.11464">
        <ele>29.700001</ele>
        <time>2015-11-29T09:46:01Z</time>
      </trkpt>
      <trkpt lat="49.11163" lon="1.11478">
        <ele>29.700001</ele>
        <time>2015-11-29T09:46:05Z</time>
      </trkpt>
      <trkpt lat="49.11157" lon="1.1149">
        <ele>29.700001</ele>
        <time>2015-11-29T09:46:08Z</time>
      </trkpt>
      <trkpt lat="49.1115" lon="1.11503">
        <ele>29.6</ele>
        <time>2015-11-29T09:46:11Z</time>
      </trkpt>
      <trkpt lat="49.11142" lon="1.11517">
        <ele>29.700001</ele>
        <time>2015-11-29T09:46:14Z</time>
      </trkpt>
      <trkpt lat="49.11131" lon="1.11524">
        <ele>29.799999</ele>
        <time>2015-11-29T09:46:17Z</time>
      </trkpt>
      <trkpt lat="49.1112" lon="1.11526">
        <ele>29.9</ele>
        <time>2015-11-29T09:46:20Z</time>
      </trkpt>
      <trkpt lat="49.11109" lon="1.11526">
        <ele>29.9</ele>
        <time>2015-11-29T09:46:23Z</time>
      </trkpt>
      <trkpt lat="49.11099" lon="1.11527">
        <ele>30</ele>
        <time>2015-11-29T09:46:26Z</time>
      </trkpt>
      <trkpt lat="49.11088" lon="1.1153">
        <ele>29.9</ele>
        <time>2015-11-29T09:46:30Z</time>
      </trkpt>
      <trkpt lat="49.11087" lon="1.11544">
        <ele>29.799999</ele>
        <time>2015-11-29T09:46:33Z</time>
      </trkpt>
      <trkpt lat="49.11087" lon="1.11564">
        <ele>29.700001</ele>
        <time>2015-11-29T09:46:36Z</time>
      </trkpt>
      <trkpt lat="49.11088" lon="1.11578">
        <ele>29.700001</ele>
        <time>2015-11-29T09:46:38Z</time>
      </trkpt>
      <trkpt lat="49.11087" lon="1.11592">
        <ele>29.700001</ele>
        <time>2015-11-29T09:46:40Z</time>
      </trkpt>
      <trkpt lat="49.11086" lon="1.11606">
        <ele>29.6</ele>
        <time>2015-11-29T09:46:42Z</time>
      </trkpt>
      <trkpt lat="49.11085" lon="1.1162">
        <ele>29.6</ele>
        <time>2015-11-29T09:46:44Z</time>
      </trkpt>
      <trkpt lat="49.11085" lon="1.11634">
        <ele>29.5</ele>
        <time>2015-11-29T09:46:46Z</time>
      </trkpt>
      <trkpt lat="49.11084" lon="1.11654">
        <ele>29.4</ele>
        <time>2015-11-29T09:46:49Z</time>
      </trkpt>
      <trkpt lat="49.11083" lon="1.11671">
        <ele>29.299999</ele>
        <time>2015-11-29T09:46:52Z</time>
      </trkpt>
      <trkpt lat="49.11082" lon="1.11688">
        <ele>29.200001</ele>
        <time>2015-11-29T09:46:55Z</time>
      </trkpt>
      <trkpt lat="49.11081" lon="1.11705">
        <ele>29.1</ele>
        <time>2015-11-29T09:46:58Z</time>
      </trkpt>
      <trkpt lat="49.1108" lon="1.1172">
        <ele>29</ele>
        <time>2015-11-29T09:47:01Z</time>
      </trkpt>
      <trkpt lat="49.11078" lon="1.11735">
        <ele>29</ele>
        <time>2015-11-29T09:47:04Z</time>
      </trkpt>
      <trkpt lat="49.11077" lon="1.11751">
        <ele>28.9</ele>
        <time>2015-11-29T09:47:07Z</time>
      </trkpt>
      <trkpt lat="49.11075" lon="1.11766">
        <ele>28.9</ele>
        <time>2015-11-29T09:47:10Z</time>
      </trkpt>
      <trkpt lat="49.11074" lon="1.11782">
        <ele>28.9</ele>
        <time>2015-11-29T09:47:13Z</time>
      </trkpt>
      <trkpt lat="49.11072" lon="1.11798">
        <ele>28.799999</ele>
        <time>2015-11-29T09:47:16Z</time>
      </trkpt>
      <trkpt lat="49.11071" lon="1.11813">
        <ele>28.700001</ele>
        <time>2015-11-29T09:47:19Z</time>
      </trkpt>
      <trkpt lat="49.11072" lon="1.11828">
        <ele>28.6</ele>
        <time>2015-11-29T09:47:22Z</time>
      </trkpt>
      <trkpt lat="49.11075" lon="1.11843">
        <ele>28.6</ele>
        <time>2015-11-29T09:47:25Z</time>
      </trkpt>
      <trkpt lat="49.11079" lon="1.11856">
        <ele>28.6</ele>
        <time>2015-11-29T09:47:28Z</time>
      </trkpt>
      <trkpt lat="49.11081" lon="1.11873">
        <ele>28.5</ele>
        <time>2015-11-29T09:47:32Z</time>
      </trkpt>
      <trkpt lat="49.11081" lon="1.11891">
        <ele>28.6</ele>
        <time>2015-11-29T09:47:36Z</time>
      </trkpt>
      <trkpt lat="49.11081" lon="1.11907">
        <ele>29.1</ele>
        <time>2015-11-29T09:47:40Z</time>
      </trkpt>
      <trkpt lat="49.1108" lon="1.11923">
        <ele>29.6</ele>
        <time>2015-11-29T09:47:45Z</time>
      </trkpt>
      <trkpt lat="49.11078" lon="1.11939">
        <ele>30</ele>
        <time>2015-11-29T09:47:50Z</time>
      </trkpt>
      <trkpt lat="49.1108" lon="1.11954">
        <ele>30.5</ele>
        <time>2015-11-29T09:47:57Z</time>
      </trkpt>
      <trkpt lat="49.11082" lon="1.11967">
        <ele>31</ele>
        <time>2015-11-29T09:48:04Z</time>
      </trkpt>
      <trkpt lat="49.11083" lon="1.11981">
        <ele>31.299999</ele>
        <time>2015-11-29T09:48:11Z</time>
      </trkpt>
      <trkpt lat="49.11084" lon="1.11996">
        <ele>32.099998</ele>
        <time>2015-11-29T09:48:19Z</time>
      </trkpt>
      <trkpt lat="49.11087" lon="1.12009">
        <ele>33.700001</ele>
        <time>2015-11-29T09:48:31Z</time>
      </trkpt>
      <trkpt lat="49.11093" lon="1.1202">
        <ele>35.5</ele>
        <time>2015-11-29T09:48:40Z</time>
      </trkpt>
      <trkpt lat="49.111" lon="1.1203">
        <ele>38</ele>
        <time>2015-11-29T09:48:52Z</time>
      </trkpt>
      <trkpt lat="49.11107" lon="1.1204">
        <ele>40.5</ele>
        <time>2015-11-29T09:49:03Z</time>
      </trkpt>
      <trkpt lat="49.11116" lon="1.12044">
        <ele>43.799999</ele>
        <time>2015-11-29T09:49:31Z</time>
      </trkpt>
      <trkpt lat="49.11124" lon="1.12053">
        <ele>45.5</ele>
        <time>2015-11-29T09:49:45Z</time>
      </trkpt>
      <trkpt lat="49.11131" lon="1.12062">
        <ele>47.099998</ele>
        <time>2015-11-29T09:49:53Z</time>
      </trkpt>
      <trkpt lat="49.1114" lon="1.12072">
        <ele>48.799999</ele>
        <time>2015-11-29T09:50:01Z</time>
      </trkpt>
      <trkpt lat="49.11147" lon="1.1208">
        <ele>50.700001</ele>
        <time>2015-11-29T09:50:09Z</time>
      </trkpt>
      <trkpt lat="49.11155" lon="1.12088">
        <ele>52.900002</ele>
        <time>2015-11-29T09:50:17Z</time>
      </trkpt>
      <trkpt lat="49.11164" lon="1.12096">
        <ele>55.200001</ele>
        <time>2015-11-29T09:50:25Z</time>
      </trkpt>
      <trkpt lat="49.11173" lon="1.12101">
        <ele>56.900002</ele>
        <time>2015-11-29T09:50:32Z</time>
      </trkpt>
      <trkpt lat="49.11181" lon="1.12107">
        <ele>58.400002</ele>
        <time>2015-11-29T09:50:39Z</time>
      </trkpt>
      <trkpt lat="49.1119" lon="1.12113">
        <ele>60.099998</ele>
        <time>2015-11-29T09:50:46Z</time>
      </trkpt>
      <trkpt lat="49.11199" lon="1.12121">
        <ele>62.200001</ele>
        <time>2015-11-29T09:50:54Z</time>
      </trkpt>
      <trkpt lat="49.11206" lon="1.1213">
        <ele>63.900002</ele>
        <time>2015-11-29T09:51:01Z</time>
      </trkpt>
      <trkpt lat="49.11214" lon="1.12138">
        <ele>65.599998</ele>
        <time>2015-11-29T09:51:08Z</time>
      </trkpt>
      <trkpt lat="49.11222" lon="1.12146">
        <ele>67.300003</ele>
        <time>2015-11-29T09:51:16Z</time>
      </trkpt>
      <trkpt lat="49.1123" lon="1.12153">
        <ele>68.400002</ele>
        <time>2015-11-29T09:51:21Z</time>
      </trkpt>
      <trkpt lat="49.11239" lon="1.12162">
        <ele>70.199997</ele>
        <time>2015-11-29T09:51:28Z</time>
      </trkpt>
      <trkpt lat="49.11246" lon="1.12171">
        <ele>71.800003</ele>
        <time>2015-11-29T09:51:34Z</time>
      </trkpt>
      <trkpt lat="49.11256" lon="1.12177">
        <ele>74</ele>
        <time>2015-11-29T09:51:43Z</time>
      </trkpt>
      <trkpt lat="49.11265" lon="1.12187">
        <ele>75.400002</ele>
        <time>2015-11-29T09:51:49Z</time>
      </trkpt>
      <trkpt lat="49.11273" lon="1.12194">
        <ele>77.300003</ele>
        <time>2015-11-29T09:51:57Z</time>
      </trkpt>
      <trkpt lat="49.1128" lon="1.12205">
        <ele>79</ele>
        <time>2015-11-29T09:52:04Z</time>
      </trkpt>
      <trkpt lat="49.11285" lon="1.12217">
        <ele>80.400002</ele>
        <time>2015-11-29T09:52:10Z</time>
      </trkpt>
      <trkpt lat="49.1129" lon="1.12232">
        <ele>81.5</ele>
        <time>2015-11-29T09:52:15Z</time>
      </trkpt>
      <trkpt lat="49.11292" lon="1.12249">
        <ele>82.199997</ele>
        <time>2015-11-29T09:52:19Z</time>
      </trkpt>
      <trkpt lat="49.11295" lon="1.12264">
        <ele>83.099998</ele>
        <time>2015-11-29T09:52:24Z</time>
      </trkpt>
      <trkpt lat="49.11297" lon="1.1228">
        <ele>84.099998</ele>
        <time>2015-11-29T09:52:30Z</time>
      </trkpt>
      <trkpt lat="49.113" lon="1.12296">
        <ele>85.099998</ele>
        <time>2015-11-29T09:52:36Z</time>
      </trkpt>
      <trkpt lat="49.113" lon="1.12309">
        <ele>86.199997</ele>
        <time>2015-11-29T09:52:44Z</time>
      </trkpt>
      <trkpt lat="49.11297" lon="1.12323">
        <ele>87.599998</ele>
        <time>2015-11-29T09:52:52Z</time>
      </trkpt>
      <trkpt lat="49.11295" lon="1.12337">
        <ele>89.300003</ele>
        <time>2015-11-29T09:53:00Z</time>
      </trkpt>
      <trkpt lat="49.11295" lon="1.12353">
        <ele>91.699997</ele>
        <time>2015-11-29T09:53:10Z</time>
      </trkpt>
      <trkpt lat="49.11295" lon="1.12368">
        <ele>93.900002</ele>
        <time>2015-11-29T09:53:18Z</time>
      </trkpt>
      <trkpt lat="49.11296" lon="1.12383">
        <ele>95.199997</ele>
        <time>2015-11-29T09:53:23Z</time>
      </trkpt>
      <trkpt lat="49.11294" lon="1.12398">
        <ele>97.400002</ele>
        <time>2015-11-29T09:53:32Z</time>
      </trkpt>
      <trkpt lat="49.11295" lon="1.12412">
        <ele>99.5</ele>
        <time>2015-11-29T09:53:40Z</time>
      </trkpt>
      <trkpt lat="49.11291" lon="1.12426">
        <ele>102.199997</ele>
        <time>2015-11-29T09:53:51Z</time>
      </trkpt>
      <trkpt lat="49.11291" lon="1.12441">
        <ele>104.5</ele>
        <time>2015-11-29T09:53:59Z</time>
      </trkpt>
      <trkpt lat="49.11291" lon="1.12456">
        <ele>106.5</ele>
        <time>2015-11-29T09:54:07Z</time>
      </trkpt>
      <trkpt lat="49.11293" lon="1.12471">
        <ele>107.900002</ele>
        <time>2015-11-29T09:54:13Z</time>
      </trkpt>
      <trkpt lat="49.11295" lon="1.12484">
        <ele>111.300003</ele>
        <time>2015-11-29T09:54:29Z</time>
      </trkpt>
      <trkpt lat="49.11298" lon="1.12499">
        <ele>113.5</ele>
        <time>2015-11-29T09:54:38Z</time>
      </trkpt>
      <trkpt lat="49.11298" lon="1.12513">
        <ele>115.900002</ele>
        <time>2015-11-29T09:54:47Z</time>
      </trkpt>
      <trkpt lat="49.11301" lon="1.12527">
        <ele>117.599998</ele>
        <time>2015-11-29T09:54:53Z</time>
      </trkpt>
      <trkpt lat="49.11304" lon="1.12542">
        <ele>118.900002</ele>
        <time>2015-11-29T09:54:59Z</time>
      </trkpt>
      <trkpt lat="49.11303" lon="1.12556">
        <ele>120.5</ele>
        <time>2015-11-29T09:55:08Z</time>
      </trkpt>
      <trkpt lat="49.11304" lon="1.12542">
        <ele>123.099998</ele>
        <time>2015-11-29T09:55:24Z</time>
      </trkpt>
      <trkpt lat="49.11301" lon="1.12528">
        <ele>123.199997</ele>
        <time>2015-11-29T09:55:28Z</time>
      </trkpt>
      <trkpt lat="49.113" lon="1.12512">
        <ele>122.400002</ele>
        <time>2015-11-29T09:55:33Z</time>
      </trkpt>
      <trkpt lat="49.11297" lon="1.12497">
        <ele>121.699997</ele>
        <time>2015-11-29T09:55:36Z</time>
      </trkpt>
      <trkpt lat="49.11292" lon="1.12484">
        <ele>119.400002</ele>
        <time>2015-11-29T09:55:42Z</time>
      </trkpt>
      <trkpt lat="49.11292" lon="1.12469">
        <ele>117.5</ele>
        <time>2015-11-29T09:55:47Z</time>
      </trkpt>
      <trkpt lat="49.11292" lon="1.12455">
        <ele>115.699997</ele>
        <time>2015-11-29T09:55:52Z</time>
      </trkpt>
      <trkpt lat="49.11293" lon="1.12441">
        <ele>112.900002</ele>
        <time>2015-11-29T09:55:59Z</time>
      </trkpt>
      <trkpt lat="49.11293" lon="1.12424">
        <ele>111</ele>
        <time>2015-11-29T09:56:04Z</time>
      </trkpt>
      <trkpt lat="49.11294" lon="1.12407">
        <ele>109</ele>
        <time>2015-11-29T09:56:09Z</time>
      </trkpt>
      <trkpt lat="49.11297" lon="1.12394">
        <ele>103.699997</ele>
        <time>2015-11-29T09:56:25Z</time>
      </trkpt>
      <trkpt lat="49.11293" lon="1.12408">
        <ele>101.199997</ele>
        <time>2015-11-29T09:56:48Z</time>
      </trkpt>
      <trkpt lat="49.11293" lon="1.12423">
        <ele>101.800003</ele>
        <time>2015-11-29T09:56:56Z</time>
      </trkpt>
      <trkpt lat="49.11291" lon="1.12437">
        <ele>103.400002</ele>
        <time>2015-11-29T09:57:05Z</time>
      </trkpt>
      <trkpt lat="49.11292" lon="1.12453">
        <ele>104.699997</ele>
        <time>2015-11-29T09:57:11Z</time>
      </trkpt>
      <trkpt lat="49.11292" lon="1.12469">
        <ele>106.300003</ele>
        <time>2015-11-29T09:57:19Z</time>
      </trkpt>
      <trkpt lat="49.11295" lon="1.12484">
        <ele>108.599998</ele>
        <time>2015-11-29T09:57:27Z</time>
      </trkpt>
      <trkpt lat="49.11296" lon="1.12498">
        <ele>111.5</ele>
        <time>2015-11-29T09:57:35Z</time>
      </trkpt>
      <trkpt lat="49.11298" lon="1.12512">
        <ele>115.199997</ele>
        <time>2015-11-29T09:57:45Z</time>
      </trkpt>
      <trkpt lat="49.11301" lon="1.12527">
        <ele>117.300003</ele>
        <time>2015-11-29T09:57:53Z</time>
      </trkpt>
      <trkpt lat="49.11301" lon="1.12541">
        <ele>118.800003</ele>
        <time>2015-11-29T09:57:58Z</time>
      </trkpt>
      <trkpt lat="49.11302" lon="1.12555">
        <ele>120.400002</ele>
        <time>2015-11-29T09:58:03Z</time>
      </trkpt>
      <trkpt lat="49.11303" lon="1.12569">
        <ele>121.800003</ele>
        <time>2015-11-29T09:58:09Z</time>
      </trkpt>
      <trkpt lat="49.11302" lon="1.12584">
        <ele>123</ele>
        <time>2015-11-29T09:58:16Z</time>
      </trkpt>
      <trkpt lat="49.11304" lon="1.12599">
        <ele>123.5</ele>
        <time>2015-11-29T09:58:21Z</time>
      </trkpt>
      <trkpt lat="49.11306" lon="1.12613">
        <ele>124.300003</ele>
        <time>2015-11-29T09:58:27Z</time>
      </trkpt>
      <trkpt lat="49.11309" lon="1.12628">
        <ele>125</ele>
        <time>2015-11-29T09:58:32Z</time>
      </trkpt>
      <trkpt lat="49.11306" lon="1.12615">
        <ele>127.300003</ele>
        <time>2015-11-29T09:59:22Z</time>
      </trkpt>
      <trkpt lat="49.11306" lon="1.12601">
        <ele>127.199997</ele>
        <time>2015-11-29T09:59:27Z</time>
      </trkpt>
      <trkpt lat="49.11306" lon="1.12585">
        <ele>126.900002</ele>
        <time>2015-11-29T09:59:33Z</time>
      </trkpt>
      <trkpt lat="49.11306" lon="1.12571">
        <ele>126.400002</ele>
        <time>2015-11-29T09:59:40Z</time>
      </trkpt>
      <trkpt lat="49.11302" lon="1.12586">
        <ele>124.699997</ele>
        <time>2015-11-29T10:00:11Z</time>
      </trkpt>
      <trkpt lat="49.11303" lon="1.126">
        <ele>124.699997</ele>
        <time>2015-11-29T10:00:15Z</time>
      </trkpt>
      <trkpt lat="49.11308" lon="1.12612">
        <ele>125.099998</ele>
        <time>2015-11-29T10:00:22Z</time>
      </trkpt>
      <trkpt lat="49.11309" lon="1.12627">
        <ele>125.699997</ele>
        <time>2015-11-29T10:00:31Z</time>
      </trkpt>
      <trkpt lat="49.11305" lon="1.1264">
        <ele>127</ele>
        <time>2015-11-29T10:01:34Z</time>
      </trkpt>
      <trkpt lat="49.11297" lon="1.12649">
        <ele>127</ele>
        <time>2015-11-29T10:01:39Z</time>
      </trkpt>
      <trkpt lat="49.11288" lon="1.12658">
        <ele>127.099998</ele>
        <time>2015-11-29T10:01:43Z</time>
      </trkpt>
      <trkpt lat="49.11279" lon="1.12667">
        <ele>127.099998</ele>
        <time>2015-11-29T10:01:47Z</time>
      </trkpt>
      <trkpt lat="49.1127" lon="1.12676">
        <ele>127.099998</ele>
        <time>2015-11-29T10:01:51Z</time>
      </trkpt>
      <trkpt lat="49.11261" lon="1.12684">
        <ele>127.400002</ele>
        <time>2015-11-29T10:01:55Z</time>
      </trkpt>
      <trkpt lat="49.11253" lon="1.12692">
        <ele>127.699997</ele>
        <time>2015-11-29T10:01:59Z</time>
      </trkpt>
      <trkpt lat="49.11244" lon="1.127">
        <ele>128.100006</ele>
        <time>2015-11-29T10:02:03Z</time>
      </trkpt>
      <trkpt lat="49.11235" lon="1.12709">
        <ele>128.399994</ele>
        <time>2015-11-29T10:02:07Z</time>
      </trkpt>
      <trkpt lat="49.11225" lon="1.12717">
        <ele>128.600006</ele>
        <time>2015-11-29T10:02:11Z</time>
      </trkpt>
      <trkpt lat="49.11216" lon="1.12725">
        <ele>128.899994</ele>
        <time>2015-11-29T10:02:15Z</time>
      </trkpt>
      <trkpt lat="49.11205" lon="1.12732">
        <ele>129.300003</ele>
        <time>2015-11-29T10:02:19Z</time>
      </trkpt>
      <trkpt lat="49.11197" lon="1.12737">
        <ele>129.5</ele>
        <time>2015-11-29T10:02:22Z</time>
      </trkpt>
      <trkpt lat="49.11188" lon="1.12743">
        <ele>129.699997</ele>
        <time>2015-11-29T10:02:25Z</time>
      </trkpt>
      <trkpt lat="49.11179" lon="1.12747">
        <ele>129.899994</ele>
        <time>2015-11-29T10:02:28Z</time>
      </trkpt>
      <trkpt lat="49.1117" lon="1.12753">
        <ele>130.100006</ele>
        <time>2015-11-29T10:02:31Z</time>
      </trkpt>
      <trkpt lat="49.1116" lon="1.12758">
        <ele>130.199997</ele>
        <time>2015-11-29T10:02:34Z</time>
      </trkpt>
      <trkpt lat="49.1115" lon="1.12762">
        <ele>130.399994</ele>
        <time>2015-11-29T10:02:37Z</time>
      </trkpt>
      <trkpt lat="49.11141" lon="1.12767">
        <ele>130.5</ele>
        <time>2015-11-29T10:02:40Z</time>
      </trkpt>
      <trkpt lat="49.11131" lon="1.12772">
        <ele>130.5</ele>
        <time>2015-11-29T10:02:43Z</time>
      </trkpt>
      <trkpt lat="49.11122" lon="1.12767">
        <ele>130.600006</ele>
        <time>2015-11-29T10:02:46Z</time>
      </trkpt>
      <trkpt lat="49.11119" lon="1.12752">
        <ele>130.699997</ele>
        <time>2015-11-29T10:02:49Z</time>
      </trkpt>
      <trkpt lat="49.11116" lon="1.12736">
        <ele>130.899994</ele>
        <time>2015-11-29T10:02:52Z</time>
      </trkpt>
      <trkpt lat="49.11113" lon="1.12718">
        <ele>131</ele>
        <time>2015-11-29T10:02:55Z</time>
      </trkpt>
      <trkpt lat="49.1111" lon="1.127">
        <ele>131.100006</ele>
        <time>2015-11-29T10:02:58Z</time>
      </trkpt>
      <trkpt lat="49.11107" lon="1.12681">
        <ele>131.100006</ele>
        <time>2015-11-29T10:03:01Z</time>
      </trkpt>
      <trkpt lat="49.11104" lon="1.12663">
        <ele>131</ele>
        <time>2015-11-29T10:03:04Z</time>
      </trkpt>
      <trkpt lat="49.11102" lon="1.12647">
        <ele>130.800003</ele>
        <time>2015-11-29T10:03:07Z</time>
      </trkpt>
      <trkpt lat="49.11099" lon="1.12632">
        <ele>130.600006</ele>
        <time>2015-11-29T10:03:10Z</time>
      </trkpt>
      <trkpt lat="49.11097" lon="1.12619">
        <ele>130.399994</ele>
        <time>2015-11-29T10:03:13Z</time>
      </trkpt>
      <trkpt lat="49.11094" lon="1.12603">
        <ele>130.100006</ele>
        <time>2015-11-29T10:03:16Z</time>
      </trkpt>
      <trkpt lat="49.11092" lon="1.12586">
        <ele>129.800003</ele>
        <time>2015-11-29T10:03:19Z</time>
      </trkpt>
      <trkpt lat="49.11088" lon="1.1257">
        <ele>129.5</ele>
        <time>2015-11-29T10:03:22Z</time>
      </trkpt>
      <trkpt lat="49.11085" lon="1.12554">
        <ele>129.100006</ele>
        <time>2015-11-29T10:03:26Z</time>
      </trkpt>
      <trkpt lat="49.11081" lon="1.12537">
        <ele>128.699997</ele>
        <time>2015-11-29T10:03:30Z</time>
      </trkpt>
      <trkpt lat="49.11078" lon="1.1252">
        <ele>128.300003</ele>
        <time>2015-11-29T10:03:34Z</time>
      </trkpt>
      <trkpt lat="49.11075" lon="1.12505">
        <ele>127.900002</ele>
        <time>2015-11-29T10:03:37Z</time>
      </trkpt>
      <trkpt lat="49.11069" lon="1.12492">
        <ele>127.599998</ele>
        <time>2015-11-29T10:03:40Z</time>
      </trkpt>
      <trkpt lat="49.11066" lon="1.12478">
        <ele>127.300003</ele>
        <time>2015-11-29T10:03:43Z</time>
      </trkpt>
      <trkpt lat="49.11063" lon="1.12465">
        <ele>126.900002</ele>
        <time>2015-11-29T10:03:48Z</time>
      </trkpt>
      <trkpt lat="49.11059" lon="1.1245">
        <ele>126.300003</ele>
        <time>2015-11-29T10:03:52Z</time>
      </trkpt>
      <trkpt lat="49.11057" lon="1.12436">
        <ele>125.900002</ele>
        <time>2015-11-29T10:03:56Z</time>
      </trkpt>
      <trkpt lat="49.11055" lon="1.12422">
        <ele>125.5</ele>
        <time>2015-11-29T10:04:00Z</time>
      </trkpt>
      <trkpt lat="49.11048" lon="1.12412">
        <ele>125.099998</ele>
        <time>2015-11-29T10:04:05Z</time>
      </trkpt>
      <trkpt lat="49.11039" lon="1.12414">
        <ele>124.900002</ele>
        <time>2015-11-29T10:04:08Z</time>
      </trkpt>
      <trkpt lat="49.11029" lon="1.12412">
        <ele>124.599998</ele>
        <time>2015-11-29T10:04:11Z</time>
      </trkpt>
      <trkpt lat="49.11021" lon="1.12404">
        <ele>123.900002</ele>
        <time>2015-11-29T10:04:18Z</time>
      </trkpt>
      <trkpt lat="49.11014" lon="1.12391">
        <ele>122.800003</ele>
        <time>2015-11-29T10:04:26Z</time>
      </trkpt>
      <trkpt lat="49.11015" lon="1.12376">
        <ele>121.400002</ele>
        <time>2015-11-29T10:04:31Z</time>
      </trkpt>
      <trkpt lat="49.11015" lon="1.12362">
        <ele>119.400002</ele>
        <time>2015-11-29T10:04:36Z</time>
      </trkpt>
      <trkpt lat="49.11016" lon="1.12346">
        <ele>117.099998</ele>
        <time>2015-11-29T10:04:40Z</time>
      </trkpt>
      <trkpt lat="49.11016" lon="1.12332">
        <ele>114.5</ele>
        <time>2015-11-29T10:04:44Z</time>
      </trkpt>
      <trkpt lat="49.11017" lon="1.12316">
        <ele>110.800003</ele>
        <time>2015-11-29T10:04:49Z</time>
      </trkpt>
      <trkpt lat="49.11021" lon="1.12301">
        <ele>107.699997</ele>
        <time>2015-11-29T10:04:53Z</time>
      </trkpt>
      <trkpt lat="49.11022" lon="1.12285">
        <ele>104.400002</ele>
        <time>2015-11-29T10:04:57Z</time>
      </trkpt>
      <trkpt lat="49.11024" lon="1.12271">
        <ele>101</ele>
        <time>2015-11-29T10:05:01Z</time>
      </trkpt>
      <trkpt lat="49.11025" lon="1.12256">
        <ele>97.699997</ele>
        <time>2015-11-29T10:05:05Z</time>
      </trkpt>
      <trkpt lat="49.11024" lon="1.12242">
        <ele>94.400002</ele>
        <time>2015-11-29T10:05:09Z</time>
      </trkpt>
      <trkpt lat="49.11025" lon="1.12227">
        <ele>91.199997</ele>
        <time>2015-11-29T10:05:13Z</time>
      </trkpt>
      <trkpt lat="49.11026" lon="1.12211">
        <ele>87.199997</ele>
        <time>2015-11-29T10:05:18Z</time>
      </trkpt>
      <trkpt lat="49.11025" lon="1.12197">
        <ele>84</ele>
        <time>2015-11-29T10:05:22Z</time>
      </trkpt>
      <trkpt lat="49.11023" lon="1.12183">
        <ele>81</ele>
        <time>2015-11-29T10:05:26Z</time>
      </trkpt>
      <trkpt lat="49.11019" lon="1.12168">
        <ele>77.699997</ele>
        <time>2015-11-29T10:05:30Z</time>
      </trkpt>
      <trkpt lat="49.11017" lon="1.12154">
        <ele>74.699997</ele>
        <time>2015-11-29T10:05:34Z</time>
      </trkpt>
      <trkpt lat="49.11015" lon="1.12139">
        <ele>71.199997</ele>
        <time>2015-11-29T10:05:39Z</time>
      </trkpt>
      <trkpt lat="49.11005" lon="1.12135">
        <ele>68.699997</ele>
        <time>2015-11-29T10:05:43Z</time>
      </trkpt>
      <trkpt lat="49.10993" lon="1.1213">
        <ele>67.199997</ele>
        <time>2015-11-29T10:05:46Z</time>
      </trkpt>
      <trkpt lat="49.10982" lon="1.12126">
        <ele>66.099998</ele>
        <time>2015-11-29T10:05:49Z</time>
      </trkpt>
      <trkpt lat="49.10973" lon="1.12122">
        <ele>65.400002</ele>
        <time>2015-11-29T10:05:52Z</time>
      </trkpt>
      <trkpt lat="49.10962" lon="1.12121">
        <ele>65.099998</ele>
        <time>2015-11-29T10:05:55Z</time>
      </trkpt>
      <trkpt lat="49.10952" lon="1.1212">
        <ele>64.800003</ele>
        <time>2015-11-29T10:05:58Z</time>
      </trkpt>
      <trkpt lat="49.10942" lon="1.12119">
        <ele>64.599998</ele>
        <time>2015-11-29T10:06:01Z</time>
      </trkpt>
      <trkpt lat="49.10933" lon="1.12117">
        <ele>64.5</ele>
        <time>2015-11-29T10:06:04Z</time>
      </trkpt>
      <trkpt lat="49.10924" lon="1.12113">
        <ele>64.300003</ele>
        <time>2015-11-29T10:06:07Z</time>
      </trkpt>
      <trkpt lat="49.10913" lon="1.12107">
        <ele>64.199997</ele>
        <time>2015-11-29T10:06:11Z</time>
      </trkpt>
      <trkpt lat="49.10902" lon="1.12101">
        <ele>64.300003</ele>
        <time>2015-11-29T10:06:15Z</time>
      </trkpt>
      <trkpt lat="49.10891" lon="1.12098">
        <ele>64.300003</ele>
        <time>2015-11-29T10:06:19Z</time>
      </trkpt>
      <trkpt lat="49.10881" lon="1.12093">
        <ele>64.400002</ele>
        <time>2015-11-29T10:06:22Z</time>
      </trkpt>
      <trkpt lat="49.1087" lon="1.12089">
        <ele>64.599998</ele>
        <time>2015-11-29T10:06:26Z</time>
      </trkpt>
      <trkpt lat="49.10861" lon="1.12087">
        <ele>64.800003</ele>
        <time>2015-11-29T10:06:30Z</time>
      </trkpt>
      <trkpt lat="49.1085" lon="1.12081">
        <ele>64.900002</ele>
        <time>2015-11-29T10:06:33Z</time>
      </trkpt>
      <trkpt lat="49.10839" lon="1.12071">
        <ele>65.099998</ele>
        <time>2015-11-29T10:06:36Z</time>
      </trkpt>
      <trkpt lat="49.10829" lon="1.12064">
        <ele>65.099998</ele>
        <time>2015-11-29T10:06:39Z</time>
      </trkpt>
      <trkpt lat="49.10818" lon="1.12058">
        <ele>65.199997</ele>
        <time>2015-11-29T10:06:42Z</time>
      </trkpt>
      <trkpt lat="49.1081" lon="1.12052">
        <ele>65.300003</ele>
        <time>2015-11-29T10:06:44Z</time>
      </trkpt>
      <trkpt lat="49.10799" lon="1.12047">
        <ele>65.300003</ele>
        <time>2015-11-29T10:06:47Z</time>
      </trkpt>
      <trkpt lat="49.10789" lon="1.12043">
        <ele>65.400002</ele>
        <time>2015-11-29T10:06:50Z</time>
      </trkpt>
      <trkpt lat="49.10779" lon="1.12039">
        <ele>65.699997</ele>
        <time>2015-11-29T10:06:53Z</time>
      </trkpt>
      <trkpt lat="49.10769" lon="1.12037">
        <ele>66</ele>
        <time>2015-11-29T10:06:56Z</time>
      </trkpt>
      <trkpt lat="49.1076" lon="1.12037">
        <ele>66.300003</ele>
        <time>2015-11-29T10:06:59Z</time>
      </trkpt>
      <trkpt lat="49.1075" lon="1.12033">
        <ele>66.800003</ele>
        <time>2015-11-29T10:07:02Z</time>
      </trkpt>
      <trkpt lat="49.10739" lon="1.12028">
        <ele>67.300003</ele>
        <time>2015-11-29T10:07:06Z</time>
      </trkpt>
      <trkpt lat="49.10729" lon="1.1202">
        <ele>67.699997</ele>
        <time>2015-11-29T10:07:09Z</time>
      </trkpt>
      <trkpt lat="49.10718" lon="1.12016">
        <ele>68.099998</ele>
        <time>2015-11-29T10:07:12Z</time>
      </trkpt>
      <trkpt lat="49.10708" lon="1.12016">
        <ele>68.5</ele>
        <time>2015-11-29T10:07:15Z</time>
      </trkpt>
      <trkpt lat="49.10696" lon="1.12013">
        <ele>69.099998</ele>
        <time>2015-11-29T10:07:19Z</time>
      </trkpt>
      <trkpt lat="49.10685" lon="1.12011">
        <ele>69.900002</ele>
        <time>2015-11-29T10:07:23Z</time>
      </trkpt>
      <trkpt lat="49.10674" lon="1.12007">
        <ele>70.5</ele>
        <time>2015-11-29T10:07:27Z</time>
      </trkpt>
      <trkpt lat="49.10663" lon="1.12006">
        <ele>71.099998</ele>
        <time>2015-11-29T10:07:31Z</time>
      </trkpt>
      <trkpt lat="49.10653" lon="1.12006">
        <ele>71.599998</ele>
        <time>2015-11-29T10:07:35Z</time>
      </trkpt>
      <trkpt lat="49.10643" lon="1.12003">
        <ele>72.099998</ele>
        <time>2015-11-29T10:07:39Z</time>
      </trkpt>
      <trkpt lat="49.10634" lon="1.11999">
        <ele>73</ele>
        <time>2015-11-29T10:07:43Z</time>
      </trkpt>
      <trkpt lat="49.10624" lon="1.11999">
        <ele>74.300003</ele>
        <time>2015-11-29T10:07:48Z</time>
      </trkpt>
      <trkpt lat="49.10614" lon="1.11996">
        <ele>75.699997</ele>
        <time>2015-11-29T10:07:53Z</time>
      </trkpt>
      <trkpt lat="49.10604" lon="1.11993">
        <ele>77.099998</ele>
        <time>2015-11-29T10:07:58Z</time>
      </trkpt>
      <trkpt lat="49.10595" lon="1.11992">
        <ele>78.599998</ele>
        <time>2015-11-29T10:08:03Z</time>
      </trkpt>
      <trkpt lat="49.10585" lon="1.11994">
        <ele>80.300003</ele>
        <time>2015-11-29T10:08:09Z</time>
      </trkpt>
      <trkpt lat="49.10576" lon="1.11995">
        <ele>82.300003</ele>
        <time>2015-11-29T10:08:15Z</time>
      </trkpt>
      <trkpt lat="49.10565" lon="1.11995">
        <ele>84.300003</ele>
        <time>2015-11-29T10:08:21Z</time>
      </trkpt>
      <trkpt lat="49.10556" lon="1.11995">
        <ele>85.900002</ele>
        <time>2015-11-29T10:08:26Z</time>
      </trkpt>
      <trkpt lat="49.10546" lon="1.11994">
        <ele>87.099998</ele>
        <time>2015-11-29T10:08:31Z</time>
      </trkpt>
      <trkpt lat="49.10535" lon="1.11993">
        <ele>88.199997</ele>
        <time>2015-11-29T10:08:36Z</time>
      </trkpt>
      <trkpt lat="49.10526" lon="1.11992">
        <ele>89</ele>
        <time>2015-11-29T10:08:40Z</time>
      </trkpt>
      <trkpt lat="49.10515" lon="1.11991">
        <ele>89.699997</ele>
        <time>2015-11-29T10:08:44Z</time>
      </trkpt>
      <trkpt lat="49.10506" lon="1.11989">
        <ele>90.300003</ele>
        <time>2015-11-29T10:08:48Z</time>
      </trkpt>
      <trkpt lat="49.10497" lon="1.11985">
        <ele>90.599998</ele>
        <time>2015-11-29T10:08:51Z</time>
      </trkpt>
      <trkpt lat="49.10487" lon="1.11984">
        <ele>91</ele>
        <time>2015-11-29T10:08:54Z</time>
      </trkpt>
      <trkpt lat="49.10477" lon="1.11982">
        <ele>91.300003</ele>
        <time>2015-11-29T10:08:57Z</time>
      </trkpt>
      <trkpt lat="49.10464" lon="1.11982">
        <ele>91.5</ele>
        <time>2015-11-29T10:09:00Z</time>
      </trkpt>
      <trkpt lat="49.10452" lon="1.11982">
        <ele>91.699997</ele>
        <time>2015-11-29T10:09:03Z</time>
      </trkpt>
      <trkpt lat="49.1044" lon="1.11981">
        <ele>91.900002</ele>
        <time>2015-11-29T10:09:06Z</time>
      </trkpt>
      <trkpt lat="49.10428" lon="1.11978">
        <ele>92.199997</ele>
        <time>2015-11-29T10:09:09Z</time>
      </trkpt>
      <trkpt lat="49.10418" lon="1.11974">
        <ele>92.300003</ele>
        <time>2015-11-29T10:09:11Z</time>
      </trkpt>
      <trkpt lat="49.10408" lon="1.1197">
        <ele>92.5</ele>
        <time>2015-11-29T10:09:13Z</time>
      </trkpt>
      <trkpt lat="49.10399" lon="1.11969">
        <ele>92.599998</ele>
        <time>2015-11-29T10:09:15Z</time>
      </trkpt>
      <trkpt lat="49.10389" lon="1.11969">
        <ele>92.699997</ele>
        <time>2015-11-29T10:09:17Z</time>
      </trkpt>
      <trkpt lat="49.1038" lon="1.11967">
        <ele>92.699997</ele>
        <time>2015-11-29T10:09:19Z</time>
      </trkpt>
      <trkpt lat="49.1037" lon="1.11966">
        <ele>92.699997</ele>
        <time>2015-11-29T10:09:21Z</time>
      </trkpt>
      <trkpt lat="49.10361" lon="1.11964">
        <ele>92.699997</ele>
        <time>2015-11-29T10:09:23Z</time>
      </trkpt>
      <trkpt lat="49.1035" lon="1.11963">
        <ele>92.699997</ele>
        <time>2015-11-29T10:09:26Z</time>
      </trkpt>
      <trkpt lat="49.10341" lon="1.11964">
        <ele>92.5</ele>
        <time>2015-11-29T10:09:30Z</time>
      </trkpt>
      <trkpt lat="49.10334" lon="1.11955">
        <ele>91.699997</ele>
        <time>2015-11-29T10:10:04Z</time>
      </trkpt>
      <trkpt lat="49.10335" lon="1.1197">
        <ele>91.599998</ele>
        <time>2015-11-29T10:11:13Z</time>
      </trkpt>
      <trkpt lat="49.10339" lon="1.11982">
        <ele>92.099998</ele>
        <time>2015-11-29T10:11:18Z</time>
      </trkpt>
      <trkpt lat="49.10344" lon="1.11997">
        <ele>92.699997</ele>
        <time>2015-11-29T10:11:23Z</time>
      </trkpt>
      <trkpt lat="49.1035" lon="1.12009">
        <ele>93.400002</ele>
        <time>2015-11-29T10:11:28Z</time>
      </trkpt>
      <trkpt lat="49.10356" lon="1.12019">
        <ele>94.199997</ele>
        <time>2015-11-29T10:11:33Z</time>
      </trkpt>
      <trkpt lat="49.10363" lon="1.12029">
        <ele>94.900002</ele>
        <time>2015-11-29T10:11:38Z</time>
      </trkpt>
      <trkpt lat="49.1037" lon="1.1204">
        <ele>95.800003</ele>
        <time>2015-11-29T10:11:44Z</time>
      </trkpt>
      <trkpt lat="49.10377" lon="1.12051">
        <ele>96.599998</ele>
        <time>2015-11-29T10:11:50Z</time>
      </trkpt>
      <trkpt lat="49.10385" lon="1.12061">
        <ele>97.300003</ele>
        <time>2015-11-29T10:11:56Z</time>
      </trkpt>
      <trkpt lat="49.10392" lon="1.12073">
        <ele>98.199997</ele>
        <time>2015-11-29T10:12:02Z</time>
      </trkpt>
      <trkpt lat="49.10399" lon="1.12083">
        <ele>99.099998</ele>
        <time>2015-11-29T10:12:08Z</time>
      </trkpt>
      <trkpt lat="49.10406" lon="1.12093">
        <ele>100.099998</ele>
        <time>2015-11-29T10:12:13Z</time>
      </trkpt>
      <trkpt lat="49.10412" lon="1.12103">
        <ele>101.199997</ele>
        <time>2015-11-29T10:12:18Z</time>
      </trkpt>
      <trkpt lat="49.10418" lon="1.12114">
        <ele>102.099998</ele>
        <time>2015-11-29T10:12:23Z</time>
      </trkpt>
      <trkpt lat="49.10425" lon="1.12124">
        <ele>103.099998</ele>
        <time>2015-11-29T10:12:28Z</time>
      </trkpt>
      <trkpt lat="49.10431" lon="1.12134">
        <ele>103.800003</ele>
        <time>2015-11-29T10:12:33Z</time>
      </trkpt>
      <trkpt lat="49.10436" lon="1.12145">
        <ele>104.199997</ele>
        <time>2015-11-29T10:12:37Z</time>
      </trkpt>
      <trkpt lat="49.10444" lon="1.12155">
        <ele>104.800003</ele>
        <time>2015-11-29T10:12:42Z</time>
      </trkpt>
      <trkpt lat="49.10451" lon="1.12163">
        <ele>105.5</ele>
        <time>2015-11-29T10:12:47Z</time>
      </trkpt>
      <trkpt lat="49.10458" lon="1.12173">
        <ele>106.099998</ele>
        <time>2015-11-29T10:12:52Z</time>
      </trkpt>
      <trkpt lat="49.10466" lon="1.12182">
        <ele>106.900002</ele>
        <time>2015-11-29T10:12:57Z</time>
      </trkpt>
      <trkpt lat="49.10472" lon="1.12193">
        <ele>107.699997</ele>
        <time>2015-11-29T10:13:04Z</time>
      </trkpt>
      <trkpt lat="49.10477" lon="1.12205">
        <ele>108.099998</ele>
        <time>2015-11-29T10:13:08Z</time>
      </trkpt>
      <trkpt lat="49.10483" lon="1.12217">
        <ele>108.699997</ele>
        <time>2015-11-29T10:13:13Z</time>
      </trkpt>
      <trkpt lat="49.10487" lon="1.12232">
        <ele>109.199997</ele>
        <time>2015-11-29T10:13:17Z</time>
      </trkpt>
      <trkpt lat="49.10488" lon="1.12247">
        <ele>109.599998</ele>
        <time>2015-11-29T10:13:21Z</time>
      </trkpt>
      <trkpt lat="49.1049" lon="1.12266">
        <ele>110.099998</ele>
        <time>2015-11-29T10:13:25Z</time>
      </trkpt>
      <trkpt lat="49.10494" lon="1.1228">
        <ele>110.400002</ele>
        <time>2015-11-29T10:13:28Z</time>
      </trkpt>
      <trkpt lat="49.10497" lon="1.12294">
        <ele>110.599998</ele>
        <time>2015-11-29T10:13:31Z</time>
      </trkpt>
      <trkpt lat="49.105" lon="1.12308">
        <ele>110.900002</ele>
        <time>2015-11-29T10:13:35Z</time>
      </trkpt>
      <trkpt lat="49.10504" lon="1.12323">
        <ele>111.099998</ele>
        <time>2015-11-29T10:13:40Z</time>
      </trkpt>
      <trkpt lat="49.10508" lon="1.12336">
        <ele>111.5</ele>
        <time>2015-11-29T10:13:45Z</time>
      </trkpt>
      <trkpt lat="49.10514" lon="1.12349">
        <ele>112.099998</ele>
        <time>2015-11-29T10:13:51Z</time>
      </trkpt>
      <trkpt lat="49.10517" lon="1.12364">
        <ele>112.599998</ele>
        <time>2015-11-29T10:13:57Z</time>
      </trkpt>
      <trkpt lat="49.1052" lon="1.12377">
        <ele>112.800003</ele>
        <time>2015-11-29T10:14:01Z</time>
      </trkpt>
      <trkpt lat="49.10523" lon="1.12392">
        <ele>113.400002</ele>
        <time>2015-11-29T10:14:07Z</time>
      </trkpt>
      <trkpt lat="49.10526" lon="1.12407">
        <ele>113.800003</ele>
        <time>2015-11-29T10:14:11Z</time>
      </trkpt>
      <trkpt lat="49.10528" lon="1.12422">
        <ele>114.300003</ele>
        <time>2015-11-29T10:14:15Z</time>
      </trkpt>
      <trkpt lat="49.10531" lon="1.12439">
        <ele>114.599998</ele>
        <time>2015-11-29T10:14:18Z</time>
      </trkpt>
      <trkpt lat="49.10537" lon="1.12451">
        <ele>115</ele>
        <time>2015-11-29T10:14:23Z</time>
      </trkpt>
      <trkpt lat="49.10541" lon="1.12465">
        <ele>115.300003</ele>
        <time>2015-11-29T10:14:28Z</time>
      </trkpt>
      <trkpt lat="49.10544" lon="1.12478">
        <ele>115.599998</ele>
        <time>2015-11-29T10:14:31Z</time>
      </trkpt>
      <trkpt lat="49.10545" lon="1.12496">
        <ele>115.900002</ele>
        <time>2015-11-29T10:14:35Z</time>
      </trkpt>
      <trkpt lat="49.10551" lon="1.12517">
        <ele>116.099998</ele>
        <time>2015-11-29T10:14:38Z</time>
      </trkpt>
      <trkpt lat="49.10556" lon="1.12533">
        <ele>116.199997</ele>
        <time>2015-11-29T10:14:41Z</time>
      </trkpt>
      <trkpt lat="49.10562" lon="1.12548">
        <ele>116.599998</ele>
        <time>2015-11-29T10:14:46Z</time>
      </trkpt>
      <trkpt lat="49.10564" lon="1.12565">
        <ele>117</ele>
        <time>2015-11-29T10:14:50Z</time>
      </trkpt>
      <trkpt lat="49.10568" lon="1.12582">
        <ele>117.300003</ele>
        <time>2015-11-29T10:14:53Z</time>
      </trkpt>
      <trkpt lat="49.10573" lon="1.12595">
        <ele>117.400002</ele>
        <time>2015-11-29T10:14:56Z</time>
      </trkpt>
      <trkpt lat="49.10578" lon="1.1261">
        <ele>117.699997</ele>
        <time>2015-11-29T10:15:00Z</time>
      </trkpt>
      <trkpt lat="49.10581" lon="1.12623">
        <ele>118</ele>
        <time>2015-11-29T10:15:03Z</time>
      </trkpt>
      <trkpt lat="49.10585" lon="1.12637">
        <ele>118.199997</ele>
        <time>2015-11-29T10:15:06Z</time>
      </trkpt>
      <trkpt lat="49.1059" lon="1.12654">
        <ele>118.400002</ele>
        <time>2015-11-29T10:15:10Z</time>
      </trkpt>
      <trkpt lat="49.10594" lon="1.1267">
        <ele>118.699997</ele>
        <time>2015-11-29T10:15:14Z</time>
      </trkpt>
      <trkpt lat="49.10599" lon="1.12686">
        <ele>119</ele>
        <time>2015-11-29T10:15:18Z</time>
      </trkpt>
      <trkpt lat="49.10603" lon="1.12701">
        <ele>119.199997</ele>
        <time>2015-11-29T10:15:22Z</time>
      </trkpt>
      <trkpt lat="49.10605" lon="1.12717">
        <ele>119.300003</ele>
        <time>2015-11-29T10:15:25Z</time>
      </trkpt>
      <trkpt lat="49.10608" lon="1.12731">
        <ele>119.400002</ele>
        <time>2015-11-29T10:15:28Z</time>
      </trkpt>
      <trkpt lat="49.10612" lon="1.12746">
        <ele>119.5</ele>
        <time>2015-11-29T10:15:31Z</time>
      </trkpt>
      <trkpt lat="49.10616" lon="1.1276">
        <ele>119.599998</ele>
        <time>2015-11-29T10:15:34Z</time>
      </trkpt>
      <trkpt lat="49.1062" lon="1.12772">
        <ele>119.900002</ele>
        <time>2015-11-29T10:15:37Z</time>
      </trkpt>
      <trkpt lat="49.10623" lon="1.12786">
        <ele>120.199997</ele>
        <time>2015-11-29T10:15:40Z</time>
      </trkpt>
      <trkpt lat="49.10627" lon="1.12799">
        <ele>120.5</ele>
        <time>2015-11-29T10:15:43Z</time>
      </trkpt>
      <trkpt lat="49.10631" lon="1.12812">
        <ele>120.900002</ele>
        <time>2015-11-29T10:15:46Z</time>
      </trkpt>
      <trkpt lat="49.10634" lon="1.12826">
        <ele>121.400002</ele>
        <time>2015-11-29T10:15:49Z</time>
      </trkpt>
      <trkpt lat="49.10638" lon="1.12839">
        <ele>121.800003</ele>
        <time>2015-11-29T10:15:52Z</time>
      </trkpt>
      <trkpt lat="49.10641" lon="1.12852">
        <ele>122.199997</ele>
        <time>2015-11-29T10:15:55Z</time>
      </trkpt>
      <trkpt lat="49.10647" lon="1.12869">
        <ele>122.699997</ele>
        <time>2015-11-29T10:15:59Z</time>
      </trkpt>
      <trkpt lat="49.10651" lon="1.12883">
        <ele>123</ele>
        <time>2015-11-29T10:16:02Z</time>
      </trkpt>
      <trkpt lat="49.10655" lon="1.12898">
        <ele>123.300003</ele>
        <time>2015-11-29T10:16:05Z</time>
      </trkpt>
      <trkpt lat="49.10659" lon="1.12911">
        <ele>123.699997</ele>
        <time>2015-11-29T10:16:08Z</time>
      </trkpt>
      <trkpt lat="49.10664" lon="1.12927">
        <ele>124.099998</ele>
        <time>2015-11-29T10:16:12Z</time>
      </trkpt>
      <trkpt lat="49.10669" lon="1.12941">
        <ele>124.400002</ele>
        <time>2015-11-29T10:16:16Z</time>
      </trkpt>
      <trkpt lat="49.1067" lon="1.12955">
        <ele>124.699997</ele>
        <time>2015-11-29T10:16:20Z</time>
      </trkpt>
      <trkpt lat="49.10661" lon="1.12964">
        <ele>125</ele>
        <time>2015-11-29T10:16:25Z</time>
      </trkpt>
      <trkpt lat="49.10651" lon="1.12973">
        <ele>125.199997</ele>
        <time>2015-11-29T10:16:29Z</time>
      </trkpt>
      <trkpt lat="49.10641" lon="1.1298">
        <ele>125.300003</ele>
        <time>2015-11-29T10:16:33Z</time>
      </trkpt>
      <trkpt lat="49.10631" lon="1.12988">
        <ele>125.099998</ele>
        <time>2015-11-29T10:16:37Z</time>
      </trkpt>
      <trkpt lat="49.10622" lon="1.12996">
        <ele>125</ele>
        <time>2015-11-29T10:16:40Z</time>
      </trkpt>
      <trkpt lat="49.10614" lon="1.13004">
        <ele>124.800003</ele>
        <time>2015-11-29T10:16:42Z</time>
      </trkpt>
      <trkpt lat="49.10604" lon="1.13014">
        <ele>124.5</ele>
        <time>2015-11-29T10:16:44Z</time>
      </trkpt>
      <trkpt lat="49.10595" lon="1.13019">
        <ele>124.099998</ele>
        <time>2015-11-29T10:16:46Z</time>
      </trkpt>
      <trkpt lat="49.10586" lon="1.13026">
        <ele>123.599998</ele>
        <time>2015-11-29T10:16:49Z</time>
      </trkpt>
      <trkpt lat="49.10578" lon="1.13033">
        <ele>123.300003</ele>
        <time>2015-11-29T10:16:53Z</time>
      </trkpt>
      <trkpt lat="49.10569" lon="1.13041">
        <ele>123.400002</ele>
        <time>2015-11-29T10:16:57Z</time>
      </trkpt>
      <trkpt lat="49.1056" lon="1.1305">
        <ele>123.699997</ele>
        <time>2015-11-29T10:17:01Z</time>
      </trkpt>
      <trkpt lat="49.10552" lon="1.13057">
        <ele>123.900002</ele>
        <time>2015-11-29T10:17:04Z</time>
      </trkpt>
      <trkpt lat="49.10544" lon="1.13063">
        <ele>124.099998</ele>
        <time>2015-11-29T10:17:08Z</time>
      </trkpt>
      <trkpt lat="49.10534" lon="1.13071">
        <ele>124.5</ele>
        <time>2015-11-29T10:17:12Z</time>
      </trkpt>
      <trkpt lat="49.10524" lon="1.13077">
        <ele>124.900002</ele>
        <time>2015-11-29T10:17:16Z</time>
      </trkpt>
      <trkpt lat="49.10514" lon="1.13086">
        <ele>125.300003</ele>
        <time>2015-11-29T10:17:20Z</time>
      </trkpt>
      <trkpt lat="49.10504" lon="1.13094">
        <ele>125.699997</ele>
        <time>2015-11-29T10:17:24Z</time>
      </trkpt>
      <trkpt lat="49.10495" lon="1.13101">
        <ele>126</ele>
        <time>2015-11-29T10:17:27Z</time>
      </trkpt>
      <trkpt lat="49.10487" lon="1.1311">
        <ele>126.199997</ele>
        <time>2015-11-29T10:17:30Z</time>
      </trkpt>
      <trkpt lat="49.10477" lon="1.13116">
        <ele>126.5</ele>
        <time>2015-11-29T10:17:34Z</time>
      </trkpt>
      <trkpt lat="49.10468" lon="1.13122">
        <ele>126.599998</ele>
        <time>2015-11-29T10:17:37Z</time>
      </trkpt>
      <trkpt lat="49.10459" lon="1.13129">
        <ele>126.800003</ele>
        <time>2015-11-29T10:17:40Z</time>
      </trkpt>
      <trkpt lat="49.10449" lon="1.13136">
        <ele>126.900002</ele>
        <time>2015-11-29T10:17:43Z</time>
      </trkpt>
      <trkpt lat="49.10439" lon="1.13145">
        <ele>127</ele>
        <time>2015-11-29T10:17:46Z</time>
      </trkpt>
      <trkpt lat="49.10428" lon="1.13154">
        <ele>127.099998</ele>
        <time>2015-11-29T10:17:49Z</time>
      </trkpt>
      <trkpt lat="49.10417" lon="1.13161">
        <ele>127</ele>
        <time>2015-11-29T10:17:52Z</time>
      </trkpt>
      <trkpt lat="49.10409" lon="1.13168">
        <ele>126.800003</ele>
        <time>2015-11-29T10:17:54Z</time>
      </trkpt>
      <trkpt lat="49.10399" lon="1.13178">
        <ele>126.199997</ele>
        <time>2015-11-29T10:17:57Z</time>
      </trkpt>
      <trkpt lat="49.10399" lon="1.13199">
        <ele>125.5</ele>
        <time>2015-11-29T10:18:00Z</time>
      </trkpt>
      <trkpt lat="49.104" lon="1.13215">
        <ele>125</ele>
        <time>2015-11-29T10:18:03Z</time>
      </trkpt>
      <trkpt lat="49.10403" lon="1.13229">
        <ele>124.599998</ele>
        <time>2015-11-29T10:18:06Z</time>
      </trkpt>
      <trkpt lat="49.10405" lon="1.13244">
        <ele>124.5</ele>
        <time>2015-11-29T10:18:08Z</time>
      </trkpt>
      <trkpt lat="49.10409" lon="1.13264">
        <ele>124.5</ele>
        <time>2015-11-29T10:18:11Z</time>
      </trkpt>
      <trkpt lat="49.10412" lon="1.13281">
        <ele>124.599998</ele>
        <time>2015-11-29T10:18:14Z</time>
      </trkpt>
      <trkpt lat="49.10415" lon="1.13298">
        <ele>124.699997</ele>
        <time>2015-11-29T10:18:17Z</time>
      </trkpt>
      <trkpt lat="49.10418" lon="1.13315">
        <ele>124.900002</ele>
        <time>2015-11-29T10:18:20Z</time>
      </trkpt>
      <trkpt lat="49.10421" lon="1.13328">
        <ele>125.099998</ele>
        <time>2015-11-29T10:18:22Z</time>
      </trkpt>
      <trkpt lat="49.10425" lon="1.13344">
        <ele>125.400002</ele>
        <time>2015-11-29T10:18:25Z</time>
      </trkpt>
      <trkpt lat="49.10428" lon="1.13359">
        <ele>125.800003</ele>
        <time>2015-11-29T10:18:28Z</time>
      </trkpt>
      <trkpt lat="49.10433" lon="1.13374">
        <ele>126.300003</ele>
        <time>2015-11-29T10:18:31Z</time>
      </trkpt>
      <trkpt lat="49.10438" lon="1.13393">
        <ele>126.900002</ele>
        <time>2015-11-29T10:18:34Z</time>
      </trkpt>
      <trkpt lat="49.10442" lon="1.13407">
        <ele>127.5</ele>
        <time>2015-11-29T10:18:37Z</time>
      </trkpt>
      <trkpt lat="49.10444" lon="1.13421">
        <ele>128.199997</ele>
        <time>2015-11-29T10:18:40Z</time>
      </trkpt>
      <trkpt lat="49.10447" lon="1.13436">
        <ele>128.800003</ele>
        <time>2015-11-29T10:18:43Z</time>
      </trkpt>
      <trkpt lat="49.10451" lon="1.1345">
        <ele>129.300003</ele>
        <time>2015-11-29T10:18:46Z</time>
      </trkpt>
      <trkpt lat="49.10454" lon="1.13466">
        <ele>130.100006</ele>
        <time>2015-11-29T10:18:50Z</time>
      </trkpt>
      <trkpt lat="49.10459" lon="1.13478">
        <ele>130.699997</ele>
        <time>2015-11-29T10:18:53Z</time>
      </trkpt>
      <trkpt lat="49.10462" lon="1.13495">
        <ele>131.399994</ele>
        <time>2015-11-29T10:18:57Z</time>
      </trkpt>
      <trkpt lat="49.10467" lon="1.13511">
        <ele>132.100006</ele>
        <time>2015-11-29T10:19:01Z</time>
      </trkpt>
      <trkpt lat="49.10464" lon="1.13527">
        <ele>132.899994</ele>
        <time>2015-11-29T10:19:06Z</time>
      </trkpt>
      <trkpt lat="49.10466" lon="1.13543">
        <ele>133.600006</ele>
        <time>2015-11-29T10:19:11Z</time>
      </trkpt>
      <trkpt lat="49.1047" lon="1.13556">
        <ele>134.100006</ele>
        <time>2015-11-29T10:19:15Z</time>
      </trkpt>
      <trkpt lat="49.10474" lon="1.1357">
        <ele>134.600006</ele>
        <time>2015-11-29T10:19:20Z</time>
      </trkpt>
      <trkpt lat="49.10476" lon="1.13584">
        <ele>135</ele>
        <time>2015-11-29T10:19:25Z</time>
      </trkpt>
      <trkpt lat="49.10478" lon="1.13599">
        <ele>135.300003</ele>
        <time>2015-11-29T10:19:30Z</time>
      </trkpt>
      <trkpt lat="49.10486" lon="1.13607">
        <ele>136.199997</ele>
        <time>2015-11-29T10:19:59Z</time>
      </trkpt>
      <trkpt lat="49.10484" lon="1.13622">
        <ele>137</ele>
        <time>2015-11-29T10:22:18Z</time>
      </trkpt>
      <trkpt lat="49.10477" lon="1.13634">
        <ele>137</ele>
        <time>2015-11-29T10:22:21Z</time>
      </trkpt>
      <trkpt lat="49.1047" lon="1.13648">
        <ele>137.100006</ele>
        <time>2015-11-29T10:22:24Z</time>
      </trkpt>
      <trkpt lat="49.10463" lon="1.13664">
        <ele>137.100006</ele>
        <time>2015-11-29T10:22:27Z</time>
      </trkpt>
      <trkpt lat="49.10456" lon="1.1368">
        <ele>137.100006</ele>
        <time>2015-11-29T10:22:30Z</time>
      </trkpt>
      <trkpt lat="49.1045" lon="1.13697">
        <ele>137</ele>
        <time>2015-11-29T10:22:33Z</time>
      </trkpt>
      <trkpt lat="49.10446" lon="1.1371">
        <ele>137</ele>
        <time>2015-11-29T10:22:35Z</time>
      </trkpt>
      <trkpt lat="49.10441" lon="1.13723">
        <ele>136.899994</ele>
        <time>2015-11-29T10:22:37Z</time>
      </trkpt>
      <trkpt lat="49.10436" lon="1.13736">
        <ele>136.800003</ele>
        <time>2015-11-29T10:22:39Z</time>
      </trkpt>
      <trkpt lat="49.10431" lon="1.13751">
        <ele>136.600006</ele>
        <time>2015-11-29T10:22:41Z</time>
      </trkpt>
      <trkpt lat="49.10426" lon="1.13765">
        <ele>136.5</ele>
        <time>2015-11-29T10:22:43Z</time>
      </trkpt>
      <trkpt lat="49.1042" lon="1.1378">
        <ele>136.300003</ele>
        <time>2015-11-29T10:22:45Z</time>
      </trkpt>
      <trkpt lat="49.10415" lon="1.13797">
        <ele>136.100006</ele>
        <time>2015-11-29T10:22:47Z</time>
      </trkpt>
      <trkpt lat="49.10409" lon="1.13815">
        <ele>135.899994</ele>
        <time>2015-11-29T10:22:49Z</time>
      </trkpt>
      <trkpt lat="49.10403" lon="1.13833">
        <ele>135.699997</ele>
        <time>2015-11-29T10:22:51Z</time>
      </trkpt>
      <trkpt lat="49.10396" lon="1.13852">
        <ele>135.5</ele>
        <time>2015-11-29T10:22:53Z</time>
      </trkpt>
      <trkpt lat="49.10388" lon="1.1387">
        <ele>135.199997</ele>
        <time>2015-11-29T10:22:55Z</time>
      </trkpt>
      <trkpt lat="49.1038" lon="1.13888">
        <ele>134.899994</ele>
        <time>2015-11-29T10:22:57Z</time>
      </trkpt>
      <trkpt lat="49.1037" lon="1.13905">
        <ele>134.600006</ele>
        <time>2015-11-29T10:22:59Z</time>
      </trkpt>
      <trkpt lat="49.10361" lon="1.13923">
        <ele>134.300003</ele>
        <time>2015-11-29T10:23:01Z</time>
      </trkpt>
      <trkpt lat="49.10352" lon="1.13942">
        <ele>134.100006</ele>
        <time>2015-11-29T10:23:03Z</time>
      </trkpt>
      <trkpt lat="49.10342" lon="1.1396">
        <ele>133.699997</ele>
        <time>2015-11-29T10:23:05Z</time>
      </trkpt>
      <trkpt lat="49.10332" lon="1.13978">
        <ele>133.399994</ele>
        <time>2015-11-29T10:23:07Z</time>
      </trkpt>
      <trkpt lat="49.10321" lon="1.13998">
        <ele>133.100006</ele>
        <time>2015-11-29T10:23:09Z</time>
      </trkpt>
      <trkpt lat="49.1031" lon="1.14016">
        <ele>132.800003</ele>
        <time>2015-11-29T10:23:11Z</time>
      </trkpt>
      <trkpt lat="49.103" lon="1.14033">
        <ele>132.600006</ele>
        <time>2015-11-29T10:23:13Z</time>
      </trkpt>
      <trkpt lat="49.10289" lon="1.14049">
        <ele>132.300003</ele>
        <time>2015-11-29T10:23:15Z</time>
      </trkpt>
      <trkpt lat="49.1028" lon="1.14065">
        <ele>132.100006</ele>
        <time>2015-11-29T10:23:17Z</time>
      </trkpt>
      <trkpt lat="49.10271" lon="1.1408">
        <ele>132</ele>
        <time>2015-11-29T10:23:19Z</time>
      </trkpt>
      <trkpt lat="49.10263" lon="1.14094">
        <ele>131.800003</ele>
        <time>2015-11-29T10:23:21Z</time>
      </trkpt>
      <trkpt lat="49.10255" lon="1.14107">
        <ele>131.800003</ele>
        <time>2015-11-29T10:23:23Z</time>
      </trkpt>
      <trkpt lat="49.10247" lon="1.14119">
        <ele>131.800003</ele>
        <time>2015-11-29T10:23:25Z</time>
      </trkpt>
      <trkpt lat="49.1024" lon="1.14131">
        <ele>132</ele>
        <time>2015-11-29T10:23:27Z</time>
      </trkpt>
      <trkpt lat="49.10231" lon="1.14146">
        <ele>132.199997</ele>
        <time>2015-11-29T10:23:30Z</time>
      </trkpt>
      <trkpt lat="49.10224" lon="1.1416">
        <ele>132.399994</ele>
        <time>2015-11-29T10:23:33Z</time>
      </trkpt>
      <trkpt lat="49.10218" lon="1.14171">
        <ele>132.5</ele>
        <time>2015-11-29T10:23:36Z</time>
      </trkpt>
      <trkpt lat="49.10213" lon="1.14184">
        <ele>133.5</ele>
        <time>2015-11-29T10:24:13Z</time>
      </trkpt>
      <trkpt lat="49.10205" lon="1.14196">
        <ele>133.600006</ele>
        <time>2015-11-29T10:24:19Z</time>
      </trkpt>
      <trkpt lat="49.10199" lon="1.14208">
        <ele>133.699997</ele>
        <time>2015-11-29T10:24:22Z</time>
      </trkpt>
      <trkpt lat="49.10192" lon="1.14219">
        <ele>133.699997</ele>
        <time>2015-11-29T10:24:24Z</time>
      </trkpt>
      <trkpt lat="49.10186" lon="1.14229">
        <ele>133.800003</ele>
        <time>2015-11-29T10:24:26Z</time>
      </trkpt>
      <trkpt lat="49.10177" lon="1.14243">
        <ele>134</ele>
        <time>2015-11-29T10:24:29Z</time>
      </trkpt>
      <trkpt lat="49.10169" lon="1.14257">
        <ele>134.100006</ele>
        <time>2015-11-29T10:24:32Z</time>
      </trkpt>
      <trkpt lat="49.10161" lon="1.14268">
        <ele>134.100006</ele>
        <time>2015-11-29T10:24:35Z</time>
      </trkpt>
      <trkpt lat="49.10154" lon="1.14282">
        <ele>134.199997</ele>
        <time>2015-11-29T10:24:38Z</time>
      </trkpt>
      <trkpt lat="49.10148" lon="1.14296">
        <ele>134.300003</ele>
        <time>2015-11-29T10:24:41Z</time>
      </trkpt>
      <trkpt lat="49.10155" lon="1.14286">
        <ele>134.300003</ele>
        <time>2015-11-29T10:25:00Z</time>
      </trkpt>
      <trkpt lat="49.10148" lon="1.14295">
        <ele>134.199997</ele>
        <time>2015-11-29T10:25:12Z</time>
      </trkpt>
      <trkpt lat="49.10142" lon="1.14307">
        <ele>134</ele>
        <time>2015-11-29T10:25:38Z</time>
      </trkpt>
      <trkpt lat="49.10138" lon="1.1432">
        <ele>132.899994</ele>
        <time>2015-11-29T10:27:12Z</time>
      </trkpt>
      <trkpt lat="49.1013" lon="1.14332">
        <ele>132.899994</ele>
        <time>2015-11-29T10:27:15Z</time>
      </trkpt>
      <trkpt lat="49.10122" lon="1.14347">
        <ele>132.800003</ele>
        <time>2015-11-29T10:27:18Z</time>
      </trkpt>
      <trkpt lat="49.10115" lon="1.14358">
        <ele>132.800003</ele>
        <time>2015-11-29T10:27:20Z</time>
      </trkpt>
      <trkpt lat="49.10108" lon="1.1437">
        <ele>132.699997</ele>
        <time>2015-11-29T10:27:22Z</time>
      </trkpt>
      <trkpt lat="49.101" lon="1.1438">
        <ele>132.699997</ele>
        <time>2015-11-29T10:27:24Z</time>
      </trkpt>
      <trkpt lat="49.10092" lon="1.14388">
        <ele>132.600006</ele>
        <time>2015-11-29T10:27:26Z</time>
      </trkpt>
      <trkpt lat="49.10081" lon="1.14398">
        <ele>132.5</ele>
        <time>2015-11-29T10:27:29Z</time>
      </trkpt>
      <trkpt lat="49.1007" lon="1.14408">
        <ele>132.399994</ele>
        <time>2015-11-29T10:27:32Z</time>
      </trkpt>
      <trkpt lat="49.10059" lon="1.14418">
        <ele>132.399994</ele>
        <time>2015-11-29T10:27:35Z</time>
      </trkpt>
      <trkpt lat="49.10049" lon="1.14425">
        <ele>132.399994</ele>
        <time>2015-11-29T10:27:38Z</time>
      </trkpt>
      <trkpt lat="49.10038" lon="1.14433">
        <ele>132.5</ele>
        <time>2015-11-29T10:27:41Z</time>
      </trkpt>
      <trkpt lat="49.10027" lon="1.14442">
        <ele>132.600006</ele>
        <time>2015-11-29T10:27:44Z</time>
      </trkpt>
      <trkpt lat="49.10016" lon="1.14451">
        <ele>132.800003</ele>
        <time>2015-11-29T10:27:47Z</time>
      </trkpt>
      <trkpt lat="49.10004" lon="1.1446">
        <ele>133</ele>
        <time>2015-11-29T10:27:50Z</time>
      </trkpt>
      <trkpt lat="49.09993" lon="1.1447">
        <ele>133.199997</ele>
        <time>2015-11-29T10:27:53Z</time>
      </trkpt>
      <trkpt lat="49.09982" lon="1.14479">
        <ele>133.399994</ele>
        <time>2015-11-29T10:27:56Z</time>
      </trkpt>
      <trkpt lat="49.09972" lon="1.14487">
        <ele>133.800003</ele>
        <time>2015-11-29T10:27:59Z</time>
      </trkpt>
      <trkpt lat="49.0996" lon="1.14496">
        <ele>134.100006</ele>
        <time>2015-11-29T10:28:02Z</time>
      </trkpt>
      <trkpt lat="49.09952" lon="1.14503">
        <ele>134.300003</ele>
        <time>2015-11-29T10:28:04Z</time>
      </trkpt>
      <trkpt lat="49.09941" lon="1.14512">
        <ele>134.600006</ele>
        <time>2015-11-29T10:28:07Z</time>
      </trkpt>
      <trkpt lat="49.0993" lon="1.1452">
        <ele>134.800003</ele>
        <time>2015-11-29T10:28:10Z</time>
      </trkpt>
      <trkpt lat="49.09922" lon="1.14526">
        <ele>134.899994</ele>
        <time>2015-11-29T10:28:12Z</time>
      </trkpt>
      <trkpt lat="49.09913" lon="1.14533">
        <ele>135</ele>
        <time>2015-11-29T10:28:14Z</time>
      </trkpt>
      <trkpt lat="49.09904" lon="1.1454">
        <ele>135.100006</ele>
        <time>2015-11-29T10:28:16Z</time>
      </trkpt>
      <trkpt lat="49.09895" lon="1.14547">
        <ele>135.199997</ele>
        <time>2015-11-29T10:28:18Z</time>
      </trkpt>
      <trkpt lat="49.09886" lon="1.14555">
        <ele>135.300003</ele>
        <time>2015-11-29T10:28:20Z</time>
      </trkpt>
      <trkpt lat="49.09877" lon="1.14562">
        <ele>135.300003</ele>
        <time>2015-11-29T10:28:22Z</time>
      </trkpt>
      <trkpt lat="49.09867" lon="1.14571">
        <ele>135.399994</ele>
        <time>2015-11-29T10:28:24Z</time>
      </trkpt>
      <trkpt lat="49.09858" lon="1.14581">
        <ele>135.399994</ele>
        <time>2015-11-29T10:28:26Z</time>
      </trkpt>
      <trkpt lat="49.09851" lon="1.14589">
        <ele>135.5</ele>
        <time>2015-11-29T10:28:28Z</time>
      </trkpt>
      <trkpt lat="49.0984" lon="1.14584">
        <ele>135.5</ele>
        <time>2015-11-29T10:28:31Z</time>
      </trkpt>
      <trkpt lat="49.09829" lon="1.14576">
        <ele>135.5</ele>
        <time>2015-11-29T10:28:34Z</time>
      </trkpt>
      <trkpt lat="49.09821" lon="1.14583">
        <ele>135.5</ele>
        <time>2015-11-29T10:28:36Z</time>
      </trkpt>
      <trkpt lat="49.09812" lon="1.14591">
        <ele>135.300003</ele>
        <time>2015-11-29T10:28:38Z</time>
      </trkpt>
      <trkpt lat="49.09802" lon="1.14599">
        <ele>135.199997</ele>
        <time>2015-11-29T10:28:40Z</time>
      </trkpt>
      <trkpt lat="49.09793" lon="1.14607">
        <ele>135.100006</ele>
        <time>2015-11-29T10:28:42Z</time>
      </trkpt>
      <trkpt lat="49.09783" lon="1.14615">
        <ele>135</ele>
        <time>2015-11-29T10:28:44Z</time>
      </trkpt>
      <trkpt lat="49.09771" lon="1.14621">
        <ele>134.800003</ele>
        <time>2015-11-29T10:28:46Z</time>
      </trkpt>
      <trkpt lat="49.09761" lon="1.14628">
        <ele>134.699997</ele>
        <time>2015-11-29T10:28:48Z</time>
      </trkpt>
      <trkpt lat="49.09751" lon="1.14631">
        <ele>134.5</ele>
        <time>2015-11-29T10:28:50Z</time>
      </trkpt>
      <trkpt lat="49.09741" lon="1.14632">
        <ele>134.100006</ele>
        <time>2015-11-29T10:28:52Z</time>
      </trkpt>
      <trkpt lat="49.09732" lon="1.14632">
        <ele>133.699997</ele>
        <time>2015-11-29T10:28:54Z</time>
      </trkpt>
      <trkpt lat="49.09719" lon="1.14634">
        <ele>133.100006</ele>
        <time>2015-11-29T10:28:57Z</time>
      </trkpt>
      <trkpt lat="49.09705" lon="1.14637">
        <ele>132.399994</ele>
        <time>2015-11-29T10:29:00Z</time>
      </trkpt>
      <trkpt lat="49.09695" lon="1.14641">
        <ele>132</ele>
        <time>2015-11-29T10:29:02Z</time>
      </trkpt>
      <trkpt lat="49.09685" lon="1.14648">
        <ele>131.5</ele>
        <time>2015-11-29T10:29:04Z</time>
      </trkpt>
      <trkpt lat="49.09673" lon="1.14656">
        <ele>130.800003</ele>
        <time>2015-11-29T10:29:06Z</time>
      </trkpt>
      <trkpt lat="49.0966" lon="1.14663">
        <ele>130.199997</ele>
        <time>2015-11-29T10:29:08Z</time>
      </trkpt>
      <trkpt lat="49.09648" lon="1.1467">
        <ele>129.600006</ele>
        <time>2015-11-29T10:29:10Z</time>
      </trkpt>
      <trkpt lat="49.09638" lon="1.14674">
        <ele>128.899994</ele>
        <time>2015-11-29T10:29:12Z</time>
      </trkpt>
      <trkpt lat="49.09628" lon="1.14678">
        <ele>128.300003</ele>
        <time>2015-11-29T10:29:14Z</time>
      </trkpt>
      <trkpt lat="49.0962" lon="1.14685">
        <ele>127.800003</ele>
        <time>2015-11-29T10:29:16Z</time>
      </trkpt>
      <trkpt lat="49.09609" lon="1.14692">
        <ele>127.400002</ele>
        <time>2015-11-29T10:29:18Z</time>
      </trkpt>
      <trkpt lat="49.09599" lon="1.14697">
        <ele>127</ele>
        <time>2015-11-29T10:29:20Z</time>
      </trkpt>
      <trkpt lat="49.09589" lon="1.14703">
        <ele>126.599998</ele>
        <time>2015-11-29T10:29:22Z</time>
      </trkpt>
      <trkpt lat="49.09578" lon="1.14706">
        <ele>126.099998</ele>
        <time>2015-11-29T10:29:24Z</time>
      </trkpt>
      <trkpt lat="49.09567" lon="1.14708">
        <ele>125.699997</ele>
        <time>2015-11-29T10:29:26Z</time>
      </trkpt>
      <trkpt lat="49.09558" lon="1.14712">
        <ele>125.300003</ele>
        <time>2015-11-29T10:29:28Z</time>
      </trkpt>
      <trkpt lat="49.09547" lon="1.1472">
        <ele>124.699997</ele>
        <time>2015-11-29T10:29:31Z</time>
      </trkpt>
      <trkpt lat="49.09537" lon="1.1473">
        <ele>124.199997</ele>
        <time>2015-11-29T10:29:34Z</time>
      </trkpt>
      <trkpt lat="49.09528" lon="1.14735">
        <ele>123.800003</ele>
        <time>2015-11-29T10:29:37Z</time>
      </trkpt>
      <trkpt lat="49.09519" lon="1.14735">
        <ele>123.5</ele>
        <time>2015-11-29T10:29:40Z</time>
      </trkpt>
      <trkpt lat="49.09507" lon="1.14736">
        <ele>123.300003</ele>
        <time>2015-11-29T10:29:44Z</time>
      </trkpt>
      <trkpt lat="49.09496" lon="1.14736">
        <ele>123.099998</ele>
        <time>2015-11-29T10:29:47Z</time>
      </trkpt>
      <trkpt lat="49.09485" lon="1.14739">
        <ele>123.099998</ele>
        <time>2015-11-29T10:29:51Z</time>
      </trkpt>
      <trkpt lat="49.09477" lon="1.14748">
        <ele>123.099998</ele>
        <time>2015-11-29T10:29:55Z</time>
      </trkpt>
      <trkpt lat="49.09479" lon="1.14762">
        <ele>123.300003</ele>
        <time>2015-11-29T10:29:59Z</time>
      </trkpt>
      <trkpt lat="49.09484" lon="1.14774">
        <ele>123.699997</ele>
        <time>2015-11-29T10:30:03Z</time>
      </trkpt>
      <trkpt lat="49.09489" lon="1.14787">
        <ele>124.599998</ele>
        <time>2015-11-29T10:30:08Z</time>
      </trkpt>
      <trkpt lat="49.09493" lon="1.148">
        <ele>125.599998</ele>
        <time>2015-11-29T10:30:13Z</time>
      </trkpt>
      <trkpt lat="49.09502" lon="1.14808">
        <ele>126.599998</ele>
        <time>2015-11-29T10:30:18Z</time>
      </trkpt>
      <trkpt lat="49.0951" lon="1.14818">
        <ele>127.699997</ele>
        <time>2015-11-29T10:30:24Z</time>
      </trkpt>
      <trkpt lat="49.09517" lon="1.14827">
        <ele>128.5</ele>
        <time>2015-11-29T10:30:29Z</time>
      </trkpt>
      <trkpt lat="49.09526" lon="1.14835">
        <ele>129.199997</ele>
        <time>2015-11-29T10:30:34Z</time>
      </trkpt>
      <trkpt lat="49.09533" lon="1.14846">
        <ele>129.899994</ele>
        <time>2015-11-29T10:30:39Z</time>
      </trkpt>
      <trkpt lat="49.09537" lon="1.1486">
        <ele>130.800003</ele>
        <time>2015-11-29T10:30:45Z</time>
      </trkpt>
      <trkpt lat="49.09537" lon="1.14876">
        <ele>131.399994</ele>
        <time>2015-11-29T10:30:50Z</time>
      </trkpt>
      <trkpt lat="49.09541" lon="1.14891">
        <ele>132</ele>
        <time>2015-11-29T10:30:54Z</time>
      </trkpt>
      <trkpt lat="49.09548" lon="1.14899">
        <ele>132.5</ele>
        <time>2015-11-29T10:30:58Z</time>
      </trkpt>
      <trkpt lat="49.09548" lon="1.14913">
        <ele>133.100006</ele>
        <time>2015-11-29T10:31:03Z</time>
      </trkpt>
      <trkpt lat="49.0954" lon="1.14926">
        <ele>133.5</ele>
        <time>2015-11-29T10:31:08Z</time>
      </trkpt>
      <trkpt lat="49.09532" lon="1.14937">
        <ele>133.699997</ele>
        <time>2015-11-29T10:31:11Z</time>
      </trkpt>
      <trkpt lat="49.09525" lon="1.14951">
        <ele>133.899994</ele>
        <time>2015-11-29T10:31:14Z</time>
      </trkpt>
      <trkpt lat="49.09516" lon="1.14965">
        <ele>134</ele>
        <time>2015-11-29T10:31:17Z</time>
      </trkpt>
      <trkpt lat="49.09507" lon="1.14972">
        <ele>134</ele>
        <time>2015-11-29T10:31:19Z</time>
      </trkpt>
      <trkpt lat="49.09496" lon="1.14986">
        <ele>134.100006</ele>
        <time>2015-11-29T10:31:22Z</time>
      </trkpt>
      <trkpt lat="49.09487" lon="1.15">
        <ele>134</ele>
        <time>2015-11-29T10:31:25Z</time>
      </trkpt>
      <trkpt lat="49.09481" lon="1.15013">
        <ele>133.899994</ele>
        <time>2015-11-29T10:31:27Z</time>
      </trkpt>
      <trkpt lat="49.09474" lon="1.15026">
        <ele>133.800003</ele>
        <time>2015-11-29T10:31:29Z</time>
      </trkpt>
      <trkpt lat="49.09469" lon="1.15038">
        <ele>133.699997</ele>
        <time>2015-11-29T10:31:31Z</time>
      </trkpt>
      <trkpt lat="49.09464" lon="1.15056">
        <ele>133.300003</ele>
        <time>2015-11-29T10:31:34Z</time>
      </trkpt>
      <trkpt lat="49.09459" lon="1.1507">
        <ele>133.100006</ele>
        <time>2015-11-29T10:31:36Z</time>
      </trkpt>
      <trkpt lat="49.09457" lon="1.15086">
        <ele>133</ele>
        <time>2015-11-29T10:31:38Z</time>
      </trkpt>
      <trkpt lat="49.09455" lon="1.15102">
        <ele>132.800003</ele>
        <time>2015-11-29T10:31:41Z</time>
      </trkpt>
      <trkpt lat="49.0945" lon="1.15122">
        <ele>132.600006</ele>
        <time>2015-11-29T10:31:44Z</time>
      </trkpt>
      <trkpt lat="49.09446" lon="1.15143">
        <ele>132.600006</ele>
        <time>2015-11-29T10:31:46Z</time>
      </trkpt>
      <trkpt lat="49.09443" lon="1.15161">
        <ele>132.600006</ele>
        <time>2015-11-29T10:31:48Z</time>
      </trkpt>
      <trkpt lat="49.09439" lon="1.15179">
        <ele>132.600006</ele>
        <time>2015-11-29T10:31:50Z</time>
      </trkpt>
      <trkpt lat="49.09437" lon="1.15193">
        <ele>132.600006</ele>
        <time>2015-11-29T10:31:52Z</time>
      </trkpt>
      <trkpt lat="49.09436" lon="1.15207">
        <ele>132.600006</ele>
        <time>2015-11-29T10:31:54Z</time>
      </trkpt>
      <trkpt lat="49.09437" lon="1.15224">
        <ele>132.699997</ele>
        <time>2015-11-29T10:31:57Z</time>
      </trkpt>
      <trkpt lat="49.09434" lon="1.15242">
        <ele>132.699997</ele>
        <time>2015-11-29T10:32:00Z</time>
      </trkpt>
      <trkpt lat="49.09431" lon="1.15262">
        <ele>132.800003</ele>
        <time>2015-11-29T10:32:03Z</time>
      </trkpt>
      <trkpt lat="49.09428" lon="1.15282">
        <ele>132.899994</ele>
        <time>2015-11-29T10:32:06Z</time>
      </trkpt>
      <trkpt lat="49.09422" lon="1.15296">
        <ele>132.899994</ele>
        <time>2015-11-29T10:32:09Z</time>
      </trkpt>
      <trkpt lat="49.09414" lon="1.15306">
        <ele>133.100006</ele>
        <time>2015-11-29T10:32:13Z</time>
      </trkpt>
      <trkpt lat="49.09404" lon="1.15319">
        <ele>133.199997</ele>
        <time>2015-11-29T10:32:16Z</time>
      </trkpt>
      <trkpt lat="49.09397" lon="1.15331">
        <ele>133.300003</ele>
        <time>2015-11-29T10:32:19Z</time>
      </trkpt>
      <trkpt lat="49.09386" lon="1.15341">
        <ele>133.399994</ele>
        <time>2015-11-29T10:32:22Z</time>
      </trkpt>
      <trkpt lat="49.09375" lon="1.15354">
        <ele>133.5</ele>
        <time>2015-11-29T10:32:25Z</time>
      </trkpt>
      <trkpt lat="49.09367" lon="1.15364">
        <ele>133.5</ele>
        <time>2015-11-29T10:32:27Z</time>
      </trkpt>
      <trkpt lat="49.09357" lon="1.15369">
        <ele>133.399994</ele>
        <time>2015-11-29T10:32:29Z</time>
      </trkpt>
      <trkpt lat="49.09347" lon="1.15375">
        <ele>133.100006</ele>
        <time>2015-11-29T10:32:32Z</time>
      </trkpt>
      <trkpt lat="49.09338" lon="1.15384">
        <ele>132.899994</ele>
        <time>2015-11-29T10:32:34Z</time>
      </trkpt>
      <trkpt lat="49.0933" lon="1.15392">
        <ele>132.699997</ele>
        <time>2015-11-29T10:32:36Z</time>
      </trkpt>
      <trkpt lat="49.09322" lon="1.15402">
        <ele>132.5</ele>
        <time>2015-11-29T10:32:38Z</time>
      </trkpt>
      <trkpt lat="49.09316" lon="1.15413">
        <ele>132.300003</ele>
        <time>2015-11-29T10:32:40Z</time>
      </trkpt>
      <trkpt lat="49.09309" lon="1.15424">
        <ele>132.100006</ele>
        <time>2015-11-29T10:32:42Z</time>
      </trkpt>
      <trkpt lat="49.09303" lon="1.15437">
        <ele>131.899994</ele>
        <time>2015-11-29T10:32:44Z</time>
      </trkpt>
      <trkpt lat="49.09296" lon="1.15449">
        <ele>131.5</ele>
        <time>2015-11-29T10:32:47Z</time>
      </trkpt>
      <trkpt lat="49.09289" lon="1.15458">
        <ele>131.300003</ele>
        <time>2015-11-29T10:32:49Z</time>
      </trkpt>
      <trkpt lat="49.09283" lon="1.15469">
        <ele>131.100006</ele>
        <time>2015-11-29T10:32:51Z</time>
      </trkpt>
      <trkpt lat="49.09278" lon="1.15481">
        <ele>130.899994</ele>
        <time>2015-11-29T10:32:53Z</time>
      </trkpt>
      <trkpt lat="49.09272" lon="1.15493">
        <ele>130.699997</ele>
        <time>2015-11-29T10:32:55Z</time>
      </trkpt>
      <trkpt lat="49.09265" lon="1.15503">
        <ele>130.5</ele>
        <time>2015-11-29T10:32:57Z</time>
      </trkpt>
      <trkpt lat="49.09257" lon="1.15519">
        <ele>130.300003</ele>
        <time>2015-11-29T10:33:00Z</time>
      </trkpt>
      <trkpt lat="49.09249" lon="1.15528">
        <ele>130.199997</ele>
        <time>2015-11-29T10:33:03Z</time>
      </trkpt>
      <trkpt lat="49.09241" lon="1.15535">
        <ele>130</ele>
        <time>2015-11-29T10:33:08Z</time>
      </trkpt>
      <trkpt lat="49.09233" lon="1.15543">
        <ele>129.800003</ele>
        <time>2015-11-29T10:34:46Z</time>
      </trkpt>
      <trkpt lat="49.09223" lon="1.15547">
        <ele>129.899994</ele>
        <time>2015-11-29T10:34:51Z</time>
      </trkpt>
      <trkpt lat="49.09214" lon="1.15548">
        <ele>129.899994</ele>
        <time>2015-11-29T10:34:55Z</time>
      </trkpt>
      <trkpt lat="49.09204" lon="1.15553">
        <ele>129.899994</ele>
        <time>2015-11-29T10:34:59Z</time>
      </trkpt>
      <trkpt lat="49.09193" lon="1.15559">
        <ele>129.899994</ele>
        <time>2015-11-29T10:35:03Z</time>
      </trkpt>
      <trkpt lat="49.09182" lon="1.15564">
        <ele>129.899994</ele>
        <time>2015-11-29T10:35:07Z</time>
      </trkpt>
      <trkpt lat="49.09173" lon="1.15567">
        <ele>129.800003</ele>
        <time>2015-11-29T10:35:10Z</time>
      </trkpt>
      <trkpt lat="49.09164" lon="1.15568">
        <ele>129.699997</ele>
        <time>2015-11-29T10:35:14Z</time>
      </trkpt>
      <trkpt lat="49.09155" lon="1.15572">
        <ele>129.600006</ele>
        <time>2015-11-29T10:35:17Z</time>
      </trkpt>
      <trkpt lat="49.09146" lon="1.15579">
        <ele>129.5</ele>
        <time>2015-11-29T10:35:20Z</time>
      </trkpt>
      <trkpt lat="49.09134" lon="1.1558">
        <ele>129.399994</ele>
        <time>2015-11-29T10:35:23Z</time>
      </trkpt>
      <trkpt lat="49.09123" lon="1.15584">
        <ele>129.199997</ele>
        <time>2015-11-29T10:35:26Z</time>
      </trkpt>
      <trkpt lat="49.09114" lon="1.15587">
        <ele>129.199997</ele>
        <time>2015-11-29T10:35:28Z</time>
      </trkpt>
      <trkpt lat="49.09103" lon="1.15587">
        <ele>129</ele>
        <time>2015-11-29T10:35:31Z</time>
      </trkpt>
      <trkpt lat="49.09091" lon="1.15592">
        <ele>128.899994</ele>
        <time>2015-11-29T10:35:34Z</time>
      </trkpt>
      <trkpt lat="49.09081" lon="1.15595">
        <ele>128.699997</ele>
        <time>2015-11-29T10:35:37Z</time>
      </trkpt>
      <trkpt lat="49.09068" lon="1.15599">
        <ele>128.600006</ele>
        <time>2015-11-29T10:35:39Z</time>
      </trkpt>
      <trkpt lat="49.09056" lon="1.15604">
        <ele>128.399994</ele>
        <time>2015-11-29T10:35:41Z</time>
      </trkpt>
      <trkpt lat="49.09044" lon="1.15608">
        <ele>128.300003</ele>
        <time>2015-11-29T10:35:43Z</time>
      </trkpt>
      <trkpt lat="49.09034" lon="1.15612">
        <ele>128.199997</ele>
        <time>2015-11-29T10:35:45Z</time>
      </trkpt>
      <trkpt lat="49.09021" lon="1.15615">
        <ele>128.100006</ele>
        <time>2015-11-29T10:35:48Z</time>
      </trkpt>
      <trkpt lat="49.09009" lon="1.15617">
        <ele>128</ele>
        <time>2015-11-29T10:35:51Z</time>
      </trkpt>
      <trkpt lat="49.08999" lon="1.15622">
        <ele>128</ele>
        <time>2015-11-29T10:35:53Z</time>
      </trkpt>
      <trkpt lat="49.0899" lon="1.15626">
        <ele>128.100006</ele>
        <time>2015-11-29T10:35:55Z</time>
      </trkpt>
      <trkpt lat="49.08981" lon="1.15627">
        <ele>128.300003</ele>
        <time>2015-11-29T10:35:57Z</time>
      </trkpt>
      <trkpt lat="49.08972" lon="1.15629">
        <ele>128.399994</ele>
        <time>2015-11-29T10:35:59Z</time>
      </trkpt>
      <trkpt lat="49.0896" lon="1.15632">
        <ele>128.699997</ele>
        <time>2015-11-29T10:36:02Z</time>
      </trkpt>
      <trkpt lat="49.0895" lon="1.15635">
        <ele>128.800003</ele>
        <time>2015-11-29T10:36:04Z</time>
      </trkpt>
      <trkpt lat="49.08937" lon="1.15639">
        <ele>129</ele>
        <time>2015-11-29T10:36:07Z</time>
      </trkpt>
      <trkpt lat="49.08926" lon="1.15644">
        <ele>129.199997</ele>
        <time>2015-11-29T10:36:10Z</time>
      </trkpt>
      <trkpt lat="49.08912" lon="1.15646">
        <ele>129.399994</ele>
        <time>2015-11-29T10:36:13Z</time>
      </trkpt>
      <trkpt lat="49.08902" lon="1.15649">
        <ele>129.5</ele>
        <time>2015-11-29T10:36:15Z</time>
      </trkpt>
      <trkpt lat="49.08891" lon="1.15651">
        <ele>129.600006</ele>
        <time>2015-11-29T10:36:17Z</time>
      </trkpt>
      <trkpt lat="49.08881" lon="1.15653">
        <ele>129.699997</ele>
        <time>2015-11-29T10:36:19Z</time>
      </trkpt>
      <trkpt lat="49.08868" lon="1.15657">
        <ele>129.899994</ele>
        <time>2015-11-29T10:36:22Z</time>
      </trkpt>
      <trkpt lat="49.08856" lon="1.15663">
        <ele>130.100006</ele>
        <time>2015-11-29T10:36:25Z</time>
      </trkpt>
      <trkpt lat="49.08847" lon="1.15665">
        <ele>130.199997</ele>
        <time>2015-11-29T10:36:27Z</time>
      </trkpt>
      <trkpt lat="49.08836" lon="1.15671">
        <ele>130.399994</ele>
        <time>2015-11-29T10:36:30Z</time>
      </trkpt>
      <trkpt lat="49.08826" lon="1.15674">
        <ele>130.600006</ele>
        <time>2015-11-29T10:36:32Z</time>
      </trkpt>
      <trkpt lat="49.08816" lon="1.15677">
        <ele>130.600006</ele>
        <time>2015-11-29T10:36:34Z</time>
      </trkpt>
      <trkpt lat="49.08804" lon="1.15682">
        <ele>130.800003</ele>
        <time>2015-11-29T10:36:37Z</time>
      </trkpt>
      <trkpt lat="49.0879" lon="1.15687">
        <ele>130.899994</ele>
        <time>2015-11-29T10:36:40Z</time>
      </trkpt>
      <trkpt lat="49.08778" lon="1.15692">
        <ele>130.899994</ele>
        <time>2015-11-29T10:36:43Z</time>
      </trkpt>
      <trkpt lat="49.08766" lon="1.15696">
        <ele>131</ele>
        <time>2015-11-29T10:36:46Z</time>
      </trkpt>
      <trkpt lat="49.08756" lon="1.15701">
        <ele>131</ele>
        <time>2015-11-29T10:36:49Z</time>
      </trkpt>
      <trkpt lat="49.08743" lon="1.15707">
        <ele>131</ele>
        <time>2015-11-29T10:36:52Z</time>
      </trkpt>
      <trkpt lat="49.08729" lon="1.15709">
        <ele>131.100006</ele>
        <time>2015-11-29T10:36:54Z</time>
      </trkpt>
      <trkpt lat="49.08716" lon="1.15712">
        <ele>131</ele>
        <time>2015-11-29T10:36:56Z</time>
      </trkpt>
      <trkpt lat="49.08704" lon="1.15713">
        <ele>131</ele>
        <time>2015-11-29T10:36:58Z</time>
      </trkpt>
      <trkpt lat="49.08693" lon="1.15714">
        <ele>130.899994</ele>
        <time>2015-11-29T10:37:00Z</time>
      </trkpt>
      <trkpt lat="49.0868" lon="1.15719">
        <ele>130.800003</ele>
        <time>2015-11-29T10:37:03Z</time>
      </trkpt>
      <trkpt lat="49.08667" lon="1.15722">
        <ele>130.699997</ele>
        <time>2015-11-29T10:37:06Z</time>
      </trkpt>
      <trkpt lat="49.08656" lon="1.15723">
        <ele>130.399994</ele>
        <time>2015-11-29T10:37:08Z</time>
      </trkpt>
      <trkpt lat="49.08647" lon="1.15725">
        <ele>130.300003</ele>
        <time>2015-11-29T10:37:10Z</time>
      </trkpt>
      <trkpt lat="49.08636" lon="1.15727">
        <ele>130.100006</ele>
        <time>2015-11-29T10:37:13Z</time>
      </trkpt>
      <trkpt lat="49.08627" lon="1.15731">
        <ele>129.699997</ele>
        <time>2015-11-29T10:37:16Z</time>
      </trkpt>
      <trkpt lat="49.08613" lon="1.15738">
        <ele>129.5</ele>
        <time>2015-11-29T10:37:19Z</time>
      </trkpt>
      <trkpt lat="49.08602" lon="1.15743">
        <ele>129.199997</ele>
        <time>2015-11-29T10:37:22Z</time>
      </trkpt>
      <trkpt lat="49.0859" lon="1.15744">
        <ele>128.899994</ele>
        <time>2015-11-29T10:37:25Z</time>
      </trkpt>
      <trkpt lat="49.08576" lon="1.15746">
        <ele>128.600006</ele>
        <time>2015-11-29T10:37:29Z</time>
      </trkpt>
      <trkpt lat="49.08564" lon="1.15752">
        <ele>128.300003</ele>
        <time>2015-11-29T10:37:32Z</time>
      </trkpt>
      <trkpt lat="49.08554" lon="1.15754">
        <ele>128</ele>
        <time>2015-11-29T10:37:34Z</time>
      </trkpt>
      <trkpt lat="49.0854" lon="1.15757">
        <ele>127.699997</ele>
        <time>2015-11-29T10:37:37Z</time>
      </trkpt>
      <trkpt lat="49.0853" lon="1.1576">
        <ele>127.400002</ele>
        <time>2015-11-29T10:37:39Z</time>
      </trkpt>
      <trkpt lat="49.0852" lon="1.15763">
        <ele>127.199997</ele>
        <time>2015-11-29T10:37:41Z</time>
      </trkpt>
      <trkpt lat="49.0851" lon="1.15767">
        <ele>127</ele>
        <time>2015-11-29T10:37:43Z</time>
      </trkpt>
      <trkpt lat="49.08497" lon="1.15769">
        <ele>126.699997</ele>
        <time>2015-11-29T10:37:45Z</time>
      </trkpt>
      <trkpt lat="49.08487" lon="1.15773">
        <ele>126.5</ele>
        <time>2015-11-29T10:37:47Z</time>
      </trkpt>
      <trkpt lat="49.08474" lon="1.15776">
        <ele>126.099998</ele>
        <time>2015-11-29T10:37:50Z</time>
      </trkpt>
      <trkpt lat="49.08464" lon="1.15782">
        <ele>125.800003</ele>
        <time>2015-11-29T10:37:53Z</time>
      </trkpt>
      <trkpt lat="49.08452" lon="1.15787">
        <ele>125.5</ele>
        <time>2015-11-29T10:37:56Z</time>
      </trkpt>
      <trkpt lat="49.08439" lon="1.1579">
        <ele>125.300003</ele>
        <time>2015-11-29T10:37:59Z</time>
      </trkpt>
      <trkpt lat="49.0843" lon="1.15791">
        <ele>125.199997</ele>
        <time>2015-11-29T10:38:01Z</time>
      </trkpt>
      <trkpt lat="49.08418" lon="1.15795">
        <ele>125</ele>
        <time>2015-11-29T10:38:04Z</time>
      </trkpt>
      <trkpt lat="49.08406" lon="1.158">
        <ele>124.900002</ele>
        <time>2015-11-29T10:38:07Z</time>
      </trkpt>
      <trkpt lat="49.08395" lon="1.15802">
        <ele>124.800003</ele>
        <time>2015-11-29T10:38:10Z</time>
      </trkpt>
      <trkpt lat="49.08384" lon="1.15807">
        <ele>124.5</ele>
        <time>2015-11-29T10:38:13Z</time>
      </trkpt>
      <trkpt lat="49.08375" lon="1.15811">
        <ele>124.199997</ele>
        <time>2015-11-29T10:38:15Z</time>
      </trkpt>
      <trkpt lat="49.08361" lon="1.15811">
        <ele>123.599998</ele>
        <time>2015-11-29T10:38:18Z</time>
      </trkpt>
      <trkpt lat="49.08352" lon="1.15814">
        <ele>123.099998</ele>
        <time>2015-11-29T10:38:20Z</time>
      </trkpt>
      <trkpt lat="49.08343" lon="1.15816">
        <ele>122.400002</ele>
        <time>2015-11-29T10:38:22Z</time>
      </trkpt>
      <trkpt lat="49.08332" lon="1.15823">
        <ele>121.199997</ele>
        <time>2015-11-29T10:38:25Z</time>
      </trkpt>
      <trkpt lat="49.08322" lon="1.15827">
        <ele>119.900002</ele>
        <time>2015-11-29T10:38:28Z</time>
      </trkpt>
      <trkpt lat="49.08311" lon="1.15827">
        <ele>118.599998</ele>
        <time>2015-11-29T10:38:31Z</time>
      </trkpt>
      <trkpt lat="49.08302" lon="1.15828">
        <ele>117</ele>
        <time>2015-11-29T10:38:34Z</time>
      </trkpt>
      <trkpt lat="49.08292" lon="1.15833">
        <ele>114.699997</ele>
        <time>2015-11-29T10:38:38Z</time>
      </trkpt>
      <trkpt lat="49.0828" lon="1.15836">
        <ele>112.800003</ele>
        <time>2015-11-29T10:38:41Z</time>
      </trkpt>
      <trkpt lat="49.0827" lon="1.15837">
        <ele>110.800003</ele>
        <time>2015-11-29T10:38:44Z</time>
      </trkpt>
      <trkpt lat="49.08258" lon="1.15839">
        <ele>108</ele>
        <time>2015-11-29T10:38:48Z</time>
      </trkpt>
      <trkpt lat="49.08249" lon="1.15844">
        <ele>105.199997</ele>
        <time>2015-11-29T10:38:52Z</time>
      </trkpt>
      <trkpt lat="49.08239" lon="1.15848">
        <ele>101.5</ele>
        <time>2015-11-29T10:38:58Z</time>
      </trkpt>
      <trkpt lat="49.08232" lon="1.15857">
        <ele>95.5</ele>
        <time>2015-11-29T10:39:14Z</time>
      </trkpt>
      <trkpt lat="49.08223" lon="1.15855">
        <ele>93.199997</ele>
        <time>2015-11-29T10:39:32Z</time>
      </trkpt>
      <trkpt lat="49.08213" lon="1.15853">
        <ele>92</ele>
        <time>2015-11-29T10:39:45Z</time>
      </trkpt>
      <trkpt lat="49.08204" lon="1.15858">
        <ele>88.900002</ele>
        <time>2015-11-29T10:40:04Z</time>
      </trkpt>
      <trkpt lat="49.08195" lon="1.15861">
        <ele>86.900002</ele>
        <time>2015-11-29T10:40:10Z</time>
      </trkpt>
      <trkpt lat="49.08186" lon="1.15866">
        <ele>80.5</ele>
        <time>2015-11-29T10:40:49Z</time>
      </trkpt>
      <trkpt lat="49.08177" lon="1.15868">
        <ele>78.800003</ele>
        <time>2015-11-29T10:41:00Z</time>
      </trkpt>
      <trkpt lat="49.08168" lon="1.15871">
        <ele>74.5</ele>
        <time>2015-11-29T10:41:17Z</time>
      </trkpt>
      <trkpt lat="49.08158" lon="1.15873">
        <ele>73.099998</ele>
        <time>2015-11-29T10:41:22Z</time>
      </trkpt>
      <trkpt lat="49.08148" lon="1.15874">
        <ele>71.099998</ele>
        <time>2015-11-29T10:41:26Z</time>
      </trkpt>
      <trkpt lat="49.0814" lon="1.15886">
        <ele>67.800003</ele>
        <time>2015-11-29T10:41:32Z</time>
      </trkpt>
      <trkpt lat="49.08132" lon="1.15893">
        <ele>65.400002</ele>
        <time>2015-11-29T10:41:37Z</time>
      </trkpt>
      <trkpt lat="49.08124" lon="1.15901">
        <ele>58.299999</ele>
        <time>2015-11-29T10:43:16Z</time>
      </trkpt>
      <trkpt lat="49.08114" lon="1.15906">
        <ele>58.299999</ele>
        <time>2015-11-29T10:43:20Z</time>
      </trkpt>
      <trkpt lat="49.08102" lon="1.15903">
        <ele>58</ele>
        <time>2015-11-29T10:43:30Z</time>
      </trkpt>
      <trkpt lat="49.08092" lon="1.15896">
        <ele>57.900002</ele>
        <time>2015-11-29T10:43:33Z</time>
      </trkpt>
      <trkpt lat="49.08081" lon="1.15884">
        <ele>57.799999</ele>
        <time>2015-11-29T10:43:36Z</time>
      </trkpt>
      <trkpt lat="49.08073" lon="1.15876">
        <ele>57.599998</ele>
        <time>2015-11-29T10:43:38Z</time>
      </trkpt>
      <trkpt lat="49.08063" lon="1.15867">
        <ele>57.5</ele>
        <time>2015-11-29T10:43:40Z</time>
      </trkpt>
      <trkpt lat="49.08053" lon="1.15859">
        <ele>57.299999</ele>
        <time>2015-11-29T10:43:42Z</time>
      </trkpt>
      <trkpt lat="49.08041" lon="1.15851">
        <ele>56.900002</ele>
        <time>2015-11-29T10:43:44Z</time>
      </trkpt>
      <trkpt lat="49.08029" lon="1.15842">
        <ele>56.5</ele>
        <time>2015-11-29T10:43:46Z</time>
      </trkpt>
      <trkpt lat="49.08017" lon="1.15834">
        <ele>56</ele>
        <time>2015-11-29T10:43:48Z</time>
      </trkpt>
      <trkpt lat="49.08006" lon="1.15825">
        <ele>55.400002</ele>
        <time>2015-11-29T10:43:50Z</time>
      </trkpt>
      <trkpt lat="49.07998" lon="1.15812">
        <ele>54.5</ele>
        <time>2015-11-29T10:43:53Z</time>
      </trkpt>
      <trkpt lat="49.07999" lon="1.15794">
        <ele>53.5</ele>
        <time>2015-11-29T10:43:56Z</time>
      </trkpt>
      <trkpt lat="49.08004" lon="1.15776">
        <ele>52.700001</ele>
        <time>2015-11-29T10:43:59Z</time>
      </trkpt>
      <trkpt lat="49.08008" lon="1.15762">
        <ele>52.200001</ele>
        <time>2015-11-29T10:44:01Z</time>
      </trkpt>
      <trkpt lat="49.08012" lon="1.15749">
        <ele>51.700001</ele>
        <time>2015-11-29T10:44:03Z</time>
      </trkpt>
      <trkpt lat="49.08016" lon="1.15736">
        <ele>51.200001</ele>
        <time>2015-11-29T10:44:05Z</time>
      </trkpt>
      <trkpt lat="49.08019" lon="1.15723">
        <ele>50.799999</ele>
        <time>2015-11-29T10:44:07Z</time>
      </trkpt>
      <trkpt lat="49.08024" lon="1.15704">
        <ele>50.200001</ele>
        <time>2015-11-29T10:44:10Z</time>
      </trkpt>
      <trkpt lat="49.08028" lon="1.15686">
        <ele>49.599998</ele>
        <time>2015-11-29T10:44:13Z</time>
      </trkpt>
      <trkpt lat="49.08032" lon="1.1567">
        <ele>49</ele>
        <time>2015-11-29T10:44:16Z</time>
      </trkpt>
      <trkpt lat="49.08028" lon="1.15654">
        <ele>48.200001</ele>
        <time>2015-11-29T10:44:20Z</time>
      </trkpt>
      <trkpt lat="49.08018" lon="1.15654">
        <ele>47.400002</ele>
        <time>2015-11-29T10:44:24Z</time>
      </trkpt>
      <trkpt lat="49.08008" lon="1.15652">
        <ele>46.900002</ele>
        <time>2015-11-29T10:44:26Z</time>
      </trkpt>
      <trkpt lat="49.07996" lon="1.15645">
        <ele>46.099998</ele>
        <time>2015-11-29T10:44:29Z</time>
      </trkpt>
      <trkpt lat="49.07986" lon="1.15639">
        <ele>45.400002</ele>
        <time>2015-11-29T10:44:32Z</time>
      </trkpt>
      <trkpt lat="49.07977" lon="1.1563">
        <ele>44.799999</ele>
        <time>2015-11-29T10:44:35Z</time>
      </trkpt>
      <trkpt lat="49.07968" lon="1.15619">
        <ele>44.299999</ele>
        <time>2015-11-29T10:44:38Z</time>
      </trkpt>
      <trkpt lat="49.07961" lon="1.15606">
        <ele>43.799999</ele>
        <time>2015-11-29T10:44:41Z</time>
      </trkpt>
      <trkpt lat="49.07953" lon="1.15592">
        <ele>43.5</ele>
        <time>2015-11-29T10:44:44Z</time>
      </trkpt>
      <trkpt lat="49.07946" lon="1.15579">
        <ele>43.099998</ele>
        <time>2015-11-29T10:44:47Z</time>
      </trkpt>
      <trkpt lat="49.07938" lon="1.15565">
        <ele>42.700001</ele>
        <time>2015-11-29T10:44:50Z</time>
      </trkpt>
      <trkpt lat="49.07931" lon="1.15552">
        <ele>42.5</ele>
        <time>2015-11-29T10:44:53Z</time>
      </trkpt>
      <trkpt lat="49.07924" lon="1.15539">
        <ele>42.299999</ele>
        <time>2015-11-29T10:44:56Z</time>
      </trkpt>
      <trkpt lat="49.07918" lon="1.15527">
        <ele>42.099998</ele>
        <time>2015-11-29T10:44:59Z</time>
      </trkpt>
      <trkpt lat="49.07911" lon="1.15515">
        <ele>41.900002</ele>
        <time>2015-11-29T10:45:02Z</time>
      </trkpt>
      <trkpt lat="49.07904" lon="1.15502">
        <ele>41.799999</ele>
        <time>2015-11-29T10:45:06Z</time>
      </trkpt>
      <trkpt lat="49.07895" lon="1.15504">
        <ele>41.700001</ele>
        <time>2015-11-29T10:45:09Z</time>
      </trkpt>
      <trkpt lat="49.07887" lon="1.15512">
        <ele>41.599998</ele>
        <time>2015-11-29T10:45:12Z</time>
      </trkpt>
      <trkpt lat="49.07878" lon="1.15521">
        <ele>41.599998</ele>
        <time>2015-11-29T10:45:15Z</time>
      </trkpt>
      <trkpt lat="49.0787" lon="1.1553">
        <ele>41.5</ele>
        <time>2015-11-29T10:45:18Z</time>
      </trkpt>
      <trkpt lat="49.07861" lon="1.15541">
        <ele>41.5</ele>
        <time>2015-11-29T10:45:22Z</time>
      </trkpt>
      <trkpt lat="49.07851" lon="1.1555">
        <ele>41.599998</ele>
        <time>2015-11-29T10:45:26Z</time>
      </trkpt>
      <trkpt lat="49.07843" lon="1.15557">
        <ele>41.700001</ele>
        <time>2015-11-29T10:45:31Z</time>
      </trkpt>
      <trkpt lat="49.07836" lon="1.15568">
        <ele>41.700001</ele>
        <time>2015-11-29T10:45:36Z</time>
      </trkpt>
      <trkpt lat="49.07828" lon="1.15578">
        <ele>41.799999</ele>
        <time>2015-11-29T10:45:39Z</time>
      </trkpt>
      <trkpt lat="49.07819" lon="1.1559">
        <ele>41.799999</ele>
        <time>2015-11-29T10:45:42Z</time>
      </trkpt>
      <trkpt lat="49.07809" lon="1.15601">
        <ele>41.799999</ele>
        <time>2015-11-29T10:45:45Z</time>
      </trkpt>
      <trkpt lat="49.07799" lon="1.1561">
        <ele>41.799999</ele>
        <time>2015-11-29T10:45:48Z</time>
      </trkpt>
      <trkpt lat="49.0779" lon="1.1562">
        <ele>41.900002</ele>
        <time>2015-11-29T10:45:51Z</time>
      </trkpt>
      <trkpt lat="49.07783" lon="1.15634">
        <ele>41.900002</ele>
        <time>2015-11-29T10:45:54Z</time>
      </trkpt>
      <trkpt lat="49.07774" lon="1.15649">
        <ele>41.900002</ele>
        <time>2015-11-29T10:45:57Z</time>
      </trkpt>
      <trkpt lat="49.07767" lon="1.15658">
        <ele>41.900002</ele>
        <time>2015-11-29T10:45:59Z</time>
      </trkpt>
      <trkpt lat="49.0776" lon="1.15667">
        <ele>41.900002</ele>
        <time>2015-11-29T10:46:01Z</time>
      </trkpt>
      <trkpt lat="49.07753" lon="1.15676">
        <ele>41.900002</ele>
        <time>2015-11-29T10:46:03Z</time>
      </trkpt>
      <trkpt lat="49.07746" lon="1.15685">
        <ele>41.900002</ele>
        <time>2015-11-29T10:46:05Z</time>
      </trkpt>
      <trkpt lat="49.07738" lon="1.15694">
        <ele>42</ele>
        <time>2015-11-29T10:46:07Z</time>
      </trkpt>
      <trkpt lat="49.07731" lon="1.15703">
        <ele>42</ele>
        <time>2015-11-29T10:46:09Z</time>
      </trkpt>
      <trkpt lat="49.07724" lon="1.15711">
        <ele>42.099998</ele>
        <time>2015-11-29T10:46:11Z</time>
      </trkpt>
      <trkpt lat="49.07713" lon="1.15723">
        <ele>42.200001</ele>
        <time>2015-11-29T10:46:14Z</time>
      </trkpt>
      <trkpt lat="49.07702" lon="1.15735">
        <ele>42.299999</ele>
        <time>2015-11-29T10:46:17Z</time>
      </trkpt>
      <trkpt lat="49.07693" lon="1.15746">
        <ele>42.400002</ele>
        <time>2015-11-29T10:46:20Z</time>
      </trkpt>
      <trkpt lat="49.07684" lon="1.15757">
        <ele>42.5</ele>
        <time>2015-11-29T10:46:23Z</time>
      </trkpt>
      <trkpt lat="49.07675" lon="1.15767">
        <ele>42.5</ele>
        <time>2015-11-29T10:46:26Z</time>
      </trkpt>
      <trkpt lat="49.07666" lon="1.15778">
        <ele>42.599998</ele>
        <time>2015-11-29T10:46:29Z</time>
      </trkpt>
      <trkpt lat="49.07657" lon="1.15787">
        <ele>42.599998</ele>
        <time>2015-11-29T10:46:32Z</time>
      </trkpt>
      <trkpt lat="49.07648" lon="1.15799">
        <ele>42.599998</ele>
        <time>2015-11-29T10:46:35Z</time>
      </trkpt>
      <trkpt lat="49.07639" lon="1.1581">
        <ele>42.599998</ele>
        <time>2015-11-29T10:46:38Z</time>
      </trkpt>
      <trkpt lat="49.07632" lon="1.15819">
        <ele>42.700001</ele>
        <time>2015-11-29T10:46:41Z</time>
      </trkpt>
      <trkpt lat="49.07624" lon="1.15829">
        <ele>42.700001</ele>
        <time>2015-11-29T10:46:44Z</time>
      </trkpt>
      <trkpt lat="49.07614" lon="1.1584">
        <ele>42.700001</ele>
        <time>2015-11-29T10:46:47Z</time>
      </trkpt>
      <trkpt lat="49.07606" lon="1.1585">
        <ele>42.700001</ele>
        <time>2015-11-29T10:46:50Z</time>
      </trkpt>
      <trkpt lat="49.07597" lon="1.1586">
        <ele>42.700001</ele>
        <time>2015-11-29T10:46:53Z</time>
      </trkpt>
      <trkpt lat="49.0759" lon="1.15869">
        <ele>42.700001</ele>
        <time>2015-11-29T10:46:56Z</time>
      </trkpt>
      <trkpt lat="49.07579" lon="1.15872">
        <ele>42.700001</ele>
        <time>2015-11-29T10:47:00Z</time>
      </trkpt>
      <trkpt lat="49.07572" lon="1.15861">
        <ele>42.700001</ele>
        <time>2015-11-29T10:47:03Z</time>
      </trkpt>
      <trkpt lat="49.07564" lon="1.1585">
        <ele>42.700001</ele>
        <time>2015-11-29T10:47:06Z</time>
      </trkpt>
      <trkpt lat="49.07556" lon="1.15836">
        <ele>42.700001</ele>
        <time>2015-11-29T10:47:09Z</time>
      </trkpt>
      <trkpt lat="49.07548" lon="1.15822">
        <ele>42.700001</ele>
        <time>2015-11-29T10:47:12Z</time>
      </trkpt>
      <trkpt lat="49.0754" lon="1.15809">
        <ele>42.700001</ele>
        <time>2015-11-29T10:47:15Z</time>
      </trkpt>
      <trkpt lat="49.07532" lon="1.15796">
        <ele>42.700001</ele>
        <time>2015-11-29T10:47:18Z</time>
      </trkpt>
      <trkpt lat="49.07525" lon="1.15782">
        <ele>42.799999</ele>
        <time>2015-11-29T10:47:21Z</time>
      </trkpt>
      <trkpt lat="49.07517" lon="1.1577">
        <ele>42.799999</ele>
        <time>2015-11-29T10:47:24Z</time>
      </trkpt>
      <trkpt lat="49.07511" lon="1.15758">
        <ele>42.799999</ele>
        <time>2015-11-29T10:47:28Z</time>
      </trkpt>
      <trkpt lat="49.07504" lon="1.15748">
        <ele>42.799999</ele>
        <time>2015-11-29T10:47:33Z</time>
      </trkpt>
      <trkpt lat="49.07495" lon="1.15744">
        <ele>42.799999</ele>
        <time>2015-11-29T10:47:46Z</time>
      </trkpt>
      <trkpt lat="49.0749" lon="1.15757">
        <ele>42.799999</ele>
        <time>2015-11-29T10:47:54Z</time>
      </trkpt>
      <trkpt lat="49.07486" lon="1.1577">
        <ele>42.799999</ele>
        <time>2015-11-29T10:47:57Z</time>
      </trkpt>
      <trkpt lat="49.07481" lon="1.15784">
        <ele>42.799999</ele>
        <time>2015-11-29T10:48:00Z</time>
      </trkpt>
      <trkpt lat="49.07476" lon="1.15797">
        <ele>42.799999</ele>
        <time>2015-11-29T10:48:03Z</time>
      </trkpt>
      <trkpt lat="49.0747" lon="1.15811">
        <ele>42.799999</ele>
        <time>2015-11-29T10:48:06Z</time>
      </trkpt>
      <trkpt lat="49.07465" lon="1.15825">
        <ele>42.799999</ele>
        <time>2015-11-29T10:48:09Z</time>
      </trkpt>
      <trkpt lat="49.07459" lon="1.15839">
        <ele>42.900002</ele>
        <time>2015-11-29T10:48:12Z</time>
      </trkpt>
      <trkpt lat="49.07454" lon="1.15851">
        <ele>42.900002</ele>
        <time>2015-11-29T10:48:15Z</time>
      </trkpt>
      <trkpt lat="49.07446" lon="1.15863">
        <ele>43</ele>
        <time>2015-11-29T10:48:18Z</time>
      </trkpt>
      <trkpt lat="49.07437" lon="1.15875">
        <ele>43.099998</ele>
        <time>2015-11-29T10:48:21Z</time>
      </trkpt>
      <trkpt lat="49.07428" lon="1.15886">
        <ele>43.200001</ele>
        <time>2015-11-29T10:48:24Z</time>
      </trkpt>
      <trkpt lat="49.0742" lon="1.15896">
        <ele>43.299999</ele>
        <time>2015-11-29T10:48:27Z</time>
      </trkpt>
      <trkpt lat="49.07411" lon="1.15908">
        <ele>43.5</ele>
        <time>2015-11-29T10:48:30Z</time>
      </trkpt>
      <trkpt lat="49.07402" lon="1.15921">
        <ele>43.599998</ele>
        <time>2015-11-29T10:48:33Z</time>
      </trkpt>
      <trkpt lat="49.07392" lon="1.15934">
        <ele>43.599998</ele>
        <time>2015-11-29T10:48:36Z</time>
      </trkpt>
      <trkpt lat="49.07385" lon="1.15943">
        <ele>43.700001</ele>
        <time>2015-11-29T10:48:38Z</time>
      </trkpt>
      <trkpt lat="49.07377" lon="1.15954">
        <ele>43.700001</ele>
        <time>2015-11-29T10:48:40Z</time>
      </trkpt>
      <trkpt lat="49.0737" lon="1.15963">
        <ele>43.599998</ele>
        <time>2015-11-29T10:48:42Z</time>
      </trkpt>
      <trkpt lat="49.07363" lon="1.15972">
        <ele>43.599998</ele>
        <time>2015-11-29T10:48:44Z</time>
      </trkpt>
      <trkpt lat="49.07356" lon="1.15982">
        <ele>43.599998</ele>
        <time>2015-11-29T10:48:46Z</time>
      </trkpt>
      <trkpt lat="49.07349" lon="1.15991">
        <ele>43.5</ele>
        <time>2015-11-29T10:48:48Z</time>
      </trkpt>
      <trkpt lat="49.07339" lon="1.16004">
        <ele>43.5</ele>
        <time>2015-11-29T10:48:51Z</time>
      </trkpt>
      <trkpt lat="49.0733" lon="1.16017">
        <ele>43.400002</ele>
        <time>2015-11-29T10:48:54Z</time>
      </trkpt>
      <trkpt lat="49.0732" lon="1.1603">
        <ele>43.299999</ele>
        <time>2015-11-29T10:48:57Z</time>
      </trkpt>
      <trkpt lat="49.0731" lon="1.16044">
        <ele>43.200001</ele>
        <time>2015-11-29T10:49:00Z</time>
      </trkpt>
      <trkpt lat="49.07303" lon="1.16053">
        <ele>43.200001</ele>
        <time>2015-11-29T10:49:02Z</time>
      </trkpt>
      <trkpt lat="49.07295" lon="1.16062">
        <ele>43.200001</ele>
        <time>2015-11-29T10:49:04Z</time>
      </trkpt>
      <trkpt lat="49.07288" lon="1.16072">
        <ele>43.099998</ele>
        <time>2015-11-29T10:49:06Z</time>
      </trkpt>
      <trkpt lat="49.07281" lon="1.16082">
        <ele>43.099998</ele>
        <time>2015-11-29T10:49:08Z</time>
      </trkpt>
      <trkpt lat="49.07272" lon="1.16094">
        <ele>43.099998</ele>
        <time>2015-11-29T10:49:11Z</time>
      </trkpt>
      <trkpt lat="49.07262" lon="1.16107">
        <ele>43.099998</ele>
        <time>2015-11-29T10:49:14Z</time>
      </trkpt>
      <trkpt lat="49.07251" lon="1.1612">
        <ele>43.099998</ele>
        <time>2015-11-29T10:49:17Z</time>
      </trkpt>
      <trkpt lat="49.07241" lon="1.16132">
        <ele>43.099998</ele>
        <time>2015-11-29T10:49:20Z</time>
      </trkpt>
      <trkpt lat="49.0723" lon="1.16145">
        <ele>43.099998</ele>
        <time>2015-11-29T10:49:23Z</time>
      </trkpt>
      <trkpt lat="49.07223" lon="1.16155">
        <ele>43.099998</ele>
        <time>2015-11-29T10:49:25Z</time>
      </trkpt>
      <trkpt lat="49.07216" lon="1.16164">
        <ele>43.099998</ele>
        <time>2015-11-29T10:49:27Z</time>
      </trkpt>
      <trkpt lat="49.07209" lon="1.16174">
        <ele>43.099998</ele>
        <time>2015-11-29T10:49:29Z</time>
      </trkpt>
      <trkpt lat="49.07202" lon="1.16183">
        <ele>43.099998</ele>
        <time>2015-11-29T10:49:31Z</time>
      </trkpt>
      <trkpt lat="49.07196" lon="1.16193">
        <ele>43.099998</ele>
        <time>2015-11-29T10:49:33Z</time>
      </trkpt>
      <trkpt lat="49.07189" lon="1.16202">
        <ele>43.099998</ele>
        <time>2015-11-29T10:49:35Z</time>
      </trkpt>
      <trkpt lat="49.07181" lon="1.16211">
        <ele>43.099998</ele>
        <time>2015-11-29T10:49:37Z</time>
      </trkpt>
      <trkpt lat="49.07174" lon="1.16221">
        <ele>43.099998</ele>
        <time>2015-11-29T10:49:39Z</time>
      </trkpt>
      <trkpt lat="49.07167" lon="1.1623">
        <ele>43.099998</ele>
        <time>2015-11-29T10:49:41Z</time>
      </trkpt>
      <trkpt lat="49.07159" lon="1.16239">
        <ele>43.099998</ele>
        <time>2015-11-29T10:49:43Z</time>
      </trkpt>
      <trkpt lat="49.07152" lon="1.16249">
        <ele>43.099998</ele>
        <time>2015-11-29T10:49:45Z</time>
      </trkpt>
      <trkpt lat="49.07145" lon="1.16258">
        <ele>43.200001</ele>
        <time>2015-11-29T10:49:47Z</time>
      </trkpt>
      <trkpt lat="49.07138" lon="1.16268">
        <ele>43.200001</ele>
        <time>2015-11-29T10:49:49Z</time>
      </trkpt>
      <trkpt lat="49.07131" lon="1.16277">
        <ele>43.299999</ele>
        <time>2015-11-29T10:49:51Z</time>
      </trkpt>
      <trkpt lat="49.07123" lon="1.16291">
        <ele>43.299999</ele>
        <time>2015-11-29T10:49:54Z</time>
      </trkpt>
      <trkpt lat="49.07118" lon="1.16305">
        <ele>43.400002</ele>
        <time>2015-11-29T10:49:58Z</time>
      </trkpt>
      <trkpt lat="49.07112" lon="1.16318">
        <ele>43.400002</ele>
        <time>2015-11-29T10:50:01Z</time>
      </trkpt>
      <trkpt lat="49.07107" lon="1.16335">
        <ele>43.5</ele>
        <time>2015-11-29T10:50:04Z</time>
      </trkpt>
      <trkpt lat="49.07101" lon="1.16353">
        <ele>43.5</ele>
        <time>2015-11-29T10:50:07Z</time>
      </trkpt>
      <trkpt lat="49.07095" lon="1.1637">
        <ele>43.400002</ele>
        <time>2015-11-29T10:50:10Z</time>
      </trkpt>
      <trkpt lat="49.07091" lon="1.16382">
        <ele>43.400002</ele>
        <time>2015-11-29T10:50:12Z</time>
      </trkpt>
      <trkpt lat="49.07084" lon="1.16393">
        <ele>43.200001</ele>
        <time>2015-11-29T10:50:14Z</time>
      </trkpt>
      <trkpt lat="49.07077" lon="1.16402">
        <ele>43.099998</ele>
        <time>2015-11-29T10:50:16Z</time>
      </trkpt>
      <trkpt lat="49.0707" lon="1.16412">
        <ele>43</ele>
        <time>2015-11-29T10:50:18Z</time>
      </trkpt>
      <trkpt lat="49.07063" lon="1.16422">
        <ele>42.900002</ele>
        <time>2015-11-29T10:50:20Z</time>
      </trkpt>
      <trkpt lat="49.07056" lon="1.16433">
        <ele>42.900002</ele>
        <time>2015-11-29T10:50:22Z</time>
      </trkpt>
      <trkpt lat="49.07049" lon="1.16442">
        <ele>43</ele>
        <time>2015-11-29T10:50:24Z</time>
      </trkpt>
      <trkpt lat="49.07042" lon="1.16453">
        <ele>43</ele>
        <time>2015-11-29T10:50:26Z</time>
      </trkpt>
      <trkpt lat="49.07034" lon="1.16462">
        <ele>43</ele>
        <time>2015-11-29T10:50:28Z</time>
      </trkpt>
      <trkpt lat="49.07027" lon="1.16471">
        <ele>43</ele>
        <time>2015-11-29T10:50:30Z</time>
      </trkpt>
      <trkpt lat="49.07019" lon="1.1648">
        <ele>43</ele>
        <time>2015-11-29T10:50:32Z</time>
      </trkpt>
      <trkpt lat="49.0701" lon="1.16489">
        <ele>43.099998</ele>
        <time>2015-11-29T10:50:34Z</time>
      </trkpt>
      <trkpt lat="49.07001" lon="1.16496">
        <ele>43.099998</ele>
        <time>2015-11-29T10:50:36Z</time>
      </trkpt>
      <trkpt lat="49.06993" lon="1.16504">
        <ele>43.099998</ele>
        <time>2015-11-29T10:50:38Z</time>
      </trkpt>
      <trkpt lat="49.06984" lon="1.16513">
        <ele>43.099998</ele>
        <time>2015-11-29T10:50:40Z</time>
      </trkpt>
      <trkpt lat="49.06976" lon="1.16522">
        <ele>43.099998</ele>
        <time>2015-11-29T10:50:42Z</time>
      </trkpt>
      <trkpt lat="49.06969" lon="1.16531">
        <ele>43.099998</ele>
        <time>2015-11-29T10:50:44Z</time>
      </trkpt>
      <trkpt lat="49.06962" lon="1.16542">
        <ele>43.099998</ele>
        <time>2015-11-29T10:50:46Z</time>
      </trkpt>
      <trkpt lat="49.06954" lon="1.16552">
        <ele>43.099998</ele>
        <time>2015-11-29T10:50:48Z</time>
      </trkpt>
      <trkpt lat="49.06946" lon="1.16562">
        <ele>43.099998</ele>
        <time>2015-11-29T10:50:50Z</time>
      </trkpt>
      <trkpt lat="49.06938" lon="1.16572">
        <ele>43.099998</ele>
        <time>2015-11-29T10:50:52Z</time>
      </trkpt>
      <trkpt lat="49.06931" lon="1.16583">
        <ele>43.099998</ele>
        <time>2015-11-29T10:50:54Z</time>
      </trkpt>
      <trkpt lat="49.06924" lon="1.16594">
        <ele>43.099998</ele>
        <time>2015-11-29T10:50:56Z</time>
      </trkpt>
      <trkpt lat="49.06917" lon="1.16605">
        <ele>43.099998</ele>
        <time>2015-11-29T10:50:58Z</time>
      </trkpt>
      <trkpt lat="49.0691" lon="1.16615">
        <ele>43.099998</ele>
        <time>2015-11-29T10:51:00Z</time>
      </trkpt>
      <trkpt lat="49.06902" lon="1.16625">
        <ele>43.099998</ele>
        <time>2015-11-29T10:51:02Z</time>
      </trkpt>
      <trkpt lat="49.06894" lon="1.16635">
        <ele>43</ele>
        <time>2015-11-29T10:51:04Z</time>
      </trkpt>
      <trkpt lat="49.06885" lon="1.16646">
        <ele>43</ele>
        <time>2015-11-29T10:51:06Z</time>
      </trkpt>
      <trkpt lat="49.06877" lon="1.16657">
        <ele>43</ele>
        <time>2015-11-29T10:51:08Z</time>
      </trkpt>
      <trkpt lat="49.06868" lon="1.16668">
        <ele>43</ele>
        <time>2015-11-29T10:51:10Z</time>
      </trkpt>
      <trkpt lat="49.0686" lon="1.16679">
        <ele>43</ele>
        <time>2015-11-29T10:51:12Z</time>
      </trkpt>
      <trkpt lat="49.06852" lon="1.16689">
        <ele>43</ele>
        <time>2015-11-29T10:51:14Z</time>
      </trkpt>
      <trkpt lat="49.06844" lon="1.16699">
        <ele>43</ele>
        <time>2015-11-29T10:51:16Z</time>
      </trkpt>
      <trkpt lat="49.06836" lon="1.1671">
        <ele>43</ele>
        <time>2015-11-29T10:51:18Z</time>
      </trkpt>
      <trkpt lat="49.06827" lon="1.1672">
        <ele>43</ele>
        <time>2015-11-29T10:51:20Z</time>
      </trkpt>
      <trkpt lat="49.06819" lon="1.16732">
        <ele>43</ele>
        <time>2015-11-29T10:51:22Z</time>
      </trkpt>
      <trkpt lat="49.06811" lon="1.16743">
        <ele>43.099998</ele>
        <time>2015-11-29T10:51:24Z</time>
      </trkpt>
      <trkpt lat="49.06803" lon="1.16754">
        <ele>43.099998</ele>
        <time>2015-11-29T10:51:26Z</time>
      </trkpt>
      <trkpt lat="49.06795" lon="1.16765">
        <ele>43.099998</ele>
        <time>2015-11-29T10:51:28Z</time>
      </trkpt>
      <trkpt lat="49.06787" lon="1.16775">
        <ele>43.200001</ele>
        <time>2015-11-29T10:51:30Z</time>
      </trkpt>
      <trkpt lat="49.06779" lon="1.16786">
        <ele>43.200001</ele>
        <time>2015-11-29T10:51:32Z</time>
      </trkpt>
      <trkpt lat="49.06771" lon="1.16796">
        <ele>43.200001</ele>
        <time>2015-11-29T10:51:34Z</time>
      </trkpt>
      <trkpt lat="49.06763" lon="1.16806">
        <ele>43.200001</ele>
        <time>2015-11-29T10:51:36Z</time>
      </trkpt>
      <trkpt lat="49.06755" lon="1.16816">
        <ele>43.299999</ele>
        <time>2015-11-29T10:51:38Z</time>
      </trkpt>
      <trkpt lat="49.06746" lon="1.16828">
        <ele>43.299999</ele>
        <time>2015-11-29T10:51:40Z</time>
      </trkpt>
      <trkpt lat="49.06738" lon="1.16839">
        <ele>43.400002</ele>
        <time>2015-11-29T10:51:42Z</time>
      </trkpt>
      <trkpt lat="49.0673" lon="1.16849">
        <ele>43.400002</ele>
        <time>2015-11-29T10:51:44Z</time>
      </trkpt>
      <trkpt lat="49.06722" lon="1.16859">
        <ele>43.400002</ele>
        <time>2015-11-29T10:51:46Z</time>
      </trkpt>
      <trkpt lat="49.06715" lon="1.16868">
        <ele>43.5</ele>
        <time>2015-11-29T10:51:48Z</time>
      </trkpt>
      <trkpt lat="49.06705" lon="1.16881">
        <ele>43.700001</ele>
        <time>2015-11-29T10:51:51Z</time>
      </trkpt>
      <trkpt lat="49.06695" lon="1.16893">
        <ele>43.900002</ele>
        <time>2015-11-29T10:51:54Z</time>
      </trkpt>
      <trkpt lat="49.06686" lon="1.16902">
        <ele>44.099998</ele>
        <time>2015-11-29T10:51:57Z</time>
      </trkpt>
      <trkpt lat="49.06679" lon="1.16912">
        <ele>44.400002</ele>
        <time>2015-11-29T10:52:02Z</time>
      </trkpt>
      <trkpt lat="49.06669" lon="1.16904">
        <ele>45.799999</ele>
        <time>2015-11-29T10:54:19Z</time>
      </trkpt>
      <trkpt lat="49.06662" lon="1.1689">
        <ele>45.799999</ele>
        <time>2015-11-29T10:54:23Z</time>
      </trkpt>
      <trkpt lat="49.06656" lon="1.16877">
        <ele>45.799999</ele>
        <time>2015-11-29T10:54:26Z</time>
      </trkpt>
      <trkpt lat="49.0665" lon="1.16863">
        <ele>45.799999</ele>
        <time>2015-11-29T10:54:29Z</time>
      </trkpt>
      <trkpt lat="49.06644" lon="1.16846">
        <ele>45.799999</ele>
        <time>2015-11-29T10:54:32Z</time>
      </trkpt>
      <trkpt lat="49.06637" lon="1.16829">
        <ele>45.799999</ele>
        <time>2015-11-29T10:54:35Z</time>
      </trkpt>
      <trkpt lat="49.06633" lon="1.16817">
        <ele>45.799999</ele>
        <time>2015-11-29T10:54:37Z</time>
      </trkpt>
      <trkpt lat="49.06626" lon="1.168">
        <ele>45.799999</ele>
        <time>2015-11-29T10:54:40Z</time>
      </trkpt>
      <trkpt lat="49.06619" lon="1.16784">
        <ele>45.799999</ele>
        <time>2015-11-29T10:54:43Z</time>
      </trkpt>
      <trkpt lat="49.06612" lon="1.16766">
        <ele>45.799999</ele>
        <time>2015-11-29T10:54:46Z</time>
      </trkpt>
      <trkpt lat="49.06605" lon="1.16749">
        <ele>45.799999</ele>
        <time>2015-11-29T10:54:49Z</time>
      </trkpt>
      <trkpt lat="49.06599" lon="1.16733">
        <ele>45.799999</ele>
        <time>2015-11-29T10:54:52Z</time>
      </trkpt>
      <trkpt lat="49.06592" lon="1.16716">
        <ele>45.799999</ele>
        <time>2015-11-29T10:54:55Z</time>
      </trkpt>
      <trkpt lat="49.06584" lon="1.16699">
        <ele>45.799999</ele>
        <time>2015-11-29T10:54:58Z</time>
      </trkpt>
      <trkpt lat="49.06577" lon="1.16681">
        <ele>45.799999</ele>
        <time>2015-11-29T10:55:01Z</time>
      </trkpt>
      <trkpt lat="49.06572" lon="1.1667">
        <ele>45.799999</ele>
        <time>2015-11-29T10:55:03Z</time>
      </trkpt>
      <trkpt lat="49.06567" lon="1.16658">
        <ele>45.799999</ele>
        <time>2015-11-29T10:55:05Z</time>
      </trkpt>
      <trkpt lat="49.06562" lon="1.16647">
        <ele>45.799999</ele>
        <time>2015-11-29T10:55:07Z</time>
      </trkpt>
      <trkpt lat="49.06556" lon="1.1663">
        <ele>45.799999</ele>
        <time>2015-11-29T10:55:10Z</time>
      </trkpt>
      <trkpt lat="49.06549" lon="1.16613">
        <ele>45.799999</ele>
        <time>2015-11-29T10:55:13Z</time>
      </trkpt>
      <trkpt lat="49.06544" lon="1.16601">
        <ele>45.799999</ele>
        <time>2015-11-29T10:55:15Z</time>
      </trkpt>
      <trkpt lat="49.06539" lon="1.16589">
        <ele>45.799999</ele>
        <time>2015-11-29T10:55:17Z</time>
      </trkpt>
      <trkpt lat="49.06534" lon="1.16577">
        <ele>45.799999</ele>
        <time>2015-11-29T10:55:19Z</time>
      </trkpt>
      <trkpt lat="49.06528" lon="1.16564">
        <ele>45.799999</ele>
        <time>2015-11-29T10:55:21Z</time>
      </trkpt>
      <trkpt lat="49.06523" lon="1.16552">
        <ele>45.900002</ele>
        <time>2015-11-29T10:55:23Z</time>
      </trkpt>
      <trkpt lat="49.06518" lon="1.1654">
        <ele>45.900002</ele>
        <time>2015-11-29T10:55:25Z</time>
      </trkpt>
      <trkpt lat="49.06513" lon="1.16528">
        <ele>46</ele>
        <time>2015-11-29T10:55:27Z</time>
      </trkpt>
      <trkpt lat="49.06507" lon="1.16515">
        <ele>46.099998</ele>
        <time>2015-11-29T10:55:29Z</time>
      </trkpt>
      <trkpt lat="49.06502" lon="1.16501">
        <ele>46.200001</ele>
        <time>2015-11-29T10:55:31Z</time>
      </trkpt>
      <trkpt lat="49.06497" lon="1.16487">
        <ele>46.299999</ele>
        <time>2015-11-29T10:55:33Z</time>
      </trkpt>
      <trkpt lat="49.06491" lon="1.16473">
        <ele>46.400002</ele>
        <time>2015-11-29T10:55:35Z</time>
      </trkpt>
      <trkpt lat="49.06485" lon="1.1646">
        <ele>46.5</ele>
        <time>2015-11-29T10:55:37Z</time>
      </trkpt>
      <trkpt lat="49.0648" lon="1.16446">
        <ele>46.599998</ele>
        <time>2015-11-29T10:55:39Z</time>
      </trkpt>
      <trkpt lat="49.06474" lon="1.16432">
        <ele>46.599998</ele>
        <time>2015-11-29T10:55:41Z</time>
      </trkpt>
      <trkpt lat="49.06469" lon="1.16418">
        <ele>46.700001</ele>
        <time>2015-11-29T10:55:43Z</time>
      </trkpt>
      <trkpt lat="49.06464" lon="1.16404">
        <ele>46.799999</ele>
        <time>2015-11-29T10:55:45Z</time>
      </trkpt>
      <trkpt lat="49.06458" lon="1.16391">
        <ele>46.900002</ele>
        <time>2015-11-29T10:55:47Z</time>
      </trkpt>
      <trkpt lat="49.06453" lon="1.16378">
        <ele>47</ele>
        <time>2015-11-29T10:55:49Z</time>
      </trkpt>
      <trkpt lat="49.06447" lon="1.16366">
        <ele>47.099998</ele>
        <time>2015-11-29T10:55:51Z</time>
      </trkpt>
      <trkpt lat="49.06442" lon="1.16354">
        <ele>47.200001</ele>
        <time>2015-11-29T10:55:53Z</time>
      </trkpt>
      <trkpt lat="49.06438" lon="1.16342">
        <ele>47.299999</ele>
        <time>2015-11-29T10:55:55Z</time>
      </trkpt>
      <trkpt lat="49.0643" lon="1.16325">
        <ele>47.400002</ele>
        <time>2015-11-29T10:55:58Z</time>
      </trkpt>
      <trkpt lat="49.06423" lon="1.16308">
        <ele>47.599998</ele>
        <time>2015-11-29T10:56:01Z</time>
      </trkpt>
      <trkpt lat="49.06416" lon="1.16299">
        <ele>47.900002</ele>
        <time>2015-11-29T10:56:03Z</time>
      </trkpt>
      <trkpt lat="49.06405" lon="1.16291">
        <ele>48.200001</ele>
        <time>2015-11-29T10:56:06Z</time>
      </trkpt>
      <trkpt lat="49.06393" lon="1.16286">
        <ele>48.599998</ele>
        <time>2015-11-29T10:56:09Z</time>
      </trkpt>
      <trkpt lat="49.06381" lon="1.16282">
        <ele>49</ele>
        <time>2015-11-29T10:56:12Z</time>
      </trkpt>
      <trkpt lat="49.06369" lon="1.16279">
        <ele>49.5</ele>
        <time>2015-11-29T10:56:15Z</time>
      </trkpt>
      <trkpt lat="49.06355" lon="1.16277">
        <ele>49.900002</ele>
        <time>2015-11-29T10:56:18Z</time>
      </trkpt>
      <trkpt lat="49.06346" lon="1.16277">
        <ele>50.200001</ele>
        <time>2015-11-29T10:56:20Z</time>
      </trkpt>
      <trkpt lat="49.06337" lon="1.16277">
        <ele>50.5</ele>
        <time>2015-11-29T10:56:22Z</time>
      </trkpt>
      <trkpt lat="49.06328" lon="1.16278">
        <ele>50.799999</ele>
        <time>2015-11-29T10:56:24Z</time>
      </trkpt>
      <trkpt lat="49.06318" lon="1.1628">
        <ele>51.099998</ele>
        <time>2015-11-29T10:56:26Z</time>
      </trkpt>
      <trkpt lat="49.06308" lon="1.16281">
        <ele>51.400002</ele>
        <time>2015-11-29T10:56:28Z</time>
      </trkpt>
      <trkpt lat="49.06299" lon="1.16283">
        <ele>51.700001</ele>
        <time>2015-11-29T10:56:30Z</time>
      </trkpt>
      <trkpt lat="49.0629" lon="1.16285">
        <ele>52</ele>
        <time>2015-11-29T10:56:32Z</time>
      </trkpt>
      <trkpt lat="49.06281" lon="1.16287">
        <ele>52.400002</ele>
        <time>2015-11-29T10:56:34Z</time>
      </trkpt>
      <trkpt lat="49.06272" lon="1.16289">
        <ele>52.700001</ele>
        <time>2015-11-29T10:56:36Z</time>
      </trkpt>
      <trkpt lat="49.06262" lon="1.1629">
        <ele>53</ele>
        <time>2015-11-29T10:56:38Z</time>
      </trkpt>
      <trkpt lat="49.06253" lon="1.16292">
        <ele>53.400002</ele>
        <time>2015-11-29T10:56:40Z</time>
      </trkpt>
      <trkpt lat="49.06244" lon="1.16293">
        <ele>53.799999</ele>
        <time>2015-11-29T10:56:42Z</time>
      </trkpt>
      <trkpt lat="49.06233" lon="1.16294">
        <ele>54.099998</ele>
        <time>2015-11-29T10:56:44Z</time>
      </trkpt>
      <trkpt lat="49.06222" lon="1.16295">
        <ele>54.400002</ele>
        <time>2015-11-29T10:56:46Z</time>
      </trkpt>
      <trkpt lat="49.06212" lon="1.16297">
        <ele>54.599998</ele>
        <time>2015-11-29T10:56:48Z</time>
      </trkpt>
      <trkpt lat="49.06202" lon="1.163">
        <ele>54.900002</ele>
        <time>2015-11-29T10:56:50Z</time>
      </trkpt>
      <trkpt lat="49.06191" lon="1.16302">
        <ele>55.099998</ele>
        <time>2015-11-29T10:56:52Z</time>
      </trkpt>
      <trkpt lat="49.0618" lon="1.16304">
        <ele>55.299999</ele>
        <time>2015-11-29T10:56:54Z</time>
      </trkpt>
      <trkpt lat="49.06169" lon="1.16305">
        <ele>55.5</ele>
        <time>2015-11-29T10:56:56Z</time>
      </trkpt>
      <trkpt lat="49.06158" lon="1.16306">
        <ele>55.700001</ele>
        <time>2015-11-29T10:56:58Z</time>
      </trkpt>
      <trkpt lat="49.06147" lon="1.16308">
        <ele>55.900002</ele>
        <time>2015-11-29T10:57:00Z</time>
      </trkpt>
      <trkpt lat="49.06136" lon="1.1631">
        <ele>56</ele>
        <time>2015-11-29T10:57:02Z</time>
      </trkpt>
      <trkpt lat="49.06124" lon="1.16312">
        <ele>56.200001</ele>
        <time>2015-11-29T10:57:04Z</time>
      </trkpt>
      <trkpt lat="49.06112" lon="1.16314">
        <ele>56.299999</ele>
        <time>2015-11-29T10:57:06Z</time>
      </trkpt>
      <trkpt lat="49.061" lon="1.16315">
        <ele>56.400002</ele>
        <time>2015-11-29T10:57:08Z</time>
      </trkpt>
      <trkpt lat="49.06087" lon="1.16314">
        <ele>56.5</ele>
        <time>2015-11-29T10:57:10Z</time>
      </trkpt>
      <trkpt lat="49.06074" lon="1.16312">
        <ele>56.599998</ele>
        <time>2015-11-29T10:57:12Z</time>
      </trkpt>
      <trkpt lat="49.06062" lon="1.16309">
        <ele>56.599998</ele>
        <time>2015-11-29T10:57:14Z</time>
      </trkpt>
      <trkpt lat="49.06049" lon="1.16305">
        <ele>56.700001</ele>
        <time>2015-11-29T10:57:16Z</time>
      </trkpt>
      <trkpt lat="49.06036" lon="1.16301">
        <ele>56.700001</ele>
        <time>2015-11-29T10:57:18Z</time>
      </trkpt>
      <trkpt lat="49.06023" lon="1.16296">
        <ele>56.599998</ele>
        <time>2015-11-29T10:57:20Z</time>
      </trkpt>
      <trkpt lat="49.06009" lon="1.16291">
        <ele>56.5</ele>
        <time>2015-11-29T10:57:22Z</time>
      </trkpt>
      <trkpt lat="49.05995" lon="1.16287">
        <ele>56.299999</ele>
        <time>2015-11-29T10:57:24Z</time>
      </trkpt>
      <trkpt lat="49.05981" lon="1.16282">
        <ele>56.200001</ele>
        <time>2015-11-29T10:57:26Z</time>
      </trkpt>
      <trkpt lat="49.05966" lon="1.16277">
        <ele>56</ele>
        <time>2015-11-29T10:57:28Z</time>
      </trkpt>
      <trkpt lat="49.05952" lon="1.16273">
        <ele>55.799999</ele>
        <time>2015-11-29T10:57:30Z</time>
      </trkpt>
      <trkpt lat="49.0594" lon="1.16268">
        <ele>55.599998</ele>
        <time>2015-11-29T10:57:32Z</time>
      </trkpt>
      <trkpt lat="49.05928" lon="1.16263">
        <ele>55.400002</ele>
        <time>2015-11-29T10:57:34Z</time>
      </trkpt>
      <trkpt lat="49.05916" lon="1.16259">
        <ele>55.099998</ele>
        <time>2015-11-29T10:57:36Z</time>
      </trkpt>
      <trkpt lat="49.05903" lon="1.16255">
        <ele>54.799999</ele>
        <time>2015-11-29T10:57:38Z</time>
      </trkpt>
      <trkpt lat="49.0589" lon="1.16251">
        <ele>54.599998</ele>
        <time>2015-11-29T10:57:40Z</time>
      </trkpt>
      <trkpt lat="49.05876" lon="1.16248">
        <ele>54.400002</ele>
        <time>2015-11-29T10:57:42Z</time>
      </trkpt>
      <trkpt lat="49.05863" lon="1.16245">
        <ele>54.200001</ele>
        <time>2015-11-29T10:57:44Z</time>
      </trkpt>
      <trkpt lat="49.05851" lon="1.16242">
        <ele>54</ele>
        <time>2015-11-29T10:57:46Z</time>
      </trkpt>
      <trkpt lat="49.05838" lon="1.16238">
        <ele>53.900002</ele>
        <time>2015-11-29T10:57:48Z</time>
      </trkpt>
      <trkpt lat="49.05826" lon="1.16233">
        <ele>53.700001</ele>
        <time>2015-11-29T10:57:50Z</time>
      </trkpt>
      <trkpt lat="49.05814" lon="1.16226">
        <ele>53.599998</ele>
        <time>2015-11-29T10:57:52Z</time>
      </trkpt>
      <trkpt lat="49.05803" lon="1.16217">
        <ele>53.400002</ele>
        <time>2015-11-29T10:57:54Z</time>
      </trkpt>
      <trkpt lat="49.05792" lon="1.16207">
        <ele>53.299999</ele>
        <time>2015-11-29T10:57:56Z</time>
      </trkpt>
      <trkpt lat="49.05782" lon="1.16196">
        <ele>53.200001</ele>
        <time>2015-11-29T10:57:58Z</time>
      </trkpt>
      <trkpt lat="49.05772" lon="1.16184">
        <ele>53.099998</ele>
        <time>2015-11-29T10:58:00Z</time>
      </trkpt>
      <trkpt lat="49.05764" lon="1.16172">
        <ele>53</ele>
        <time>2015-11-29T10:58:02Z</time>
      </trkpt>
      <trkpt lat="49.05756" lon="1.1616">
        <ele>52.900002</ele>
        <time>2015-11-29T10:58:04Z</time>
      </trkpt>
      <trkpt lat="49.05748" lon="1.16148">
        <ele>52.799999</ele>
        <time>2015-11-29T10:58:06Z</time>
      </trkpt>
      <trkpt lat="49.0574" lon="1.16136">
        <ele>52.700001</ele>
        <time>2015-11-29T10:58:08Z</time>
      </trkpt>
      <trkpt lat="49.05732" lon="1.16124">
        <ele>52.700001</ele>
        <time>2015-11-29T10:58:10Z</time>
      </trkpt>
      <trkpt lat="49.05724" lon="1.16112">
        <ele>52.599998</ele>
        <time>2015-11-29T10:58:12Z</time>
      </trkpt>
      <trkpt lat="49.05716" lon="1.16101">
        <ele>52.599998</ele>
        <time>2015-11-29T10:58:14Z</time>
      </trkpt>
      <trkpt lat="49.05707" lon="1.16089">
        <ele>52.5</ele>
        <time>2015-11-29T10:58:16Z</time>
      </trkpt>
      <trkpt lat="49.05699" lon="1.16077">
        <ele>52.5</ele>
        <time>2015-11-29T10:58:18Z</time>
      </trkpt>
      <trkpt lat="49.0569" lon="1.16065">
        <ele>52.5</ele>
        <time>2015-11-29T10:58:20Z</time>
      </trkpt>
      <trkpt lat="49.05682" lon="1.16052">
        <ele>52.400002</ele>
        <time>2015-11-29T10:58:22Z</time>
      </trkpt>
      <trkpt lat="49.05673" lon="1.16041">
        <ele>52.400002</ele>
        <time>2015-11-29T10:58:24Z</time>
      </trkpt>
      <trkpt lat="49.05664" lon="1.1603">
        <ele>52.400002</ele>
        <time>2015-11-29T10:58:26Z</time>
      </trkpt>
      <trkpt lat="49.05656" lon="1.16019">
        <ele>52.400002</ele>
        <time>2015-11-29T10:58:28Z</time>
      </trkpt>
      <trkpt lat="49.05647" lon="1.16008">
        <ele>52.5</ele>
        <time>2015-11-29T10:58:30Z</time>
      </trkpt>
      <trkpt lat="49.05639" lon="1.15997">
        <ele>52.5</ele>
        <time>2015-11-29T10:58:32Z</time>
      </trkpt>
      <trkpt lat="49.0563" lon="1.15986">
        <ele>52.5</ele>
        <time>2015-11-29T10:58:34Z</time>
      </trkpt>
      <trkpt lat="49.05622" lon="1.15975">
        <ele>52.599998</ele>
        <time>2015-11-29T10:58:36Z</time>
      </trkpt>
      <trkpt lat="49.05613" lon="1.15963">
        <ele>52.700001</ele>
        <time>2015-11-29T10:58:38Z</time>
      </trkpt>
      <trkpt lat="49.05604" lon="1.15952">
        <ele>52.700001</ele>
        <time>2015-11-29T10:58:40Z</time>
      </trkpt>
      <trkpt lat="49.05595" lon="1.15942">
        <ele>52.799999</ele>
        <time>2015-11-29T10:58:42Z</time>
      </trkpt>
      <trkpt lat="49.05587" lon="1.15931">
        <ele>52.799999</ele>
        <time>2015-11-29T10:58:44Z</time>
      </trkpt>
      <trkpt lat="49.05578" lon="1.15921">
        <ele>52.900002</ele>
        <time>2015-11-29T10:58:46Z</time>
      </trkpt>
      <trkpt lat="49.05568" lon="1.1591">
        <ele>52.900002</ele>
        <time>2015-11-29T10:58:48Z</time>
      </trkpt>
      <trkpt lat="49.05559" lon="1.15899">
        <ele>53</ele>
        <time>2015-11-29T10:58:50Z</time>
      </trkpt>
      <trkpt lat="49.05549" lon="1.15888">
        <ele>53</ele>
        <time>2015-11-29T10:58:52Z</time>
      </trkpt>
      <trkpt lat="49.05539" lon="1.15879">
        <ele>53</ele>
        <time>2015-11-29T10:58:54Z</time>
      </trkpt>
      <trkpt lat="49.05529" lon="1.15869">
        <ele>53.099998</ele>
        <time>2015-11-29T10:58:56Z</time>
      </trkpt>
      <trkpt lat="49.05519" lon="1.15859">
        <ele>53.099998</ele>
        <time>2015-11-29T10:58:58Z</time>
      </trkpt>
      <trkpt lat="49.05508" lon="1.15848">
        <ele>53.099998</ele>
        <time>2015-11-29T10:59:00Z</time>
      </trkpt>
      <trkpt lat="49.05497" lon="1.15838">
        <ele>53.099998</ele>
        <time>2015-11-29T10:59:02Z</time>
      </trkpt>
      <trkpt lat="49.05487" lon="1.15827">
        <ele>53.099998</ele>
        <time>2015-11-29T10:59:04Z</time>
      </trkpt>
      <trkpt lat="49.05477" lon="1.15817">
        <ele>53.099998</ele>
        <time>2015-11-29T10:59:06Z</time>
      </trkpt>
      <trkpt lat="49.05466" lon="1.15808">
        <ele>53.200001</ele>
        <time>2015-11-29T10:59:08Z</time>
      </trkpt>
      <trkpt lat="49.05457" lon="1.15798">
        <ele>53.299999</ele>
        <time>2015-11-29T10:59:10Z</time>
      </trkpt>
      <trkpt lat="49.05447" lon="1.15788">
        <ele>53.400002</ele>
        <time>2015-11-29T10:59:12Z</time>
      </trkpt>
      <trkpt lat="49.05436" lon="1.15777">
        <ele>53.5</ele>
        <time>2015-11-29T10:59:14Z</time>
      </trkpt>
      <trkpt lat="49.05424" lon="1.15768">
        <ele>53.5</ele>
        <time>2015-11-29T10:59:16Z</time>
      </trkpt>
      <trkpt lat="49.05413" lon="1.15759">
        <ele>53.599998</ele>
        <time>2015-11-29T10:59:18Z</time>
      </trkpt>
      <trkpt lat="49.05402" lon="1.15752">
        <ele>53.700001</ele>
        <time>2015-11-29T10:59:20Z</time>
      </trkpt>
      <trkpt lat="49.0539" lon="1.15746">
        <ele>53.700001</ele>
        <time>2015-11-29T10:59:22Z</time>
      </trkpt>
      <trkpt lat="49.05377" lon="1.15739">
        <ele>53.799999</ele>
        <time>2015-11-29T10:59:24Z</time>
      </trkpt>
      <trkpt lat="49.05364" lon="1.15733">
        <ele>53.799999</ele>
        <time>2015-11-29T10:59:26Z</time>
      </trkpt>
      <trkpt lat="49.05351" lon="1.15729">
        <ele>53.799999</ele>
        <time>2015-11-29T10:59:28Z</time>
      </trkpt>
      <trkpt lat="49.05338" lon="1.15725">
        <ele>53.900002</ele>
        <time>2015-11-29T10:59:30Z</time>
      </trkpt>
      <trkpt lat="49.05325" lon="1.15721">
        <ele>54.099998</ele>
        <time>2015-11-29T10:59:32Z</time>
      </trkpt>
      <trkpt lat="49.05311" lon="1.15717">
        <ele>54.200001</ele>
        <time>2015-11-29T10:59:34Z</time>
      </trkpt>
      <trkpt lat="49.05298" lon="1.15714">
        <ele>54.299999</ele>
        <time>2015-11-29T10:59:36Z</time>
      </trkpt>
      <trkpt lat="49.05285" lon="1.15711">
        <ele>54.299999</ele>
        <time>2015-11-29T10:59:38Z</time>
      </trkpt>
      <trkpt lat="49.05271" lon="1.15708">
        <ele>54.400002</ele>
        <time>2015-11-29T10:59:40Z</time>
      </trkpt>
      <trkpt lat="49.05258" lon="1.15706">
        <ele>54.400002</ele>
        <time>2015-11-29T10:59:42Z</time>
      </trkpt>
      <trkpt lat="49.05246" lon="1.15703">
        <ele>54.5</ele>
        <time>2015-11-29T10:59:44Z</time>
      </trkpt>
      <trkpt lat="49.05233" lon="1.15701">
        <ele>54.599998</ele>
        <time>2015-11-29T10:59:46Z</time>
      </trkpt>
      <trkpt lat="49.05221" lon="1.157">
        <ele>54.700001</ele>
        <time>2015-11-29T10:59:48Z</time>
      </trkpt>
      <trkpt lat="49.05208" lon="1.15699">
        <ele>54.799999</ele>
        <time>2015-11-29T10:59:50Z</time>
      </trkpt>
      <trkpt lat="49.05195" lon="1.15699">
        <ele>54.900002</ele>
        <time>2015-11-29T10:59:52Z</time>
      </trkpt>
      <trkpt lat="49.05182" lon="1.15699">
        <ele>55</ele>
        <time>2015-11-29T10:59:54Z</time>
      </trkpt>
      <trkpt lat="49.05169" lon="1.15699">
        <ele>55.099998</ele>
        <time>2015-11-29T10:59:56Z</time>
      </trkpt>
      <trkpt lat="49.05156" lon="1.15699">
        <ele>55.200001</ele>
        <time>2015-11-29T10:59:58Z</time>
      </trkpt>
      <trkpt lat="49.05143" lon="1.15699">
        <ele>55.200001</ele>
        <time>2015-11-29T11:00:00Z</time>
      </trkpt>
      <trkpt lat="49.05129" lon="1.157">
        <ele>55.299999</ele>
        <time>2015-11-29T11:00:02Z</time>
      </trkpt>
      <trkpt lat="49.05116" lon="1.157">
        <ele>55.299999</ele>
        <time>2015-11-29T11:00:04Z</time>
      </trkpt>
      <trkpt lat="49.05102" lon="1.15701">
        <ele>55.400002</ele>
        <time>2015-11-29T11:00:06Z</time>
      </trkpt>
      <trkpt lat="49.05089" lon="1.15701">
        <ele>55.400002</ele>
        <time>2015-11-29T11:00:08Z</time>
      </trkpt>
      <trkpt lat="49.05076" lon="1.15701">
        <ele>55.400002</ele>
        <time>2015-11-29T11:00:10Z</time>
      </trkpt>
      <trkpt lat="49.05063" lon="1.15702">
        <ele>55.5</ele>
        <time>2015-11-29T11:00:12Z</time>
      </trkpt>
      <trkpt lat="49.0505" lon="1.15703">
        <ele>55.5</ele>
        <time>2015-11-29T11:00:14Z</time>
      </trkpt>
      <trkpt lat="49.05038" lon="1.15704">
        <ele>55.5</ele>
        <time>2015-11-29T11:00:16Z</time>
      </trkpt>
      <trkpt lat="49.05025" lon="1.15706">
        <ele>55.5</ele>
        <time>2015-11-29T11:00:18Z</time>
      </trkpt>
      <trkpt lat="49.05013" lon="1.15705">
        <ele>55.5</ele>
        <time>2015-11-29T11:00:20Z</time>
      </trkpt>
      <trkpt lat="49.05" lon="1.15705">
        <ele>55.5</ele>
        <time>2015-11-29T11:00:22Z</time>
      </trkpt>
      <trkpt lat="49.04988" lon="1.15704">
        <ele>55.5</ele>
        <time>2015-11-29T11:00:24Z</time>
      </trkpt>
      <trkpt lat="49.04976" lon="1.15706">
        <ele>55.5</ele>
        <time>2015-11-29T11:00:26Z</time>
      </trkpt>
      <trkpt lat="49.04965" lon="1.15707">
        <ele>55.5</ele>
        <time>2015-11-29T11:00:28Z</time>
      </trkpt>
      <trkpt lat="49.04953" lon="1.15707">
        <ele>55.5</ele>
        <time>2015-11-29T11:00:30Z</time>
      </trkpt>
      <trkpt lat="49.0494" lon="1.15708">
        <ele>55.5</ele>
        <time>2015-11-29T11:00:32Z</time>
      </trkpt>
      <trkpt lat="49.04928" lon="1.15708">
        <ele>55.5</ele>
        <time>2015-11-29T11:00:34Z</time>
      </trkpt>
      <trkpt lat="49.04916" lon="1.1571">
        <ele>55.599998</ele>
        <time>2015-11-29T11:00:36Z</time>
      </trkpt>
      <trkpt lat="49.04905" lon="1.15711">
        <ele>55.599998</ele>
        <time>2015-11-29T11:00:38Z</time>
      </trkpt>
      <trkpt lat="49.04893" lon="1.15712">
        <ele>55.700001</ele>
        <time>2015-11-29T11:00:40Z</time>
      </trkpt>
      <trkpt lat="49.04881" lon="1.15713">
        <ele>55.799999</ele>
        <time>2015-11-29T11:00:42Z</time>
      </trkpt>
      <trkpt lat="49.04869" lon="1.15713">
        <ele>55.799999</ele>
        <time>2015-11-29T11:00:44Z</time>
      </trkpt>
      <trkpt lat="49.04857" lon="1.15714">
        <ele>55.900002</ele>
        <time>2015-11-29T11:00:46Z</time>
      </trkpt>
      <trkpt lat="49.04845" lon="1.15713">
        <ele>56</ele>
        <time>2015-11-29T11:00:48Z</time>
      </trkpt>
      <trkpt lat="49.04834" lon="1.15713">
        <ele>56.400002</ele>
        <time>2015-11-29T11:00:50Z</time>
      </trkpt>
      <trkpt lat="49.04824" lon="1.15712">
        <ele>56.700001</ele>
        <time>2015-11-29T11:00:52Z</time>
      </trkpt>
      <trkpt lat="49.04815" lon="1.15707">
        <ele>57</ele>
        <time>2015-11-29T11:00:54Z</time>
      </trkpt>
      <trkpt lat="49.04803" lon="1.15698">
        <ele>57.200001</ele>
        <time>2015-11-29T11:00:57Z</time>
      </trkpt>
      <trkpt lat="49.04794" lon="1.15697">
        <ele>57.299999</ele>
        <time>2015-11-29T11:00:59Z</time>
      </trkpt>
      <trkpt lat="49.04783" lon="1.15696">
        <ele>57.400002</ele>
        <time>2015-11-29T11:01:01Z</time>
      </trkpt>
      <trkpt lat="49.04772" lon="1.15695">
        <ele>57.5</ele>
        <time>2015-11-29T11:01:03Z</time>
      </trkpt>
      <trkpt lat="49.04761" lon="1.15694">
        <ele>57.599998</ele>
        <time>2015-11-29T11:01:05Z</time>
      </trkpt>
      <trkpt lat="49.0475" lon="1.15693">
        <ele>57.599998</ele>
        <time>2015-11-29T11:01:07Z</time>
      </trkpt>
      <trkpt lat="49.04739" lon="1.15692">
        <ele>57.599998</ele>
        <time>2015-11-29T11:01:09Z</time>
      </trkpt>
      <trkpt lat="49.04727" lon="1.15691">
        <ele>57.599998</ele>
        <time>2015-11-29T11:01:11Z</time>
      </trkpt>
      <trkpt lat="49.04716" lon="1.1569">
        <ele>57.599998</ele>
        <time>2015-11-29T11:01:13Z</time>
      </trkpt>
      <trkpt lat="49.04704" lon="1.1569">
        <ele>57.599998</ele>
        <time>2015-11-29T11:01:15Z</time>
      </trkpt>
      <trkpt lat="49.04692" lon="1.15689">
        <ele>57.599998</ele>
        <time>2015-11-29T11:01:17Z</time>
      </trkpt>
      <trkpt lat="49.04679" lon="1.15688">
        <ele>57.599998</ele>
        <time>2015-11-29T11:01:19Z</time>
      </trkpt>
      <trkpt lat="49.04665" lon="1.15687">
        <ele>57.599998</ele>
        <time>2015-11-29T11:01:21Z</time>
      </trkpt>
      <trkpt lat="49.04652" lon="1.15686">
        <ele>57.599998</ele>
        <time>2015-11-29T11:01:23Z</time>
      </trkpt>
      <trkpt lat="49.04638" lon="1.15685">
        <ele>57.599998</ele>
        <time>2015-11-29T11:01:25Z</time>
      </trkpt>
      <trkpt lat="49.04625" lon="1.15686">
        <ele>57.599998</ele>
        <time>2015-11-29T11:01:27Z</time>
      </trkpt>
      <trkpt lat="49.04613" lon="1.15688">
        <ele>57.599998</ele>
        <time>2015-11-29T11:01:29Z</time>
      </trkpt>
      <trkpt lat="49.046" lon="1.15689">
        <ele>57.599998</ele>
        <time>2015-11-29T11:01:31Z</time>
      </trkpt>
      <trkpt lat="49.04588" lon="1.15692">
        <ele>57.599998</ele>
        <time>2015-11-29T11:01:33Z</time>
      </trkpt>
      <trkpt lat="49.04577" lon="1.15698">
        <ele>57.599998</ele>
        <time>2015-11-29T11:01:35Z</time>
      </trkpt>
      <trkpt lat="49.04566" lon="1.15703">
        <ele>57.599998</ele>
        <time>2015-11-29T11:01:37Z</time>
      </trkpt>
      <trkpt lat="49.04556" lon="1.15708">
        <ele>57.400002</ele>
        <time>2015-11-29T11:01:39Z</time>
      </trkpt>
      <trkpt lat="49.04545" lon="1.15713">
        <ele>57.299999</ele>
        <time>2015-11-29T11:01:41Z</time>
      </trkpt>
      <trkpt lat="49.04534" lon="1.15717">
        <ele>57.200001</ele>
        <time>2015-11-29T11:01:43Z</time>
      </trkpt>
      <trkpt lat="49.04522" lon="1.15723">
        <ele>57.099998</ele>
        <time>2015-11-29T11:01:45Z</time>
      </trkpt>
      <trkpt lat="49.04511" lon="1.15729">
        <ele>56.900002</ele>
        <time>2015-11-29T11:01:47Z</time>
      </trkpt>
      <trkpt lat="49.04499" lon="1.15735">
        <ele>56.799999</ele>
        <time>2015-11-29T11:01:49Z</time>
      </trkpt>
      <trkpt lat="49.04487" lon="1.15741">
        <ele>56.700001</ele>
        <time>2015-11-29T11:01:51Z</time>
      </trkpt>
      <trkpt lat="49.04475" lon="1.15748">
        <ele>56.599998</ele>
        <time>2015-11-29T11:01:53Z</time>
      </trkpt>
      <trkpt lat="49.04464" lon="1.15755">
        <ele>56.599998</ele>
        <time>2015-11-29T11:01:55Z</time>
      </trkpt>
      <trkpt lat="49.04452" lon="1.15761">
        <ele>56.5</ele>
        <time>2015-11-29T11:01:57Z</time>
      </trkpt>
      <trkpt lat="49.04441" lon="1.15766">
        <ele>56.400002</ele>
        <time>2015-11-29T11:01:59Z</time>
      </trkpt>
      <trkpt lat="49.04429" lon="1.15766">
        <ele>56.400002</ele>
        <time>2015-11-29T11:02:01Z</time>
      </trkpt>
      <trkpt lat="49.04419" lon="1.15766">
        <ele>56.400002</ele>
        <time>2015-11-29T11:02:03Z</time>
      </trkpt>
      <trkpt lat="49.04408" lon="1.15766">
        <ele>56.400002</ele>
        <time>2015-11-29T11:02:05Z</time>
      </trkpt>
      <trkpt lat="49.04397" lon="1.15765">
        <ele>56.400002</ele>
        <time>2015-11-29T11:02:07Z</time>
      </trkpt>
      <trkpt lat="49.04386" lon="1.15765">
        <ele>56.400002</ele>
        <time>2015-11-29T11:02:09Z</time>
      </trkpt>
      <trkpt lat="49.04375" lon="1.15764">
        <ele>56.5</ele>
        <time>2015-11-29T11:02:11Z</time>
      </trkpt>
      <trkpt lat="49.04365" lon="1.15764">
        <ele>56.599998</ele>
        <time>2015-11-29T11:02:13Z</time>
      </trkpt>
      <trkpt lat="49.04355" lon="1.15762">
        <ele>56.700001</ele>
        <time>2015-11-29T11:02:15Z</time>
      </trkpt>
      <trkpt lat="49.04344" lon="1.15759">
        <ele>56.799999</ele>
        <time>2015-11-29T11:02:17Z</time>
      </trkpt>
      <trkpt lat="49.04334" lon="1.15754">
        <ele>56.799999</ele>
        <time>2015-11-29T11:02:19Z</time>
      </trkpt>
      <trkpt lat="49.04323" lon="1.1575">
        <ele>56.900002</ele>
        <time>2015-11-29T11:02:21Z</time>
      </trkpt>
      <trkpt lat="49.04312" lon="1.15749">
        <ele>56.900002</ele>
        <time>2015-11-29T11:02:23Z</time>
      </trkpt>
      <trkpt lat="49.04301" lon="1.1575">
        <ele>56.900002</ele>
        <time>2015-11-29T11:02:25Z</time>
      </trkpt>
      <trkpt lat="49.0429" lon="1.15753">
        <ele>57</ele>
        <time>2015-11-29T11:02:27Z</time>
      </trkpt>
      <trkpt lat="49.04278" lon="1.15755">
        <ele>57</ele>
        <time>2015-11-29T11:02:29Z</time>
      </trkpt>
      <trkpt lat="49.04267" lon="1.15753">
        <ele>57</ele>
        <time>2015-11-29T11:02:31Z</time>
      </trkpt>
      <trkpt lat="49.04256" lon="1.1575">
        <ele>57.099998</ele>
        <time>2015-11-29T11:02:33Z</time>
      </trkpt>
      <trkpt lat="49.04244" lon="1.15747">
        <ele>57.099998</ele>
        <time>2015-11-29T11:02:35Z</time>
      </trkpt>
      <trkpt lat="49.04233" lon="1.15746">
        <ele>57.200001</ele>
        <time>2015-11-29T11:02:37Z</time>
      </trkpt>
      <trkpt lat="49.04222" lon="1.15743">
        <ele>57.299999</ele>
        <time>2015-11-29T11:02:39Z</time>
      </trkpt>
      <trkpt lat="49.04212" lon="1.15738">
        <ele>57.400002</ele>
        <time>2015-11-29T11:02:41Z</time>
      </trkpt>
      <trkpt lat="49.042" lon="1.15736">
        <ele>57.400002</ele>
        <time>2015-11-29T11:02:43Z</time>
      </trkpt>
      <trkpt lat="49.04188" lon="1.15737">
        <ele>57.5</ele>
        <time>2015-11-29T11:02:45Z</time>
      </trkpt>
      <trkpt lat="49.04176" lon="1.15736">
        <ele>57.599998</ele>
        <time>2015-11-29T11:02:47Z</time>
      </trkpt>
      <trkpt lat="49.04165" lon="1.15734">
        <ele>57.599998</ele>
        <time>2015-11-29T11:02:49Z</time>
      </trkpt>
      <trkpt lat="49.04154" lon="1.15732">
        <ele>57.700001</ele>
        <time>2015-11-29T11:02:51Z</time>
      </trkpt>
      <trkpt lat="49.04143" lon="1.15729">
        <ele>57.799999</ele>
        <time>2015-11-29T11:02:53Z</time>
      </trkpt>
      <trkpt lat="49.04132" lon="1.15727">
        <ele>57.900002</ele>
        <time>2015-11-29T11:02:55Z</time>
      </trkpt>
      <trkpt lat="49.04121" lon="1.15725">
        <ele>58</ele>
        <time>2015-11-29T11:02:57Z</time>
      </trkpt>
      <trkpt lat="49.04109" lon="1.15723">
        <ele>58.200001</ele>
        <time>2015-11-29T11:02:59Z</time>
      </trkpt>
      <trkpt lat="49.04099" lon="1.15723">
        <ele>58.299999</ele>
        <time>2015-11-29T11:03:01Z</time>
      </trkpt>
      <trkpt lat="49.04087" lon="1.15724">
        <ele>58.5</ele>
        <time>2015-11-29T11:03:03Z</time>
      </trkpt>
      <trkpt lat="49.04077" lon="1.15725">
        <ele>58.599998</ele>
        <time>2015-11-29T11:03:05Z</time>
      </trkpt>
      <trkpt lat="49.04066" lon="1.15724">
        <ele>58.799999</ele>
        <time>2015-11-29T11:03:07Z</time>
      </trkpt>
      <trkpt lat="49.04056" lon="1.15722">
        <ele>59</ele>
        <time>2015-11-29T11:03:09Z</time>
      </trkpt>
      <trkpt lat="49.04046" lon="1.15719">
        <ele>59.299999</ele>
        <time>2015-11-29T11:03:11Z</time>
      </trkpt>
      <trkpt lat="49.04037" lon="1.15717">
        <ele>59.599998</ele>
        <time>2015-11-29T11:03:13Z</time>
      </trkpt>
      <trkpt lat="49.04027" lon="1.15715">
        <ele>59.900002</ele>
        <time>2015-11-29T11:03:15Z</time>
      </trkpt>
      <trkpt lat="49.04018" lon="1.15713">
        <ele>60.200001</ele>
        <time>2015-11-29T11:03:17Z</time>
      </trkpt>
      <trkpt lat="49.04008" lon="1.1571">
        <ele>60.5</ele>
        <time>2015-11-29T11:03:19Z</time>
      </trkpt>
      <trkpt lat="49.03999" lon="1.15707">
        <ele>60.700001</ele>
        <time>2015-11-29T11:03:21Z</time>
      </trkpt>
      <trkpt lat="49.0399" lon="1.15705">
        <ele>61</ele>
        <time>2015-11-29T11:03:23Z</time>
      </trkpt>
      <trkpt lat="49.03981" lon="1.15704">
        <ele>61.299999</ele>
        <time>2015-11-29T11:03:25Z</time>
      </trkpt>
      <trkpt lat="49.03972" lon="1.15701">
        <ele>61.5</ele>
        <time>2015-11-29T11:03:27Z</time>
      </trkpt>
      <trkpt lat="49.0396" lon="1.15697">
        <ele>61.799999</ele>
        <time>2015-11-29T11:03:30Z</time>
      </trkpt>
      <trkpt lat="49.03949" lon="1.15692">
        <ele>61.900002</ele>
        <time>2015-11-29T11:03:33Z</time>
      </trkpt>
      <trkpt lat="49.03935" lon="1.15691">
        <ele>61.900002</ele>
        <time>2015-11-29T11:03:36Z</time>
      </trkpt>
      <trkpt lat="49.03925" lon="1.15688">
        <ele>61.900002</ele>
        <time>2015-11-29T11:03:38Z</time>
      </trkpt>
      <trkpt lat="49.03915" lon="1.15685">
        <ele>61.900002</ele>
        <time>2015-11-29T11:03:40Z</time>
      </trkpt>
      <trkpt lat="49.03905" lon="1.15682">
        <ele>62</ele>
        <time>2015-11-29T11:03:42Z</time>
      </trkpt>
      <trkpt lat="49.03895" lon="1.1568">
        <ele>62.099998</ele>
        <time>2015-11-29T11:03:44Z</time>
      </trkpt>
      <trkpt lat="49.03886" lon="1.15678">
        <ele>62.200001</ele>
        <time>2015-11-29T11:03:46Z</time>
      </trkpt>
      <trkpt lat="49.03876" lon="1.15675">
        <ele>62.200001</ele>
        <time>2015-11-29T11:03:48Z</time>
      </trkpt>
      <trkpt lat="49.03867" lon="1.15672">
        <ele>62.299999</ele>
        <time>2015-11-29T11:03:50Z</time>
      </trkpt>
      <trkpt lat="49.03857" lon="1.1567">
        <ele>62.299999</ele>
        <time>2015-11-29T11:03:52Z</time>
      </trkpt>
      <trkpt lat="49.03847" lon="1.15667">
        <ele>62.299999</ele>
        <time>2015-11-29T11:03:54Z</time>
      </trkpt>
      <trkpt lat="49.03836" lon="1.15665">
        <ele>62.299999</ele>
        <time>2015-11-29T11:03:56Z</time>
      </trkpt>
      <trkpt lat="49.03826" lon="1.15661">
        <ele>62.299999</ele>
        <time>2015-11-29T11:03:58Z</time>
      </trkpt>
      <trkpt lat="49.03815" lon="1.15659">
        <ele>62.400002</ele>
        <time>2015-11-29T11:04:00Z</time>
      </trkpt>
      <trkpt lat="49.03805" lon="1.15656">
        <ele>62.599998</ele>
        <time>2015-11-29T11:04:02Z</time>
      </trkpt>
      <trkpt lat="49.03794" lon="1.15653">
        <ele>62.799999</ele>
        <time>2015-11-29T11:04:04Z</time>
      </trkpt>
      <trkpt lat="49.03784" lon="1.1565">
        <ele>63</ele>
        <time>2015-11-29T11:04:06Z</time>
      </trkpt>
      <trkpt lat="49.03774" lon="1.15647">
        <ele>63.099998</ele>
        <time>2015-11-29T11:04:08Z</time>
      </trkpt>
      <trkpt lat="49.03761" lon="1.15642">
        <ele>63.299999</ele>
        <time>2015-11-29T11:04:11Z</time>
      </trkpt>
      <trkpt lat="49.03751" lon="1.15638">
        <ele>63.400002</ele>
        <time>2015-11-29T11:04:13Z</time>
      </trkpt>
      <trkpt lat="49.0374" lon="1.15633">
        <ele>63.5</ele>
        <time>2015-11-29T11:04:15Z</time>
      </trkpt>
      <trkpt lat="49.0373" lon="1.15628">
        <ele>63.599998</ele>
        <time>2015-11-29T11:04:17Z</time>
      </trkpt>
      <trkpt lat="49.03719" lon="1.15623">
        <ele>63.700001</ele>
        <time>2015-11-29T11:04:19Z</time>
      </trkpt>
      <trkpt lat="49.03708" lon="1.15619">
        <ele>63.799999</ele>
        <time>2015-11-29T11:04:21Z</time>
      </trkpt>
      <trkpt lat="49.03696" lon="1.15613">
        <ele>63.900002</ele>
        <time>2015-11-29T11:04:23Z</time>
      </trkpt>
      <trkpt lat="49.03685" lon="1.15609">
        <ele>64</ele>
        <time>2015-11-29T11:04:25Z</time>
      </trkpt>
      <trkpt lat="49.03673" lon="1.15606">
        <ele>64.099998</ele>
        <time>2015-11-29T11:04:27Z</time>
      </trkpt>
      <trkpt lat="49.03662" lon="1.15603">
        <ele>64.300003</ele>
        <time>2015-11-29T11:04:29Z</time>
      </trkpt>
      <trkpt lat="49.0365" lon="1.15602">
        <ele>64.5</ele>
        <time>2015-11-29T11:04:31Z</time>
      </trkpt>
      <trkpt lat="49.03639" lon="1.15601">
        <ele>64.699997</ele>
        <time>2015-11-29T11:04:33Z</time>
      </trkpt>
      <trkpt lat="49.03627" lon="1.15601">
        <ele>64.900002</ele>
        <time>2015-11-29T11:04:35Z</time>
      </trkpt>
      <trkpt lat="49.03616" lon="1.15602">
        <ele>65.099998</ele>
        <time>2015-11-29T11:04:37Z</time>
      </trkpt>
      <trkpt lat="49.03606" lon="1.15602">
        <ele>65.199997</ele>
        <time>2015-11-29T11:04:39Z</time>
      </trkpt>
      <trkpt lat="49.03595" lon="1.15602">
        <ele>65.300003</ele>
        <time>2015-11-29T11:04:41Z</time>
      </trkpt>
      <trkpt lat="49.03582" lon="1.15599">
        <ele>65.400002</ele>
        <time>2015-11-29T11:04:43Z</time>
      </trkpt>
      <trkpt lat="49.0357" lon="1.15594">
        <ele>65.400002</ele>
        <time>2015-11-29T11:04:45Z</time>
      </trkpt>
      <trkpt lat="49.03558" lon="1.15587">
        <ele>65.300003</ele>
        <time>2015-11-29T11:04:47Z</time>
      </trkpt>
      <trkpt lat="49.03546" lon="1.15578">
        <ele>65.300003</ele>
        <time>2015-11-29T11:04:49Z</time>
      </trkpt>
      <trkpt lat="49.03534" lon="1.15572">
        <ele>65.199997</ele>
        <time>2015-11-29T11:04:51Z</time>
      </trkpt>
      <trkpt lat="49.03522" lon="1.15566">
        <ele>65</ele>
        <time>2015-11-29T11:04:53Z</time>
      </trkpt>
      <trkpt lat="49.03508" lon="1.15561">
        <ele>64.800003</ele>
        <time>2015-11-29T11:04:55Z</time>
      </trkpt>
      <trkpt lat="49.03495" lon="1.15557">
        <ele>64.599998</ele>
        <time>2015-11-29T11:04:57Z</time>
      </trkpt>
      <trkpt lat="49.03483" lon="1.15553">
        <ele>64.300003</ele>
        <time>2015-11-29T11:04:59Z</time>
      </trkpt>
      <trkpt lat="49.03475" lon="1.1555">
        <ele>63.900002</ele>
        <time>2015-11-29T11:05:01Z</time>
      </trkpt>
      <trkpt lat="49.03465" lon="1.15545">
        <ele>63.099998</ele>
        <time>2015-11-29T11:05:05Z</time>
      </trkpt>
      <trkpt lat="49.03455" lon="1.15547">
        <ele>62.599998</ele>
        <time>2015-11-29T11:05:08Z</time>
      </trkpt>
      <trkpt lat="49.03442" lon="1.1554">
        <ele>62.200001</ele>
        <time>2015-11-29T11:05:11Z</time>
      </trkpt>
      <trkpt lat="49.03433" lon="1.15532">
        <ele>61.900002</ele>
        <time>2015-11-29T11:05:13Z</time>
      </trkpt>
      <trkpt lat="49.03424" lon="1.15524">
        <ele>61.700001</ele>
        <time>2015-11-29T11:05:15Z</time>
      </trkpt>
      <trkpt lat="49.03415" lon="1.15515">
        <ele>61.5</ele>
        <time>2015-11-29T11:05:17Z</time>
      </trkpt>
      <trkpt lat="49.03405" lon="1.15506">
        <ele>61.299999</ele>
        <time>2015-11-29T11:05:19Z</time>
      </trkpt>
      <trkpt lat="49.03395" lon="1.15498">
        <ele>61</ele>
        <time>2015-11-29T11:05:21Z</time>
      </trkpt>
      <trkpt lat="49.03386" lon="1.15489">
        <ele>60.799999</ele>
        <time>2015-11-29T11:05:23Z</time>
      </trkpt>
      <trkpt lat="49.03377" lon="1.15481">
        <ele>60.599998</ele>
        <time>2015-11-29T11:05:25Z</time>
      </trkpt>
      <trkpt lat="49.03368" lon="1.15472">
        <ele>60.400002</ele>
        <time>2015-11-29T11:05:27Z</time>
      </trkpt>
      <trkpt lat="49.03358" lon="1.15464">
        <ele>60.299999</ele>
        <time>2015-11-29T11:05:29Z</time>
      </trkpt>
      <trkpt lat="49.03349" lon="1.15456">
        <ele>60.099998</ele>
        <time>2015-11-29T11:05:31Z</time>
      </trkpt>
      <trkpt lat="49.03339" lon="1.15448">
        <ele>60</ele>
        <time>2015-11-29T11:05:33Z</time>
      </trkpt>
      <trkpt lat="49.03331" lon="1.15439">
        <ele>59.900002</ele>
        <time>2015-11-29T11:05:35Z</time>
      </trkpt>
      <trkpt lat="49.03325" lon="1.15426">
        <ele>59.799999</ele>
        <time>2015-11-29T11:05:37Z</time>
      </trkpt>
      <trkpt lat="49.03319" lon="1.15412">
        <ele>59.700001</ele>
        <time>2015-11-29T11:05:39Z</time>
      </trkpt>
      <trkpt lat="49.03313" lon="1.15398">
        <ele>59.700001</ele>
        <time>2015-11-29T11:05:41Z</time>
      </trkpt>
      <trkpt lat="49.03306" lon="1.15384">
        <ele>59.599998</ele>
        <time>2015-11-29T11:05:43Z</time>
      </trkpt>
      <trkpt lat="49.033" lon="1.1537">
        <ele>59.700001</ele>
        <time>2015-11-29T11:05:45Z</time>
      </trkpt>
      <trkpt lat="49.03293" lon="1.15356">
        <ele>59.700001</ele>
        <time>2015-11-29T11:05:47Z</time>
      </trkpt>
      <trkpt lat="49.03287" lon="1.15341">
        <ele>59.799999</ele>
        <time>2015-11-29T11:05:49Z</time>
      </trkpt>
      <trkpt lat="49.0328" lon="1.15327">
        <ele>59.900002</ele>
        <time>2015-11-29T11:05:51Z</time>
      </trkpt>
      <trkpt lat="49.03274" lon="1.15312">
        <ele>60</ele>
        <time>2015-11-29T11:05:53Z</time>
      </trkpt>
      <trkpt lat="49.03267" lon="1.15297">
        <ele>60.099998</ele>
        <time>2015-11-29T11:05:55Z</time>
      </trkpt>
      <trkpt lat="49.0326" lon="1.15281">
        <ele>60.200001</ele>
        <time>2015-11-29T11:05:57Z</time>
      </trkpt>
      <trkpt lat="49.03253" lon="1.15266">
        <ele>60.299999</ele>
        <time>2015-11-29T11:05:59Z</time>
      </trkpt>
      <trkpt lat="49.03247" lon="1.15251">
        <ele>60.400002</ele>
        <time>2015-11-29T11:06:01Z</time>
      </trkpt>
      <trkpt lat="49.0324" lon="1.15235">
        <ele>60.400002</ele>
        <time>2015-11-29T11:06:03Z</time>
      </trkpt>
      <trkpt lat="49.03232" lon="1.15219">
        <ele>60.5</ele>
        <time>2015-11-29T11:06:05Z</time>
      </trkpt>
      <trkpt lat="49.03225" lon="1.15202">
        <ele>60.599998</ele>
        <time>2015-11-29T11:06:07Z</time>
      </trkpt>
      <trkpt lat="49.03217" lon="1.15185">
        <ele>60.700001</ele>
        <time>2015-11-29T11:06:09Z</time>
      </trkpt>
      <trkpt lat="49.03209" lon="1.15168">
        <ele>60.799999</ele>
        <time>2015-11-29T11:06:11Z</time>
      </trkpt>
      <trkpt lat="49.03201" lon="1.15151">
        <ele>60.900002</ele>
        <time>2015-11-29T11:06:13Z</time>
      </trkpt>
      <trkpt lat="49.03193" lon="1.15133">
        <ele>61</ele>
        <time>2015-11-29T11:06:15Z</time>
      </trkpt>
      <trkpt lat="49.03186" lon="1.15116">
        <ele>61</ele>
        <time>2015-11-29T11:06:17Z</time>
      </trkpt>
      <trkpt lat="49.03178" lon="1.15098">
        <ele>61.099998</ele>
        <time>2015-11-29T11:06:19Z</time>
      </trkpt>
      <trkpt lat="49.0317" lon="1.15081">
        <ele>61.099998</ele>
        <time>2015-11-29T11:06:21Z</time>
      </trkpt>
      <trkpt lat="49.03163" lon="1.15065">
        <ele>61.099998</ele>
        <time>2015-11-29T11:06:23Z</time>
      </trkpt>
      <trkpt lat="49.03155" lon="1.15048">
        <ele>61.200001</ele>
        <time>2015-11-29T11:06:25Z</time>
      </trkpt>
      <trkpt lat="49.03148" lon="1.15031">
        <ele>61.200001</ele>
        <time>2015-11-29T11:06:27Z</time>
      </trkpt>
      <trkpt lat="49.03141" lon="1.15013">
        <ele>61.200001</ele>
        <time>2015-11-29T11:06:29Z</time>
      </trkpt>
      <trkpt lat="49.03133" lon="1.14996">
        <ele>61.200001</ele>
        <time>2015-11-29T11:06:31Z</time>
      </trkpt>
      <trkpt lat="49.03127" lon="1.14979">
        <ele>61.200001</ele>
        <time>2015-11-29T11:06:33Z</time>
      </trkpt>
      <trkpt lat="49.0312" lon="1.14962">
        <ele>61.299999</ele>
        <time>2015-11-29T11:06:35Z</time>
      </trkpt>
      <trkpt lat="49.03113" lon="1.14946">
        <ele>61.400002</ele>
        <time>2015-11-29T11:06:37Z</time>
      </trkpt>
      <trkpt lat="49.03106" lon="1.14929">
        <ele>61.400002</ele>
        <time>2015-11-29T11:06:39Z</time>
      </trkpt>
      <trkpt lat="49.03098" lon="1.14913">
        <ele>61.400002</ele>
        <time>2015-11-29T11:06:41Z</time>
      </trkpt>
      <trkpt lat="49.03091" lon="1.14896">
        <ele>61.400002</ele>
        <time>2015-11-29T11:06:43Z</time>
      </trkpt>
      <trkpt lat="49.03084" lon="1.14879">
        <ele>61.299999</ele>
        <time>2015-11-29T11:06:45Z</time>
      </trkpt>
      <trkpt lat="49.03077" lon="1.14864">
        <ele>61.299999</ele>
        <time>2015-11-29T11:06:47Z</time>
      </trkpt>
      <trkpt lat="49.0307" lon="1.14848">
        <ele>61.299999</ele>
        <time>2015-11-29T11:06:49Z</time>
      </trkpt>
      <trkpt lat="49.03064" lon="1.14832">
        <ele>61.299999</ele>
        <time>2015-11-29T11:06:51Z</time>
      </trkpt>
      <trkpt lat="49.03058" lon="1.14815">
        <ele>61.200001</ele>
        <time>2015-11-29T11:06:53Z</time>
      </trkpt>
      <trkpt lat="49.03052" lon="1.14799">
        <ele>60.900002</ele>
        <time>2015-11-29T11:06:55Z</time>
      </trkpt>
      <trkpt lat="49.03046" lon="1.14784">
        <ele>60.799999</ele>
        <time>2015-11-29T11:06:57Z</time>
      </trkpt>
      <trkpt lat="49.03041" lon="1.1477">
        <ele>60.700001</ele>
        <time>2015-11-29T11:06:59Z</time>
      </trkpt>
      <trkpt lat="49.03036" lon="1.14757">
        <ele>60.700001</ele>
        <time>2015-11-29T11:07:01Z</time>
      </trkpt>
      <trkpt lat="49.0303" lon="1.14742">
        <ele>60.700001</ele>
        <time>2015-11-29T11:07:04Z</time>
      </trkpt>
      <trkpt lat="49.03018" lon="1.14741">
        <ele>60.599998</ele>
        <time>2015-11-29T11:07:09Z</time>
      </trkpt>
      <trkpt lat="49.03007" lon="1.14751">
        <ele>60.599998</ele>
        <time>2015-11-29T11:07:12Z</time>
      </trkpt>
      <trkpt lat="49.02999" lon="1.14758">
        <ele>60.5</ele>
        <time>2015-11-29T11:07:14Z</time>
      </trkpt>
      <trkpt lat="49.02986" lon="1.14757">
        <ele>60.599998</ele>
        <time>2015-11-29T11:07:17Z</time>
      </trkpt>
      <trkpt lat="49.02977" lon="1.14753">
        <ele>60.599998</ele>
        <time>2015-11-29T11:07:19Z</time>
      </trkpt>
      <trkpt lat="49.02966" lon="1.14749">
        <ele>60.599998</ele>
        <time>2015-11-29T11:07:21Z</time>
      </trkpt>
      <trkpt lat="49.02956" lon="1.14743">
        <ele>60.599998</ele>
        <time>2015-11-29T11:07:23Z</time>
      </trkpt>
      <trkpt lat="49.02946" lon="1.14737">
        <ele>60.599998</ele>
        <time>2015-11-29T11:07:25Z</time>
      </trkpt>
      <trkpt lat="49.02937" lon="1.1473">
        <ele>60.700001</ele>
        <time>2015-11-29T11:07:27Z</time>
      </trkpt>
      <trkpt lat="49.02927" lon="1.14723">
        <ele>60.700001</ele>
        <time>2015-11-29T11:07:29Z</time>
      </trkpt>
      <trkpt lat="49.02917" lon="1.14714">
        <ele>60.700001</ele>
        <time>2015-11-29T11:07:31Z</time>
      </trkpt>
      <trkpt lat="49.02909" lon="1.14705">
        <ele>60.700001</ele>
        <time>2015-11-29T11:07:33Z</time>
      </trkpt>
      <trkpt lat="49.02901" lon="1.14697">
        <ele>60.599998</ele>
        <time>2015-11-29T11:07:35Z</time>
      </trkpt>
      <trkpt lat="49.02892" lon="1.14687">
        <ele>60.599998</ele>
        <time>2015-11-29T11:07:37Z</time>
      </trkpt>
      <trkpt lat="49.02883" lon="1.14673">
        <ele>60.5</ele>
        <time>2015-11-29T11:07:39Z</time>
      </trkpt>
      <trkpt lat="49.02876" lon="1.14659">
        <ele>60.400002</ele>
        <time>2015-11-29T11:07:41Z</time>
      </trkpt>
      <trkpt lat="49.02872" lon="1.14644">
        <ele>60.400002</ele>
        <time>2015-11-29T11:07:43Z</time>
      </trkpt>
      <trkpt lat="49.02873" lon="1.14629">
        <ele>60.400002</ele>
        <time>2015-11-29T11:07:45Z</time>
      </trkpt>
      <trkpt lat="49.02875" lon="1.14616">
        <ele>60.400002</ele>
        <time>2015-11-29T11:07:47Z</time>
      </trkpt>
      <trkpt lat="49.02871" lon="1.14597">
        <ele>60.400002</ele>
        <time>2015-11-29T11:07:50Z</time>
      </trkpt>
      <trkpt lat="49.02867" lon="1.14578">
        <ele>60.400002</ele>
        <time>2015-11-29T11:07:53Z</time>
      </trkpt>
      <trkpt lat="49.02864" lon="1.14564">
        <ele>60.400002</ele>
        <time>2015-11-29T11:07:55Z</time>
      </trkpt>
      <trkpt lat="49.0286" lon="1.1455">
        <ele>60.5</ele>
        <time>2015-11-29T11:07:57Z</time>
      </trkpt>
      <trkpt lat="49.02857" lon="1.14537">
        <ele>60.5</ele>
        <time>2015-11-29T11:07:59Z</time>
      </trkpt>
      <trkpt lat="49.02853" lon="1.14522">
        <ele>60.5</ele>
        <time>2015-11-29T11:08:01Z</time>
      </trkpt>
      <trkpt lat="49.02846" lon="1.1451">
        <ele>60.5</ele>
        <time>2015-11-29T11:08:03Z</time>
      </trkpt>
      <trkpt lat="49.02837" lon="1.14505">
        <ele>60.400002</ele>
        <time>2015-11-29T11:08:05Z</time>
      </trkpt>
      <trkpt lat="49.02827" lon="1.14507">
        <ele>60.400002</ele>
        <time>2015-11-29T11:08:07Z</time>
      </trkpt>
      <trkpt lat="49.02818" lon="1.14514">
        <ele>60.299999</ele>
        <time>2015-11-29T11:08:09Z</time>
      </trkpt>
      <trkpt lat="49.02808" lon="1.14517">
        <ele>60.299999</ele>
        <time>2015-11-29T11:08:11Z</time>
      </trkpt>
      <trkpt lat="49.02797" lon="1.1451">
        <ele>60.200001</ele>
        <time>2015-11-29T11:08:14Z</time>
      </trkpt>
      <trkpt lat="49.02793" lon="1.14494">
        <ele>60.099998</ele>
        <time>2015-11-29T11:08:17Z</time>
      </trkpt>
      <trkpt lat="49.02789" lon="1.14479">
        <ele>60.099998</ele>
        <time>2015-11-29T11:08:20Z</time>
      </trkpt>
      <trkpt lat="49.02785" lon="1.14464">
        <ele>60.099998</ele>
        <time>2015-11-29T11:08:23Z</time>
      </trkpt>
      <trkpt lat="49.02781" lon="1.14448">
        <ele>60</ele>
        <time>2015-11-29T11:08:27Z</time>
      </trkpt>
      <trkpt lat="49.02779" lon="1.14434">
        <ele>59.599998</ele>
        <time>2015-11-29T11:08:37Z</time>
      </trkpt>
      <trkpt lat="49.02775" lon="1.14422">
        <ele>59.5</ele>
        <time>2015-11-29T11:08:40Z</time>
      </trkpt>
      <trkpt lat="49.0277" lon="1.14405">
        <ele>59.299999</ele>
        <time>2015-11-29T11:08:43Z</time>
      </trkpt>
      <trkpt lat="49.02766" lon="1.14392">
        <ele>59.299999</ele>
        <time>2015-11-29T11:08:45Z</time>
      </trkpt>
      <trkpt lat="49.02762" lon="1.14378">
        <ele>59.299999</ele>
        <time>2015-11-29T11:08:47Z</time>
      </trkpt>
      <trkpt lat="49.02757" lon="1.14365">
        <ele>59.400002</ele>
        <time>2015-11-29T11:08:49Z</time>
      </trkpt>
      <trkpt lat="49.02753" lon="1.14351">
        <ele>59.5</ele>
        <time>2015-11-29T11:08:51Z</time>
      </trkpt>
      <trkpt lat="49.02749" lon="1.14337">
        <ele>59.599998</ele>
        <time>2015-11-29T11:08:53Z</time>
      </trkpt>
      <trkpt lat="49.02745" lon="1.14323">
        <ele>59.700001</ele>
        <time>2015-11-29T11:08:55Z</time>
      </trkpt>
      <trkpt lat="49.0274" lon="1.1431">
        <ele>59.799999</ele>
        <time>2015-11-29T11:08:57Z</time>
      </trkpt>
      <trkpt lat="49.02736" lon="1.14295">
        <ele>59.799999</ele>
        <time>2015-11-29T11:08:59Z</time>
      </trkpt>
      <trkpt lat="49.0273" lon="1.14281">
        <ele>59.900002</ele>
        <time>2015-11-29T11:09:01Z</time>
      </trkpt>
      <trkpt lat="49.02725" lon="1.14266">
        <ele>60</ele>
        <time>2015-11-29T11:09:03Z</time>
      </trkpt>
      <trkpt lat="49.0272" lon="1.14252">
        <ele>60</ele>
        <time>2015-11-29T11:09:05Z</time>
      </trkpt>
      <trkpt lat="49.02716" lon="1.14237">
        <ele>60</ele>
        <time>2015-11-29T11:09:07Z</time>
      </trkpt>
      <trkpt lat="49.02713" lon="1.14221">
        <ele>60.099998</ele>
        <time>2015-11-29T11:09:09Z</time>
      </trkpt>
      <trkpt lat="49.02708" lon="1.14205">
        <ele>60.099998</ele>
        <time>2015-11-29T11:09:11Z</time>
      </trkpt>
      <trkpt lat="49.02705" lon="1.14189">
        <ele>60.200001</ele>
        <time>2015-11-29T11:09:13Z</time>
      </trkpt>
      <trkpt lat="49.02702" lon="1.14175">
        <ele>60.299999</ele>
        <time>2015-11-29T11:09:15Z</time>
      </trkpt>
      <trkpt lat="49.02699" lon="1.1416">
        <ele>60.400002</ele>
        <time>2015-11-29T11:09:17Z</time>
      </trkpt>
      <trkpt lat="49.02695" lon="1.14147">
        <ele>60.5</ele>
        <time>2015-11-29T11:09:19Z</time>
      </trkpt>
      <trkpt lat="49.02688" lon="1.14138">
        <ele>60.5</ele>
        <time>2015-11-29T11:09:21Z</time>
      </trkpt>
      <trkpt lat="49.02679" lon="1.14141">
        <ele>60.5</ele>
        <time>2015-11-29T11:09:23Z</time>
      </trkpt>
      <trkpt lat="49.0267" lon="1.14151">
        <ele>60.400002</ele>
        <time>2015-11-29T11:09:25Z</time>
      </trkpt>
      <trkpt lat="49.02662" lon="1.14164">
        <ele>60.299999</ele>
        <time>2015-11-29T11:09:27Z</time>
      </trkpt>
      <trkpt lat="49.02656" lon="1.14179">
        <ele>60.299999</ele>
        <time>2015-11-29T11:09:29Z</time>
      </trkpt>
      <trkpt lat="49.02651" lon="1.14194">
        <ele>60.200001</ele>
        <time>2015-11-29T11:09:31Z</time>
      </trkpt>
      <trkpt lat="49.02645" lon="1.14209">
        <ele>60.200001</ele>
        <time>2015-11-29T11:09:33Z</time>
      </trkpt>
      <trkpt lat="49.02638" lon="1.14223">
        <ele>60.200001</ele>
        <time>2015-11-29T11:09:35Z</time>
      </trkpt>
      <trkpt lat="49.0263" lon="1.14236">
        <ele>60.099998</ele>
        <time>2015-11-29T11:09:37Z</time>
      </trkpt>
      <trkpt lat="49.0262" lon="1.14248">
        <ele>60.099998</ele>
        <time>2015-11-29T11:09:39Z</time>
      </trkpt>
      <trkpt lat="49.02611" lon="1.1426">
        <ele>60.099998</ele>
        <time>2015-11-29T11:09:41Z</time>
      </trkpt>
      <trkpt lat="49.026" lon="1.1427">
        <ele>60.099998</ele>
        <time>2015-11-29T11:09:43Z</time>
      </trkpt>
      <trkpt lat="49.0259" lon="1.14279">
        <ele>60</ele>
        <time>2015-11-29T11:09:45Z</time>
      </trkpt>
      <trkpt lat="49.02579" lon="1.14287">
        <ele>60</ele>
        <time>2015-11-29T11:09:47Z</time>
      </trkpt>
      <trkpt lat="49.02567" lon="1.14294">
        <ele>60</ele>
        <time>2015-11-29T11:09:49Z</time>
      </trkpt>
      <trkpt lat="49.02556" lon="1.143">
        <ele>60</ele>
        <time>2015-11-29T11:09:51Z</time>
      </trkpt>
      <trkpt lat="49.02544" lon="1.14305">
        <ele>60.099998</ele>
        <time>2015-11-29T11:09:53Z</time>
      </trkpt>
      <trkpt lat="49.02533" lon="1.1431">
        <ele>60.099998</ele>
        <time>2015-11-29T11:09:55Z</time>
      </trkpt>
      <trkpt lat="49.02521" lon="1.14315">
        <ele>60.099998</ele>
        <time>2015-11-29T11:09:57Z</time>
      </trkpt>
      <trkpt lat="49.02509" lon="1.1432">
        <ele>60.099998</ele>
        <time>2015-11-29T11:09:59Z</time>
      </trkpt>
      <trkpt lat="49.02497" lon="1.14325">
        <ele>60.099998</ele>
        <time>2015-11-29T11:10:01Z</time>
      </trkpt>
      <trkpt lat="49.02485" lon="1.1433">
        <ele>60.099998</ele>
        <time>2015-11-29T11:10:03Z</time>
      </trkpt>
      <trkpt lat="49.02473" lon="1.14334">
        <ele>60.099998</ele>
        <time>2015-11-29T11:10:05Z</time>
      </trkpt>
      <trkpt lat="49.02461" lon="1.14337">
        <ele>60.099998</ele>
        <time>2015-11-29T11:10:07Z</time>
      </trkpt>
      <trkpt lat="49.02448" lon="1.14339">
        <ele>60.099998</ele>
        <time>2015-11-29T11:10:09Z</time>
      </trkpt>
      <trkpt lat="49.02436" lon="1.14342">
        <ele>60.200001</ele>
        <time>2015-11-29T11:10:11Z</time>
      </trkpt>
      <trkpt lat="49.02425" lon="1.14349">
        <ele>60.200001</ele>
        <time>2015-11-29T11:10:13Z</time>
      </trkpt>
      <trkpt lat="49.02414" lon="1.14358">
        <ele>60.200001</ele>
        <time>2015-11-29T11:10:15Z</time>
      </trkpt>
      <trkpt lat="49.02403" lon="1.14366">
        <ele>60.200001</ele>
        <time>2015-11-29T11:10:17Z</time>
      </trkpt>
      <trkpt lat="49.02392" lon="1.14372">
        <ele>60.099998</ele>
        <time>2015-11-29T11:10:19Z</time>
      </trkpt>
      <trkpt lat="49.02383" lon="1.14365">
        <ele>60</ele>
        <time>2015-11-29T11:10:21Z</time>
      </trkpt>
      <trkpt lat="49.02376" lon="1.14352">
        <ele>60</ele>
        <time>2015-11-29T11:10:23Z</time>
      </trkpt>
      <trkpt lat="49.02369" lon="1.14338">
        <ele>60</ele>
        <time>2015-11-29T11:10:25Z</time>
      </trkpt>
      <trkpt lat="49.02362" lon="1.14323">
        <ele>59.900002</ele>
        <time>2015-11-29T11:10:27Z</time>
      </trkpt>
      <trkpt lat="49.02356" lon="1.14308">
        <ele>59.900002</ele>
        <time>2015-11-29T11:10:29Z</time>
      </trkpt>
      <trkpt lat="49.02351" lon="1.14292">
        <ele>59.900002</ele>
        <time>2015-11-29T11:10:31Z</time>
      </trkpt>
      <trkpt lat="49.02347" lon="1.14276">
        <ele>59.799999</ele>
        <time>2015-11-29T11:10:33Z</time>
      </trkpt>
      <trkpt lat="49.02343" lon="1.14261">
        <ele>59.799999</ele>
        <time>2015-11-29T11:10:35Z</time>
      </trkpt>
      <trkpt lat="49.02338" lon="1.14244">
        <ele>59.799999</ele>
        <time>2015-11-29T11:10:37Z</time>
      </trkpt>
      <trkpt lat="49.02335" lon="1.14228">
        <ele>59.799999</ele>
        <time>2015-11-29T11:10:39Z</time>
      </trkpt>
      <trkpt lat="49.02331" lon="1.14211">
        <ele>59.799999</ele>
        <time>2015-11-29T11:10:41Z</time>
      </trkpt>
      <trkpt lat="49.02328" lon="1.14194">
        <ele>59.900002</ele>
        <time>2015-11-29T11:10:43Z</time>
      </trkpt>
      <trkpt lat="49.02325" lon="1.14178">
        <ele>60</ele>
        <time>2015-11-29T11:10:45Z</time>
      </trkpt>
      <trkpt lat="49.02323" lon="1.14161">
        <ele>60</ele>
        <time>2015-11-29T11:10:47Z</time>
      </trkpt>
      <trkpt lat="49.02321" lon="1.14144">
        <ele>60</ele>
        <time>2015-11-29T11:10:49Z</time>
      </trkpt>
      <trkpt lat="49.02319" lon="1.14128">
        <ele>60</ele>
        <time>2015-11-29T11:10:51Z</time>
      </trkpt>
      <trkpt lat="49.02316" lon="1.14112">
        <ele>60.099998</ele>
        <time>2015-11-29T11:10:53Z</time>
      </trkpt>
      <trkpt lat="49.02314" lon="1.14097">
        <ele>60.099998</ele>
        <time>2015-11-29T11:10:55Z</time>
      </trkpt>
      <trkpt lat="49.02313" lon="1.14082">
        <ele>60.099998</ele>
        <time>2015-11-29T11:10:57Z</time>
      </trkpt>
      <trkpt lat="49.0231" lon="1.14068">
        <ele>60.099998</ele>
        <time>2015-11-29T11:10:59Z</time>
      </trkpt>
      <trkpt lat="49.02299" lon="1.14062">
        <ele>60.099998</ele>
        <time>2015-11-29T11:11:02Z</time>
      </trkpt>
      <trkpt lat="49.02289" lon="1.14066">
        <ele>60.099998</ele>
        <time>2015-11-29T11:11:05Z</time>
      </trkpt>
      <trkpt lat="49.02278" lon="1.14062">
        <ele>60.099998</ele>
        <time>2015-11-29T11:11:09Z</time>
      </trkpt>
    </trkseg>
  </trk>
</gpx>